<?xml version="1.0" encoding="UTF-8" standalone="no" ?>
<gpx xmlns="http://www.topografix.com/GPX/1/1" xmlns:xsi="http://www.w3.org/2001/XMLSchema-instance" xsi:schemaLocation="http://www.topografix.com/GPX/1/1 http://www.topografix.com/GPX/1/1/gpx.xsd" version="1.1" creator="VisuGPX - https://www.visugpx.com">
  <metadata>
    <name>Montée A Burdignes par Bourg Argental</name>
    <desc><![CDATA[Idée parcours vélo : La montée à Burdignes depuis notre magasin à Annonay
Que vous soyez un passionné de cyclisme sur route à la recherche de dénivelé ou un cyclotouriste en quête de belles traversées naturelles, nous vous proposons aujourd\'hui un itinéraire incontournable : la montée à Burdignes au départ de notre magasin La Petite Reine à Annonay ! 

Un itinéraire privilégié au départ du magasin
Point de départ : Magasin La Petite Reine, 5 Chemin de Chamieux, 07100 ANNONAY 
En vous élançant depuis le magasin à Annonay, et à l’entrée du village de Bourg-Argental, cet itinéraire vous emmène sur des routes sinueuses et paisibles qui serpentent à travers des paysages verdoyants. La montée offre une progression agréable, idéale pour travailler votre rythme ou simplement profiter d\'un panorama exceptionnel au fur et à mesure que vous prenez de la hauteur. 
L\'arrivée au village perché de Burdignes récompense l\'effort avec une vue imprenable sur les reliefs environnants et un cadre calme, parfait pour faire une pause avant de redescendre ou de poursuivre votre parcours. 
]]></desc>
  </metadata>
  <trk>
    <name><![CDATA[Montée A Burdignes par Bourg Argental]]></name>
    <trkseg>
      <trkpt lat="45.23915" lon="4.69139">
        <ele>437.315875</ele>
        <time>2026-09-01T10:16:05.520Z</time>
      </trkpt>
      <trkpt lat="45.23941" lon="4.69139">
        <ele>437.315875</ele>
        <time>2026-09-01T10:16:06.148Z</time>
      </trkpt>
      <trkpt lat="45.23953" lon="4.69135">
        <ele>437.315875</ele>
        <time>2026-09-01T10:16:07.041Z</time>
      </trkpt>
      <trkpt lat="45.23945" lon="4.6913">
        <ele>437.315875</ele>
        <time>2026-09-01T10:16:13.920Z</time>
      </trkpt>
      <trkpt lat="45.23952" lon="4.69122">
        <ele>437.315875</ele>
        <time>2026-09-01T10:16:43.924Z</time>
      </trkpt>
      <trkpt lat="45.23946" lon="4.69111">
        <ele>437.315875</ele>
        <time>2026-09-01T10:16:47.923Z</time>
      </trkpt>
      <trkpt lat="45.23938" lon="4.69103">
        <ele>437.315875</ele>
        <time>2026-09-01T10:16:50.923Z</time>
      </trkpt>
      <trkpt lat="45.23928" lon="4.69096">
        <ele>437.315875</ele>
        <time>2026-09-01T10:16:54.917Z</time>
      </trkpt>
      <trkpt lat="45.23919" lon="4.69092">
        <ele>437.310867</ele>
        <time>2026-09-01T10:16:58.891Z</time>
      </trkpt>
      <trkpt lat="45.23909" lon="4.69086">
        <ele>437.303537</ele>
        <time>2026-09-01T10:17:04.877Z</time>
      </trkpt>
      <trkpt lat="45.23914" lon="4.69073">
        <ele>437.296172</ele>
        <time>2026-09-01T10:17:13.923Z</time>
      </trkpt>
      <trkpt lat="45.23921" lon="4.69065">
        <ele>437.289503</ele>
        <time>2026-09-01T10:17:16.918Z</time>
      </trkpt>
      <trkpt lat="45.23927" lon="4.69052">
        <ele>437.281261</ele>
        <time>2026-09-01T10:17:19.923Z</time>
      </trkpt>
      <trkpt lat="45.2393" lon="4.69037">
        <ele>437.273469</ele>
        <time>2026-09-01T10:17:21.922Z</time>
      </trkpt>
      <trkpt lat="45.2393" lon="4.69024">
        <ele>437.266407</ele>
        <time>2026-09-01T10:17:23.892Z</time>
      </trkpt>
      <trkpt lat="45.23928" lon="4.6901">
        <ele>437.259432</ele>
        <time>2026-09-01T10:17:25.917Z</time>
      </trkpt>
      <trkpt lat="45.23924" lon="4.68999">
        <ele>437.252809</ele>
        <time>2026-09-01T10:17:27.925Z</time>
      </trkpt>
      <trkpt lat="45.23919" lon="4.68986">
        <ele>437.245593</ele>
        <time>2026-09-01T10:17:29.924Z</time>
      </trkpt>
      <trkpt lat="45.23916" lon="4.68973">
        <ele>437.238641</ele>
        <time>2026-09-01T10:17:31.923Z</time>
      </trkpt>
      <trkpt lat="45.23918" lon="4.68956">
        <ele>437.229468</ele>
        <time>2026-09-01T10:17:34.921Z</time>
      </trkpt>
      <trkpt lat="45.2392" lon="4.68943">
        <ele>437.22281</ele>
        <time>2026-09-01T10:17:36.925Z</time>
      </trkpt>
      <trkpt lat="45.23922" lon="4.68925">
        <ele>437.213637</ele>
        <time>2026-09-01T10:17:39.924Z</time>
      </trkpt>
      <trkpt lat="45.23923" lon="4.6891">
        <ele>437.205701</ele>
        <time>2026-09-01T10:17:42.927Z</time>
      </trkpt>
      <trkpt lat="45.23926" lon="4.68894">
        <ele>437.197513</ele>
        <time>2026-09-01T10:17:45.923Z</time>
      </trkpt>
      <trkpt lat="45.23928" lon="4.6888">
        <ele>437.189892</ele>
        <time>2026-09-01T10:17:48.918Z</time>
      </trkpt>
      <trkpt lat="45.23929" lon="4.68867">
        <ele>437.211945</ele>
        <time>2026-09-01T10:17:51.922Z</time>
      </trkpt>
      <trkpt lat="45.2393" lon="4.68853">
        <ele>437.301838</ele>
        <time>2026-09-01T10:17:54.921Z</time>
      </trkpt>
      <trkpt lat="45.23932" lon="4.68839">
        <ele>437.392537</ele>
        <time>2026-09-01T10:17:57.928Z</time>
      </trkpt>
      <trkpt lat="45.23936" lon="4.68824">
        <ele>437.492271</ele>
        <time>2026-09-01T10:18:00.920Z</time>
      </trkpt>
      <trkpt lat="45.23939" lon="4.68808">
        <ele>437.602746</ele>
        <time>2026-09-01T10:18:03.918Z</time>
      </trkpt>
      <trkpt lat="45.23942" lon="4.68791">
        <ele>437.716238</ele>
        <time>2026-09-01T10:18:06.920Z</time>
      </trkpt>
      <trkpt lat="45.23948" lon="4.68773">
        <ele>437.836124</ele>
        <time>2026-09-01T10:18:09.919Z</time>
      </trkpt>
      <trkpt lat="45.2395" lon="4.68761">
        <ele>437.918119</ele>
        <time>2026-09-01T10:18:11.925Z</time>
      </trkpt>
      <trkpt lat="45.23955" lon="4.68744">
        <ele>438.037443</ele>
        <time>2026-09-01T10:18:14.916Z</time>
      </trkpt>
      <trkpt lat="45.23957" lon="4.6873">
        <ele>438.129424</ele>
        <time>2026-09-01T10:18:16.917Z</time>
      </trkpt>
      <trkpt lat="45.2396" lon="4.68716">
        <ele>438.22289</ele>
        <time>2026-09-01T10:18:18.933Z</time>
      </trkpt>
      <trkpt lat="45.23964" lon="4.68701">
        <ele>438.321983</ele>
        <time>2026-09-01T10:18:20.916Z</time>
      </trkpt>
      <trkpt lat="45.23967" lon="4.68687">
        <ele>438.413867</ele>
        <time>2026-09-01T10:18:22.913Z</time>
      </trkpt>
      <trkpt lat="45.2397" lon="4.68673">
        <ele>438.508207</ele>
        <time>2026-09-01T10:18:24.919Z</time>
      </trkpt>
      <trkpt lat="45.23972" lon="4.6866">
        <ele>438.599324</ele>
        <time>2026-09-01T10:18:26.919Z</time>
      </trkpt>
      <trkpt lat="45.23978" lon="4.68645">
        <ele>438.706407</ele>
        <time>2026-09-01T10:18:28.928Z</time>
      </trkpt>
      <trkpt lat="45.2398" lon="4.6863">
        <ele>438.808594</ele>
        <time>2026-09-01T10:18:30.919Z</time>
      </trkpt>
      <trkpt lat="45.23983" lon="4.68613">
        <ele>439.02429</ele>
        <time>2026-09-01T10:18:32.917Z</time>
      </trkpt>
      <trkpt lat="45.23986" lon="4.68593">
        <ele>439.304092</ele>
        <time>2026-09-01T10:18:34.924Z</time>
      </trkpt>
      <trkpt lat="45.23989" lon="4.68578">
        <ele>439.522828</ele>
        <time>2026-09-01T10:18:36.919Z</time>
      </trkpt>
      <trkpt lat="45.23991" lon="4.68563">
        <ele>439.73265</ele>
        <time>2026-09-01T10:18:38.920Z</time>
      </trkpt>
      <trkpt lat="45.23994" lon="4.68545">
        <ele>439.983829</ele>
        <time>2026-09-01T10:18:41.921Z</time>
      </trkpt>
      <trkpt lat="45.23998" lon="4.68528">
        <ele>440.222511</ele>
        <time>2026-09-01T10:18:44.933Z</time>
      </trkpt>
      <trkpt lat="45.24002" lon="4.68516">
        <ele>440.409518</ele>
        <time>2026-09-01T10:18:47.923Z</time>
      </trkpt>
      <trkpt lat="45.24003" lon="4.68502">
        <ele>440.597733</ele>
        <time>2026-09-01T10:19:05.922Z</time>
      </trkpt>
      <trkpt lat="45.24005" lon="4.68488">
        <ele>440.789567</ele>
        <time>2026-09-01T10:19:08.920Z</time>
      </trkpt>
      <trkpt lat="45.24005" lon="4.68471">
        <ele>441.024326</ele>
        <time>2026-09-01T10:19:12.920Z</time>
      </trkpt>
      <trkpt lat="45.24007" lon="4.68458">
        <ele>441.210722</ele>
        <time>2026-09-01T10:19:15.916Z</time>
      </trkpt>
      <trkpt lat="45.24008" lon="4.68441">
        <ele>441.443399</ele>
        <time>2026-09-01T10:19:18.911Z</time>
      </trkpt>
      <trkpt lat="45.2401" lon="4.68428">
        <ele>441.632478</ele>
        <time>2026-09-01T10:19:20.923Z</time>
      </trkpt>
      <trkpt lat="45.24012" lon="4.68414">
        <ele>441.816156</ele>
        <time>2026-09-01T10:19:22.923Z</time>
      </trkpt>
      <trkpt lat="45.24013" lon="4.68402">
        <ele>441.993241</ele>
        <time>2026-09-01T10:19:24.917Z</time>
      </trkpt>
      <trkpt lat="45.24018" lon="4.68385">
        <ele>442.240161</ele>
        <time>2026-09-01T10:19:27.925Z</time>
      </trkpt>
      <trkpt lat="45.24019" lon="4.68372">
        <ele>442.160012</ele>
        <time>2026-09-01T10:19:29.923Z</time>
      </trkpt>
      <trkpt lat="45.24023" lon="4.68356">
        <ele>441.81135</ele>
        <time>2026-09-01T10:19:31.919Z</time>
      </trkpt>
      <trkpt lat="45.24026" lon="4.6834">
        <ele>441.451556</ele>
        <time>2026-09-01T10:19:33.926Z</time>
      </trkpt>
      <trkpt lat="45.24028" lon="4.68323">
        <ele>441.077765</ele>
        <time>2026-09-01T10:19:35.922Z</time>
      </trkpt>
      <trkpt lat="45.24032" lon="4.68304">
        <ele>440.652525</ele>
        <time>2026-09-01T10:19:37.916Z</time>
      </trkpt>
      <trkpt lat="45.24035" lon="4.68284">
        <ele>440.208945</ele>
        <time>2026-09-01T10:19:39.925Z</time>
      </trkpt>
      <trkpt lat="45.24042" lon="4.68262">
        <ele>439.703019</ele>
        <time>2026-09-01T10:19:41.918Z</time>
      </trkpt>
      <trkpt lat="45.24047" lon="4.68249">
        <ele>439.364168</ele>
        <time>2026-09-01T10:19:42.921Z</time>
      </trkpt>
      <trkpt lat="45.24049" lon="4.68224">
        <ele>438.831732</ele>
        <time>2026-09-01T10:19:44.916Z</time>
      </trkpt>
      <trkpt lat="45.2405" lon="4.68211">
        <ele>438.553857</ele>
        <time>2026-09-01T10:19:45.920Z</time>
      </trkpt>
      <trkpt lat="45.24051" lon="4.68198">
        <ele>438.273715</ele>
        <time>2026-09-01T10:19:46.923Z</time>
      </trkpt>
      <trkpt lat="45.24051" lon="4.68185">
        <ele>437.989944</ele>
        <time>2026-09-01T10:19:47.918Z</time>
      </trkpt>
      <trkpt lat="45.24052" lon="4.68172">
        <ele>437.707816</ele>
        <time>2026-09-01T10:19:48.921Z</time>
      </trkpt>
      <trkpt lat="45.24055" lon="4.68148">
        <ele>437.18058</ele>
        <time>2026-09-01T10:19:50.920Z</time>
      </trkpt>
      <trkpt lat="45.24056" lon="4.68135">
        <ele>436.904832</ele>
        <time>2026-09-01T10:19:51.919Z</time>
      </trkpt>
      <trkpt lat="45.24058" lon="4.68112">
        <ele>436.659295</ele>
        <time>2026-09-01T10:19:53.918Z</time>
      </trkpt>
      <trkpt lat="45.2406" lon="4.68087">
        <ele>436.438585</ele>
        <time>2026-09-01T10:19:55.925Z</time>
      </trkpt>
      <trkpt lat="45.24062" lon="4.68063">
        <ele>436.231523</ele>
        <time>2026-09-01T10:19:57.917Z</time>
      </trkpt>
      <trkpt lat="45.24062" lon="4.68049">
        <ele>436.111569</ele>
        <time>2026-09-01T10:19:58.917Z</time>
      </trkpt>
      <trkpt lat="45.24062" lon="4.68036">
        <ele>436.000287</ele>
        <time>2026-09-01T10:19:59.923Z</time>
      </trkpt>
      <trkpt lat="45.24063" lon="4.68012">
        <ele>435.792373</ele>
        <time>2026-09-01T10:20:01.923Z</time>
      </trkpt>
      <trkpt lat="45.24062" lon="4.6799">
        <ele>435.594104</ele>
        <time>2026-09-01T10:20:03.929Z</time>
      </trkpt>
      <trkpt lat="45.24061" lon="4.67968">
        <ele>435.402311</ele>
        <time>2026-09-01T10:20:05.930Z</time>
      </trkpt>
      <trkpt lat="45.24061" lon="4.67947">
        <ele>435.22409</ele>
        <time>2026-09-01T10:20:07.917Z</time>
      </trkpt>
      <trkpt lat="45.24064" lon="4.67926">
        <ele>435.034883</ele>
        <time>2026-09-01T10:20:09.924Z</time>
      </trkpt>
      <trkpt lat="45.24068" lon="4.67906">
        <ele>434.859762</ele>
        <time>2026-09-01T10:20:11.925Z</time>
      </trkpt>
      <trkpt lat="45.24075" lon="4.67888">
        <ele>434.678941</ele>
        <time>2026-09-01T10:20:13.923Z</time>
      </trkpt>
      <trkpt lat="45.24082" lon="4.67872">
        <ele>434.404471</ele>
        <time>2026-09-01T10:20:15.925Z</time>
      </trkpt>
      <trkpt lat="45.24088" lon="4.67858">
        <ele>434.09242</ele>
        <time>2026-09-01T10:20:17.889Z</time>
      </trkpt>
      <trkpt lat="45.24093" lon="4.67842">
        <ele>433.784508</ele>
        <time>2026-09-01T10:20:19.917Z</time>
      </trkpt>
      <trkpt lat="45.24097" lon="4.67826">
        <ele>433.474134</ele>
        <time>2026-09-01T10:20:21.916Z</time>
      </trkpt>
      <trkpt lat="45.24101" lon="4.67813">
        <ele>433.205575</ele>
        <time>2026-09-01T10:20:23.919Z</time>
      </trkpt>
      <trkpt lat="45.24108" lon="4.678">
        <ele>432.896682</ele>
        <time>2026-09-01T10:20:26.929Z</time>
      </trkpt>
      <trkpt lat="45.24117" lon="4.67786">
        <ele>432.556323</ele>
        <time>2026-09-01T10:20:29.937Z</time>
      </trkpt>
      <trkpt lat="45.24118" lon="4.67771">
        <ele>432.278723</ele>
        <time>2026-09-01T10:20:31.920Z</time>
      </trkpt>
      <trkpt lat="45.24122" lon="4.67754">
        <ele>431.948486</ele>
        <time>2026-09-01T10:20:33.922Z</time>
      </trkpt>
      <trkpt lat="45.24131" lon="4.67737">
        <ele>431.549217</ele>
        <time>2026-09-01T10:20:35.926Z</time>
      </trkpt>
      <trkpt lat="45.24142" lon="4.67716">
        <ele>431.085231</ele>
        <time>2026-09-01T10:20:37.921Z</time>
      </trkpt>
      <trkpt lat="45.24146" lon="4.67704">
        <ele>430.827745</ele>
        <time>2026-09-01T10:20:38.924Z</time>
      </trkpt>
      <trkpt lat="45.24151" lon="4.67692">
        <ele>430.577543</ele>
        <time>2026-09-01T10:20:39.918Z</time>
      </trkpt>
      <trkpt lat="45.24155" lon="4.6768">
        <ele>430.325684</ele>
        <time>2026-09-01T10:20:40.924Z</time>
      </trkpt>
      <trkpt lat="45.24158" lon="4.67668">
        <ele>430.088749</ele>
        <time>2026-09-01T10:20:41.915Z</time>
      </trkpt>
      <trkpt lat="45.24167" lon="4.6765">
        <ele>429.425373</ele>
        <time>2026-09-01T10:20:43.919Z</time>
      </trkpt>
      <trkpt lat="45.2418" lon="4.67638">
        <ele>428.605932</ele>
        <time>2026-09-01T10:20:45.933Z</time>
      </trkpt>
      <trkpt lat="45.24196" lon="4.67628">
        <ele>427.63441</ele>
        <time>2026-09-01T10:20:47.927Z</time>
      </trkpt>
      <trkpt lat="45.24205" lon="4.67625">
        <ele>427.120284</ele>
        <time>2026-09-01T10:20:48.924Z</time>
      </trkpt>
      <trkpt lat="45.24214" lon="4.67621">
        <ele>426.585342</ele>
        <time>2026-09-01T10:20:49.923Z</time>
      </trkpt>
      <trkpt lat="45.24223" lon="4.67616">
        <ele>426.029382</ele>
        <time>2026-09-01T10:20:50.932Z</time>
      </trkpt>
      <trkpt lat="45.24232" lon="4.67612">
        <ele>425.51536</ele>
        <time>2026-09-01T10:20:51.929Z</time>
      </trkpt>
      <trkpt lat="45.24249" lon="4.67604">
        <ele>424.538869</ele>
        <time>2026-09-01T10:20:53.923Z</time>
      </trkpt>
      <trkpt lat="45.24257" lon="4.676">
        <ele>424.035266</ele>
        <time>2026-09-01T10:20:54.931Z</time>
      </trkpt>
      <trkpt lat="45.24266" lon="4.67594">
        <ele>423.521762</ele>
        <time>2026-09-01T10:20:55.928Z</time>
      </trkpt>
      <trkpt lat="45.24282" lon="4.67585">
        <ele>422.549327</ele>
        <time>2026-09-01T10:20:57.931Z</time>
      </trkpt>
      <trkpt lat="45.24291" lon="4.67581">
        <ele>422.044015</ele>
        <time>2026-09-01T10:20:58.922Z</time>
      </trkpt>
      <trkpt lat="45.243" lon="4.6758">
        <ele>421.515169</ele>
        <time>2026-09-01T10:20:59.927Z</time>
      </trkpt>
      <trkpt lat="45.2431" lon="4.67581">
        <ele>420.986843</ele>
        <time>2026-09-01T10:21:00.924Z</time>
      </trkpt>
      <trkpt lat="45.24319" lon="4.67581">
        <ele>420.459081</ele>
        <time>2026-09-01T10:21:01.916Z</time>
      </trkpt>
      <trkpt lat="45.24337" lon="4.67582">
        <ele>419.631248</ele>
        <time>2026-09-01T10:21:03.916Z</time>
      </trkpt>
      <trkpt lat="45.24353" lon="4.67585">
        <ele>419.043795</ele>
        <time>2026-09-01T10:21:05.888Z</time>
      </trkpt>
      <trkpt lat="45.24363" lon="4.67586">
        <ele>418.687094</ele>
        <time>2026-09-01T10:21:06.923Z</time>
      </trkpt>
      <trkpt lat="45.24381" lon="4.67589">
        <ele>418.043055</ele>
        <time>2026-09-01T10:21:08.921Z</time>
      </trkpt>
      <trkpt lat="45.24399" lon="4.67592">
        <ele>417.423502</ele>
        <time>2026-09-01T10:21:10.924Z</time>
      </trkpt>
      <trkpt lat="45.24412" lon="4.67592">
        <ele>416.942726</ele>
        <time>2026-09-01T10:21:12.920Z</time>
      </trkpt>
      <trkpt lat="45.24422" lon="4.67592">
        <ele>416.586906</ele>
        <time>2026-09-01T10:21:15.924Z</time>
      </trkpt>
      <trkpt lat="45.24434" lon="4.67596">
        <ele>416.161462</ele>
        <time>2026-09-01T10:21:18.921Z</time>
      </trkpt>
      <trkpt lat="45.24443" lon="4.67593">
        <ele>415.821557</ele>
        <time>2026-09-01T10:21:20.936Z</time>
      </trkpt>
      <trkpt lat="45.24455" lon="4.67586">
        <ele>415.359962</ele>
        <time>2026-09-01T10:21:22.931Z</time>
      </trkpt>
      <trkpt lat="45.24466" lon="4.67574">
        <ele>414.880415</ele>
        <time>2026-09-01T10:21:24.927Z</time>
      </trkpt>
      <trkpt lat="45.24472" lon="4.67564">
        <ele>414.555897</ele>
        <time>2026-09-01T10:21:25.928Z</time>
      </trkpt>
      <trkpt lat="45.24481" lon="4.67544">
        <ele>413.949485</ele>
        <time>2026-09-01T10:21:27.906Z</time>
      </trkpt>
      <trkpt lat="45.24489" lon="4.67522">
        <ele>413.552969</ele>
        <time>2026-09-01T10:21:29.924Z</time>
      </trkpt>
      <trkpt lat="45.24495" lon="4.67501">
        <ele>413.645369</ele>
        <time>2026-09-01T10:21:31.933Z</time>
      </trkpt>
      <trkpt lat="45.24502" lon="4.67487">
        <ele>413.718415</ele>
        <time>2026-09-01T10:21:33.921Z</time>
      </trkpt>
      <trkpt lat="45.24512" lon="4.67481">
        <ele>413.778691</ele>
        <time>2026-09-01T10:21:35.921Z</time>
      </trkpt>
      <trkpt lat="45.24524" lon="4.67485">
        <ele>413.854125</ele>
        <time>2026-09-01T10:21:37.911Z</time>
      </trkpt>
      <trkpt lat="45.24536" lon="4.67496">
        <ele>413.936645</ele>
        <time>2026-09-01T10:21:39.928Z</time>
      </trkpt>
      <trkpt lat="45.24548" lon="4.67505">
        <ele>414.017203</ele>
        <time>2026-09-01T10:21:41.927Z</time>
      </trkpt>
      <trkpt lat="45.2456" lon="4.67513">
        <ele>414.094906</ele>
        <time>2026-09-01T10:21:43.924Z</time>
      </trkpt>
      <trkpt lat="45.24571" lon="4.67522">
        <ele>414.171795</ele>
        <time>2026-09-01T10:21:45.931Z</time>
      </trkpt>
      <trkpt lat="45.24582" lon="4.67533">
        <ele>414.253347</ele>
        <time>2026-09-01T10:21:47.928Z</time>
      </trkpt>
      <trkpt lat="45.24594" lon="4.67544">
        <ele>414.336103</ele>
        <time>2026-09-01T10:21:49.921Z</time>
      </trkpt>
      <trkpt lat="45.24606" lon="4.67555">
        <ele>414.420383</ele>
        <time>2026-09-01T10:21:51.920Z</time>
      </trkpt>
      <trkpt lat="45.24618" lon="4.67566">
        <ele>414.504562</ele>
        <time>2026-09-01T10:21:53.924Z</time>
      </trkpt>
      <trkpt lat="45.24629" lon="4.67575">
        <ele>414.58076</ele>
        <time>2026-09-01T10:21:55.929Z</time>
      </trkpt>
      <trkpt lat="45.2464" lon="4.67583">
        <ele>414.455418</ele>
        <time>2026-09-01T10:21:57.934Z</time>
      </trkpt>
      <trkpt lat="45.24652" lon="4.67588">
        <ele>414.33616</ele>
        <time>2026-09-01T10:21:59.924Z</time>
      </trkpt>
      <trkpt lat="45.24662" lon="4.67596">
        <ele>414.219583</ele>
        <time>2026-09-01T10:22:01.928Z</time>
      </trkpt>
      <trkpt lat="45.24671" lon="4.67606">
        <ele>414.101526</ele>
        <time>2026-09-01T10:22:03.928Z</time>
      </trkpt>
      <trkpt lat="45.24681" lon="4.67616">
        <ele>413.979397</ele>
        <time>2026-09-01T10:22:05.920Z</time>
      </trkpt>
      <trkpt lat="45.24691" lon="4.67627">
        <ele>413.855093</ele>
        <time>2026-09-01T10:22:07.923Z</time>
      </trkpt>
      <trkpt lat="45.24699" lon="4.67637">
        <ele>413.747234</ele>
        <time>2026-09-01T10:22:09.900Z</time>
      </trkpt>
      <trkpt lat="45.24707" lon="4.67644">
        <ele>413.648522</ele>
        <time>2026-09-01T10:22:11.925Z</time>
      </trkpt>
      <trkpt lat="45.24717" lon="4.6765">
        <ele>413.539942</ele>
        <time>2026-09-01T10:22:13.925Z</time>
      </trkpt>
      <trkpt lat="45.24726" lon="4.67656">
        <ele>413.438522</ele>
        <time>2026-09-01T10:22:15.924Z</time>
      </trkpt>
      <trkpt lat="45.24737" lon="4.67663">
        <ele>413.312274</ele>
        <time>2026-09-01T10:22:18.936Z</time>
      </trkpt>
      <trkpt lat="45.24745" lon="4.67672">
        <ele>413.207871</ele>
        <time>2026-09-01T10:22:22.926Z</time>
      </trkpt>
      <trkpt lat="45.24755" lon="4.67679">
        <ele>413.101104</ele>
        <time>2026-09-01T10:22:27.934Z</time>
      </trkpt>
      <trkpt lat="45.24762" lon="4.67688">
        <ele>413.005542</ele>
        <time>2026-09-01T10:22:31.930Z</time>
      </trkpt>
      <trkpt lat="45.24769" lon="4.67698">
        <ele>412.901915</ele>
        <time>2026-09-01T10:22:34.924Z</time>
      </trkpt>
      <trkpt lat="45.2478" lon="4.67691">
        <ele>412.787842</ele>
        <time>2026-09-01T10:22:37.924Z</time>
      </trkpt>
      <trkpt lat="45.24788" lon="4.6768">
        <ele>413.526361</ele>
        <time>2026-09-01T10:22:39.927Z</time>
      </trkpt>
      <trkpt lat="45.24797" lon="4.67669">
        <ele>414.542543</ele>
        <time>2026-09-01T10:22:41.926Z</time>
      </trkpt>
      <trkpt lat="45.24806" lon="4.67661">
        <ele>415.468853</ele>
        <time>2026-09-01T10:22:43.935Z</time>
      </trkpt>
      <trkpt lat="45.24814" lon="4.67653">
        <ele>416.346088</ele>
        <time>2026-09-01T10:22:45.928Z</time>
      </trkpt>
      <trkpt lat="45.24823" lon="4.67644">
        <ele>417.264904</ele>
        <time>2026-09-01T10:22:47.935Z</time>
      </trkpt>
      <trkpt lat="45.24831" lon="4.67635">
        <ele>418.150481</ele>
        <time>2026-09-01T10:22:49.928Z</time>
      </trkpt>
      <trkpt lat="45.2484" lon="4.67626">
        <ele>419.11581</ele>
        <time>2026-09-01T10:22:51.921Z</time>
      </trkpt>
      <trkpt lat="45.24849" lon="4.67618">
        <ele>420.062975</ele>
        <time>2026-09-01T10:22:53.931Z</time>
      </trkpt>
      <trkpt lat="45.24858" lon="4.67609">
        <ele>420.971476</ele>
        <time>2026-09-01T10:22:55.921Z</time>
      </trkpt>
      <trkpt lat="45.24866" lon="4.67601">
        <ele>421.847904</ele>
        <time>2026-09-01T10:22:57.923Z</time>
      </trkpt>
      <trkpt lat="45.24874" lon="4.67595">
        <ele>422.656058</ele>
        <time>2026-09-01T10:22:59.931Z</time>
      </trkpt>
      <trkpt lat="45.24885" lon="4.67585">
        <ele>423.768881</ele>
        <time>2026-09-01T10:23:02.925Z</time>
      </trkpt>
      <trkpt lat="45.24895" lon="4.67576">
        <ele>424.783127</ele>
        <time>2026-09-01T10:23:05.931Z</time>
      </trkpt>
      <trkpt lat="45.24903" lon="4.67563">
        <ele>425.873576</ele>
        <time>2026-09-01T10:23:08.928Z</time>
      </trkpt>
      <trkpt lat="45.24907" lon="4.67549">
        <ele>426.760889</ele>
        <time>2026-09-01T10:23:11.929Z</time>
      </trkpt>
      <trkpt lat="45.24911" lon="4.67534">
        <ele>427.745291</ele>
        <time>2026-09-01T10:23:14.922Z</time>
      </trkpt>
      <trkpt lat="45.24917" lon="4.67518">
        <ele>428.448646</ele>
        <time>2026-09-01T10:23:17.924Z</time>
      </trkpt>
      <trkpt lat="45.2492" lon="4.67502">
        <ele>428.658278</ele>
        <time>2026-09-01T10:23:20.929Z</time>
      </trkpt>
      <trkpt lat="45.24922" lon="4.67485">
        <ele>428.862292</ele>
        <time>2026-09-01T10:23:23.918Z</time>
      </trkpt>
      <trkpt lat="45.24925" lon="4.67468">
        <ele>429.08872</ele>
        <time>2026-09-01T10:23:26.923Z</time>
      </trkpt>
      <trkpt lat="45.24928" lon="4.67449">
        <ele>429.322866</ele>
        <time>2026-09-01T10:23:29.913Z</time>
      </trkpt>
      <trkpt lat="45.24929" lon="4.67435">
        <ele>429.495519</ele>
        <time>2026-09-01T10:23:31.921Z</time>
      </trkpt>
      <trkpt lat="45.24929" lon="4.67421">
        <ele>429.669188</ele>
        <time>2026-09-01T10:23:33.932Z</time>
      </trkpt>
      <trkpt lat="45.2493" lon="4.67402">
        <ele>429.906302</ele>
        <time>2026-09-01T10:23:36.928Z</time>
      </trkpt>
      <trkpt lat="45.24932" lon="4.67388">
        <ele>430.071479</ele>
        <time>2026-09-01T10:23:38.910Z</time>
      </trkpt>
      <trkpt lat="45.24935" lon="4.6737">
        <ele>430.302669</ele>
        <time>2026-09-01T10:23:41.929Z</time>
      </trkpt>
      <trkpt lat="45.24939" lon="4.67356">
        <ele>430.492138</ele>
        <time>2026-09-01T10:23:43.920Z</time>
      </trkpt>
      <trkpt lat="45.24941" lon="4.6734">
        <ele>430.686997</ele>
        <time>2026-09-01T10:23:45.925Z</time>
      </trkpt>
      <trkpt lat="45.24944" lon="4.67327">
        <ele>430.861858</ele>
        <time>2026-09-01T10:23:47.925Z</time>
      </trkpt>
      <trkpt lat="45.24945" lon="4.67314">
        <ele>431.023909</ele>
        <time>2026-09-01T10:23:49.935Z</time>
      </trkpt>
      <trkpt lat="45.24947" lon="4.67295">
        <ele>431.249321</ele>
        <time>2026-09-01T10:23:52.922Z</time>
      </trkpt>
      <trkpt lat="45.24948" lon="4.67278">
        <ele>431.461523</ele>
        <time>2026-09-01T10:23:55.926Z</time>
      </trkpt>
      <trkpt lat="45.24951" lon="4.67262">
        <ele>432.324615</ele>
        <time>2026-09-01T10:23:58.924Z</time>
      </trkpt>
      <trkpt lat="45.24951" lon="4.67249">
        <ele>433.080683</ele>
        <time>2026-09-01T10:24:01.927Z</time>
      </trkpt>
      <trkpt lat="45.24953" lon="4.67234">
        <ele>433.919524</ele>
        <time>2026-09-01T10:24:04.920Z</time>
      </trkpt>
      <trkpt lat="45.24956" lon="4.67222">
        <ele>434.664829</ele>
        <time>2026-09-01T10:24:07.920Z</time>
      </trkpt>
      <trkpt lat="45.24958" lon="4.67206">
        <ele>435.599535</ele>
        <time>2026-09-01T10:24:11.929Z</time>
      </trkpt>
      <trkpt lat="45.2496" lon="4.67191">
        <ele>436.521389</ele>
        <time>2026-09-01T10:24:15.927Z</time>
      </trkpt>
      <trkpt lat="45.24964" lon="4.67176">
        <ele>437.425182</ele>
        <time>2026-09-01T10:24:19.921Z</time>
      </trkpt>
      <trkpt lat="45.24967" lon="4.67161">
        <ele>438.321299</ele>
        <time>2026-09-01T10:24:23.926Z</time>
      </trkpt>
      <trkpt lat="45.2497" lon="4.67149">
        <ele>439.087748</ele>
        <time>2026-09-01T10:24:26.931Z</time>
      </trkpt>
      <trkpt lat="45.24973" lon="4.67132">
        <ele>440.088787</ele>
        <time>2026-09-01T10:24:30.928Z</time>
      </trkpt>
      <trkpt lat="45.24977" lon="4.6712">
        <ele>440.859314</ele>
        <time>2026-09-01T10:24:33.928Z</time>
      </trkpt>
      <trkpt lat="45.2498" lon="4.67107">
        <ele>441.668195</ele>
        <time>2026-09-01T10:24:36.930Z</time>
      </trkpt>
      <trkpt lat="45.24984" lon="4.67094">
        <ele>442.481348</ele>
        <time>2026-09-01T10:24:39.925Z</time>
      </trkpt>
      <trkpt lat="45.2499" lon="4.6708">
        <ele>443.441206</ele>
        <time>2026-09-01T10:24:43.919Z</time>
      </trkpt>
      <trkpt lat="45.24995" lon="4.67069">
        <ele>444.214959</ele>
        <time>2026-09-01T10:24:46.918Z</time>
      </trkpt>
      <trkpt lat="45.25001" lon="4.67058">
        <ele>444.983715</ele>
        <time>2026-09-01T10:24:49.920Z</time>
      </trkpt>
      <trkpt lat="45.2501" lon="4.67054">
        <ele>445.778013</ele>
        <time>2026-09-01T10:24:52.925Z</time>
      </trkpt>
      <trkpt lat="45.2502" lon="4.67045">
        <ele>446.459883</ele>
        <time>2026-09-01T10:24:56.922Z</time>
      </trkpt>
      <trkpt lat="45.25028" lon="4.67036">
        <ele>446.705819</ele>
        <time>2026-09-01T10:24:59.922Z</time>
      </trkpt>
      <trkpt lat="45.25034" lon="4.67024">
        <ele>446.970759</ele>
        <time>2026-09-01T10:25:04.922Z</time>
      </trkpt>
      <trkpt lat="45.25038" lon="4.67012">
        <ele>447.193602</ele>
        <time>2026-09-01T10:25:07.921Z</time>
      </trkpt>
      <trkpt lat="45.25045" lon="4.66999">
        <ele>447.48558</ele>
        <time>2026-09-01T10:25:11.923Z</time>
      </trkpt>
      <trkpt lat="45.25053" lon="4.66989">
        <ele>447.755347</ele>
        <time>2026-09-01T10:25:15.926Z</time>
      </trkpt>
      <trkpt lat="45.25061" lon="4.66982">
        <ele>447.988888</ele>
        <time>2026-09-01T10:25:19.920Z</time>
      </trkpt>
      <trkpt lat="45.25072" lon="4.66975">
        <ele>448.280427</ele>
        <time>2026-09-01T10:25:23.937Z</time>
      </trkpt>
      <trkpt lat="45.25082" lon="4.66972">
        <ele>448.52918</ele>
        <time>2026-09-01T10:25:26.919Z</time>
      </trkpt>
      <trkpt lat="45.25091" lon="4.66971">
        <ele>448.765952</ele>
        <time>2026-09-01T10:25:29.925Z</time>
      </trkpt>
      <trkpt lat="45.25101" lon="4.66971">
        <ele>448.997106</ele>
        <time>2026-09-01T10:25:33.918Z</time>
      </trkpt>
      <trkpt lat="45.2511" lon="4.66972">
        <ele>449.234324</ele>
        <time>2026-09-01T10:25:36.897Z</time>
      </trkpt>
      <trkpt lat="45.2512" lon="4.66971">
        <ele>449.471381</ele>
        <time>2026-09-01T10:25:39.919Z</time>
      </trkpt>
      <trkpt lat="45.25129" lon="4.66972">
        <ele>449.695413</ele>
        <time>2026-09-01T10:25:42.924Z</time>
      </trkpt>
      <trkpt lat="45.25138" lon="4.66971">
        <ele>449.939397</ele>
        <time>2026-09-01T10:25:45.925Z</time>
      </trkpt>
      <trkpt lat="45.25148" lon="4.66972">
        <ele>450.176976</ele>
        <time>2026-09-01T10:25:48.880Z</time>
      </trkpt>
      <trkpt lat="45.25159" lon="4.66978">
        <ele>450.459805</ele>
        <time>2026-09-01T10:25:51.927Z</time>
      </trkpt>
      <trkpt lat="45.25171" lon="4.66979">
        <ele>450.775951</ele>
        <time>2026-09-01T10:25:54.928Z</time>
      </trkpt>
      <trkpt lat="45.25183" lon="4.66979">
        <ele>450.963491</ele>
        <time>2026-09-01T10:25:57.925Z</time>
      </trkpt>
      <trkpt lat="45.25196" lon="4.6698">
        <ele>451.166131</ele>
        <time>2026-09-01T10:26:00.921Z</time>
      </trkpt>
      <trkpt lat="45.25205" lon="4.6698">
        <ele>451.304245</ele>
        <time>2026-09-01T10:26:02.932Z</time>
      </trkpt>
      <trkpt lat="45.25216" lon="4.6698">
        <ele>451.473222</ele>
        <time>2026-09-01T10:26:05.925Z</time>
      </trkpt>
      <trkpt lat="45.25226" lon="4.66983">
        <ele>451.622807</ele>
        <time>2026-09-01T10:26:08.886Z</time>
      </trkpt>
      <trkpt lat="45.25238" lon="4.66986">
        <ele>451.813054</ele>
        <time>2026-09-01T10:26:11.928Z</time>
      </trkpt>
      <trkpt lat="45.25247" lon="4.66987">
        <ele>451.95159</ele>
        <time>2026-09-01T10:26:13.924Z</time>
      </trkpt>
      <trkpt lat="45.25256" lon="4.66988">
        <ele>452.094896</ele>
        <time>2026-09-01T10:26:15.933Z</time>
      </trkpt>
      <trkpt lat="45.25266" lon="4.66988">
        <ele>452.236117</ele>
        <time>2026-09-01T10:26:17.927Z</time>
      </trkpt>
      <trkpt lat="45.25275" lon="4.66988">
        <ele>452.377301</ele>
        <time>2026-09-01T10:26:19.924Z</time>
      </trkpt>
      <trkpt lat="45.25287" lon="4.6699">
        <ele>452.566752</ele>
        <time>2026-09-01T10:26:22.919Z</time>
      </trkpt>
      <trkpt lat="45.25299" lon="4.66991">
        <ele>452.751617</ele>
        <time>2026-09-01T10:26:25.922Z</time>
      </trkpt>
      <trkpt lat="45.25311" lon="4.66994">
        <ele>452.941624</ele>
        <time>2026-09-01T10:26:28.925Z</time>
      </trkpt>
      <trkpt lat="45.25323" lon="4.66995">
        <ele>453.127763</ele>
        <time>2026-09-01T10:26:31.921Z</time>
      </trkpt>
      <trkpt lat="45.25336" lon="4.66996">
        <ele>453.315013</ele>
        <time>2026-09-01T10:26:34.920Z</time>
      </trkpt>
      <trkpt lat="45.25348" lon="4.66995">
        <ele>453.503798</ele>
        <time>2026-09-01T10:26:37.925Z</time>
      </trkpt>
      <trkpt lat="45.2536" lon="4.66996">
        <ele>453.828304</ele>
        <time>2026-09-01T10:26:40.933Z</time>
      </trkpt>
      <trkpt lat="45.2537" lon="4.66997">
        <ele>454.153239</ele>
        <time>2026-09-01T10:26:43.922Z</time>
      </trkpt>
      <trkpt lat="45.25379" lon="4.66998">
        <ele>454.45581</ele>
        <time>2026-09-01T10:26:46.921Z</time>
      </trkpt>
      <trkpt lat="45.2539" lon="4.66999">
        <ele>454.809328</ele>
        <time>2026-09-01T10:26:50.931Z</time>
      </trkpt>
      <trkpt lat="45.254" lon="4.66999">
        <ele>455.152725</ele>
        <time>2026-09-01T10:26:53.931Z</time>
      </trkpt>
      <trkpt lat="45.25411" lon="4.66997">
        <ele>455.49168</ele>
        <time>2026-09-01T10:26:56.934Z</time>
      </trkpt>
      <trkpt lat="45.2542" lon="4.67">
        <ele>455.805369</ele>
        <time>2026-09-01T10:26:59.926Z</time>
      </trkpt>
      <trkpt lat="45.2543" lon="4.67004">
        <ele>456.128041</ele>
        <time>2026-09-01T10:27:02.929Z</time>
      </trkpt>
      <trkpt lat="45.25439" lon="4.67006">
        <ele>456.422704</ele>
        <time>2026-09-01T10:27:05.921Z</time>
      </trkpt>
      <trkpt lat="45.25448" lon="4.67007">
        <ele>456.73114</ele>
        <time>2026-09-01T10:27:08.927Z</time>
      </trkpt>
      <trkpt lat="45.2546" lon="4.67009">
        <ele>457.105271</ele>
        <time>2026-09-01T10:27:12.928Z</time>
      </trkpt>
      <trkpt lat="45.2547" lon="4.67009">
        <ele>457.438766</ele>
        <time>2026-09-01T10:27:15.921Z</time>
      </trkpt>
      <trkpt lat="45.25479" lon="4.67011">
        <ele>457.740112</ele>
        <time>2026-09-01T10:27:18.919Z</time>
      </trkpt>
      <trkpt lat="45.25489" lon="4.67012">
        <ele>458.051352</ele>
        <time>2026-09-01T10:27:21.928Z</time>
      </trkpt>
      <trkpt lat="45.25499" lon="4.67012">
        <ele>458.365494</ele>
        <time>2026-09-01T10:27:24.920Z</time>
      </trkpt>
      <trkpt lat="45.25509" lon="4.67012">
        <ele>458.695783</ele>
        <time>2026-09-01T10:27:27.924Z</time>
      </trkpt>
      <trkpt lat="45.25521" lon="4.67014">
        <ele>459.09105</ele>
        <time>2026-09-01T10:27:31.924Z</time>
      </trkpt>
      <trkpt lat="45.25531" lon="4.67016">
        <ele>459.454556</ele>
        <time>2026-09-01T10:27:34.924Z</time>
      </trkpt>
      <trkpt lat="45.25541" lon="4.67019">
        <ele>459.975309</ele>
        <time>2026-09-01T10:27:37.920Z</time>
      </trkpt>
      <trkpt lat="45.25551" lon="4.67022">
        <ele>460.566353</ele>
        <time>2026-09-01T10:27:40.925Z</time>
      </trkpt>
      <trkpt lat="45.25561" lon="4.67023">
        <ele>461.077337</ele>
        <time>2026-09-01T10:27:43.925Z</time>
      </trkpt>
      <trkpt lat="45.25573" lon="4.67023">
        <ele>461.711698</ele>
        <time>2026-09-01T10:27:47.925Z</time>
      </trkpt>
      <trkpt lat="45.25582" lon="4.67023">
        <ele>462.238579</ele>
        <time>2026-09-01T10:27:50.925Z</time>
      </trkpt>
      <trkpt lat="45.25594" lon="4.67027">
        <ele>462.87161</ele>
        <time>2026-09-01T10:27:54.924Z</time>
      </trkpt>
      <trkpt lat="45.25605" lon="4.6703">
        <ele>463.477578</ele>
        <time>2026-09-01T10:27:57.919Z</time>
      </trkpt>
      <trkpt lat="45.25615" lon="4.67032">
        <ele>464.004424</ele>
        <time>2026-09-01T10:28:00.929Z</time>
      </trkpt>
      <trkpt lat="45.25625" lon="4.67031">
        <ele>464.543263</ele>
        <time>2026-09-01T10:28:03.924Z</time>
      </trkpt>
      <trkpt lat="45.25633" lon="4.67025">
        <ele>465.06793</ele>
        <time>2026-09-01T10:28:08.928Z</time>
      </trkpt>
      <trkpt lat="45.25643" lon="4.67027">
        <ele>465.605417</ele>
        <time>2026-09-01T10:28:11.925Z</time>
      </trkpt>
      <trkpt lat="45.25655" lon="4.67025">
        <ele>466.219004</ele>
        <time>2026-09-01T10:28:14.921Z</time>
      </trkpt>
      <trkpt lat="45.25666" lon="4.6702">
        <ele>466.831247</ele>
        <time>2026-09-01T10:28:17.917Z</time>
      </trkpt>
      <trkpt lat="45.25679" lon="4.67022">
        <ele>467.548093</ele>
        <time>2026-09-01T10:28:20.922Z</time>
      </trkpt>
      <trkpt lat="45.25689" lon="4.67024">
        <ele>468.101549</ele>
        <time>2026-09-01T10:28:22.925Z</time>
      </trkpt>
      <trkpt lat="45.257" lon="4.67027">
        <ele>468.692593</ele>
        <time>2026-09-01T10:28:24.927Z</time>
      </trkpt>
      <trkpt lat="45.25711" lon="4.67031">
        <ele>469.156157</ele>
        <time>2026-09-01T10:28:26.913Z</time>
      </trkpt>
      <trkpt lat="45.25721" lon="4.67034">
        <ele>469.401104</ele>
        <time>2026-09-01T10:28:28.926Z</time>
      </trkpt>
      <trkpt lat="45.25731" lon="4.67037">
        <ele>469.656394</ele>
        <time>2026-09-01T10:28:30.925Z</time>
      </trkpt>
      <trkpt lat="45.25741" lon="4.67039">
        <ele>469.893678</ele>
        <time>2026-09-01T10:28:32.920Z</time>
      </trkpt>
      <trkpt lat="45.25752" lon="4.67039">
        <ele>470.149831</ele>
        <time>2026-09-01T10:28:34.919Z</time>
      </trkpt>
      <trkpt lat="45.25763" lon="4.67036">
        <ele>470.421745</ele>
        <time>2026-09-01T10:28:36.921Z</time>
      </trkpt>
      <trkpt lat="45.25774" lon="4.67033">
        <ele>470.668667</ele>
        <time>2026-09-01T10:28:38.919Z</time>
      </trkpt>
      <trkpt lat="45.25783" lon="4.67027">
        <ele>470.919696</ele>
        <time>2026-09-01T10:28:40.926Z</time>
      </trkpt>
      <trkpt lat="45.25794" lon="4.67022">
        <ele>471.185564</ele>
        <time>2026-09-01T10:28:42.919Z</time>
      </trkpt>
      <trkpt lat="45.25806" lon="4.67016">
        <ele>471.483958</ele>
        <time>2026-09-01T10:28:44.923Z</time>
      </trkpt>
      <trkpt lat="45.25817" lon="4.6701">
        <ele>471.772148</ele>
        <time>2026-09-01T10:28:46.920Z</time>
      </trkpt>
      <trkpt lat="45.25829" lon="4.67004">
        <ele>472.062562</ele>
        <time>2026-09-01T10:28:48.925Z</time>
      </trkpt>
      <trkpt lat="45.25841" lon="4.66998">
        <ele>472.369218</ele>
        <time>2026-09-01T10:28:50.927Z</time>
      </trkpt>
      <trkpt lat="45.25852" lon="4.66994">
        <ele>472.651113</ele>
        <time>2026-09-01T10:28:52.923Z</time>
      </trkpt>
      <trkpt lat="45.25864" lon="4.66987">
        <ele>472.943566</ele>
        <time>2026-09-01T10:28:54.918Z</time>
      </trkpt>
      <trkpt lat="45.25874" lon="4.66982">
        <ele>473.203551</ele>
        <time>2026-09-01T10:28:56.921Z</time>
      </trkpt>
      <trkpt lat="45.25885" lon="4.66977">
        <ele>473.251489</ele>
        <time>2026-09-01T10:28:58.926Z</time>
      </trkpt>
      <trkpt lat="45.25897" lon="4.66971">
        <ele>473.146907</ele>
        <time>2026-09-01T10:29:00.918Z</time>
      </trkpt>
      <trkpt lat="45.25908" lon="4.66965">
        <ele>473.046447</ele>
        <time>2026-09-01T10:29:02.928Z</time>
      </trkpt>
      <trkpt lat="45.25921" lon="4.66957">
        <ele>472.931681</ele>
        <time>2026-09-01T10:29:04.917Z</time>
      </trkpt>
      <trkpt lat="45.25933" lon="4.66949">
        <ele>472.813528</ele>
        <time>2026-09-01T10:29:06.928Z</time>
      </trkpt>
      <trkpt lat="45.25945" lon="4.6694">
        <ele>472.701109</ele>
        <time>2026-09-01T10:29:08.920Z</time>
      </trkpt>
      <trkpt lat="45.25956" lon="4.66931">
        <ele>472.598565</ele>
        <time>2026-09-01T10:29:10.915Z</time>
      </trkpt>
      <trkpt lat="45.25967" lon="4.66922">
        <ele>472.491871</ele>
        <time>2026-09-01T10:29:12.926Z</time>
      </trkpt>
      <trkpt lat="45.25979" lon="4.66913">
        <ele>472.381159</ele>
        <time>2026-09-01T10:29:14.921Z</time>
      </trkpt>
      <trkpt lat="45.2599" lon="4.66903">
        <ele>472.270462</ele>
        <time>2026-09-01T10:29:16.921Z</time>
      </trkpt>
      <trkpt lat="45.26001" lon="4.66894">
        <ele>472.165982</ele>
        <time>2026-09-01T10:29:18.924Z</time>
      </trkpt>
      <trkpt lat="45.26011" lon="4.66885">
        <ele>472.06599</ele>
        <time>2026-09-01T10:29:20.927Z</time>
      </trkpt>
      <trkpt lat="45.2602" lon="4.66876">
        <ele>471.970405</ele>
        <time>2026-09-01T10:29:22.922Z</time>
      </trkpt>
      <trkpt lat="45.26032" lon="4.66867">
        <ele>471.862233</ele>
        <time>2026-09-01T10:29:24.919Z</time>
      </trkpt>
      <trkpt lat="45.26043" lon="4.6686">
        <ele>471.887793</ele>
        <time>2026-09-01T10:29:26.928Z</time>
      </trkpt>
      <trkpt lat="45.26053" lon="4.6685">
        <ele>472.042062</ele>
        <time>2026-09-01T10:29:28.918Z</time>
      </trkpt>
      <trkpt lat="45.26063" lon="4.6684">
        <ele>472.19943</ele>
        <time>2026-09-01T10:29:30.923Z</time>
      </trkpt>
      <trkpt lat="45.26072" lon="4.66831">
        <ele>472.348071</ele>
        <time>2026-09-01T10:29:32.929Z</time>
      </trkpt>
      <trkpt lat="45.26081" lon="4.66823">
        <ele>472.48557</ele>
        <time>2026-09-01T10:29:34.927Z</time>
      </trkpt>
      <trkpt lat="45.26092" lon="4.66818">
        <ele>472.631241</ele>
        <time>2026-09-01T10:29:36.937Z</time>
      </trkpt>
      <trkpt lat="45.26103" lon="4.66812">
        <ele>472.783017</ele>
        <time>2026-09-01T10:29:38.924Z</time>
      </trkpt>
      <trkpt lat="45.26112" lon="4.668">
        <ele>472.945289</ele>
        <time>2026-09-01T10:29:40.928Z</time>
      </trkpt>
      <trkpt lat="45.2612" lon="4.66789">
        <ele>473.092069</ele>
        <time>2026-09-01T10:29:42.922Z</time>
      </trkpt>
      <trkpt lat="45.2613" lon="4.66782">
        <ele>473.236269</ele>
        <time>2026-09-01T10:29:44.925Z</time>
      </trkpt>
      <trkpt lat="45.26143" lon="4.66777">
        <ele>473.412663</ele>
        <time>2026-09-01T10:29:46.923Z</time>
      </trkpt>
      <trkpt lat="45.26157" lon="4.66774">
        <ele>473.593055</ele>
        <time>2026-09-01T10:29:48.924Z</time>
      </trkpt>
      <trkpt lat="45.26171" lon="4.66772">
        <ele>473.776395</ele>
        <time>2026-09-01T10:29:50.921Z</time>
      </trkpt>
      <trkpt lat="45.26184" lon="4.6677">
        <ele>473.957838</ele>
        <time>2026-09-01T10:29:52.928Z</time>
      </trkpt>
      <trkpt lat="45.26197" lon="4.66769">
        <ele>474.127638</ele>
        <time>2026-09-01T10:29:54.919Z</time>
      </trkpt>
      <trkpt lat="45.26211" lon="4.66769">
        <ele>474.306557</ele>
        <time>2026-09-01T10:29:56.931Z</time>
      </trkpt>
      <trkpt lat="45.26226" lon="4.66768">
        <ele>474.496084</ele>
        <time>2026-09-01T10:29:58.928Z</time>
      </trkpt>
      <trkpt lat="45.26238" lon="4.66769">
        <ele>474.659342</ele>
        <time>2026-09-01T10:30:00.937Z</time>
      </trkpt>
      <trkpt lat="45.26251" lon="4.66767">
        <ele>474.832751</ele>
        <time>2026-09-01T10:30:02.925Z</time>
      </trkpt>
      <trkpt lat="45.26264" lon="4.66762">
        <ele>475.001102</ele>
        <time>2026-09-01T10:30:04.923Z</time>
      </trkpt>
      <trkpt lat="45.26276" lon="4.66755">
        <ele>475.173005</ele>
        <time>2026-09-01T10:30:06.925Z</time>
      </trkpt>
      <trkpt lat="45.26287" lon="4.66745">
        <ele>475.33788</ele>
        <time>2026-09-01T10:30:08.922Z</time>
      </trkpt>
      <trkpt lat="45.26298" lon="4.66734">
        <ele>475.51935</ele>
        <time>2026-09-01T10:30:10.923Z</time>
      </trkpt>
      <trkpt lat="45.26308" lon="4.66722">
        <ele>475.692436</ele>
        <time>2026-09-01T10:30:12.924Z</time>
      </trkpt>
      <trkpt lat="45.2632" lon="4.6671">
        <ele>475.884664</ele>
        <time>2026-09-01T10:30:14.917Z</time>
      </trkpt>
      <trkpt lat="45.26331" lon="4.66696">
        <ele>476.075653</ele>
        <time>2026-09-01T10:30:16.919Z</time>
      </trkpt>
      <trkpt lat="45.26342" lon="4.66681">
        <ele>476.267971</ele>
        <time>2026-09-01T10:30:18.920Z</time>
      </trkpt>
      <trkpt lat="45.26352" lon="4.66666">
        <ele>476.460536</ele>
        <time>2026-09-01T10:30:20.916Z</time>
      </trkpt>
      <trkpt lat="45.26362" lon="4.66654">
        <ele>476.687238</ele>
        <time>2026-09-01T10:30:22.918Z</time>
      </trkpt>
      <trkpt lat="45.26373" lon="4.66641">
        <ele>476.932691</ele>
        <time>2026-09-01T10:30:24.919Z</time>
      </trkpt>
      <trkpt lat="45.26385" lon="4.66628">
        <ele>477.198438</ele>
        <time>2026-09-01T10:30:26.913Z</time>
      </trkpt>
      <trkpt lat="45.26396" lon="4.66613">
        <ele>477.474978</ele>
        <time>2026-09-01T10:30:28.923Z</time>
      </trkpt>
      <trkpt lat="45.26407" lon="4.666">
        <ele>477.728232</ele>
        <time>2026-09-01T10:30:30.918Z</time>
      </trkpt>
      <trkpt lat="45.2642" lon="4.66591">
        <ele>477.978866</ele>
        <time>2026-09-01T10:30:32.920Z</time>
      </trkpt>
      <trkpt lat="45.26432" lon="4.66579">
        <ele>478.235902</ele>
        <time>2026-09-01T10:30:34.932Z</time>
      </trkpt>
      <trkpt lat="45.26443" lon="4.66565">
        <ele>478.492602</ele>
        <time>2026-09-01T10:30:36.910Z</time>
      </trkpt>
      <trkpt lat="45.26454" lon="4.66548">
        <ele>478.788383</ele>
        <time>2026-09-01T10:30:38.924Z</time>
      </trkpt>
      <trkpt lat="45.26464" lon="4.66528">
        <ele>479.083154</ele>
        <time>2026-09-01T10:30:40.918Z</time>
      </trkpt>
      <trkpt lat="45.26468" lon="4.66506">
        <ele>479.36649</ele>
        <time>2026-09-01T10:30:42.941Z</time>
      </trkpt>
      <trkpt lat="45.2647" lon="4.66484">
        <ele>479.643449</ele>
        <time>2026-09-01T10:30:44.920Z</time>
      </trkpt>
      <trkpt lat="45.2647" lon="4.66463">
        <ele>479.186778</ele>
        <time>2026-09-01T10:30:46.922Z</time>
      </trkpt>
      <trkpt lat="45.26472" lon="4.66438">
        <ele>478.538081</ele>
        <time>2026-09-01T10:30:48.917Z</time>
      </trkpt>
      <trkpt lat="45.26471" lon="4.66416">
        <ele>477.948768</ele>
        <time>2026-09-01T10:30:50.921Z</time>
      </trkpt>
      <trkpt lat="45.26471" lon="4.66393">
        <ele>477.350584</ele>
        <time>2026-09-01T10:30:52.920Z</time>
      </trkpt>
      <trkpt lat="45.26471" lon="4.66369">
        <ele>476.710243</ele>
        <time>2026-09-01T10:30:54.915Z</time>
      </trkpt>
      <trkpt lat="45.2647" lon="4.66344">
        <ele>476.038065</ele>
        <time>2026-09-01T10:30:56.917Z</time>
      </trkpt>
      <trkpt lat="45.26473" lon="4.66321">
        <ele>475.427561</ele>
        <time>2026-09-01T10:30:58.917Z</time>
      </trkpt>
      <trkpt lat="45.26477" lon="4.66299">
        <ele>474.830439</ele>
        <time>2026-09-01T10:31:00.921Z</time>
      </trkpt>
      <trkpt lat="45.26486" lon="4.66279">
        <ele>474.225099</ele>
        <time>2026-09-01T10:31:02.927Z</time>
      </trkpt>
      <trkpt lat="45.26495" lon="4.66262">
        <ele>473.668785</ele>
        <time>2026-09-01T10:31:04.926Z</time>
      </trkpt>
      <trkpt lat="45.26506" lon="4.66246">
        <ele>473.06805</ele>
        <time>2026-09-01T10:31:06.879Z</time>
      </trkpt>
      <trkpt lat="45.26518" lon="4.66229">
        <ele>472.714289</ele>
        <time>2026-09-01T10:31:08.920Z</time>
      </trkpt>
      <trkpt lat="45.26527" lon="4.66212">
        <ele>472.453533</ele>
        <time>2026-09-01T10:31:10.925Z</time>
      </trkpt>
      <trkpt lat="45.26537" lon="4.66196">
        <ele>472.199849</ele>
        <time>2026-09-01T10:31:12.917Z</time>
      </trkpt>
      <trkpt lat="45.26547" lon="4.66179">
        <ele>471.931351</ele>
        <time>2026-09-01T10:31:14.928Z</time>
      </trkpt>
      <trkpt lat="45.26558" lon="4.66163">
        <ele>471.659032</ele>
        <time>2026-09-01T10:31:16.924Z</time>
      </trkpt>
      <trkpt lat="45.26569" lon="4.66147">
        <ele>471.395773</ele>
        <time>2026-09-01T10:31:18.926Z</time>
      </trkpt>
      <trkpt lat="45.26579" lon="4.66131">
        <ele>471.136579</ele>
        <time>2026-09-01T10:31:20.919Z</time>
      </trkpt>
      <trkpt lat="45.2659" lon="4.66112">
        <ele>470.841928</ele>
        <time>2026-09-01T10:31:22.927Z</time>
      </trkpt>
      <trkpt lat="45.26602" lon="4.66093">
        <ele>470.535783</ele>
        <time>2026-09-01T10:31:24.920Z</time>
      </trkpt>
      <trkpt lat="45.26607" lon="4.66082">
        <ele>470.378632</ele>
        <time>2026-09-01T10:31:25.937Z</time>
      </trkpt>
      <trkpt lat="45.26617" lon="4.66064">
        <ele>470.094667</ele>
        <time>2026-09-01T10:31:27.920Z</time>
      </trkpt>
      <trkpt lat="45.2663" lon="4.66048">
        <ele>469.921743</ele>
        <time>2026-09-01T10:31:29.922Z</time>
      </trkpt>
      <trkpt lat="45.26643" lon="4.66033">
        <ele>470.103746</ele>
        <time>2026-09-01T10:31:31.924Z</time>
      </trkpt>
      <trkpt lat="45.26654" lon="4.66018">
        <ele>470.272329</ele>
        <time>2026-09-01T10:31:33.920Z</time>
      </trkpt>
      <trkpt lat="45.26666" lon="4.66003">
        <ele>470.445056</ele>
        <time>2026-09-01T10:31:35.904Z</time>
      </trkpt>
      <trkpt lat="45.26675" lon="4.65987">
        <ele>470.610783</ele>
        <time>2026-09-01T10:31:37.925Z</time>
      </trkpt>
      <trkpt lat="45.26682" lon="4.65967">
        <ele>470.781834</ele>
        <time>2026-09-01T10:31:39.925Z</time>
      </trkpt>
      <trkpt lat="45.26685" lon="4.65945">
        <ele>470.951691</ele>
        <time>2026-09-01T10:31:41.922Z</time>
      </trkpt>
      <trkpt lat="45.26686" lon="4.65922">
        <ele>471.134264</ele>
        <time>2026-09-01T10:31:43.923Z</time>
      </trkpt>
      <trkpt lat="45.26683" lon="4.659">
        <ele>471.30575</ele>
        <time>2026-09-01T10:31:45.921Z</time>
      </trkpt>
      <trkpt lat="45.26678" lon="4.65879">
        <ele>471.48043</ele>
        <time>2026-09-01T10:31:47.935Z</time>
      </trkpt>
      <trkpt lat="45.26673" lon="4.65858">
        <ele>471.654014</ele>
        <time>2026-09-01T10:31:49.925Z</time>
      </trkpt>
      <trkpt lat="45.26667" lon="4.65836">
        <ele>471.83711</ele>
        <time>2026-09-01T10:31:51.927Z</time>
      </trkpt>
      <trkpt lat="45.26661" lon="4.65812">
        <ele>471.726475</ele>
        <time>2026-09-01T10:31:53.923Z</time>
      </trkpt>
      <trkpt lat="45.26656" lon="4.65789">
        <ele>471.578209</ele>
        <time>2026-09-01T10:31:55.922Z</time>
      </trkpt>
      <trkpt lat="45.26654" lon="4.65763">
        <ele>471.422716</ele>
        <time>2026-09-01T10:31:57.927Z</time>
      </trkpt>
      <trkpt lat="45.26652" lon="4.65737">
        <ele>471.261188</ele>
        <time>2026-09-01T10:31:59.926Z</time>
      </trkpt>
      <trkpt lat="45.26652" lon="4.65724">
        <ele>471.180497</ele>
        <time>2026-09-01T10:32:00.927Z</time>
      </trkpt>
      <trkpt lat="45.26651" lon="4.6571">
        <ele>471.098617</ele>
        <time>2026-09-01T10:32:01.927Z</time>
      </trkpt>
      <trkpt lat="45.26652" lon="4.65697">
        <ele>471.016641</ele>
        <time>2026-09-01T10:32:02.925Z</time>
      </trkpt>
      <trkpt lat="45.26654" lon="4.65671">
        <ele>470.859651</ele>
        <time>2026-09-01T10:32:04.934Z</time>
      </trkpt>
      <trkpt lat="45.26655" lon="4.65656">
        <ele>470.770914</ele>
        <time>2026-09-01T10:32:05.885Z</time>
      </trkpt>
      <trkpt lat="45.26657" lon="4.65642">
        <ele>470.683421</ele>
        <time>2026-09-01T10:32:06.930Z</time>
      </trkpt>
      <trkpt lat="45.26659" lon="4.65628">
        <ele>470.595837</ele>
        <time>2026-09-01T10:32:07.920Z</time>
      </trkpt>
      <trkpt lat="45.26662" lon="4.65615">
        <ele>470.510606</ele>
        <time>2026-09-01T10:32:08.929Z</time>
      </trkpt>
      <trkpt lat="45.26666" lon="4.65602">
        <ele>470.430218</ele>
        <time>2026-09-01T10:32:09.925Z</time>
      </trkpt>
      <trkpt lat="45.26669" lon="4.6559">
        <ele>470.351836</ele>
        <time>2026-09-01T10:32:10.933Z</time>
      </trkpt>
      <trkpt lat="45.26672" lon="4.65577">
        <ele>470.150364</ele>
        <time>2026-09-01T10:32:11.924Z</time>
      </trkpt>
      <trkpt lat="45.26676" lon="4.65565">
        <ele>469.850561</ele>
        <time>2026-09-01T10:32:12.919Z</time>
      </trkpt>
      <trkpt lat="45.2668" lon="4.65553">
        <ele>469.563757</ele>
        <time>2026-09-01T10:32:13.925Z</time>
      </trkpt>
      <trkpt lat="45.26683" lon="4.65539">
        <ele>469.249597</ele>
        <time>2026-09-01T10:32:14.928Z</time>
      </trkpt>
      <trkpt lat="45.26688" lon="4.65528">
        <ele>468.95932</ele>
        <time>2026-09-01T10:32:15.924Z</time>
      </trkpt>
      <trkpt lat="45.26692" lon="4.65516">
        <ele>468.677308</ele>
        <time>2026-09-01T10:32:16.928Z</time>
      </trkpt>
      <trkpt lat="45.26697" lon="4.65504">
        <ele>468.351742</ele>
        <time>2026-09-01T10:32:17.925Z</time>
      </trkpt>
      <trkpt lat="45.26702" lon="4.6549">
        <ele>468.026668</ele>
        <time>2026-09-01T10:32:18.918Z</time>
      </trkpt>
      <trkpt lat="45.26707" lon="4.65478">
        <ele>467.711863</ele>
        <time>2026-09-01T10:32:19.921Z</time>
      </trkpt>
      <trkpt lat="45.26711" lon="4.65466">
        <ele>467.416222</ele>
        <time>2026-09-01T10:32:20.916Z</time>
      </trkpt>
      <trkpt lat="45.26716" lon="4.65454">
        <ele>467.112172</ele>
        <time>2026-09-01T10:32:21.924Z</time>
      </trkpt>
      <trkpt lat="45.26721" lon="4.65442">
        <ele>466.813499</ele>
        <time>2026-09-01T10:32:22.918Z</time>
      </trkpt>
      <trkpt lat="45.26729" lon="4.6542">
        <ele>466.246473</ele>
        <time>2026-09-01T10:32:24.925Z</time>
      </trkpt>
      <trkpt lat="45.26735" lon="4.65409">
        <ele>465.950502</ele>
        <time>2026-09-01T10:32:25.925Z</time>
      </trkpt>
      <trkpt lat="45.26742" lon="4.654">
        <ele>465.644466</ele>
        <time>2026-09-01T10:32:26.901Z</time>
      </trkpt>
      <trkpt lat="45.26749" lon="4.6539">
        <ele>465.356934</ele>
        <time>2026-09-01T10:32:27.927Z</time>
      </trkpt>
      <trkpt lat="45.26756" lon="4.65381">
        <ele>465.06585</ele>
        <time>2026-09-01T10:32:28.927Z</time>
      </trkpt>
      <trkpt lat="45.26771" lon="4.65366">
        <ele>464.636545</ele>
        <time>2026-09-01T10:32:30.913Z</time>
      </trkpt>
      <trkpt lat="45.2678" lon="4.65358">
        <ele>464.567391</ele>
        <time>2026-09-01T10:32:31.922Z</time>
      </trkpt>
      <trkpt lat="45.26788" lon="4.6535">
        <ele>464.503925</ele>
        <time>2026-09-01T10:32:32.920Z</time>
      </trkpt>
      <trkpt lat="45.26796" lon="4.65343">
        <ele>464.439943</ele>
        <time>2026-09-01T10:32:33.926Z</time>
      </trkpt>
      <trkpt lat="45.26812" lon="4.6533">
        <ele>464.318789</ele>
        <time>2026-09-01T10:32:35.925Z</time>
      </trkpt>
      <trkpt lat="45.26827" lon="4.65321">
        <ele>464.206232</ele>
        <time>2026-09-01T10:32:37.920Z</time>
      </trkpt>
      <trkpt lat="45.26844" lon="4.65312">
        <ele>464.088918</ele>
        <time>2026-09-01T10:32:39.923Z</time>
      </trkpt>
      <trkpt lat="45.26853" lon="4.65308">
        <ele>464.026223</ele>
        <time>2026-09-01T10:32:40.925Z</time>
      </trkpt>
      <trkpt lat="45.2687" lon="4.65302">
        <ele>463.910408</ele>
        <time>2026-09-01T10:32:42.924Z</time>
      </trkpt>
      <trkpt lat="45.26879" lon="4.65297">
        <ele>463.847221</ele>
        <time>2026-09-01T10:32:43.927Z</time>
      </trkpt>
      <trkpt lat="45.26887" lon="4.65293">
        <ele>463.786581</ele>
        <time>2026-09-01T10:32:44.947Z</time>
      </trkpt>
      <trkpt lat="45.26896" lon="4.65286">
        <ele>463.72123</ele>
        <time>2026-09-01T10:32:45.924Z</time>
      </trkpt>
      <trkpt lat="45.26903" lon="4.65278">
        <ele>463.659711</ele>
        <time>2026-09-01T10:32:46.923Z</time>
      </trkpt>
      <trkpt lat="45.26918" lon="4.65263">
        <ele>463.5364</ele>
        <time>2026-09-01T10:32:48.921Z</time>
      </trkpt>
      <trkpt lat="45.2693" lon="4.65244">
        <ele>463.479147</ele>
        <time>2026-09-01T10:32:50.924Z</time>
      </trkpt>
      <trkpt lat="45.26939" lon="4.65223">
        <ele>463.468761</ele>
        <time>2026-09-01T10:32:52.890Z</time>
      </trkpt>
      <trkpt lat="45.26946" lon="4.652">
        <ele>463.458792</ele>
        <time>2026-09-01T10:32:54.900Z</time>
      </trkpt>
      <trkpt lat="45.26949" lon="4.65175">
        <ele>463.448221</ele>
        <time>2026-09-01T10:32:56.925Z</time>
      </trkpt>
      <trkpt lat="45.26949" lon="4.65162">
        <ele>463.44277</ele>
        <time>2026-09-01T10:32:57.917Z</time>
      </trkpt>
      <trkpt lat="45.26948" lon="4.65137">
        <ele>463.43263</ele>
        <time>2026-09-01T10:32:59.921Z</time>
      </trkpt>
      <trkpt lat="45.26946" lon="4.65113">
        <ele>463.422356</ele>
        <time>2026-09-01T10:33:01.920Z</time>
      </trkpt>
      <trkpt lat="45.26945" lon="4.651">
        <ele>463.41697</ele>
        <time>2026-09-01T10:33:02.923Z</time>
      </trkpt>
      <trkpt lat="45.26945" lon="4.65077">
        <ele>463.407477</ele>
        <time>2026-09-01T10:33:04.930Z</time>
      </trkpt>
      <trkpt lat="45.26945" lon="4.65053">
        <ele>463.397778</ele>
        <time>2026-09-01T10:33:06.924Z</time>
      </trkpt>
      <trkpt lat="45.26947" lon="4.6503">
        <ele>463.388315</ele>
        <time>2026-09-01T10:33:08.922Z</time>
      </trkpt>
      <trkpt lat="45.26951" lon="4.6501">
        <ele>463.379773</ele>
        <time>2026-09-01T10:33:10.917Z</time>
      </trkpt>
      <trkpt lat="45.2696" lon="4.64992">
        <ele>463.970689</ele>
        <time>2026-09-01T10:33:12.915Z</time>
      </trkpt>
      <trkpt lat="45.26971" lon="4.64975">
        <ele>464.632585</ele>
        <time>2026-09-01T10:33:14.929Z</time>
      </trkpt>
      <trkpt lat="45.26986" lon="4.64962">
        <ele>465.352598</ele>
        <time>2026-09-01T10:33:16.916Z</time>
      </trkpt>
      <trkpt lat="45.26999" lon="4.64949">
        <ele>465.975171</ele>
        <time>2026-09-01T10:33:18.935Z</time>
      </trkpt>
      <trkpt lat="45.27008" lon="4.64937">
        <ele>466.473056</ele>
        <time>2026-09-01T10:33:20.918Z</time>
      </trkpt>
      <trkpt lat="45.27018" lon="4.64927">
        <ele>466.956749</ele>
        <time>2026-09-01T10:33:22.926Z</time>
      </trkpt>
      <trkpt lat="45.27029" lon="4.6492">
        <ele>467.446458</ele>
        <time>2026-09-01T10:33:24.902Z</time>
      </trkpt>
      <trkpt lat="45.2704" lon="4.64918">
        <ele>467.88699</ele>
        <time>2026-09-01T10:33:26.916Z</time>
      </trkpt>
      <trkpt lat="45.27049" lon="4.64921">
        <ele>468.259046</ele>
        <time>2026-09-01T10:33:28.916Z</time>
      </trkpt>
      <trkpt lat="45.2706" lon="4.64923">
        <ele>468.723106</ele>
        <time>2026-09-01T10:33:30.916Z</time>
      </trkpt>
      <trkpt lat="45.27073" lon="4.64921">
        <ele>469.225926</ele>
        <time>2026-09-01T10:33:32.916Z</time>
      </trkpt>
      <trkpt lat="45.27085" lon="4.64923">
        <ele>469.716766</ele>
        <time>2026-09-01T10:33:34.919Z</time>
      </trkpt>
      <trkpt lat="45.27098" lon="4.64924">
        <ele>470.230324</ele>
        <time>2026-09-01T10:33:36.922Z</time>
      </trkpt>
      <trkpt lat="45.2711" lon="4.64924">
        <ele>470.426556</ele>
        <time>2026-09-01T10:33:38.928Z</time>
      </trkpt>
      <trkpt lat="45.27123" lon="4.64925">
        <ele>469.845256</ele>
        <time>2026-09-01T10:33:40.933Z</time>
      </trkpt>
      <trkpt lat="45.27136" lon="4.64927">
        <ele>469.26055</ele>
        <time>2026-09-01T10:33:42.920Z</time>
      </trkpt>
      <trkpt lat="45.27148" lon="4.64929">
        <ele>468.685302</ele>
        <time>2026-09-01T10:33:44.905Z</time>
      </trkpt>
      <trkpt lat="45.27161" lon="4.64931">
        <ele>468.097773</ele>
        <time>2026-09-01T10:33:46.922Z</time>
      </trkpt>
      <trkpt lat="45.27173" lon="4.64931">
        <ele>467.558025</ele>
        <time>2026-09-01T10:33:48.924Z</time>
      </trkpt>
      <trkpt lat="45.27184" lon="4.64933">
        <ele>467.033821</ele>
        <time>2026-09-01T10:33:50.919Z</time>
      </trkpt>
      <trkpt lat="45.27195" lon="4.64936">
        <ele>466.555152</ele>
        <time>2026-09-01T10:33:52.924Z</time>
      </trkpt>
      <trkpt lat="45.27206" lon="4.64939">
        <ele>466.025905</ele>
        <time>2026-09-01T10:33:54.922Z</time>
      </trkpt>
      <trkpt lat="45.27217" lon="4.64944">
        <ele>465.489381</ele>
        <time>2026-09-01T10:33:56.917Z</time>
      </trkpt>
      <trkpt lat="45.27228" lon="4.64949">
        <ele>464.961571</ele>
        <time>2026-09-01T10:33:58.920Z</time>
      </trkpt>
      <trkpt lat="45.27239" lon="4.64955">
        <ele>464.41357</ele>
        <time>2026-09-01T10:34:00.921Z</time>
      </trkpt>
      <trkpt lat="45.2725" lon="4.64961">
        <ele>463.885471</ele>
        <time>2026-09-01T10:34:02.921Z</time>
      </trkpt>
      <trkpt lat="45.27261" lon="4.64966">
        <ele>463.344586</ele>
        <time>2026-09-01T10:34:04.920Z</time>
      </trkpt>
      <trkpt lat="45.27272" lon="4.64971">
        <ele>462.823067</ele>
        <time>2026-09-01T10:34:06.924Z</time>
      </trkpt>
      <trkpt lat="45.27283" lon="4.64976">
        <ele>462.403365</ele>
        <time>2026-09-01T10:34:08.927Z</time>
      </trkpt>
      <trkpt lat="45.27294" lon="4.64979">
        <ele>462.629699</ele>
        <time>2026-09-01T10:34:10.926Z</time>
      </trkpt>
      <trkpt lat="45.27306" lon="4.64979">
        <ele>462.890131</ele>
        <time>2026-09-01T10:34:12.945Z</time>
      </trkpt>
      <trkpt lat="45.27317" lon="4.64979">
        <ele>463.121019</ele>
        <time>2026-09-01T10:34:14.924Z</time>
      </trkpt>
      <trkpt lat="45.27328" lon="4.64978">
        <ele>463.352035</ele>
        <time>2026-09-01T10:34:16.918Z</time>
      </trkpt>
      <trkpt lat="45.27339" lon="4.64977">
        <ele>463.569322</ele>
        <time>2026-09-01T10:34:18.903Z</time>
      </trkpt>
      <trkpt lat="45.2735" lon="4.64973">
        <ele>463.816135</ele>
        <time>2026-09-01T10:34:20.925Z</time>
      </trkpt>
      <trkpt lat="45.27362" lon="4.64969">
        <ele>464.071419</ele>
        <time>2026-09-01T10:34:22.907Z</time>
      </trkpt>
      <trkpt lat="45.27374" lon="4.64966">
        <ele>464.336757</ele>
        <time>2026-09-01T10:34:24.919Z</time>
      </trkpt>
      <trkpt lat="45.27385" lon="4.64964">
        <ele>464.568012</ele>
        <time>2026-09-01T10:34:26.921Z</time>
      </trkpt>
      <trkpt lat="45.27396" lon="4.64962">
        <ele>464.796047</ele>
        <time>2026-09-01T10:34:28.937Z</time>
      </trkpt>
      <trkpt lat="45.27406" lon="4.64961">
        <ele>465.011405</ele>
        <time>2026-09-01T10:34:30.920Z</time>
      </trkpt>
      <trkpt lat="45.27418" lon="4.64958">
        <ele>465.259387</ele>
        <time>2026-09-01T10:34:32.923Z</time>
      </trkpt>
      <trkpt lat="45.2743" lon="4.64955">
        <ele>465.507261</ele>
        <time>2026-09-01T10:34:34.922Z</time>
      </trkpt>
      <trkpt lat="45.2744" lon="4.64953">
        <ele>465.735826</ele>
        <time>2026-09-01T10:34:36.917Z</time>
      </trkpt>
      <trkpt lat="45.27451" lon="4.64951">
        <ele>465.968371</ele>
        <time>2026-09-01T10:34:38.930Z</time>
      </trkpt>
      <trkpt lat="45.27462" lon="4.6495">
        <ele>466.1893</ele>
        <time>2026-09-01T10:34:40.935Z</time>
      </trkpt>
      <trkpt lat="45.27473" lon="4.64948">
        <ele>466.412439</ele>
        <time>2026-09-01T10:34:42.928Z</time>
      </trkpt>
      <trkpt lat="45.27484" lon="4.64945">
        <ele>466.646628</ele>
        <time>2026-09-01T10:34:44.926Z</time>
      </trkpt>
      <trkpt lat="45.27495" lon="4.64943">
        <ele>466.877684</ele>
        <time>2026-09-01T10:34:46.923Z</time>
      </trkpt>
      <trkpt lat="45.27506" lon="4.6494">
        <ele>467.104414</ele>
        <time>2026-09-01T10:34:48.929Z</time>
      </trkpt>
      <trkpt lat="45.27516" lon="4.64938">
        <ele>467.323454</ele>
        <time>2026-09-01T10:34:50.917Z</time>
      </trkpt>
      <trkpt lat="45.27528" lon="4.64935">
        <ele>467.564218</ele>
        <time>2026-09-01T10:34:52.931Z</time>
      </trkpt>
      <trkpt lat="45.27541" lon="4.64931">
        <ele>467.840866</ele>
        <time>2026-09-01T10:34:54.929Z</time>
      </trkpt>
      <trkpt lat="45.27553" lon="4.64924">
        <ele>468.112898</ele>
        <time>2026-09-01T10:34:56.901Z</time>
      </trkpt>
      <trkpt lat="45.27564" lon="4.64913">
        <ele>468.392696</ele>
        <time>2026-09-01T10:34:58.929Z</time>
      </trkpt>
      <trkpt lat="45.27573" lon="4.64899">
        <ele>468.66752</ele>
        <time>2026-09-01T10:35:00.920Z</time>
      </trkpt>
      <trkpt lat="45.2758" lon="4.64882">
        <ele>468.9522</ele>
        <time>2026-09-01T10:35:02.920Z</time>
      </trkpt>
      <trkpt lat="45.27586" lon="4.64864">
        <ele>469.238546</ele>
        <time>2026-09-01T10:35:04.920Z</time>
      </trkpt>
      <trkpt lat="45.27592" lon="4.64847">
        <ele>469.526455</ele>
        <time>2026-09-01T10:35:06.923Z</time>
      </trkpt>
      <trkpt lat="45.27601" lon="4.64834">
        <ele>469.785377</ele>
        <time>2026-09-01T10:35:08.919Z</time>
      </trkpt>
      <trkpt lat="45.27613" lon="4.64831">
        <ele>469.977798</ele>
        <time>2026-09-01T10:35:10.925Z</time>
      </trkpt>
      <trkpt lat="45.27624" lon="4.64835">
        <ele>470.141648</ele>
        <time>2026-09-01T10:35:12.923Z</time>
      </trkpt>
      <trkpt lat="45.27631" lon="4.64843">
        <ele>470.276081</ele>
        <time>2026-09-01T10:35:14.926Z</time>
      </trkpt>
      <trkpt lat="45.27639" lon="4.64858">
        <ele>470.461501</ele>
        <time>2026-09-01T10:35:17.917Z</time>
      </trkpt>
      <trkpt lat="45.27651" lon="4.64856">
        <ele>470.641846</ele>
        <time>2026-09-01T10:35:20.927Z</time>
      </trkpt>
      <trkpt lat="45.27657" lon="4.64842">
        <ele>470.80778</ele>
        <time>2026-09-01T10:35:22.920Z</time>
      </trkpt>
      <trkpt lat="45.2766" lon="4.64824">
        <ele>470.989813</ele>
        <time>2026-09-01T10:35:24.920Z</time>
      </trkpt>
      <trkpt lat="45.27664" lon="4.64809">
        <ele>471.151927</ele>
        <time>2026-09-01T10:35:26.924Z</time>
      </trkpt>
      <trkpt lat="45.27669" lon="4.64794">
        <ele>471.323645</ele>
        <time>2026-09-01T10:35:28.926Z</time>
      </trkpt>
      <trkpt lat="45.27676" lon="4.6478">
        <ele>471.501356</ele>
        <time>2026-09-01T10:35:30.927Z</time>
      </trkpt>
      <trkpt lat="45.27684" lon="4.64766">
        <ele>471.677455</ele>
        <time>2026-09-01T10:35:32.922Z</time>
      </trkpt>
      <trkpt lat="45.2769" lon="4.6475">
        <ele>471.857211</ele>
        <time>2026-09-01T10:35:34.932Z</time>
      </trkpt>
      <trkpt lat="45.27696" lon="4.64736">
        <ele>472.031283</ele>
        <time>2026-09-01T10:35:36.919Z</time>
      </trkpt>
      <trkpt lat="45.27703" lon="4.6472">
        <ele>472.213936</ele>
        <time>2026-09-01T10:35:38.931Z</time>
      </trkpt>
      <trkpt lat="45.27709" lon="4.64703">
        <ele>472.413505</ele>
        <time>2026-09-01T10:35:40.927Z</time>
      </trkpt>
      <trkpt lat="45.27717" lon="4.64687">
        <ele>472.560465</ele>
        <time>2026-09-01T10:35:42.924Z</time>
      </trkpt>
      <trkpt lat="45.27724" lon="4.6467">
        <ele>472.701496</ele>
        <time>2026-09-01T10:35:44.930Z</time>
      </trkpt>
      <trkpt lat="45.27731" lon="4.64653">
        <ele>472.837898</ele>
        <time>2026-09-01T10:35:46.923Z</time>
      </trkpt>
      <trkpt lat="45.27738" lon="4.64638">
        <ele>472.971445</ele>
        <time>2026-09-01T10:35:48.919Z</time>
      </trkpt>
      <trkpt lat="45.27745" lon="4.64622">
        <ele>473.10743</ele>
        <time>2026-09-01T10:35:50.913Z</time>
      </trkpt>
      <trkpt lat="45.27753" lon="4.64606">
        <ele>473.24568</ele>
        <time>2026-09-01T10:35:52.908Z</time>
      </trkpt>
      <trkpt lat="45.2776" lon="4.64589">
        <ele>473.385234</ele>
        <time>2026-09-01T10:35:54.924Z</time>
      </trkpt>
      <trkpt lat="45.27767" lon="4.64571">
        <ele>473.532489</ele>
        <time>2026-09-01T10:35:56.919Z</time>
      </trkpt>
      <trkpt lat="45.27774" lon="4.64554">
        <ele>473.673945</ele>
        <time>2026-09-01T10:35:58.926Z</time>
      </trkpt>
      <trkpt lat="45.27781" lon="4.64538">
        <ele>473.812715</ele>
        <time>2026-09-01T10:36:00.923Z</time>
      </trkpt>
      <trkpt lat="45.27787" lon="4.64522">
        <ele>473.943499</ele>
        <time>2026-09-01T10:36:02.918Z</time>
      </trkpt>
      <trkpt lat="45.27795" lon="4.64505">
        <ele>474.082945</ele>
        <time>2026-09-01T10:36:04.929Z</time>
      </trkpt>
      <trkpt lat="45.27802" lon="4.6449">
        <ele>474.213122</ele>
        <time>2026-09-01T10:36:06.930Z</time>
      </trkpt>
      <trkpt lat="45.27809" lon="4.64474">
        <ele>474.484595</ele>
        <time>2026-09-01T10:36:08.932Z</time>
      </trkpt>
      <trkpt lat="45.27816" lon="4.64457">
        <ele>474.868289</ele>
        <time>2026-09-01T10:36:10.920Z</time>
      </trkpt>
      <trkpt lat="45.27823" lon="4.64442">
        <ele>475.25296</ele>
        <time>2026-09-01T10:36:12.931Z</time>
      </trkpt>
      <trkpt lat="45.27829" lon="4.64425">
        <ele>475.636816</ele>
        <time>2026-09-01T10:36:14.925Z</time>
      </trkpt>
      <trkpt lat="45.27836" lon="4.64409">
        <ele>476.014078</ele>
        <time>2026-09-01T10:36:16.930Z</time>
      </trkpt>
      <trkpt lat="45.27842" lon="4.64391">
        <ele>476.415725</ele>
        <time>2026-09-01T10:36:18.916Z</time>
      </trkpt>
      <trkpt lat="45.27849" lon="4.64375">
        <ele>476.785775</ele>
        <time>2026-09-01T10:36:20.920Z</time>
      </trkpt>
      <trkpt lat="45.27856" lon="4.6436">
        <ele>477.158816</ele>
        <time>2026-09-01T10:36:22.923Z</time>
      </trkpt>
      <trkpt lat="45.27864" lon="4.64346">
        <ele>477.515865</ele>
        <time>2026-09-01T10:36:24.918Z</time>
      </trkpt>
      <trkpt lat="45.2787" lon="4.64332">
        <ele>477.848437</ele>
        <time>2026-09-01T10:36:26.920Z</time>
      </trkpt>
      <trkpt lat="45.27875" lon="4.64318">
        <ele>478.16662</ele>
        <time>2026-09-01T10:36:28.925Z</time>
      </trkpt>
      <trkpt lat="45.27881" lon="4.64303">
        <ele>478.510374</ele>
        <time>2026-09-01T10:36:30.916Z</time>
      </trkpt>
      <trkpt lat="45.27888" lon="4.64288">
        <ele>478.876917</ele>
        <time>2026-09-01T10:36:32.919Z</time>
      </trkpt>
      <trkpt lat="45.27897" lon="4.64273">
        <ele>479.266695</ele>
        <time>2026-09-01T10:36:34.921Z</time>
      </trkpt>
      <trkpt lat="45.27905" lon="4.64256">
        <ele>479.462603</ele>
        <time>2026-09-01T10:36:36.919Z</time>
      </trkpt>
      <trkpt lat="45.27913" lon="4.64238">
        <ele>479.509292</ele>
        <time>2026-09-01T10:36:38.903Z</time>
      </trkpt>
      <trkpt lat="45.2792" lon="4.64222">
        <ele>479.550665</ele>
        <time>2026-09-01T10:36:40.927Z</time>
      </trkpt>
      <trkpt lat="45.27926" lon="4.64205">
        <ele>479.592039</ele>
        <time>2026-09-01T10:36:42.920Z</time>
      </trkpt>
      <trkpt lat="45.27932" lon="4.64188">
        <ele>479.635068</ele>
        <time>2026-09-01T10:36:44.919Z</time>
      </trkpt>
      <trkpt lat="45.27939" lon="4.64172">
        <ele>479.676615</ele>
        <time>2026-09-01T10:36:46.920Z</time>
      </trkpt>
      <trkpt lat="45.27946" lon="4.64156">
        <ele>479.717623</ele>
        <time>2026-09-01T10:36:48.892Z</time>
      </trkpt>
      <trkpt lat="45.27954" lon="4.64141">
        <ele>479.759105</ele>
        <time>2026-09-01T10:36:50.869Z</time>
      </trkpt>
      <trkpt lat="45.27961" lon="4.64126">
        <ele>479.798988</ele>
        <time>2026-09-01T10:36:52.873Z</time>
      </trkpt>
      <trkpt lat="45.27968" lon="4.64112">
        <ele>479.836481</ele>
        <time>2026-09-01T10:36:54.902Z</time>
      </trkpt>
      <trkpt lat="45.27975" lon="4.64097">
        <ele>479.876316</ele>
        <time>2026-09-01T10:36:56.897Z</time>
      </trkpt>
      <trkpt lat="45.27982" lon="4.64081">
        <ele>479.917512</ele>
        <time>2026-09-01T10:36:58.895Z</time>
      </trkpt>
      <trkpt lat="45.27988" lon="4.64065">
        <ele>479.958306</ele>
        <time>2026-09-01T10:37:00.924Z</time>
      </trkpt>
      <trkpt lat="45.27995" lon="4.64051">
        <ele>479.996337</ele>
        <time>2026-09-01T10:37:02.920Z</time>
      </trkpt>
      <trkpt lat="45.28002" lon="4.64035">
        <ele>480.039593</ele>
        <time>2026-09-01T10:37:04.938Z</time>
      </trkpt>
      <trkpt lat="45.28008" lon="4.64019">
        <ele>480.085307</ele>
        <time>2026-09-01T10:37:06.928Z</time>
      </trkpt>
      <trkpt lat="45.28013" lon="4.64001">
        <ele>480.133152</ele>
        <time>2026-09-01T10:37:08.921Z</time>
      </trkpt>
      <trkpt lat="45.28019" lon="4.63986">
        <ele>480.174151</ele>
        <time>2026-09-01T10:37:10.923Z</time>
      </trkpt>
      <trkpt lat="45.28024" lon="4.63971">
        <ele>480.215552</ele>
        <time>2026-09-01T10:37:12.917Z</time>
      </trkpt>
      <trkpt lat="45.2803" lon="4.63957">
        <ele>480.255983</ele>
        <time>2026-09-01T10:37:14.925Z</time>
      </trkpt>
      <trkpt lat="45.28036" lon="4.63943">
        <ele>480.295053</ele>
        <time>2026-09-01T10:37:16.922Z</time>
      </trkpt>
      <trkpt lat="45.28043" lon="4.6393">
        <ele>480.336123</ele>
        <time>2026-09-01T10:37:18.920Z</time>
      </trkpt>
      <trkpt lat="45.28049" lon="4.63915">
        <ele>480.379421</ele>
        <time>2026-09-01T10:37:20.920Z</time>
      </trkpt>
      <trkpt lat="45.28055" lon="4.63901">
        <ele>480.418327</ele>
        <time>2026-09-01T10:37:22.923Z</time>
      </trkpt>
      <trkpt lat="45.28062" lon="4.63887">
        <ele>480.460028</ele>
        <time>2026-09-01T10:37:24.916Z</time>
      </trkpt>
      <trkpt lat="45.28067" lon="4.63874">
        <ele>480.496558</ele>
        <time>2026-09-01T10:37:26.921Z</time>
      </trkpt>
      <trkpt lat="45.28073" lon="4.63861">
        <ele>480.533187</ele>
        <time>2026-09-01T10:37:28.922Z</time>
      </trkpt>
      <trkpt lat="45.28079" lon="4.63848">
        <ele>480.572676</ele>
        <time>2026-09-01T10:37:30.919Z</time>
      </trkpt>
      <trkpt lat="45.28084" lon="4.63836">
        <ele>480.607129</ele>
        <time>2026-09-01T10:37:32.925Z</time>
      </trkpt>
      <trkpt lat="45.28089" lon="4.63823">
        <ele>480.908576</ele>
        <time>2026-09-01T10:37:34.925Z</time>
      </trkpt>
      <trkpt lat="45.28095" lon="4.6381">
        <ele>481.456509</ele>
        <time>2026-09-01T10:37:36.928Z</time>
      </trkpt>
      <trkpt lat="45.28101" lon="4.63796">
        <ele>482.009856</ele>
        <time>2026-09-01T10:37:38.924Z</time>
      </trkpt>
      <trkpt lat="45.28107" lon="4.63783">
        <ele>482.546912</ele>
        <time>2026-09-01T10:37:40.932Z</time>
      </trkpt>
      <trkpt lat="45.28112" lon="4.63769">
        <ele>483.104746</ele>
        <time>2026-09-01T10:37:42.933Z</time>
      </trkpt>
      <trkpt lat="45.28118" lon="4.63757">
        <ele>483.598575</ele>
        <time>2026-09-01T10:37:44.921Z</time>
      </trkpt>
      <trkpt lat="45.28123" lon="4.63745">
        <ele>484.107359</ele>
        <time>2026-09-01T10:37:46.919Z</time>
      </trkpt>
      <trkpt lat="45.2813" lon="4.63732">
        <ele>484.680953</ele>
        <time>2026-09-01T10:37:48.927Z</time>
      </trkpt>
      <trkpt lat="45.28136" lon="4.63717">
        <ele>485.26288</ele>
        <time>2026-09-01T10:37:50.932Z</time>
      </trkpt>
      <trkpt lat="45.28142" lon="4.63703">
        <ele>485.823284</ele>
        <time>2026-09-01T10:37:52.917Z</time>
      </trkpt>
      <trkpt lat="45.28148" lon="4.63689">
        <ele>486.397801</ele>
        <time>2026-09-01T10:37:54.925Z</time>
      </trkpt>
      <trkpt lat="45.28153" lon="4.63677">
        <ele>486.900387</ele>
        <time>2026-09-01T10:37:56.918Z</time>
      </trkpt>
      <trkpt lat="45.28159" lon="4.63663">
        <ele>487.470762</ele>
        <time>2026-09-01T10:37:58.928Z</time>
      </trkpt>
      <trkpt lat="45.28165" lon="4.63648">
        <ele>488.051632</ele>
        <time>2026-09-01T10:38:00.921Z</time>
      </trkpt>
      <trkpt lat="45.28171" lon="4.63635">
        <ele>488.60284</ele>
        <time>2026-09-01T10:38:02.937Z</time>
      </trkpt>
      <trkpt lat="45.28178" lon="4.6362">
        <ele>489.253413</ele>
        <time>2026-09-01T10:38:04.929Z</time>
      </trkpt>
      <trkpt lat="45.28186" lon="4.63606">
        <ele>489.521393</ele>
        <time>2026-09-01T10:38:06.921Z</time>
      </trkpt>
      <trkpt lat="45.28194" lon="4.63592">
        <ele>489.484443</ele>
        <time>2026-09-01T10:38:08.918Z</time>
      </trkpt>
      <trkpt lat="45.28202" lon="4.63579">
        <ele>489.447342</ele>
        <time>2026-09-01T10:38:10.916Z</time>
      </trkpt>
      <trkpt lat="45.28211" lon="4.63568">
        <ele>489.411735</ele>
        <time>2026-09-01T10:38:12.925Z</time>
      </trkpt>
      <trkpt lat="45.28219" lon="4.63555">
        <ele>489.374174</ele>
        <time>2026-09-01T10:38:14.911Z</time>
      </trkpt>
      <trkpt lat="45.28229" lon="4.63541">
        <ele>489.332358</ele>
        <time>2026-09-01T10:38:16.917Z</time>
      </trkpt>
      <trkpt lat="45.28238" lon="4.63526">
        <ele>489.290958</ele>
        <time>2026-09-01T10:38:18.921Z</time>
      </trkpt>
      <trkpt lat="45.28247" lon="4.63511">
        <ele>489.247906</ele>
        <time>2026-09-01T10:38:20.927Z</time>
      </trkpt>
      <trkpt lat="45.28256" lon="4.63496">
        <ele>489.206239</ele>
        <time>2026-09-01T10:38:22.919Z</time>
      </trkpt>
      <trkpt lat="45.28265" lon="4.63483">
        <ele>489.167471</ele>
        <time>2026-09-01T10:38:24.925Z</time>
      </trkpt>
      <trkpt lat="45.28274" lon="4.63471">
        <ele>489.128422</ele>
        <time>2026-09-01T10:38:26.921Z</time>
      </trkpt>
      <trkpt lat="45.28283" lon="4.63457">
        <ele>489.089616</ele>
        <time>2026-09-01T10:38:28.917Z</time>
      </trkpt>
      <trkpt lat="45.28292" lon="4.63444">
        <ele>489.049297</ele>
        <time>2026-09-01T10:38:30.920Z</time>
      </trkpt>
      <trkpt lat="45.28301" lon="4.63429">
        <ele>489.007227</ele>
        <time>2026-09-01T10:38:32.925Z</time>
      </trkpt>
      <trkpt lat="45.28309" lon="4.63413">
        <ele>488.860873</ele>
        <time>2026-09-01T10:38:34.923Z</time>
      </trkpt>
      <trkpt lat="45.28317" lon="4.63398">
        <ele>488.691242</ele>
        <time>2026-09-01T10:38:36.916Z</time>
      </trkpt>
      <trkpt lat="45.28324" lon="4.63381">
        <ele>488.512057</ele>
        <time>2026-09-01T10:38:38.926Z</time>
      </trkpt>
      <trkpt lat="45.28331" lon="4.63362">
        <ele>488.316092</ele>
        <time>2026-09-01T10:38:40.919Z</time>
      </trkpt>
      <trkpt lat="45.28338" lon="4.63343">
        <ele>488.123903</ele>
        <time>2026-09-01T10:38:42.923Z</time>
      </trkpt>
      <trkpt lat="45.28344" lon="4.63324">
        <ele>487.939417</ele>
        <time>2026-09-01T10:38:44.918Z</time>
      </trkpt>
      <trkpt lat="45.28351" lon="4.63306">
        <ele>487.748332</ele>
        <time>2026-09-01T10:38:46.919Z</time>
      </trkpt>
      <trkpt lat="45.28359" lon="4.63287">
        <ele>487.54586</ele>
        <time>2026-09-01T10:38:48.920Z</time>
      </trkpt>
      <trkpt lat="45.28365" lon="4.63268">
        <ele>487.358402</ele>
        <time>2026-09-01T10:38:50.919Z</time>
      </trkpt>
      <trkpt lat="45.28373" lon="4.6325">
        <ele>487.162868</ele>
        <time>2026-09-01T10:38:52.935Z</time>
      </trkpt>
      <trkpt lat="45.28382" lon="4.63232">
        <ele>486.967173</ele>
        <time>2026-09-01T10:38:54.922Z</time>
      </trkpt>
      <trkpt lat="45.28391" lon="4.63217">
        <ele>486.780964</ele>
        <time>2026-09-01T10:38:56.923Z</time>
      </trkpt>
      <trkpt lat="45.28404" lon="4.63206">
        <ele>486.774713</ele>
        <time>2026-09-01T10:38:58.920Z</time>
      </trkpt>
      <trkpt lat="45.28417" lon="4.63198">
        <ele>487.016412</ele>
        <time>2026-09-01T10:39:00.917Z</time>
      </trkpt>
      <trkpt lat="45.28431" lon="4.63188">
        <ele>487.274116</ele>
        <time>2026-09-01T10:39:02.929Z</time>
      </trkpt>
      <trkpt lat="45.28445" lon="4.6318">
        <ele>487.519389</ele>
        <time>2026-09-01T10:39:04.926Z</time>
      </trkpt>
      <trkpt lat="45.28458" lon="4.6317">
        <ele>487.767709</ele>
        <time>2026-09-01T10:39:06.919Z</time>
      </trkpt>
      <trkpt lat="45.28471" lon="4.63161">
        <ele>488.005902</ele>
        <time>2026-09-01T10:39:08.918Z</time>
      </trkpt>
      <trkpt lat="45.28486" lon="4.63153">
        <ele>488.273483</ele>
        <time>2026-09-01T10:39:10.922Z</time>
      </trkpt>
      <trkpt lat="45.285" lon="4.63144">
        <ele>488.524258</ele>
        <time>2026-09-01T10:39:12.920Z</time>
      </trkpt>
      <trkpt lat="45.28513" lon="4.63135">
        <ele>488.770971</ele>
        <time>2026-09-01T10:39:14.923Z</time>
      </trkpt>
      <trkpt lat="45.28527" lon="4.63129">
        <ele>489.014907</ele>
        <time>2026-09-01T10:39:16.922Z</time>
      </trkpt>
      <trkpt lat="45.28542" lon="4.63123">
        <ele>489.267412</ele>
        <time>2026-09-01T10:39:18.926Z</time>
      </trkpt>
      <trkpt lat="45.28554" lon="4.63118">
        <ele>489.48312</ele>
        <time>2026-09-01T10:39:20.919Z</time>
      </trkpt>
      <trkpt lat="45.28566" lon="4.63114">
        <ele>489.676569</ele>
        <time>2026-09-01T10:39:22.922Z</time>
      </trkpt>
      <trkpt lat="45.28577" lon="4.63108">
        <ele>489.804059</ele>
        <time>2026-09-01T10:39:24.923Z</time>
      </trkpt>
      <trkpt lat="45.28589" lon="4.63103">
        <ele>489.93332</ele>
        <time>2026-09-01T10:39:26.918Z</time>
      </trkpt>
      <trkpt lat="45.286" lon="4.63099">
        <ele>490.05548</ele>
        <time>2026-09-01T10:39:28.916Z</time>
      </trkpt>
      <trkpt lat="45.28612" lon="4.63096">
        <ele>490.186196</ele>
        <time>2026-09-01T10:39:30.920Z</time>
      </trkpt>
      <trkpt lat="45.28623" lon="4.63096">
        <ele>490.309933</ele>
        <time>2026-09-01T10:39:32.904Z</time>
      </trkpt>
      <trkpt lat="45.28636" lon="4.63095">
        <ele>490.447043</ele>
        <time>2026-09-01T10:39:34.918Z</time>
      </trkpt>
      <trkpt lat="45.28648" lon="4.63091">
        <ele>490.584897</ele>
        <time>2026-09-01T10:39:36.924Z</time>
      </trkpt>
      <trkpt lat="45.2866" lon="4.63088">
        <ele>490.713041</ele>
        <time>2026-09-01T10:39:38.919Z</time>
      </trkpt>
      <trkpt lat="45.28672" lon="4.63087">
        <ele>490.840321</ele>
        <time>2026-09-01T10:39:40.922Z</time>
      </trkpt>
      <trkpt lat="45.28683" lon="4.63085">
        <ele>490.959111</ele>
        <time>2026-09-01T10:39:42.916Z</time>
      </trkpt>
      <trkpt lat="45.28692" lon="4.6308">
        <ele>491.064809</ele>
        <time>2026-09-01T10:39:44.919Z</time>
      </trkpt>
      <trkpt lat="45.28702" lon="4.63076">
        <ele>491.178651</ele>
        <time>2026-09-01T10:39:46.923Z</time>
      </trkpt>
      <trkpt lat="45.28712" lon="4.63074">
        <ele>491.282209</ele>
        <time>2026-09-01T10:39:48.895Z</time>
      </trkpt>
      <trkpt lat="45.28723" lon="4.6307">
        <ele>491.405049</ele>
        <time>2026-09-01T10:39:50.929Z</time>
      </trkpt>
      <trkpt lat="45.28738" lon="4.63074">
        <ele>491.567918</ele>
        <time>2026-09-01T10:39:52.897Z</time>
      </trkpt>
      <trkpt lat="45.28752" lon="4.63074">
        <ele>492.157978</ele>
        <time>2026-09-01T10:39:54.917Z</time>
      </trkpt>
      <trkpt lat="45.28765" lon="4.63069">
        <ele>492.76767</ele>
        <time>2026-09-01T10:39:56.904Z</time>
      </trkpt>
      <trkpt lat="45.28777" lon="4.63065">
        <ele>493.343089</ele>
        <time>2026-09-01T10:39:58.915Z</time>
      </trkpt>
      <trkpt lat="45.28788" lon="4.63062">
        <ele>493.899601</ele>
        <time>2026-09-01T10:40:00.928Z</time>
      </trkpt>
      <trkpt lat="45.28799" lon="4.6306">
        <ele>494.414572</ele>
        <time>2026-09-01T10:40:02.917Z</time>
      </trkpt>
      <trkpt lat="45.28811" lon="4.63059">
        <ele>494.955078</ele>
        <time>2026-09-01T10:40:04.922Z</time>
      </trkpt>
      <trkpt lat="45.28821" lon="4.63059">
        <ele>495.447937</ele>
        <time>2026-09-01T10:40:06.909Z</time>
      </trkpt>
      <trkpt lat="45.28831" lon="4.63058">
        <ele>495.899667</ele>
        <time>2026-09-01T10:40:08.919Z</time>
      </trkpt>
      <trkpt lat="45.28843" lon="4.63053">
        <ele>496.471155</ele>
        <time>2026-09-01T10:40:10.912Z</time>
      </trkpt>
      <trkpt lat="45.28854" lon="4.63045">
        <ele>497.063597</ele>
        <time>2026-09-01T10:40:12.924Z</time>
      </trkpt>
      <trkpt lat="45.28865" lon="4.63035">
        <ele>497.676374</ele>
        <time>2026-09-01T10:40:14.928Z</time>
      </trkpt>
      <trkpt lat="45.28876" lon="4.63026">
        <ele>498.271293</ele>
        <time>2026-09-01T10:40:16.911Z</time>
      </trkpt>
      <trkpt lat="45.28886" lon="4.6302">
        <ele>498.782502</ele>
        <time>2026-09-01T10:40:18.931Z</time>
      </trkpt>
      <trkpt lat="45.28895" lon="4.63011">
        <ele>499.307554</ele>
        <time>2026-09-01T10:40:20.917Z</time>
      </trkpt>
      <trkpt lat="45.28905" lon="4.63007">
        <ele>499.770973</ele>
        <time>2026-09-01T10:40:22.919Z</time>
      </trkpt>
      <trkpt lat="45.28916" lon="4.63003">
        <ele>500.126779</ele>
        <time>2026-09-01T10:40:24.922Z</time>
      </trkpt>
      <trkpt lat="45.28929" lon="4.63002">
        <ele>500.319384</ele>
        <time>2026-09-01T10:40:26.918Z</time>
      </trkpt>
      <trkpt lat="45.28941" lon="4.63002">
        <ele>500.486844</ele>
        <time>2026-09-01T10:40:28.925Z</time>
      </trkpt>
      <trkpt lat="45.28953" lon="4.62997">
        <ele>500.667714</ele>
        <time>2026-09-01T10:40:30.917Z</time>
      </trkpt>
      <trkpt lat="45.28964" lon="4.62994">
        <ele>500.833998</ele>
        <time>2026-09-01T10:40:32.926Z</time>
      </trkpt>
      <trkpt lat="45.28975" lon="4.62986">
        <ele>501.01456</ele>
        <time>2026-09-01T10:40:34.944Z</time>
      </trkpt>
      <trkpt lat="45.28986" lon="4.62981">
        <ele>501.185171</ele>
        <time>2026-09-01T10:40:36.921Z</time>
      </trkpt>
      <trkpt lat="45.28997" lon="4.62975">
        <ele>501.358535</ele>
        <time>2026-09-01T10:40:38.924Z</time>
      </trkpt>
      <trkpt lat="45.29008" lon="4.62968">
        <ele>501.544381</ele>
        <time>2026-09-01T10:40:40.924Z</time>
      </trkpt>
      <trkpt lat="45.29021" lon="4.62959">
        <ele>501.748374</ele>
        <time>2026-09-01T10:40:42.928Z</time>
      </trkpt>
      <trkpt lat="45.29032" lon="4.62951">
        <ele>501.932034</ele>
        <time>2026-09-01T10:40:44.924Z</time>
      </trkpt>
      <trkpt lat="45.29043" lon="4.62942">
        <ele>502.122303</ele>
        <time>2026-09-01T10:40:46.919Z</time>
      </trkpt>
      <trkpt lat="45.29054" lon="4.62932">
        <ele>502.315072</ele>
        <time>2026-09-01T10:40:48.916Z</time>
      </trkpt>
      <trkpt lat="45.29067" lon="4.62922">
        <ele>502.524266</ele>
        <time>2026-09-01T10:40:50.923Z</time>
      </trkpt>
      <trkpt lat="45.29075" lon="4.62909">
        <ele>502.696345</ele>
        <time>2026-09-01T10:40:52.931Z</time>
      </trkpt>
      <trkpt lat="45.29084" lon="4.62897">
        <ele>502.804874</ele>
        <time>2026-09-01T10:40:54.917Z</time>
      </trkpt>
      <trkpt lat="45.29095" lon="4.62886">
        <ele>502.927338</ele>
        <time>2026-09-01T10:40:56.925Z</time>
      </trkpt>
      <trkpt lat="45.29105" lon="4.62871">
        <ele>503.05899</ele>
        <time>2026-09-01T10:40:58.931Z</time>
      </trkpt>
      <trkpt lat="45.29114" lon="4.62855">
        <ele>503.186809</ele>
        <time>2026-09-01T10:41:00.925Z</time>
      </trkpt>
      <trkpt lat="45.29123" lon="4.6284">
        <ele>503.315861</ele>
        <time>2026-09-01T10:41:02.917Z</time>
      </trkpt>
      <trkpt lat="45.29131" lon="4.62825">
        <ele>503.438128</ele>
        <time>2026-09-01T10:41:04.919Z</time>
      </trkpt>
      <trkpt lat="45.29138" lon="4.62809">
        <ele>503.55564</ele>
        <time>2026-09-01T10:41:06.899Z</time>
      </trkpt>
      <trkpt lat="45.29147" lon="4.62794">
        <ele>503.679395</ele>
        <time>2026-09-01T10:41:08.921Z</time>
      </trkpt>
      <trkpt lat="45.29155" lon="4.62778">
        <ele>503.798825</ele>
        <time>2026-09-01T10:41:10.934Z</time>
      </trkpt>
      <trkpt lat="45.29163" lon="4.62762">
        <ele>503.926029</ele>
        <time>2026-09-01T10:41:12.921Z</time>
      </trkpt>
      <trkpt lat="45.29171" lon="4.62745">
        <ele>504.055931</ele>
        <time>2026-09-01T10:41:14.924Z</time>
      </trkpt>
      <trkpt lat="45.29177" lon="4.62728">
        <ele>504.175974</ele>
        <time>2026-09-01T10:41:16.896Z</time>
      </trkpt>
      <trkpt lat="45.29184" lon="4.62714">
        <ele>504.286595</ele>
        <time>2026-09-01T10:41:18.908Z</time>
      </trkpt>
      <trkpt lat="45.2919" lon="4.62698">
        <ele>504.153683</ele>
        <time>2026-09-01T10:41:20.925Z</time>
      </trkpt>
      <trkpt lat="45.29196" lon="4.6268">
        <ele>503.963639</ele>
        <time>2026-09-01T10:41:22.923Z</time>
      </trkpt>
      <trkpt lat="45.29202" lon="4.62663">
        <ele>503.776203</ele>
        <time>2026-09-01T10:41:24.921Z</time>
      </trkpt>
      <trkpt lat="45.29206" lon="4.62649">
        <ele>503.626519</ele>
        <time>2026-09-01T10:41:26.921Z</time>
      </trkpt>
      <trkpt lat="45.29211" lon="4.62633">
        <ele>503.459078</ele>
        <time>2026-09-01T10:41:28.924Z</time>
      </trkpt>
      <trkpt lat="45.29215" lon="4.62618">
        <ele>503.308931</ele>
        <time>2026-09-01T10:41:30.921Z</time>
      </trkpt>
      <trkpt lat="45.29219" lon="4.62602">
        <ele>503.1423</ele>
        <time>2026-09-01T10:41:32.927Z</time>
      </trkpt>
      <trkpt lat="45.29223" lon="4.62585">
        <ele>502.97277</ele>
        <time>2026-09-01T10:41:34.919Z</time>
      </trkpt>
      <trkpt lat="45.29226" lon="4.62569">
        <ele>502.811283</ele>
        <time>2026-09-01T10:41:36.922Z</time>
      </trkpt>
      <trkpt lat="45.29228" lon="4.62552">
        <ele>502.653641</ele>
        <time>2026-09-01T10:41:38.916Z</time>
      </trkpt>
      <trkpt lat="45.29229" lon="4.62537">
        <ele>502.503619</ele>
        <time>2026-09-01T10:41:40.920Z</time>
      </trkpt>
      <trkpt lat="45.29231" lon="4.62519">
        <ele>502.332209</ele>
        <time>2026-09-01T10:41:42.927Z</time>
      </trkpt>
      <trkpt lat="45.29232" lon="4.62502">
        <ele>502.167436</ele>
        <time>2026-09-01T10:41:44.919Z</time>
      </trkpt>
      <trkpt lat="45.29235" lon="4.62485">
        <ele>502.000398</ele>
        <time>2026-09-01T10:41:46.918Z</time>
      </trkpt>
      <trkpt lat="45.29235" lon="4.62468">
        <ele>501.859106</ele>
        <time>2026-09-01T10:41:48.923Z</time>
      </trkpt>
      <trkpt lat="45.29235" lon="4.6245">
        <ele>502.016989</ele>
        <time>2026-09-01T10:41:50.919Z</time>
      </trkpt>
      <trkpt lat="45.29236" lon="4.62431">
        <ele>502.18017</ele>
        <time>2026-09-01T10:41:52.917Z</time>
      </trkpt>
      <trkpt lat="45.29236" lon="4.62412">
        <ele>502.343987</ele>
        <time>2026-09-01T10:41:54.920Z</time>
      </trkpt>
      <trkpt lat="45.29235" lon="4.62392">
        <ele>502.512595</ele>
        <time>2026-09-01T10:41:56.917Z</time>
      </trkpt>
      <trkpt lat="45.29233" lon="4.62373">
        <ele>502.673132</ele>
        <time>2026-09-01T10:41:58.919Z</time>
      </trkpt>
      <trkpt lat="45.29234" lon="4.62354">
        <ele>502.837487</ele>
        <time>2026-09-01T10:42:00.919Z</time>
      </trkpt>
      <trkpt lat="45.29234" lon="4.62336">
        <ele>502.991067</ele>
        <time>2026-09-01T10:42:02.921Z</time>
      </trkpt>
      <trkpt lat="45.29235" lon="4.62318">
        <ele>503.14777</ele>
        <time>2026-09-01T10:42:04.933Z</time>
      </trkpt>
      <trkpt lat="45.29238" lon="4.623">
        <ele>503.306784</ele>
        <time>2026-09-01T10:42:06.915Z</time>
      </trkpt>
      <trkpt lat="45.29243" lon="4.62281">
        <ele>503.473017</ele>
        <time>2026-09-01T10:42:08.920Z</time>
      </trkpt>
      <trkpt lat="45.29246" lon="4.62261">
        <ele>503.648632</ele>
        <time>2026-09-01T10:42:10.925Z</time>
      </trkpt>
      <trkpt lat="45.2925" lon="4.62241">
        <ele>503.823901</ele>
        <time>2026-09-01T10:42:12.907Z</time>
      </trkpt>
      <trkpt lat="45.29253" lon="4.6222">
        <ele>504.009728</ele>
        <time>2026-09-01T10:42:14.924Z</time>
      </trkpt>
      <trkpt lat="45.29255" lon="4.62199">
        <ele>504.083256</ele>
        <time>2026-09-01T10:42:16.922Z</time>
      </trkpt>
      <trkpt lat="45.29256" lon="4.62178">
        <ele>504.140348</ele>
        <time>2026-09-01T10:42:18.920Z</time>
      </trkpt>
      <trkpt lat="45.29259" lon="4.62156">
        <ele>504.201113</ele>
        <time>2026-09-01T10:42:20.919Z</time>
      </trkpt>
      <trkpt lat="45.29262" lon="4.62134">
        <ele>504.259254</ele>
        <time>2026-09-01T10:42:22.942Z</time>
      </trkpt>
      <trkpt lat="45.29264" lon="4.62112">
        <ele>504.320504</ele>
        <time>2026-09-01T10:42:24.920Z</time>
      </trkpt>
      <trkpt lat="45.29267" lon="4.62092">
        <ele>504.375982</ele>
        <time>2026-09-01T10:42:26.924Z</time>
      </trkpt>
      <trkpt lat="45.2927" lon="4.62071">
        <ele>504.434182</ele>
        <time>2026-09-01T10:42:28.920Z</time>
      </trkpt>
      <trkpt lat="45.29274" lon="4.6205">
        <ele>504.492029</ele>
        <time>2026-09-01T10:42:30.923Z</time>
      </trkpt>
      <trkpt lat="45.29278" lon="4.62029">
        <ele>504.55056</ele>
        <time>2026-09-01T10:42:32.916Z</time>
      </trkpt>
      <trkpt lat="45.29282" lon="4.6201">
        <ele>504.6055</ele>
        <time>2026-09-01T10:42:34.926Z</time>
      </trkpt>
      <trkpt lat="45.29285" lon="4.61989">
        <ele>504.663174</ele>
        <time>2026-09-01T10:42:36.904Z</time>
      </trkpt>
      <trkpt lat="45.29289" lon="4.61969">
        <ele>504.719894</ele>
        <time>2026-09-01T10:42:38.930Z</time>
      </trkpt>
      <trkpt lat="45.29293" lon="4.61948">
        <ele>504.971047</ele>
        <time>2026-09-01T10:42:40.921Z</time>
      </trkpt>
      <trkpt lat="45.29296" lon="4.61927">
        <ele>505.230131</ele>
        <time>2026-09-01T10:42:42.921Z</time>
      </trkpt>
      <trkpt lat="45.29299" lon="4.61905">
        <ele>505.503853</ele>
        <time>2026-09-01T10:42:44.920Z</time>
      </trkpt>
      <trkpt lat="45.29303" lon="4.61883">
        <ele>505.777219</ele>
        <time>2026-09-01T10:42:46.919Z</time>
      </trkpt>
      <trkpt lat="45.29306" lon="4.61861">
        <ele>506.048202</ele>
        <time>2026-09-01T10:42:48.921Z</time>
      </trkpt>
      <trkpt lat="45.29309" lon="4.6184">
        <ele>506.31318</ele>
        <time>2026-09-01T10:42:50.917Z</time>
      </trkpt>
      <trkpt lat="45.29312" lon="4.61819">
        <ele>506.573931</ele>
        <time>2026-09-01T10:42:52.930Z</time>
      </trkpt>
      <trkpt lat="45.29315" lon="4.61799">
        <ele>506.820528</ele>
        <time>2026-09-01T10:42:54.929Z</time>
      </trkpt>
      <trkpt lat="45.29318" lon="4.6178">
        <ele>507.055104</ele>
        <time>2026-09-01T10:42:56.899Z</time>
      </trkpt>
      <trkpt lat="45.2932" lon="4.6176">
        <ele>507.302283</ele>
        <time>2026-09-01T10:42:58.920Z</time>
      </trkpt>
      <trkpt lat="45.29321" lon="4.61741">
        <ele>507.542304</ele>
        <time>2026-09-01T10:43:00.919Z</time>
      </trkpt>
      <trkpt lat="45.29321" lon="4.61722">
        <ele>507.771068</ele>
        <time>2026-09-01T10:43:02.919Z</time>
      </trkpt>
      <trkpt lat="45.2932" lon="4.61703">
        <ele>508.095506</ele>
        <time>2026-09-01T10:43:04.904Z</time>
      </trkpt>
      <trkpt lat="45.29317" lon="4.61685">
        <ele>508.460429</ele>
        <time>2026-09-01T10:43:06.919Z</time>
      </trkpt>
      <trkpt lat="45.29313" lon="4.61668">
        <ele>508.809639</ele>
        <time>2026-09-01T10:43:08.907Z</time>
      </trkpt>
      <trkpt lat="45.29309" lon="4.61651">
        <ele>509.162313</ele>
        <time>2026-09-01T10:43:10.918Z</time>
      </trkpt>
      <trkpt lat="45.29303" lon="4.61634">
        <ele>509.528194</ele>
        <time>2026-09-01T10:43:12.897Z</time>
      </trkpt>
      <trkpt lat="45.29298" lon="4.61618">
        <ele>509.875339</ele>
        <time>2026-09-01T10:43:14.915Z</time>
      </trkpt>
      <trkpt lat="45.29293" lon="4.61602">
        <ele>510.213559</ele>
        <time>2026-09-01T10:43:16.915Z</time>
      </trkpt>
      <trkpt lat="45.29289" lon="4.61586">
        <ele>510.545049</ele>
        <time>2026-09-01T10:43:18.916Z</time>
      </trkpt>
      <trkpt lat="45.29284" lon="4.61571">
        <ele>510.878737</ele>
        <time>2026-09-01T10:43:20.916Z</time>
      </trkpt>
      <trkpt lat="45.29277" lon="4.61556">
        <ele>511.227103</ele>
        <time>2026-09-01T10:43:22.916Z</time>
      </trkpt>
      <trkpt lat="45.29273" lon="4.61539">
        <ele>511.57533</ele>
        <time>2026-09-01T10:43:24.925Z</time>
      </trkpt>
      <trkpt lat="45.29267" lon="4.61522">
        <ele>511.947254</ele>
        <time>2026-09-01T10:43:26.903Z</time>
      </trkpt>
      <trkpt lat="45.29261" lon="4.61506">
        <ele>512.298417</ele>
        <time>2026-09-01T10:43:28.923Z</time>
      </trkpt>
      <trkpt lat="45.29259" lon="4.6149">
        <ele>512.622432</ele>
        <time>2026-09-01T10:43:30.921Z</time>
      </trkpt>
      <trkpt lat="45.29255" lon="4.61475">
        <ele>512.860086</ele>
        <time>2026-09-01T10:43:32.916Z</time>
      </trkpt>
      <trkpt lat="45.2925" lon="4.6146">
        <ele>512.977422</ele>
        <time>2026-09-01T10:43:34.914Z</time>
      </trkpt>
      <trkpt lat="45.29247" lon="4.61443">
        <ele>513.101313</ele>
        <time>2026-09-01T10:43:36.916Z</time>
      </trkpt>
      <trkpt lat="45.29244" lon="4.61429">
        <ele>513.206583</ele>
        <time>2026-09-01T10:43:38.920Z</time>
      </trkpt>
      <trkpt lat="45.2924" lon="4.61414">
        <ele>513.322052</ele>
        <time>2026-09-01T10:43:40.921Z</time>
      </trkpt>
      <trkpt lat="45.29237" lon="4.61398">
        <ele>513.439398</ele>
        <time>2026-09-01T10:43:42.903Z</time>
      </trkpt>
      <trkpt lat="45.29234" lon="4.61381">
        <ele>513.559847</ele>
        <time>2026-09-01T10:43:44.925Z</time>
      </trkpt>
      <trkpt lat="45.29232" lon="4.61364">
        <ele>513.683057</ele>
        <time>2026-09-01T10:43:46.926Z</time>
      </trkpt>
      <trkpt lat="45.29229" lon="4.61346">
        <ele>513.810365</ele>
        <time>2026-09-01T10:43:48.919Z</time>
      </trkpt>
      <trkpt lat="45.29228" lon="4.61328">
        <ele>513.939075</ele>
        <time>2026-09-01T10:43:50.923Z</time>
      </trkpt>
      <trkpt lat="45.29229" lon="4.61311">
        <ele>514.058201</ele>
        <time>2026-09-01T10:43:52.923Z</time>
      </trkpt>
      <trkpt lat="45.2923" lon="4.61296">
        <ele>514.166104</ele>
        <time>2026-09-01T10:43:54.922Z</time>
      </trkpt>
      <trkpt lat="45.29233" lon="4.61281">
        <ele>514.272793</ele>
        <time>2026-09-01T10:43:56.906Z</time>
      </trkpt>
      <trkpt lat="45.29234" lon="4.61266">
        <ele>514.383136</ele>
        <time>2026-09-01T10:43:58.924Z</time>
      </trkpt>
      <trkpt lat="45.29236" lon="4.6125">
        <ele>514.497777</ele>
        <time>2026-09-01T10:44:00.915Z</time>
      </trkpt>
      <trkpt lat="45.2924" lon="4.61236">
        <ele>514.603163</ele>
        <time>2026-09-01T10:44:02.923Z</time>
      </trkpt>
      <trkpt lat="45.29245" lon="4.61223">
        <ele>515.002621</ele>
        <time>2026-09-01T10:44:04.924Z</time>
      </trkpt>
      <trkpt lat="45.29251" lon="4.6121">
        <ele>515.536231</ele>
        <time>2026-09-01T10:44:06.918Z</time>
      </trkpt>
      <trkpt lat="45.29256" lon="4.61195">
        <ele>516.090026</ele>
        <time>2026-09-01T10:44:08.929Z</time>
      </trkpt>
      <trkpt lat="45.29262" lon="4.61182">
        <ele>516.630758</ele>
        <time>2026-09-01T10:44:10.919Z</time>
      </trkpt>
      <trkpt lat="45.29267" lon="4.61169">
        <ele>517.141149</ele>
        <time>2026-09-01T10:44:12.919Z</time>
      </trkpt>
      <trkpt lat="45.29273" lon="4.61155">
        <ele>517.670414</ele>
        <time>2026-09-01T10:44:14.923Z</time>
      </trkpt>
      <trkpt lat="45.29277" lon="4.6114">
        <ele>518.207549</ele>
        <time>2026-09-01T10:44:16.931Z</time>
      </trkpt>
      <trkpt lat="45.29279" lon="4.61126">
        <ele>518.717144</ele>
        <time>2026-09-01T10:44:18.923Z</time>
      </trkpt>
      <trkpt lat="45.29283" lon="4.61112">
        <ele>519.216033</ele>
        <time>2026-09-01T10:44:20.919Z</time>
      </trkpt>
      <trkpt lat="45.29286" lon="4.61099">
        <ele>519.693997</ele>
        <time>2026-09-01T10:44:22.923Z</time>
      </trkpt>
      <trkpt lat="45.29288" lon="4.61084">
        <ele>520.192192</ele>
        <time>2026-09-01T10:44:24.919Z</time>
      </trkpt>
      <trkpt lat="45.2929" lon="4.61066">
        <ele>520.826533</ele>
        <time>2026-09-01T10:44:26.929Z</time>
      </trkpt>
      <trkpt lat="45.29291" lon="4.61047">
        <ele>521.469554</ele>
        <time>2026-09-01T10:44:28.917Z</time>
      </trkpt>
      <trkpt lat="45.29291" lon="4.61029">
        <ele>522.059274</ele>
        <time>2026-09-01T10:44:30.929Z</time>
      </trkpt>
      <trkpt lat="45.29291" lon="4.61011">
        <ele>522.669309</ele>
        <time>2026-09-01T10:44:32.927Z</time>
      </trkpt>
      <trkpt lat="45.29291" lon="4.60995">
        <ele>523.238756</ele>
        <time>2026-09-01T10:44:34.921Z</time>
      </trkpt>
      <trkpt lat="45.2929" lon="4.60977">
        <ele>523.262696</ele>
        <time>2026-09-01T10:44:36.919Z</time>
      </trkpt>
      <trkpt lat="45.29289" lon="4.60961">
        <ele>523.231865</ele>
        <time>2026-09-01T10:44:38.937Z</time>
      </trkpt>
      <trkpt lat="45.29288" lon="4.60946">
        <ele>523.201005</ele>
        <time>2026-09-01T10:44:40.921Z</time>
      </trkpt>
      <trkpt lat="45.29288" lon="4.60926">
        <ele>523.16274</ele>
        <time>2026-09-01T10:44:42.920Z</time>
      </trkpt>
      <trkpt lat="45.29288" lon="4.60906">
        <ele>523.122108</ele>
        <time>2026-09-01T10:44:44.923Z</time>
      </trkpt>
      <trkpt lat="45.29288" lon="4.60885">
        <ele>523.080665</ele>
        <time>2026-09-01T10:44:46.924Z</time>
      </trkpt>
      <trkpt lat="45.29287" lon="4.60866">
        <ele>523.043013</ele>
        <time>2026-09-01T10:44:48.872Z</time>
      </trkpt>
      <trkpt lat="45.29285" lon="4.60845">
        <ele>523.001802</ele>
        <time>2026-09-01T10:44:50.924Z</time>
      </trkpt>
      <trkpt lat="45.29281" lon="4.60823">
        <ele>522.957695</ele>
        <time>2026-09-01T10:44:52.929Z</time>
      </trkpt>
      <trkpt lat="45.29277" lon="4.60802">
        <ele>522.913832</ele>
        <time>2026-09-01T10:44:54.910Z</time>
      </trkpt>
      <trkpt lat="45.29272" lon="4.60783">
        <ele>522.873437</ele>
        <time>2026-09-01T10:44:56.922Z</time>
      </trkpt>
      <trkpt lat="45.29266" lon="4.60764">
        <ele>522.833075</ele>
        <time>2026-09-01T10:44:58.919Z</time>
      </trkpt>
      <trkpt lat="45.29258" lon="4.60746">
        <ele>522.791642</ele>
        <time>2026-09-01T10:45:00.917Z</time>
      </trkpt>
      <trkpt lat="45.29251" lon="4.60726">
        <ele>522.800105</ele>
        <time>2026-09-01T10:45:02.920Z</time>
      </trkpt>
      <trkpt lat="45.29244" lon="4.60707">
        <ele>522.809912</ele>
        <time>2026-09-01T10:45:04.922Z</time>
      </trkpt>
      <trkpt lat="45.29239" lon="4.60687">
        <ele>522.819385</ele>
        <time>2026-09-01T10:45:06.927Z</time>
      </trkpt>
      <trkpt lat="45.29237" lon="4.60665">
        <ele>522.829341</ele>
        <time>2026-09-01T10:45:08.923Z</time>
      </trkpt>
      <trkpt lat="45.29235" lon="4.60645">
        <ele>522.838665</ele>
        <time>2026-09-01T10:45:10.919Z</time>
      </trkpt>
      <trkpt lat="45.29233" lon="4.60624">
        <ele>522.847862</ele>
        <time>2026-09-01T10:45:12.929Z</time>
      </trkpt>
      <trkpt lat="45.29231" lon="4.60603">
        <ele>522.857479</ele>
        <time>2026-09-01T10:45:14.921Z</time>
      </trkpt>
      <trkpt lat="45.2923" lon="4.60581">
        <ele>522.867527</ele>
        <time>2026-09-01T10:45:16.920Z</time>
      </trkpt>
      <trkpt lat="45.29231" lon="4.60558">
        <ele>522.878152</ele>
        <time>2026-09-01T10:45:18.922Z</time>
      </trkpt>
      <trkpt lat="45.2923" lon="4.60536">
        <ele>522.887866</ele>
        <time>2026-09-01T10:45:20.919Z</time>
      </trkpt>
      <trkpt lat="45.2923" lon="4.60515">
        <ele>522.897208</ele>
        <time>2026-09-01T10:45:22.921Z</time>
      </trkpt>
      <trkpt lat="45.29229" lon="4.60497">
        <ele>522.905569</ele>
        <time>2026-09-01T10:45:24.923Z</time>
      </trkpt>
      <trkpt lat="45.29228" lon="4.60477">
        <ele>523.115868</ele>
        <time>2026-09-01T10:45:26.919Z</time>
      </trkpt>
      <trkpt lat="45.29228" lon="4.60455">
        <ele>523.339725</ele>
        <time>2026-09-01T10:45:28.919Z</time>
      </trkpt>
      <trkpt lat="45.29228" lon="4.60437">
        <ele>523.533192</ele>
        <time>2026-09-01T10:45:30.920Z</time>
      </trkpt>
      <trkpt lat="45.29226" lon="4.60419">
        <ele>523.722695</ele>
        <time>2026-09-01T10:45:32.924Z</time>
      </trkpt>
      <trkpt lat="45.29225" lon="4.60401">
        <ele>523.9073</ele>
        <time>2026-09-01T10:45:34.923Z</time>
      </trkpt>
      <trkpt lat="45.29222" lon="4.60384">
        <ele>524.094609</ele>
        <time>2026-09-01T10:45:36.904Z</time>
      </trkpt>
      <trkpt lat="45.29222" lon="4.60367">
        <ele>524.267274</ele>
        <time>2026-09-01T10:45:38.932Z</time>
      </trkpt>
      <trkpt lat="45.29221" lon="4.60352">
        <ele>524.42845</ele>
        <time>2026-09-01T10:45:40.926Z</time>
      </trkpt>
      <trkpt lat="45.2922" lon="4.60336">
        <ele>524.592236</ele>
        <time>2026-09-01T10:45:42.924Z</time>
      </trkpt>
      <trkpt lat="45.29215" lon="4.60318">
        <ele>524.792449</ele>
        <time>2026-09-01T10:45:44.921Z</time>
      </trkpt>
      <trkpt lat="45.29213" lon="4.60302">
        <ele>524.969229</ele>
        <time>2026-09-01T10:45:46.909Z</time>
      </trkpt>
      <trkpt lat="45.2921" lon="4.60285">
        <ele>525.154146</ele>
        <time>2026-09-01T10:45:48.919Z</time>
      </trkpt>
      <trkpt lat="45.29209" lon="4.60267">
        <ele>525.343323</ele>
        <time>2026-09-01T10:45:50.918Z</time>
      </trkpt>
      <trkpt lat="45.29209" lon="4.6025">
        <ele>525.521057</ele>
        <time>2026-09-01T10:45:52.923Z</time>
      </trkpt>
      <trkpt lat="45.29208" lon="4.60232">
        <ele>525.781398</ele>
        <time>2026-09-01T10:45:54.919Z</time>
      </trkpt>
      <trkpt lat="45.29208" lon="4.60216">
        <ele>526.072908</ele>
        <time>2026-09-01T10:45:56.921Z</time>
      </trkpt>
      <trkpt lat="45.29206" lon="4.602">
        <ele>526.353076</ele>
        <time>2026-09-01T10:45:58.925Z</time>
      </trkpt>
      <trkpt lat="45.29205" lon="4.60184">
        <ele>526.626158</ele>
        <time>2026-09-01T10:46:00.931Z</time>
      </trkpt>
      <trkpt lat="45.29204" lon="4.60167">
        <ele>526.917338</ele>
        <time>2026-09-01T10:46:02.920Z</time>
      </trkpt>
      <trkpt lat="45.29201" lon="4.60153">
        <ele>527.177884</ele>
        <time>2026-09-01T10:46:04.935Z</time>
      </trkpt>
      <trkpt lat="45.29199" lon="4.60138">
        <ele>527.441903</ele>
        <time>2026-09-01T10:46:06.894Z</time>
      </trkpt>
      <trkpt lat="45.29195" lon="4.60123">
        <ele>527.71353</ele>
        <time>2026-09-01T10:46:08.939Z</time>
      </trkpt>
      <trkpt lat="45.29191" lon="4.60109">
        <ele>527.986773</ele>
        <time>2026-09-01T10:46:10.905Z</time>
      </trkpt>
      <trkpt lat="45.29185" lon="4.60095">
        <ele>528.254791</ele>
        <time>2026-09-01T10:46:12.919Z</time>
      </trkpt>
      <trkpt lat="45.29179" lon="4.60081">
        <ele>528.541265</ele>
        <time>2026-09-01T10:46:14.918Z</time>
      </trkpt>
      <trkpt lat="45.29171" lon="4.60069">
        <ele>528.830611</ele>
        <time>2026-09-01T10:46:16.920Z</time>
      </trkpt>
      <trkpt lat="45.29163" lon="4.60056">
        <ele>529.128598</ele>
        <time>2026-09-01T10:46:18.917Z</time>
      </trkpt>
      <trkpt lat="45.29153" lon="4.60044">
        <ele>529.448099</ele>
        <time>2026-09-01T10:46:20.918Z</time>
      </trkpt>
      <trkpt lat="45.29143" lon="4.60033">
        <ele>529.771934</ele>
        <time>2026-09-01T10:46:22.915Z</time>
      </trkpt>
      <trkpt lat="45.29132" lon="4.60022">
        <ele>530.141476</ele>
        <time>2026-09-01T10:46:24.920Z</time>
      </trkpt>
      <trkpt lat="45.29122" lon="4.60013">
        <ele>530.727849</ele>
        <time>2026-09-01T10:46:26.916Z</time>
      </trkpt>
      <trkpt lat="45.29111" lon="4.60002">
        <ele>531.319245</ele>
        <time>2026-09-01T10:46:28.923Z</time>
      </trkpt>
      <trkpt lat="45.291" lon="4.59992">
        <ele>531.916235</ele>
        <time>2026-09-01T10:46:30.920Z</time>
      </trkpt>
      <trkpt lat="45.2909" lon="4.59981">
        <ele>532.505615</ele>
        <time>2026-09-01T10:46:32.924Z</time>
      </trkpt>
      <trkpt lat="45.2908" lon="4.59971">
        <ele>533.053168</ele>
        <time>2026-09-01T10:46:34.917Z</time>
      </trkpt>
      <trkpt lat="45.2907" lon="4.59959">
        <ele>533.643017</ele>
        <time>2026-09-01T10:46:36.922Z</time>
      </trkpt>
      <trkpt lat="45.2906" lon="4.59948">
        <ele>534.212904</ele>
        <time>2026-09-01T10:46:38.921Z</time>
      </trkpt>
      <trkpt lat="45.2905" lon="4.59937">
        <ele>534.799138</ele>
        <time>2026-09-01T10:46:40.927Z</time>
      </trkpt>
      <trkpt lat="45.29039" lon="4.59926">
        <ele>535.405361</ele>
        <time>2026-09-01T10:46:42.920Z</time>
      </trkpt>
      <trkpt lat="45.29029" lon="4.59917">
        <ele>535.984043</ele>
        <time>2026-09-01T10:46:44.944Z</time>
      </trkpt>
      <trkpt lat="45.29019" lon="4.59906">
        <ele>536.542021</ele>
        <time>2026-09-01T10:46:46.900Z</time>
      </trkpt>
      <trkpt lat="45.29012" lon="4.59894">
        <ele>537.054017</ele>
        <time>2026-09-01T10:46:48.931Z</time>
      </trkpt>
      <trkpt lat="45.29005" lon="4.59881">
        <ele>537.559607</ele>
        <time>2026-09-01T10:46:50.921Z</time>
      </trkpt>
      <trkpt lat="45.28999" lon="4.59868">
        <ele>538.076445</ele>
        <time>2026-09-01T10:46:52.924Z</time>
      </trkpt>
      <trkpt lat="45.28994" lon="4.59854">
        <ele>538.304061</ele>
        <time>2026-09-01T10:46:54.922Z</time>
      </trkpt>
      <trkpt lat="45.28989" lon="4.59839">
        <ele>538.402813</ele>
        <time>2026-09-01T10:46:56.923Z</time>
      </trkpt>
      <trkpt lat="45.28986" lon="4.59823">
        <ele>538.506822</ele>
        <time>2026-09-01T10:46:58.925Z</time>
      </trkpt>
      <trkpt lat="45.28985" lon="4.59806">
        <ele>538.605944</ele>
        <time>2026-09-01T10:47:00.918Z</time>
      </trkpt>
      <trkpt lat="45.28984" lon="4.59789">
        <ele>538.710877</ele>
        <time>2026-09-01T10:47:02.922Z</time>
      </trkpt>
      <trkpt lat="45.28984" lon="4.59771">
        <ele>538.819541</ele>
        <time>2026-09-01T10:47:04.927Z</time>
      </trkpt>
      <trkpt lat="45.28983" lon="4.59753">
        <ele>538.924004</ele>
        <time>2026-09-01T10:47:06.923Z</time>
      </trkpt>
      <trkpt lat="45.28983" lon="4.59735">
        <ele>539.032203</ele>
        <time>2026-09-01T10:47:08.911Z</time>
      </trkpt>
      <trkpt lat="45.28982" lon="4.59718">
        <ele>539.135189</ele>
        <time>2026-09-01T10:47:10.919Z</time>
      </trkpt>
      <trkpt lat="45.28979" lon="4.59703">
        <ele>539.231439</ele>
        <time>2026-09-01T10:47:12.939Z</time>
      </trkpt>
      <trkpt lat="45.28978" lon="4.59687">
        <ele>539.324784</ele>
        <time>2026-09-01T10:47:14.925Z</time>
      </trkpt>
      <trkpt lat="45.28978" lon="4.59671">
        <ele>539.422618</ele>
        <time>2026-09-01T10:47:16.924Z</time>
      </trkpt>
      <trkpt lat="45.2898" lon="4.59654">
        <ele>539.523461</ele>
        <time>2026-09-01T10:47:18.921Z</time>
      </trkpt>
      <trkpt lat="45.28983" lon="4.5964">
        <ele>539.616036</ele>
        <time>2026-09-01T10:47:20.922Z</time>
      </trkpt>
      <trkpt lat="45.28989" lon="4.59626">
        <ele>539.710399</ele>
        <time>2026-09-01T10:47:22.915Z</time>
      </trkpt>
      <trkpt lat="45.28995" lon="4.59615">
        <ele>539.817294</ele>
        <time>2026-09-01T10:47:24.928Z</time>
      </trkpt>
      <trkpt lat="45.29003" lon="4.59605">
        <ele>539.996697</ele>
        <time>2026-09-01T10:47:26.923Z</time>
      </trkpt>
      <trkpt lat="45.29012" lon="4.59595">
        <ele>540.19877</ele>
        <time>2026-09-01T10:47:28.922Z</time>
      </trkpt>
      <trkpt lat="45.29022" lon="4.59585">
        <ele>540.411254</ele>
        <time>2026-09-01T10:47:30.928Z</time>
      </trkpt>
      <trkpt lat="45.2903" lon="4.59576">
        <ele>540.597469</ele>
        <time>2026-09-01T10:47:32.926Z</time>
      </trkpt>
      <trkpt lat="45.29037" lon="4.59567">
        <ele>540.76205</ele>
        <time>2026-09-01T10:47:34.927Z</time>
      </trkpt>
      <trkpt lat="45.29046" lon="4.59555">
        <ele>540.97095</ele>
        <time>2026-09-01T10:47:36.923Z</time>
      </trkpt>
      <trkpt lat="45.29055" lon="4.59542">
        <ele>541.192255</ele>
        <time>2026-09-01T10:47:38.920Z</time>
      </trkpt>
      <trkpt lat="45.29065" lon="4.59527">
        <ele>541.449049</ele>
        <time>2026-09-01T10:47:40.920Z</time>
      </trkpt>
      <trkpt lat="45.29073" lon="4.5951">
        <ele>541.693365</ele>
        <time>2026-09-01T10:47:42.922Z</time>
      </trkpt>
      <trkpt lat="45.29078" lon="4.59495">
        <ele>541.906826</ele>
        <time>2026-09-01T10:47:44.931Z</time>
      </trkpt>
      <trkpt lat="45.29087" lon="4.5948">
        <ele>542.147059</ele>
        <time>2026-09-01T10:47:46.916Z</time>
      </trkpt>
      <trkpt lat="45.29096" lon="4.59464">
        <ele>542.390297</ele>
        <time>2026-09-01T10:47:48.920Z</time>
      </trkpt>
      <trkpt lat="45.29101" lon="4.59447">
        <ele>542.621073</ele>
        <time>2026-09-01T10:47:50.920Z</time>
      </trkpt>
      <trkpt lat="45.29105" lon="4.59428">
        <ele>542.857314</ele>
        <time>2026-09-01T10:47:52.918Z</time>
      </trkpt>
      <trkpt lat="45.29107" lon="4.59409">
        <ele>543.371503</ele>
        <time>2026-09-01T10:47:54.922Z</time>
      </trkpt>
      <trkpt lat="45.2911" lon="4.5939">
        <ele>543.963318</ele>
        <time>2026-09-01T10:47:56.918Z</time>
      </trkpt>
      <trkpt lat="45.29112" lon="4.59371">
        <ele>544.558887</ele>
        <time>2026-09-01T10:47:58.926Z</time>
      </trkpt>
      <trkpt lat="45.29118" lon="4.59352">
        <ele>545.156677</ele>
        <time>2026-09-01T10:48:00.926Z</time>
      </trkpt>
      <trkpt lat="45.29123" lon="4.59336">
        <ele>545.701903</ele>
        <time>2026-09-01T10:48:02.908Z</time>
      </trkpt>
      <trkpt lat="45.29129" lon="4.59321">
        <ele>546.248839</ele>
        <time>2026-09-01T10:48:04.918Z</time>
      </trkpt>
      <trkpt lat="45.29136" lon="4.59306">
        <ele>546.760893</ele>
        <time>2026-09-01T10:48:06.920Z</time>
      </trkpt>
      <trkpt lat="45.29145" lon="4.59296">
        <ele>547.267624</ele>
        <time>2026-09-01T10:48:08.927Z</time>
      </trkpt>
      <trkpt lat="45.29155" lon="4.59288">
        <ele>547.746898</ele>
        <time>2026-09-01T10:48:10.926Z</time>
      </trkpt>
      <trkpt lat="45.29165" lon="4.59282">
        <ele>548.238553</ele>
        <time>2026-09-01T10:48:12.911Z</time>
      </trkpt>
      <trkpt lat="45.29175" lon="4.59278">
        <ele>548.684315</ele>
        <time>2026-09-01T10:48:14.919Z</time>
      </trkpt>
      <trkpt lat="45.29186" lon="4.59276">
        <ele>549.152094</ele>
        <time>2026-09-01T10:48:16.919Z</time>
      </trkpt>
      <trkpt lat="45.29197" lon="4.59274">
        <ele>549.64371</ele>
        <time>2026-09-01T10:48:18.920Z</time>
      </trkpt>
      <trkpt lat="45.29209" lon="4.5927">
        <ele>550.158873</ele>
        <time>2026-09-01T10:48:20.921Z</time>
      </trkpt>
      <trkpt lat="45.29221" lon="4.59266">
        <ele>550.670181</ele>
        <time>2026-09-01T10:48:22.922Z</time>
      </trkpt>
      <trkpt lat="45.29231" lon="4.59264">
        <ele>550.629366</ele>
        <time>2026-09-01T10:48:24.915Z</time>
      </trkpt>
      <trkpt lat="45.29242" lon="4.59263">
        <ele>550.588959</ele>
        <time>2026-09-01T10:48:26.920Z</time>
      </trkpt>
      <trkpt lat="45.29251" lon="4.59264">
        <ele>550.554304</ele>
        <time>2026-09-01T10:48:28.918Z</time>
      </trkpt>
      <trkpt lat="45.29261" lon="4.59264">
        <ele>550.515932</ele>
        <time>2026-09-01T10:48:30.919Z</time>
      </trkpt>
      <trkpt lat="45.29276" lon="4.59263">
        <ele>550.459431</ele>
        <time>2026-09-01T10:48:33.920Z</time>
      </trkpt>
      <trkpt lat="45.29289" lon="4.59261">
        <ele>550.408539</ele>
        <time>2026-09-01T10:48:35.921Z</time>
      </trkpt>
      <trkpt lat="45.29302" lon="4.59258">
        <ele>550.357752</ele>
        <time>2026-09-01T10:48:37.908Z</time>
      </trkpt>
      <trkpt lat="45.29315" lon="4.59255">
        <ele>550.307124</ele>
        <time>2026-09-01T10:48:39.925Z</time>
      </trkpt>
      <trkpt lat="45.29326" lon="4.59254">
        <ele>550.265294</ele>
        <time>2026-09-01T10:48:41.923Z</time>
      </trkpt>
      <trkpt lat="45.29338" lon="4.59253">
        <ele>550.219875</ele>
        <time>2026-09-01T10:48:43.923Z</time>
      </trkpt>
      <trkpt lat="45.29349" lon="4.59253">
        <ele>550.1765</ele>
        <time>2026-09-01T10:48:45.919Z</time>
      </trkpt>
      <trkpt lat="45.2936" lon="4.59252">
        <ele>550.132226</ele>
        <time>2026-09-01T10:48:47.919Z</time>
      </trkpt>
      <trkpt lat="45.29372" lon="4.5925">
        <ele>550.087015</ele>
        <time>2026-09-01T10:48:49.935Z</time>
      </trkpt>
      <trkpt lat="45.29385" lon="4.59248">
        <ele>550.035769</ele>
        <time>2026-09-01T10:48:51.919Z</time>
      </trkpt>
      <trkpt lat="45.29396" lon="4.59248">
        <ele>549.994747</ele>
        <time>2026-09-01T10:48:53.920Z</time>
      </trkpt>
      <trkpt lat="45.29408" lon="4.59246">
        <ele>550.08087</ele>
        <time>2026-09-01T10:48:55.917Z</time>
      </trkpt>
      <trkpt lat="45.29418" lon="4.59248">
        <ele>550.196574</ele>
        <time>2026-09-01T10:48:57.923Z</time>
      </trkpt>
      <trkpt lat="45.29428" lon="4.59249">
        <ele>550.317711</ele>
        <time>2026-09-01T10:48:59.936Z</time>
      </trkpt>
      <trkpt lat="45.29438" lon="4.59249">
        <ele>550.430787</ele>
        <time>2026-09-01T10:49:01.916Z</time>
      </trkpt>
      <trkpt lat="45.29449" lon="4.5925">
        <ele>550.55132</ele>
        <time>2026-09-01T10:49:03.922Z</time>
      </trkpt>
      <trkpt lat="45.29459" lon="4.59252">
        <ele>550.672774</ele>
        <time>2026-09-01T10:49:05.920Z</time>
      </trkpt>
      <trkpt lat="45.29471" lon="4.5925">
        <ele>550.803339</ele>
        <time>2026-09-01T10:49:07.921Z</time>
      </trkpt>
      <trkpt lat="45.29481" lon="4.59248">
        <ele>550.920873</ele>
        <time>2026-09-01T10:49:09.925Z</time>
      </trkpt>
      <trkpt lat="45.29492" lon="4.59248">
        <ele>551.046638</ele>
        <time>2026-09-01T10:49:11.931Z</time>
      </trkpt>
      <trkpt lat="45.29505" lon="4.59248">
        <ele>551.191704</ele>
        <time>2026-09-01T10:49:13.925Z</time>
      </trkpt>
      <trkpt lat="45.29516" lon="4.59249">
        <ele>551.325399</ele>
        <time>2026-09-01T10:49:15.917Z</time>
      </trkpt>
      <trkpt lat="45.29528" lon="4.59247">
        <ele>551.458242</ele>
        <time>2026-09-01T10:49:17.931Z</time>
      </trkpt>
      <trkpt lat="45.29539" lon="4.59244">
        <ele>551.591786</ele>
        <time>2026-09-01T10:49:19.919Z</time>
      </trkpt>
      <trkpt lat="45.29549" lon="4.59241">
        <ele>551.709041</ele>
        <time>2026-09-01T10:49:21.920Z</time>
      </trkpt>
      <trkpt lat="45.2956" lon="4.59237">
        <ele>551.839134</ele>
        <time>2026-09-01T10:49:23.909Z</time>
      </trkpt>
      <trkpt lat="45.29571" lon="4.59235">
        <ele>551.962506</ele>
        <time>2026-09-01T10:49:25.922Z</time>
      </trkpt>
      <trkpt lat="45.29581" lon="4.59234">
        <ele>552.153688</ele>
        <time>2026-09-01T10:49:27.925Z</time>
      </trkpt>
      <trkpt lat="45.29591" lon="4.59231">
        <ele>552.473738</ele>
        <time>2026-09-01T10:49:29.927Z</time>
      </trkpt>
      <trkpt lat="45.29602" lon="4.59228">
        <ele>552.823914</ele>
        <time>2026-09-01T10:49:31.920Z</time>
      </trkpt>
      <trkpt lat="45.29614" lon="4.59221">
        <ele>553.218283</ele>
        <time>2026-09-01T10:49:33.919Z</time>
      </trkpt>
      <trkpt lat="45.29626" lon="4.59216">
        <ele>553.624723</ele>
        <time>2026-09-01T10:49:35.924Z</time>
      </trkpt>
      <trkpt lat="45.29637" lon="4.59211">
        <ele>553.984148</ele>
        <time>2026-09-01T10:49:37.913Z</time>
      </trkpt>
      <trkpt lat="45.29648" lon="4.59205">
        <ele>554.353199</ele>
        <time>2026-09-01T10:49:39.920Z</time>
      </trkpt>
      <trkpt lat="45.29658" lon="4.592">
        <ele>554.685895</ele>
        <time>2026-09-01T10:49:41.928Z</time>
      </trkpt>
      <trkpt lat="45.29668" lon="4.59195">
        <ele>555.009646</ele>
        <time>2026-09-01T10:49:43.920Z</time>
      </trkpt>
      <trkpt lat="45.29678" lon="4.59188">
        <ele>555.373422</ele>
        <time>2026-09-01T10:49:45.929Z</time>
      </trkpt>
      <trkpt lat="45.29689" lon="4.59183">
        <ele>555.74413</ele>
        <time>2026-09-01T10:49:47.926Z</time>
      </trkpt>
      <trkpt lat="45.297" lon="4.59177">
        <ele>556.107263</ele>
        <time>2026-09-01T10:49:49.918Z</time>
      </trkpt>
      <trkpt lat="45.2971" lon="4.59171">
        <ele>556.465368</ele>
        <time>2026-09-01T10:49:51.919Z</time>
      </trkpt>
      <trkpt lat="45.29721" lon="4.59164">
        <ele>556.827519</ele>
        <time>2026-09-01T10:49:53.921Z</time>
      </trkpt>
      <trkpt lat="45.29731" lon="4.59158">
        <ele>557.184229</ele>
        <time>2026-09-01T10:49:55.917Z</time>
      </trkpt>
      <trkpt lat="45.2974" lon="4.59153">
        <ele>557.483464</ele>
        <time>2026-09-01T10:49:57.921Z</time>
      </trkpt>
      <trkpt lat="45.2975" lon="4.59147">
        <ele>557.879385</ele>
        <time>2026-09-01T10:49:59.924Z</time>
      </trkpt>
      <trkpt lat="45.2976" lon="4.59141">
        <ele>558.404478</ele>
        <time>2026-09-01T10:50:01.920Z</time>
      </trkpt>
      <trkpt lat="45.2977" lon="4.59137">
        <ele>558.934238</ele>
        <time>2026-09-01T10:50:03.919Z</time>
      </trkpt>
      <trkpt lat="45.29779" lon="4.59132">
        <ele>559.404982</ele>
        <time>2026-09-01T10:50:05.920Z</time>
      </trkpt>
      <trkpt lat="45.29788" lon="4.59127">
        <ele>559.871682</ele>
        <time>2026-09-01T10:50:07.921Z</time>
      </trkpt>
      <trkpt lat="45.29797" lon="4.5912">
        <ele>560.391351</ele>
        <time>2026-09-01T10:50:09.923Z</time>
      </trkpt>
      <trkpt lat="45.29806" lon="4.59112">
        <ele>560.877676</ele>
        <time>2026-09-01T10:50:11.933Z</time>
      </trkpt>
      <trkpt lat="45.29815" lon="4.59106">
        <ele>561.379541</ele>
        <time>2026-09-01T10:50:13.917Z</time>
      </trkpt>
      <trkpt lat="45.29824" lon="4.59097">
        <ele>561.91441</ele>
        <time>2026-09-01T10:50:15.922Z</time>
      </trkpt>
      <trkpt lat="45.29831" lon="4.59087">
        <ele>562.394448</ele>
        <time>2026-09-01T10:50:17.920Z</time>
      </trkpt>
      <trkpt lat="45.29838" lon="4.59077">
        <ele>562.877995</ele>
        <time>2026-09-01T10:50:19.920Z</time>
      </trkpt>
      <trkpt lat="45.29846" lon="4.59066">
        <ele>563.41995</ele>
        <time>2026-09-01T10:50:21.920Z</time>
      </trkpt>
      <trkpt lat="45.29853" lon="4.59055">
        <ele>563.952635</ele>
        <time>2026-09-01T10:50:23.919Z</time>
      </trkpt>
      <trkpt lat="45.29861" lon="4.59044">
        <ele>564.478693</ele>
        <time>2026-09-01T10:50:25.919Z</time>
      </trkpt>
      <trkpt lat="45.29869" lon="4.59033">
        <ele>565.03796</ele>
        <time>2026-09-01T10:50:27.928Z</time>
      </trkpt>
      <trkpt lat="45.29876" lon="4.59021">
        <ele>565.574979</ele>
        <time>2026-09-01T10:50:29.911Z</time>
      </trkpt>
      <trkpt lat="45.29884" lon="4.5901">
        <ele>566.117897</ele>
        <time>2026-09-01T10:50:31.917Z</time>
      </trkpt>
      <trkpt lat="45.29892" lon="4.58999">
        <ele>566.488952</ele>
        <time>2026-09-01T10:50:33.920Z</time>
      </trkpt>
      <trkpt lat="45.29899" lon="4.58987">
        <ele>566.391824</ele>
        <time>2026-09-01T10:50:35.925Z</time>
      </trkpt>
      <trkpt lat="45.29906" lon="4.58975">
        <ele>566.293593</ele>
        <time>2026-09-01T10:50:37.926Z</time>
      </trkpt>
      <trkpt lat="45.29913" lon="4.58964">
        <ele>566.196194</ele>
        <time>2026-09-01T10:50:39.920Z</time>
      </trkpt>
      <trkpt lat="45.2992" lon="4.58953">
        <ele>566.098175</ele>
        <time>2026-09-01T10:50:41.924Z</time>
      </trkpt>
      <trkpt lat="45.29927" lon="4.58942">
        <ele>566.005268</ele>
        <time>2026-09-01T10:50:43.917Z</time>
      </trkpt>
      <trkpt lat="45.29932" lon="4.5893">
        <ele>565.913163</ele>
        <time>2026-09-01T10:50:45.935Z</time>
      </trkpt>
      <trkpt lat="45.29937" lon="4.58917">
        <ele>565.823994</ele>
        <time>2026-09-01T10:50:47.925Z</time>
      </trkpt>
      <trkpt lat="45.29942" lon="4.58905">
        <ele>565.731712</ele>
        <time>2026-09-01T10:50:49.926Z</time>
      </trkpt>
      <trkpt lat="45.29946" lon="4.58891">
        <ele>565.637093</ele>
        <time>2026-09-01T10:50:51.938Z</time>
      </trkpt>
      <trkpt lat="45.29949" lon="4.58878">
        <ele>565.551312</ele>
        <time>2026-09-01T10:50:53.918Z</time>
      </trkpt>
      <trkpt lat="45.29951" lon="4.58864">
        <ele>565.458362</ele>
        <time>2026-09-01T10:50:55.916Z</time>
      </trkpt>
      <trkpt lat="45.29952" lon="4.58849">
        <ele>565.361298</ele>
        <time>2026-09-01T10:50:57.920Z</time>
      </trkpt>
      <trkpt lat="45.29952" lon="4.58834">
        <ele>565.268056</ele>
        <time>2026-09-01T10:50:59.913Z</time>
      </trkpt>
      <trkpt lat="45.29952" lon="4.58821">
        <ele>565.180647</ele>
        <time>2026-09-01T10:51:01.913Z</time>
      </trkpt>
      <trkpt lat="45.2995" lon="4.58807">
        <ele>565.093679</ele>
        <time>2026-09-01T10:51:03.923Z</time>
      </trkpt>
      <trkpt lat="45.2995" lon="4.58791">
        <ele>564.991601</ele>
        <time>2026-09-01T10:51:05.891Z</time>
      </trkpt>
      <trkpt lat="45.2995" lon="4.58774">
        <ele>564.880004</ele>
        <time>2026-09-01T10:51:07.879Z</time>
      </trkpt>
      <trkpt lat="45.2995" lon="4.58759">
        <ele>564.584481</ele>
        <time>2026-09-01T10:51:09.881Z</time>
      </trkpt>
      <trkpt lat="45.2995" lon="4.58741">
        <ele>564.243547</ele>
        <time>2026-09-01T10:51:11.909Z</time>
      </trkpt>
      <trkpt lat="45.29948" lon="4.58723">
        <ele>563.907777</ele>
        <time>2026-09-01T10:51:13.920Z</time>
      </trkpt>
      <trkpt lat="45.29946" lon="4.58707">
        <ele>563.592163</ele>
        <time>2026-09-01T10:51:15.921Z</time>
      </trkpt>
      <trkpt lat="45.29945" lon="4.58691">
        <ele>563.288858</ele>
        <time>2026-09-01T10:51:17.893Z</time>
      </trkpt>
      <trkpt lat="45.29943" lon="4.58677">
        <ele>563.003166</ele>
        <time>2026-09-01T10:51:19.884Z</time>
      </trkpt>
      <trkpt lat="45.29942" lon="4.58661">
        <ele>562.712403</ele>
        <time>2026-09-01T10:51:21.918Z</time>
      </trkpt>
      <trkpt lat="45.29941" lon="4.58645">
        <ele>562.406466</ele>
        <time>2026-09-01T10:51:23.918Z</time>
      </trkpt>
      <trkpt lat="45.2994" lon="4.5863">
        <ele>562.118248</ele>
        <time>2026-09-01T10:51:25.919Z</time>
      </trkpt>
      <trkpt lat="45.2994" lon="4.58613">
        <ele>561.784844</ele>
        <time>2026-09-01T10:51:27.913Z</time>
      </trkpt>
      <trkpt lat="45.29942" lon="4.58598">
        <ele>561.49355</ele>
        <time>2026-09-01T10:51:29.872Z</time>
      </trkpt>
      <trkpt lat="45.29944" lon="4.58583">
        <ele>561.206055</ele>
        <time>2026-09-01T10:51:31.913Z</time>
      </trkpt>
      <trkpt lat="45.29946" lon="4.58566">
        <ele>560.876339</ele>
        <time>2026-09-01T10:51:33.917Z</time>
      </trkpt>
      <trkpt lat="45.29947" lon="4.58549">
        <ele>560.559466</ele>
        <time>2026-09-01T10:51:35.918Z</time>
      </trkpt>
      <trkpt lat="45.29947" lon="4.58532">
        <ele>560.219756</ele>
        <time>2026-09-01T10:51:37.912Z</time>
      </trkpt>
      <trkpt lat="45.29947" lon="4.58515">
        <ele>560.066057</ele>
        <time>2026-09-01T10:51:39.917Z</time>
      </trkpt>
      <trkpt lat="45.29948" lon="4.58498">
        <ele>560.23122</ele>
        <time>2026-09-01T10:51:41.915Z</time>
      </trkpt>
      <trkpt lat="45.29949" lon="4.58482">
        <ele>560.395786</ele>
        <time>2026-09-01T10:51:43.919Z</time>
      </trkpt>
      <trkpt lat="45.2995" lon="4.58462">
        <ele>560.585479</ele>
        <time>2026-09-01T10:51:45.917Z</time>
      </trkpt>
      <trkpt lat="45.29952" lon="4.58444">
        <ele>560.766769</ele>
        <time>2026-09-01T10:51:47.921Z</time>
      </trkpt>
      <trkpt lat="45.29955" lon="4.58425">
        <ele>560.950173</ele>
        <time>2026-09-01T10:51:49.914Z</time>
      </trkpt>
      <trkpt lat="45.29959" lon="4.58406">
        <ele>561.14339</ele>
        <time>2026-09-01T10:51:51.919Z</time>
      </trkpt>
      <trkpt lat="45.29965" lon="4.5839">
        <ele>561.32283</ele>
        <time>2026-09-01T10:51:53.921Z</time>
      </trkpt>
      <trkpt lat="45.29972" lon="4.58374">
        <ele>561.504035</ele>
        <time>2026-09-01T10:51:55.927Z</time>
      </trkpt>
      <trkpt lat="45.29977" lon="4.58356">
        <ele>561.686117</ele>
        <time>2026-09-01T10:51:57.929Z</time>
      </trkpt>
      <trkpt lat="45.29981" lon="4.58339">
        <ele>561.867443</ele>
        <time>2026-09-01T10:51:59.908Z</time>
      </trkpt>
      <trkpt lat="45.29985" lon="4.58321">
        <ele>562.045225</ele>
        <time>2026-09-01T10:52:01.913Z</time>
      </trkpt>
      <trkpt lat="45.29988" lon="4.58303">
        <ele>562.228628</ele>
        <time>2026-09-01T10:52:03.919Z</time>
      </trkpt>
      <trkpt lat="45.29989" lon="4.58285">
        <ele>562.404271</ele>
        <time>2026-09-01T10:52:05.903Z</time>
      </trkpt>
      <trkpt lat="45.29989" lon="4.58266">
        <ele>562.639689</ele>
        <time>2026-09-01T10:52:07.915Z</time>
      </trkpt>
      <trkpt lat="45.2999" lon="4.58247">
        <ele>562.951992</ele>
        <time>2026-09-01T10:52:09.917Z</time>
      </trkpt>
      <trkpt lat="45.2999" lon="4.5823">
        <ele>563.240866</ele>
        <time>2026-09-01T10:52:11.921Z</time>
      </trkpt>
      <trkpt lat="45.29989" lon="4.58214">
        <ele>563.507565</ele>
        <time>2026-09-01T10:52:13.916Z</time>
      </trkpt>
      <trkpt lat="45.29991" lon="4.58199">
        <ele>563.745534</ele>
        <time>2026-09-01T10:52:15.932Z</time>
      </trkpt>
      <trkpt lat="45.29992" lon="4.58185">
        <ele>563.989158</ele>
        <time>2026-09-01T10:52:17.916Z</time>
      </trkpt>
      <trkpt lat="45.29988" lon="4.58172">
        <ele>564.21728</ele>
        <time>2026-09-01T10:52:20.922Z</time>
      </trkpt>
      <trkpt lat="45.29985" lon="4.58157">
        <ele>564.478678</ele>
        <time>2026-09-01T10:53:13.928Z</time>
      </trkpt>
      <trkpt lat="45.29986" lon="4.58141">
        <ele>564.744448</ele>
        <time>2026-09-01T10:53:16.916Z</time>
      </trkpt>
      <trkpt lat="45.29984" lon="4.58122">
        <ele>565.046597</ele>
        <time>2026-09-01T10:53:19.922Z</time>
      </trkpt>
      <trkpt lat="45.29986" lon="4.58109">
        <ele>565.270741</ele>
        <time>2026-09-01T10:53:21.923Z</time>
      </trkpt>
      <trkpt lat="45.29985" lon="4.58094">
        <ele>565.508825</ele>
        <time>2026-09-01T10:53:23.916Z</time>
      </trkpt>
      <trkpt lat="45.29985" lon="4.5808">
        <ele>565.741703</ele>
        <time>2026-09-01T10:53:25.928Z</time>
      </trkpt>
      <trkpt lat="45.29986" lon="4.58065">
        <ele>565.992547</ele>
        <time>2026-09-01T10:53:27.913Z</time>
      </trkpt>
      <trkpt lat="45.29985" lon="4.58049">
        <ele>566.253713</ele>
        <time>2026-09-01T10:53:29.921Z</time>
      </trkpt>
      <trkpt lat="45.29982" lon="4.58033">
        <ele>566.527294</ele>
        <time>2026-09-01T10:53:31.922Z</time>
      </trkpt>
      <trkpt lat="45.29979" lon="4.58017">
        <ele>566.662058</ele>
        <time>2026-09-01T10:53:33.924Z</time>
      </trkpt>
      <trkpt lat="45.29978" lon="4.58">
        <ele>566.583275</ele>
        <time>2026-09-01T10:53:35.919Z</time>
      </trkpt>
      <trkpt lat="45.29976" lon="4.57983">
        <ele>566.508316</ele>
        <time>2026-09-01T10:53:37.917Z</time>
      </trkpt>
      <trkpt lat="45.29975" lon="4.57966">
        <ele>566.43159</ele>
        <time>2026-09-01T10:53:39.926Z</time>
      </trkpt>
      <trkpt lat="45.29976" lon="4.5795">
        <ele>566.358099</ele>
        <time>2026-09-01T10:53:41.927Z</time>
      </trkpt>
      <trkpt lat="45.29974" lon="4.57933">
        <ele>566.28317</ele>
        <time>2026-09-01T10:53:43.922Z</time>
      </trkpt>
      <trkpt lat="45.29973" lon="4.57917">
        <ele>566.208512</ele>
        <time>2026-09-01T10:53:45.923Z</time>
      </trkpt>
      <trkpt lat="45.29973" lon="4.57901">
        <ele>566.136854</ele>
        <time>2026-09-01T10:53:47.918Z</time>
      </trkpt>
      <trkpt lat="45.29972" lon="4.57885">
        <ele>566.066381</ele>
        <time>2026-09-01T10:53:49.933Z</time>
      </trkpt>
      <trkpt lat="45.29972" lon="4.5787">
        <ele>566.00057</ele>
        <time>2026-09-01T10:53:51.916Z</time>
      </trkpt>
      <trkpt lat="45.29972" lon="4.57854">
        <ele>565.92849</ele>
        <time>2026-09-01T10:53:53.926Z</time>
      </trkpt>
      <trkpt lat="45.29971" lon="4.57839">
        <ele>565.857556</ele>
        <time>2026-09-01T10:53:55.934Z</time>
      </trkpt>
      <trkpt lat="45.29971" lon="4.57824">
        <ele>565.791101</ele>
        <time>2026-09-01T10:53:57.924Z</time>
      </trkpt>
      <trkpt lat="45.29972" lon="4.57808">
        <ele>565.719187</ele>
        <time>2026-09-01T10:53:59.925Z</time>
      </trkpt>
      <trkpt lat="45.29972" lon="4.57792">
        <ele>565.647821</ele>
        <time>2026-09-01T10:54:01.907Z</time>
      </trkpt>
      <trkpt lat="45.29971" lon="4.57777">
        <ele>565.580144</ele>
        <time>2026-09-01T10:54:03.929Z</time>
      </trkpt>
      <trkpt lat="45.29972" lon="4.57761">
        <ele>565.640891</ele>
        <time>2026-09-01T10:54:05.924Z</time>
      </trkpt>
      <trkpt lat="45.29973" lon="4.57746">
        <ele>565.833008</ele>
        <time>2026-09-01T10:54:07.919Z</time>
      </trkpt>
      <trkpt lat="45.29973" lon="4.5773">
        <ele>566.038332</ele>
        <time>2026-09-01T10:54:09.897Z</time>
      </trkpt>
      <trkpt lat="45.29973" lon="4.57715">
        <ele>566.229772</ele>
        <time>2026-09-01T10:54:11.920Z</time>
      </trkpt>
      <trkpt lat="45.29973" lon="4.57701">
        <ele>566.403662</ele>
        <time>2026-09-01T10:54:13.927Z</time>
      </trkpt>
      <trkpt lat="45.29972" lon="4.57685">
        <ele>566.602054</ele>
        <time>2026-09-01T10:54:15.927Z</time>
      </trkpt>
      <trkpt lat="45.2997" lon="4.57669">
        <ele>566.804247</ele>
        <time>2026-09-01T10:54:17.924Z</time>
      </trkpt>
      <trkpt lat="45.29968" lon="4.5765">
        <ele>567.044004</ele>
        <time>2026-09-01T10:54:19.929Z</time>
      </trkpt>
      <trkpt lat="45.29967" lon="4.57634">
        <ele>567.250078</ele>
        <time>2026-09-01T10:54:21.918Z</time>
      </trkpt>
      <trkpt lat="45.29966" lon="4.57617">
        <ele>567.462425</ele>
        <time>2026-09-01T10:54:23.924Z</time>
      </trkpt>
      <trkpt lat="45.29965" lon="4.576">
        <ele>567.682624</ele>
        <time>2026-09-01T10:54:25.922Z</time>
      </trkpt>
      <trkpt lat="45.29964" lon="4.57582">
        <ele>567.912165</ele>
        <time>2026-09-01T10:54:27.920Z</time>
      </trkpt>
      <trkpt lat="45.29962" lon="4.57564">
        <ele>568.136303</ele>
        <time>2026-09-01T10:54:29.917Z</time>
      </trkpt>
      <trkpt lat="45.29961" lon="4.57546">
        <ele>568.364024</ele>
        <time>2026-09-01T10:54:31.928Z</time>
      </trkpt>
      <trkpt lat="45.2996" lon="4.57529">
        <ele>568.581016</ele>
        <time>2026-09-01T10:54:33.913Z</time>
      </trkpt>
      <trkpt lat="45.29959" lon="4.57514">
        <ele>568.773296</ele>
        <time>2026-09-01T10:54:35.923Z</time>
      </trkpt>
      <trkpt lat="45.29956" lon="4.57498">
        <ele>569.015954</ele>
        <time>2026-09-01T10:54:37.919Z</time>
      </trkpt>
      <trkpt lat="45.29956" lon="4.57484">
        <ele>569.22694</ele>
        <time>2026-09-01T10:54:39.920Z</time>
      </trkpt>
      <trkpt lat="45.29955" lon="4.57464">
        <ele>569.511403</ele>
        <time>2026-09-01T10:54:41.921Z</time>
      </trkpt>
      <trkpt lat="45.29952" lon="4.57445">
        <ele>569.799136</ele>
        <time>2026-09-01T10:54:43.924Z</time>
      </trkpt>
      <trkpt lat="45.29948" lon="4.57429">
        <ele>570.060691</ele>
        <time>2026-09-01T10:54:45.925Z</time>
      </trkpt>
      <trkpt lat="45.29945" lon="4.57414">
        <ele>570.282445</ele>
        <time>2026-09-01T10:54:47.926Z</time>
      </trkpt>
      <trkpt lat="45.2994" lon="4.57397">
        <ele>570.55439</ele>
        <time>2026-09-01T10:54:50.901Z</time>
      </trkpt>
      <trkpt lat="45.2994" lon="4.57382">
        <ele>570.782989</ele>
        <time>2026-09-01T10:54:53.922Z</time>
      </trkpt>
      <trkpt lat="45.29946" lon="4.5737">
        <ele>570.992907</ele>
        <time>2026-09-01T10:54:55.924Z</time>
      </trkpt>
      <trkpt lat="45.29947" lon="4.57355">
        <ele>571.216788</ele>
        <time>2026-09-01T10:54:57.918Z</time>
      </trkpt>
      <trkpt lat="45.29946" lon="4.57339">
        <ele>571.461647</ele>
        <time>2026-09-01T10:54:59.924Z</time>
      </trkpt>
      <trkpt lat="45.29944" lon="4.57325">
        <ele>571.675221</ele>
        <time>2026-09-01T10:55:01.916Z</time>
      </trkpt>
      <trkpt lat="45.29943" lon="4.57309">
        <ele>571.901104</ele>
        <time>2026-09-01T10:55:03.924Z</time>
      </trkpt>
      <trkpt lat="45.29943" lon="4.57294">
        <ele>572.129933</ele>
        <time>2026-09-01T10:55:05.918Z</time>
      </trkpt>
      <trkpt lat="45.29942" lon="4.57278">
        <ele>572.364656</ele>
        <time>2026-09-01T10:55:07.924Z</time>
      </trkpt>
      <trkpt lat="45.29942" lon="4.57262">
        <ele>572.625383</ele>
        <time>2026-09-01T10:55:09.915Z</time>
      </trkpt>
      <trkpt lat="45.29941" lon="4.57245">
        <ele>572.964308</ele>
        <time>2026-09-01T10:55:11.917Z</time>
      </trkpt>
      <trkpt lat="45.29938" lon="4.5723">
        <ele>573.288288</ele>
        <time>2026-09-01T10:55:13.914Z</time>
      </trkpt>
      <trkpt lat="45.29937" lon="4.57215">
        <ele>573.598177</ele>
        <time>2026-09-01T10:55:15.913Z</time>
      </trkpt>
      <trkpt lat="45.29936" lon="4.57199">
        <ele>573.91718</ele>
        <time>2026-09-01T10:55:17.932Z</time>
      </trkpt>
      <trkpt lat="45.29933" lon="4.57184">
        <ele>574.249283</ele>
        <time>2026-09-01T10:55:19.914Z</time>
      </trkpt>
      <trkpt lat="45.2993" lon="4.57168">
        <ele>574.574008</ele>
        <time>2026-09-01T10:55:21.925Z</time>
      </trkpt>
      <trkpt lat="45.29926" lon="4.57153">
        <ele>574.902433</ele>
        <time>2026-09-01T10:55:23.915Z</time>
      </trkpt>
      <trkpt lat="45.29922" lon="4.57138">
        <ele>575.242558</ele>
        <time>2026-09-01T10:55:25.918Z</time>
      </trkpt>
      <trkpt lat="45.29919" lon="4.57124">
        <ele>575.541312</ele>
        <time>2026-09-01T10:55:27.919Z</time>
      </trkpt>
      <trkpt lat="45.29914" lon="4.5711">
        <ele>575.856872</ele>
        <time>2026-09-01T10:55:29.920Z</time>
      </trkpt>
      <trkpt lat="45.29909" lon="4.57095">
        <ele>576.180394</ele>
        <time>2026-09-01T10:55:31.916Z</time>
      </trkpt>
      <trkpt lat="45.29905" lon="4.57083">
        <ele>576.462609</ele>
        <time>2026-09-01T10:55:33.920Z</time>
      </trkpt>
      <trkpt lat="45.299" lon="4.57072">
        <ele>576.731491</ele>
        <time>2026-09-01T10:55:35.916Z</time>
      </trkpt>
      <trkpt lat="45.29896" lon="4.57059">
        <ele>577.016502</ele>
        <time>2026-09-01T10:55:37.917Z</time>
      </trkpt>
      <trkpt lat="45.29892" lon="4.57047">
        <ele>577.307216</ele>
        <time>2026-09-01T10:55:39.920Z</time>
      </trkpt>
      <trkpt lat="45.29888" lon="4.57031">
        <ele>577.643666</ele>
        <time>2026-09-01T10:55:41.914Z</time>
      </trkpt>
      <trkpt lat="45.29885" lon="4.57016">
        <ele>577.631646</ele>
        <time>2026-09-01T10:55:43.915Z</time>
      </trkpt>
      <trkpt lat="45.29879" lon="4.57001">
        <ele>577.434163</ele>
        <time>2026-09-01T10:55:45.917Z</time>
      </trkpt>
      <trkpt lat="45.29876" lon="4.56986">
        <ele>577.237715</ele>
        <time>2026-09-01T10:55:47.916Z</time>
      </trkpt>
      <trkpt lat="45.29871" lon="4.5697">
        <ele>577.031133</ele>
        <time>2026-09-01T10:55:49.924Z</time>
      </trkpt>
      <trkpt lat="45.29867" lon="4.56954">
        <ele>576.823945</ele>
        <time>2026-09-01T10:55:51.915Z</time>
      </trkpt>
      <trkpt lat="45.29864" lon="4.56938">
        <ele>576.621864</ele>
        <time>2026-09-01T10:55:53.925Z</time>
      </trkpt>
      <trkpt lat="45.29859" lon="4.5692">
        <ele>576.393861</ele>
        <time>2026-09-01T10:55:55.910Z</time>
      </trkpt>
      <trkpt lat="45.29852" lon="4.56905">
        <ele>576.171582</ele>
        <time>2026-09-01T10:55:57.915Z</time>
      </trkpt>
      <trkpt lat="45.29845" lon="4.56889">
        <ele>575.951137</ele>
        <time>2026-09-01T10:55:59.929Z</time>
      </trkpt>
      <trkpt lat="45.29839" lon="4.56874">
        <ele>575.742206</ele>
        <time>2026-09-01T10:56:01.925Z</time>
      </trkpt>
      <trkpt lat="45.29832" lon="4.56858">
        <ele>575.510844</ele>
        <time>2026-09-01T10:56:03.923Z</time>
      </trkpt>
      <trkpt lat="45.29825" lon="4.56842">
        <ele>575.274902</ele>
        <time>2026-09-01T10:56:05.882Z</time>
      </trkpt>
      <trkpt lat="45.29819" lon="4.56826">
        <ele>575.063513</ele>
        <time>2026-09-01T10:56:07.916Z</time>
      </trkpt>
      <trkpt lat="45.29813" lon="4.56811">
        <ele>574.854099</ele>
        <time>2026-09-01T10:56:09.915Z</time>
      </trkpt>
      <trkpt lat="45.29809" lon="4.56796">
        <ele>574.702392</ele>
        <time>2026-09-01T10:56:11.922Z</time>
      </trkpt>
      <trkpt lat="45.29803" lon="4.56781">
        <ele>575.295083</ele>
        <time>2026-09-01T10:56:13.921Z</time>
      </trkpt>
      <trkpt lat="45.29797" lon="4.56766">
        <ele>575.855268</ele>
        <time>2026-09-01T10:56:15.916Z</time>
      </trkpt>
      <trkpt lat="45.29792" lon="4.56752">
        <ele>576.38762</ele>
        <time>2026-09-01T10:56:17.918Z</time>
      </trkpt>
      <trkpt lat="45.29787" lon="4.56739">
        <ele>576.899832</ele>
        <time>2026-09-01T10:56:19.919Z</time>
      </trkpt>
      <trkpt lat="45.29781" lon="4.56723">
        <ele>577.505624</ele>
        <time>2026-09-01T10:56:22.922Z</time>
      </trkpt>
      <trkpt lat="45.29776" lon="4.5671">
        <ele>578.01416</ele>
        <time>2026-09-01T10:56:26.934Z</time>
      </trkpt>
      <trkpt lat="45.29769" lon="4.56701">
        <ele>578.477323</ele>
        <time>2026-09-01T10:56:29.919Z</time>
      </trkpt>
      <trkpt lat="45.29766" lon="4.56684">
        <ele>579.061111</ele>
        <time>2026-09-01T10:56:32.926Z</time>
      </trkpt>
      <trkpt lat="45.29764" lon="4.56671">
        <ele>579.521669</ele>
        <time>2026-09-01T10:56:34.917Z</time>
      </trkpt>
      <trkpt lat="45.29759" lon="4.56657">
        <ele>580.047331</ele>
        <time>2026-09-01T10:56:36.908Z</time>
      </trkpt>
      <trkpt lat="45.29754" lon="4.56642">
        <ele>580.637669</ele>
        <time>2026-09-01T10:56:39.924Z</time>
      </trkpt>
      <trkpt lat="45.29751" lon="4.56629">
        <ele>581.086789</ele>
        <time>2026-09-01T10:56:41.923Z</time>
      </trkpt>
      <trkpt lat="45.29746" lon="4.56612">
        <ele>581.722066</ele>
        <time>2026-09-01T10:56:44.923Z</time>
      </trkpt>
      <trkpt lat="45.29741" lon="4.56596">
        <ele>582.328909</ele>
        <time>2026-09-01T10:56:47.923Z</time>
      </trkpt>
      <trkpt lat="45.29733" lon="4.5658">
        <ele>582.977662</ele>
        <time>2026-09-01T10:56:50.923Z</time>
      </trkpt>
      <trkpt lat="45.29729" lon="4.56568">
        <ele>583.419376</ele>
        <time>2026-09-01T10:56:52.919Z</time>
      </trkpt>
      <trkpt lat="45.2972" lon="4.56552">
        <ele>583.907142</ele>
        <time>2026-09-01T10:56:55.940Z</time>
      </trkpt>
      <trkpt lat="45.29716" lon="4.5654">
        <ele>584.247324</ele>
        <time>2026-09-01T10:56:57.918Z</time>
      </trkpt>
      <trkpt lat="45.29712" lon="4.56528">
        <ele>584.572349</ele>
        <time>2026-09-01T10:56:59.928Z</time>
      </trkpt>
      <trkpt lat="45.29706" lon="4.56519">
        <ele>584.893543</ele>
        <time>2026-09-01T10:57:01.933Z</time>
      </trkpt>
      <trkpt lat="45.29697" lon="4.56506">
        <ele>585.337857</ele>
        <time>2026-09-01T10:57:04.926Z</time>
      </trkpt>
      <trkpt lat="45.29695" lon="4.56493">
        <ele>585.66726</ele>
        <time>2026-09-01T10:57:08.920Z</time>
      </trkpt>
      <trkpt lat="45.29685" lon="4.56479">
        <ele>586.159397</ele>
        <time>2026-09-01T10:57:35.925Z</time>
      </trkpt>
      <trkpt lat="45.2968" lon="4.56464">
        <ele>586.579049</ele>
        <time>2026-09-01T10:57:40.919Z</time>
      </trkpt>
      <trkpt lat="45.29676" lon="4.56448">
        <ele>586.984884</ele>
        <time>2026-09-01T10:57:44.921Z</time>
      </trkpt>
      <trkpt lat="45.29673" lon="4.56434">
        <ele>587.337472</ele>
        <time>2026-09-01T10:57:48.898Z</time>
      </trkpt>
      <trkpt lat="45.29663" lon="4.56434">
        <ele>587.697487</ele>
        <time>2026-09-01T10:57:51.921Z</time>
      </trkpt>
      <trkpt lat="45.29655" lon="4.56441">
        <ele>588.030761</ele>
        <time>2026-09-01T10:57:53.940Z</time>
      </trkpt>
      <trkpt lat="45.29647" lon="4.56448">
        <ele>588.352979</ele>
        <time>2026-09-01T10:57:55.904Z</time>
      </trkpt>
      <trkpt lat="45.29638" lon="4.56457">
        <ele>588.734354</ele>
        <time>2026-09-01T10:57:57.917Z</time>
      </trkpt>
      <trkpt lat="45.29629" lon="4.56466">
        <ele>589.142889</ele>
        <time>2026-09-01T10:57:59.907Z</time>
      </trkpt>
      <trkpt lat="45.29622" lon="4.56474">
        <ele>589.46822</ele>
        <time>2026-09-01T10:58:01.919Z</time>
      </trkpt>
      <trkpt lat="45.29611" lon="4.56483">
        <ele>589.503438</ele>
        <time>2026-09-01T10:58:04.918Z</time>
      </trkpt>
      <trkpt lat="45.29605" lon="4.56494">
        <ele>589.155417</ele>
        <time>2026-09-01T10:58:07.916Z</time>
      </trkpt>
      <trkpt lat="45.29606" lon="4.5651">
        <ele>588.737921</ele>
        <time>2026-09-01T10:58:10.918Z</time>
      </trkpt>
      <trkpt lat="45.29606" lon="4.56528">
        <ele>588.262713</ele>
        <time>2026-09-01T10:58:12.917Z</time>
      </trkpt>
      <trkpt lat="45.29602" lon="4.56545">
        <ele>587.782105</ele>
        <time>2026-09-01T10:58:14.919Z</time>
      </trkpt>
      <trkpt lat="45.29596" lon="4.56564">
        <ele>587.239753</ele>
        <time>2026-09-01T10:58:16.918Z</time>
      </trkpt>
      <trkpt lat="45.29589" lon="4.5658">
        <ele>586.734554</ele>
        <time>2026-09-01T10:58:18.907Z</time>
      </trkpt>
      <trkpt lat="45.29581" lon="4.56594">
        <ele>586.248712</ele>
        <time>2026-09-01T10:58:20.904Z</time>
      </trkpt>
      <trkpt lat="45.29572" lon="4.56607">
        <ele>585.780766</ele>
        <time>2026-09-01T10:58:22.918Z</time>
      </trkpt>
      <trkpt lat="45.29563" lon="4.56616">
        <ele>585.360112</ele>
        <time>2026-09-01T10:58:24.918Z</time>
      </trkpt>
      <trkpt lat="45.29551" lon="4.56626">
        <ele>584.841874</ele>
        <time>2026-09-01T10:58:27.917Z</time>
      </trkpt>
      <trkpt lat="45.2954" lon="4.56638">
        <ele>584.341676</ele>
        <time>2026-09-01T10:58:30.912Z</time>
      </trkpt>
      <trkpt lat="45.2953" lon="4.56646">
        <ele>583.882367</ele>
        <time>2026-09-01T10:58:33.928Z</time>
      </trkpt>
      <trkpt lat="45.29518" lon="4.56656">
        <ele>583.379343</ele>
        <time>2026-09-01T10:58:36.914Z</time>
      </trkpt>
      <trkpt lat="45.2951" lon="4.56662">
        <ele>583.039179</ele>
        <time>2026-09-01T10:58:38.918Z</time>
      </trkpt>
      <trkpt lat="45.29501" lon="4.56673">
        <ele>583.464324</ele>
        <time>2026-09-01T10:58:41.924Z</time>
      </trkpt>
      <trkpt lat="45.29491" lon="4.56683">
        <ele>584.087307</ele>
        <time>2026-09-01T10:58:44.918Z</time>
      </trkpt>
      <trkpt lat="45.29481" lon="4.56692">
        <ele>584.710291</ele>
        <time>2026-09-01T10:58:47.927Z</time>
      </trkpt>
      <trkpt lat="45.29475" lon="4.56705">
        <ele>585.272883</ele>
        <time>2026-09-01T10:58:50.911Z</time>
      </trkpt>
      <trkpt lat="45.29468" lon="4.56717">
        <ele>585.858212</ele>
        <time>2026-09-01T10:58:53.925Z</time>
      </trkpt>
      <trkpt lat="45.29462" lon="4.56733">
        <ele>586.479852</ele>
        <time>2026-09-01T10:58:57.919Z</time>
      </trkpt>
      <trkpt lat="45.2946" lon="4.56747">
        <ele>586.989903</ele>
        <time>2026-09-01T10:59:00.923Z</time>
      </trkpt>
      <trkpt lat="45.2946" lon="4.56761">
        <ele>587.504586</ele>
        <time>2026-09-01T10:59:03.908Z</time>
      </trkpt>
      <trkpt lat="45.29461" lon="4.56778">
        <ele>588.122133</ele>
        <time>2026-09-01T10:59:06.918Z</time>
      </trkpt>
      <trkpt lat="45.29461" lon="4.56794">
        <ele>588.712214</ele>
        <time>2026-09-01T10:59:09.913Z</time>
      </trkpt>
      <trkpt lat="45.29461" lon="4.56809">
        <ele>589.255823</ele>
        <time>2026-09-01T10:59:12.920Z</time>
      </trkpt>
      <trkpt lat="45.29464" lon="4.56826">
        <ele>589.873899</ele>
        <time>2026-09-01T10:59:15.920Z</time>
      </trkpt>
      <trkpt lat="45.29462" lon="4.56841">
        <ele>590.425631</ele>
        <time>2026-09-01T10:59:18.908Z</time>
      </trkpt>
      <trkpt lat="45.29453" lon="4.56854">
        <ele>591.084934</ele>
        <time>2026-09-01T10:59:21.918Z</time>
      </trkpt>
      <trkpt lat="45.29446" lon="4.56868">
        <ele>591.707341</ele>
        <time>2026-09-01T10:59:24.914Z</time>
      </trkpt>
      <trkpt lat="45.29439" lon="4.56882">
        <ele>592.282652</ele>
        <time>2026-09-01T10:59:27.923Z</time>
      </trkpt>
      <trkpt lat="45.29432" lon="4.56896">
        <ele>592.601526</ele>
        <time>2026-09-01T10:59:30.911Z</time>
      </trkpt>
      <trkpt lat="45.29429" lon="4.56912">
        <ele>592.915442</ele>
        <time>2026-09-01T10:59:33.921Z</time>
      </trkpt>
      <trkpt lat="45.29424" lon="4.5693">
        <ele>593.285133</ele>
        <time>2026-09-01T10:59:36.916Z</time>
      </trkpt>
      <trkpt lat="45.29422" lon="4.56943">
        <ele>593.554673</ele>
        <time>2026-09-01T10:59:38.915Z</time>
      </trkpt>
      <trkpt lat="45.2942" lon="4.56956">
        <ele>593.812895</ele>
        <time>2026-09-01T10:59:40.925Z</time>
      </trkpt>
      <trkpt lat="45.2942" lon="4.56974">
        <ele>594.155014</ele>
        <time>2026-09-01T10:59:43.909Z</time>
      </trkpt>
      <trkpt lat="45.29422" lon="4.56987">
        <ele>594.414146</ele>
        <time>2026-09-01T10:59:46.923Z</time>
      </trkpt>
      <trkpt lat="45.29426" lon="4.57002">
        <ele>594.717419</ele>
        <time>2026-09-01T10:59:50.923Z</time>
      </trkpt>
      <trkpt lat="45.29434" lon="4.57016">
        <ele>595.058295</ele>
        <time>2026-09-01T10:59:54.920Z</time>
      </trkpt>
      <trkpt lat="45.2944" lon="4.5703">
        <ele>595.37717</ele>
        <time>2026-09-01T10:59:58.907Z</time>
      </trkpt>
      <trkpt lat="45.29446" lon="4.57041">
        <ele>595.648912</ele>
        <time>2026-09-01T11:00:01.905Z</time>
      </trkpt>
      <trkpt lat="45.29453" lon="4.57053">
        <ele>595.948295</ele>
        <time>2026-09-01T11:00:05.920Z</time>
      </trkpt>
      <trkpt lat="45.29461" lon="4.57064">
        <ele>596.234328</ele>
        <time>2026-09-01T11:00:09.900Z</time>
      </trkpt>
      <trkpt lat="45.29467" lon="4.57075">
        <ele>596.51577</ele>
        <time>2026-09-01T11:00:13.917Z</time>
      </trkpt>
      <trkpt lat="45.29474" lon="4.57084">
        <ele>596.767427</ele>
        <time>2026-09-01T11:00:17.932Z</time>
      </trkpt>
      <trkpt lat="45.29482" lon="4.57093">
        <ele>597.054682</ele>
        <time>2026-09-01T11:00:21.923Z</time>
      </trkpt>
      <trkpt lat="45.29491" lon="4.57101">
        <ele>597.677993</ele>
        <time>2026-09-01T11:00:25.905Z</time>
      </trkpt>
      <trkpt lat="45.295" lon="4.5711">
        <ele>598.441343</ele>
        <time>2026-09-01T11:00:29.927Z</time>
      </trkpt>
      <trkpt lat="45.29508" lon="4.57122">
        <ele>599.224802</ele>
        <time>2026-09-01T11:00:34.924Z</time>
      </trkpt>
      <trkpt lat="45.29516" lon="4.5713">
        <ele>599.89371</ele>
        <time>2026-09-01T11:00:38.922Z</time>
      </trkpt>
      <trkpt lat="45.29524" lon="4.5714">
        <ele>600.638273</ele>
        <time>2026-09-01T11:00:42.911Z</time>
      </trkpt>
      <trkpt lat="45.29532" lon="4.57151">
        <ele>601.365126</ele>
        <time>2026-09-01T11:00:46.923Z</time>
      </trkpt>
      <trkpt lat="45.29539" lon="4.57161">
        <ele>602.069984</ele>
        <time>2026-09-01T11:00:50.916Z</time>
      </trkpt>
      <trkpt lat="45.29546" lon="4.57172">
        <ele>602.819359</ele>
        <time>2026-09-01T11:00:54.921Z</time>
      </trkpt>
      <trkpt lat="45.29553" lon="4.57184">
        <ele>603.557227</ele>
        <time>2026-09-01T11:00:58.921Z</time>
      </trkpt>
      <trkpt lat="45.2956" lon="4.57197">
        <ele>604.337557</ele>
        <time>2026-09-01T11:01:02.916Z</time>
      </trkpt>
      <trkpt lat="45.29566" lon="4.57208">
        <ele>605.019502</ele>
        <time>2026-09-01T11:01:06.879Z</time>
      </trkpt>
      <trkpt lat="45.29573" lon="4.57219">
        <ele>605.723537</ele>
        <time>2026-09-01T11:01:10.918Z</time>
      </trkpt>
      <trkpt lat="45.29579" lon="4.5723">
        <ele>606.433851</ele>
        <time>2026-09-01T11:01:14.920Z</time>
      </trkpt>
      <trkpt lat="45.29587" lon="4.5724">
        <ele>607.130743</ele>
        <time>2026-09-01T11:01:18.902Z</time>
      </trkpt>
      <trkpt lat="45.29596" lon="4.5725">
        <ele>607.892117</ele>
        <time>2026-09-01T11:01:22.924Z</time>
      </trkpt>
      <trkpt lat="45.29599" lon="4.57265">
        <ele>608.673523</ele>
        <time>2026-09-01T11:01:26.919Z</time>
      </trkpt>
      <trkpt lat="45.29593" lon="4.57274">
        <ele>609.300176</ele>
        <time>2026-09-01T11:01:30.924Z</time>
      </trkpt>
      <trkpt lat="45.29584" lon="4.57272">
        <ele>610.105655</ele>
        <time>2026-09-01T11:01:34.920Z</time>
      </trkpt>
      <trkpt lat="45.29575" lon="4.57262">
        <ele>611.057629</ele>
        <time>2026-09-01T11:01:38.918Z</time>
      </trkpt>
      <trkpt lat="45.2957" lon="4.57252">
        <ele>611.900737</ele>
        <time>2026-09-01T11:01:42.915Z</time>
      </trkpt>
      <trkpt lat="45.29561" lon="4.57243">
        <ele>612.842478</ele>
        <time>2026-09-01T11:01:46.916Z</time>
      </trkpt>
      <trkpt lat="45.29552" lon="4.57234">
        <ele>613.824951</ele>
        <time>2026-09-01T11:01:50.902Z</time>
      </trkpt>
      <trkpt lat="45.29541" lon="4.57229">
        <ele>614.853017</ele>
        <time>2026-09-01T11:01:54.931Z</time>
      </trkpt>
      <trkpt lat="45.29533" lon="4.57221">
        <ele>615.714023</ele>
        <time>2026-09-01T11:01:58.912Z</time>
      </trkpt>
      <trkpt lat="45.29523" lon="4.57214">
        <ele>616.747058</ele>
        <time>2026-09-01T11:02:03.919Z</time>
      </trkpt>
      <trkpt lat="45.29514" lon="4.57205">
        <ele>617.771504</ele>
        <time>2026-09-01T11:02:08.918Z</time>
      </trkpt>
      <trkpt lat="45.29504" lon="4.57197">
        <ele>618.77982</ele>
        <time>2026-09-01T11:02:13.919Z</time>
      </trkpt>
      <trkpt lat="45.29495" lon="4.57192">
        <ele>619.638957</ele>
        <time>2026-09-01T11:02:17.928Z</time>
      </trkpt>
      <trkpt lat="45.29486" lon="4.57184">
        <ele>620.614834</ele>
        <time>2026-09-01T11:02:22.918Z</time>
      </trkpt>
      <trkpt lat="45.29477" lon="4.57176">
        <ele>621.542526</ele>
        <time>2026-09-01T11:02:27.920Z</time>
      </trkpt>
      <trkpt lat="45.29468" lon="4.5717">
        <ele>622.437647</ele>
        <time>2026-09-01T11:02:31.906Z</time>
      </trkpt>
      <trkpt lat="45.29459" lon="4.57165">
        <ele>623.267912</ele>
        <time>2026-09-01T11:02:35.921Z</time>
      </trkpt>
      <trkpt lat="45.2945" lon="4.5716">
        <ele>624.183631</ele>
        <time>2026-09-01T11:02:40.916Z</time>
      </trkpt>
      <trkpt lat="45.2944" lon="4.57157">
        <ele>625.098638</ele>
        <time>2026-09-01T11:02:44.916Z</time>
      </trkpt>
      <trkpt lat="45.29429" lon="4.57156">
        <ele>626.009848</ele>
        <time>2026-09-01T11:02:49.903Z</time>
      </trkpt>
      <trkpt lat="45.29419" lon="4.57157">
        <ele>626.779593</ele>
        <time>2026-09-01T11:02:54.924Z</time>
      </trkpt>
      <trkpt lat="45.29408" lon="4.57159">
        <ele>627.552442</ele>
        <time>2026-09-01T11:02:58.905Z</time>
      </trkpt>
      <trkpt lat="45.29398" lon="4.57162">
        <ele>628.361283</ele>
        <time>2026-09-01T11:03:03.923Z</time>
      </trkpt>
      <trkpt lat="45.29387" lon="4.57166">
        <ele>629.190997</ele>
        <time>2026-09-01T11:03:08.918Z</time>
      </trkpt>
      <trkpt lat="45.29377" lon="4.57168">
        <ele>629.935936</ele>
        <time>2026-09-01T11:03:12.916Z</time>
      </trkpt>
      <trkpt lat="45.29367" lon="4.57168">
        <ele>630.701745</ele>
        <time>2026-09-01T11:03:16.938Z</time>
      </trkpt>
      <trkpt lat="45.29356" lon="4.57169">
        <ele>631.460211</ele>
        <time>2026-09-01T11:03:20.914Z</time>
      </trkpt>
      <trkpt lat="45.29346" lon="4.57169">
        <ele>632.26312</ele>
        <time>2026-09-01T11:03:25.932Z</time>
      </trkpt>
      <trkpt lat="45.29335" lon="4.57168">
        <ele>633.044165</ele>
        <time>2026-09-01T11:03:30.922Z</time>
      </trkpt>
      <trkpt lat="45.29326" lon="4.57169">
        <ele>633.714563</ele>
        <time>2026-09-01T11:03:34.920Z</time>
      </trkpt>
      <trkpt lat="45.29315" lon="4.57166">
        <ele>634.558239</ele>
        <time>2026-09-01T11:03:39.911Z</time>
      </trkpt>
      <trkpt lat="45.29306" lon="4.57164">
        <ele>635.263906</ele>
        <time>2026-09-01T11:03:43.923Z</time>
      </trkpt>
      <trkpt lat="45.29297" lon="4.5716">
        <ele>635.960418</ele>
        <time>2026-09-01T11:03:47.935Z</time>
      </trkpt>
      <trkpt lat="45.29286" lon="4.57154">
        <ele>636.792335</ele>
        <time>2026-09-01T11:03:52.907Z</time>
      </trkpt>
      <trkpt lat="45.29276" lon="4.57151">
        <ele>637.533832</ele>
        <time>2026-09-01T11:03:56.929Z</time>
      </trkpt>
      <trkpt lat="45.29266" lon="4.57149">
        <ele>638.322872</ele>
        <time>2026-09-01T11:04:00.909Z</time>
      </trkpt>
      <trkpt lat="45.29257" lon="4.57147">
        <ele>639.00009</ele>
        <time>2026-09-01T11:04:04.916Z</time>
      </trkpt>
      <trkpt lat="45.29246" lon="4.57148">
        <ele>639.834389</ele>
        <time>2026-09-01T11:04:09.922Z</time>
      </trkpt>
      <trkpt lat="45.29237" lon="4.57148">
        <ele>640.572444</ele>
        <time>2026-09-01T11:04:13.914Z</time>
      </trkpt>
      <trkpt lat="45.29228" lon="4.5715">
        <ele>641.310292</ele>
        <time>2026-09-01T11:04:17.923Z</time>
      </trkpt>
      <trkpt lat="45.29219" lon="4.57152">
        <ele>642.061713</ele>
        <time>2026-09-01T11:04:21.927Z</time>
      </trkpt>
      <trkpt lat="45.29208" lon="4.57157">
        <ele>642.924591</ele>
        <time>2026-09-01T11:04:26.922Z</time>
      </trkpt>
      <trkpt lat="45.29198" lon="4.57163">
        <ele>643.767268</ele>
        <time>2026-09-01T11:04:30.916Z</time>
      </trkpt>
      <trkpt lat="45.29188" lon="4.5717">
        <ele>644.679723</ele>
        <time>2026-09-01T11:04:35.921Z</time>
      </trkpt>
      <trkpt lat="45.29179" lon="4.57176">
        <ele>645.432109</ele>
        <time>2026-09-01T11:04:39.933Z</time>
      </trkpt>
      <trkpt lat="45.29171" lon="4.57183">
        <ele>646.210905</ele>
        <time>2026-09-01T11:04:43.896Z</time>
      </trkpt>
      <trkpt lat="45.29163" lon="4.57189">
        <ele>646.928006</ele>
        <time>2026-09-01T11:04:47.926Z</time>
      </trkpt>
      <trkpt lat="45.29155" lon="4.57196">
        <ele>647.661493</ele>
        <time>2026-09-01T11:04:51.908Z</time>
      </trkpt>
      <trkpt lat="45.29148" lon="4.57205">
        <ele>648.434403</ele>
        <time>2026-09-01T11:04:55.921Z</time>
      </trkpt>
      <trkpt lat="45.29141" lon="4.57214">
        <ele>649.213324</ele>
        <time>2026-09-01T11:04:59.915Z</time>
      </trkpt>
      <trkpt lat="45.29135" lon="4.57225">
        <ele>649.953513</ele>
        <time>2026-09-01T11:05:03.920Z</time>
      </trkpt>
      <trkpt lat="45.29129" lon="4.57238">
        <ele>650.834709</ele>
        <time>2026-09-01T11:05:07.923Z</time>
      </trkpt>
      <trkpt lat="45.29125" lon="4.57253">
        <ele>651.700256</ele>
        <time>2026-09-01T11:05:11.921Z</time>
      </trkpt>
      <trkpt lat="45.29124" lon="4.57268">
        <ele>652.577368</ele>
        <time>2026-09-01T11:05:16.922Z</time>
      </trkpt>
      <trkpt lat="45.29122" lon="4.57281">
        <ele>653.335606</ele>
        <time>2026-09-01T11:05:20.913Z</time>
      </trkpt>
      <trkpt lat="45.29119" lon="4.57294">
        <ele>654.518888</ele>
        <time>2026-09-01T11:05:24.923Z</time>
      </trkpt>
      <trkpt lat="45.29113" lon="4.57305">
        <ele>655.746606</ele>
        <time>2026-09-01T11:05:29.931Z</time>
      </trkpt>
      <trkpt lat="45.29106" lon="4.57316">
        <ele>657.104224</ele>
        <time>2026-09-01T11:05:34.923Z</time>
      </trkpt>
      <trkpt lat="45.29095" lon="4.57316">
        <ele>658.535641</ele>
        <time>2026-09-01T11:05:38.918Z</time>
      </trkpt>
      <trkpt lat="45.29085" lon="4.57316">
        <ele>659.941518</ele>
        <time>2026-09-01T11:05:42.924Z</time>
      </trkpt>
      <trkpt lat="45.29076" lon="4.57321">
        <ele>661.142941</ele>
        <time>2026-09-01T11:05:46.916Z</time>
      </trkpt>
      <trkpt lat="45.29068" lon="4.57328">
        <ele>662.325568</ele>
        <time>2026-09-01T11:05:49.925Z</time>
      </trkpt>
      <trkpt lat="45.29061" lon="4.5734">
        <ele>663.774358</ele>
        <time>2026-09-01T11:05:53.924Z</time>
      </trkpt>
      <trkpt lat="45.29059" lon="4.57352">
        <ele>664.947702</ele>
        <time>2026-09-01T11:05:57.919Z</time>
      </trkpt>
      <trkpt lat="45.29059" lon="4.57367">
        <ele>666.330788</ele>
        <time>2026-09-01T11:06:01.934Z</time>
      </trkpt>
      <trkpt lat="45.2906" lon="4.57382">
        <ele>667.65657</ele>
        <time>2026-09-01T11:06:05.881Z</time>
      </trkpt>
      <trkpt lat="45.29058" lon="4.57396">
        <ele>668.960893</ele>
        <time>2026-09-01T11:06:09.918Z</time>
      </trkpt>
      <trkpt lat="45.29055" lon="4.5741">
        <ele>670.319526</ele>
        <time>2026-09-01T11:06:13.896Z</time>
      </trkpt>
      <trkpt lat="45.2905" lon="4.57421">
        <ele>671.592324</ele>
        <time>2026-09-01T11:06:17.920Z</time>
      </trkpt>
      <trkpt lat="45.29044" lon="4.57433">
        <ele>672.932385</ele>
        <time>2026-09-01T11:06:21.909Z</time>
      </trkpt>
      <trkpt lat="45.2904" lon="4.57445">
        <ele>674.131611</ele>
        <time>2026-09-01T11:06:25.919Z</time>
      </trkpt>
      <trkpt lat="45.29034" lon="4.57455">
        <ele>675.317873</ele>
        <time>2026-09-01T11:06:30.917Z</time>
      </trkpt>
      <trkpt lat="45.29028" lon="4.57468">
        <ele>676.723137</ele>
        <time>2026-09-01T11:06:34.925Z</time>
      </trkpt>
      <trkpt lat="45.29022" lon="4.57478">
        <ele>677.570908</ele>
        <time>2026-09-01T11:06:38.914Z</time>
      </trkpt>
      <trkpt lat="45.29016" lon="4.57489">
        <ele>678.482913</ele>
        <time>2026-09-01T11:06:43.934Z</time>
      </trkpt>
      <trkpt lat="45.29015" lon="4.57502">
        <ele>679.312927</ele>
        <time>2026-09-01T11:06:48.913Z</time>
      </trkpt>
      <trkpt lat="45.29011" lon="4.57515">
        <ele>680.210081</ele>
        <time>2026-09-01T11:06:53.921Z</time>
      </trkpt>
      <trkpt lat="45.29009" lon="4.5753">
        <ele>681.189347</ele>
        <time>2026-09-01T11:06:58.904Z</time>
      </trkpt>
      <trkpt lat="45.29005" lon="4.57544">
        <ele>682.204753</ele>
        <time>2026-09-01T11:07:03.918Z</time>
      </trkpt>
      <trkpt lat="45.28998" lon="4.57554">
        <ele>683.091434</ele>
        <time>2026-09-01T11:07:07.919Z</time>
      </trkpt>
      <trkpt lat="45.28991" lon="4.57564">
        <ele>683.980897</ele>
        <time>2026-09-01T11:07:11.917Z</time>
      </trkpt>
      <trkpt lat="45.28986" lon="4.57578">
        <ele>685.00997</ele>
        <time>2026-09-01T11:07:16.932Z</time>
      </trkpt>
      <trkpt lat="45.28981" lon="4.57591">
        <ele>685.944863</ele>
        <time>2026-09-01T11:07:20.906Z</time>
      </trkpt>
      <trkpt lat="45.28974" lon="4.57604">
        <ele>686.991952</ele>
        <time>2026-09-01T11:07:24.917Z</time>
      </trkpt>
      <trkpt lat="45.28969" lon="4.57615">
        <ele>687.832504</ele>
        <time>2026-09-01T11:07:28.920Z</time>
      </trkpt>
      <trkpt lat="45.28964" lon="4.57627">
        <ele>688.744836</ele>
        <time>2026-09-01T11:07:32.917Z</time>
      </trkpt>
      <trkpt lat="45.28962" lon="4.5764">
        <ele>689.641485</ele>
        <time>2026-09-01T11:07:36.921Z</time>
      </trkpt>
      <trkpt lat="45.28954" lon="4.57651">
        <ele>690.639092</ele>
        <time>2026-09-01T11:07:40.922Z</time>
      </trkpt>
      <trkpt lat="45.28947" lon="4.57663">
        <ele>691.636646</ele>
        <time>2026-09-01T11:07:44.930Z</time>
      </trkpt>
      <trkpt lat="45.28943" lon="4.57676">
        <ele>692.539275</ele>
        <time>2026-09-01T11:07:48.911Z</time>
      </trkpt>
      <trkpt lat="45.28936" lon="4.57686">
        <ele>693.206249</ele>
        <time>2026-09-01T11:07:52.919Z</time>
      </trkpt>
      <trkpt lat="45.28931" lon="4.57698">
        <ele>693.314578</ele>
        <time>2026-09-01T11:07:58.912Z</time>
      </trkpt>
      <trkpt lat="45.28925" lon="4.5771">
        <ele>693.424133</ele>
        <time>2026-09-01T11:08:03.920Z</time>
      </trkpt>
      <trkpt lat="45.28916" lon="4.57718">
        <ele>693.541226</ele>
        <time>2026-09-01T11:08:08.920Z</time>
      </trkpt>
      <trkpt lat="45.28909" lon="4.57728">
        <ele>693.653783</ele>
        <time>2026-09-01T11:08:12.931Z</time>
      </trkpt>
      <trkpt lat="45.289" lon="4.57737">
        <ele>693.76996</ele>
        <time>2026-09-01T11:08:16.929Z</time>
      </trkpt>
      <trkpt lat="45.28892" lon="4.57748">
        <ele>693.888736</ele>
        <time>2026-09-01T11:08:21.926Z</time>
      </trkpt>
      <trkpt lat="45.28886" lon="4.57758">
        <ele>693.993958</ele>
        <time>2026-09-01T11:08:25.915Z</time>
      </trkpt>
      <trkpt lat="45.28876" lon="4.57767">
        <ele>694.117188</ele>
        <time>2026-09-01T11:08:29.927Z</time>
      </trkpt>
      <trkpt lat="45.28869" lon="4.57774">
        <ele>694.215076</ele>
        <time>2026-09-01T11:08:32.905Z</time>
      </trkpt>
      <trkpt lat="45.28862" lon="4.57783">
        <ele>694.316192</ele>
        <time>2026-09-01T11:08:36.926Z</time>
      </trkpt>
      <trkpt lat="45.28851" lon="4.57789">
        <ele>694.438753</ele>
        <time>2026-09-01T11:08:40.919Z</time>
      </trkpt>
      <trkpt lat="45.28843" lon="4.57794">
        <ele>694.543535</ele>
        <time>2026-09-01T11:08:44.930Z</time>
      </trkpt>
      <trkpt lat="45.28834" lon="4.57799">
        <ele>694.643387</ele>
        <time>2026-09-01T11:08:48.911Z</time>
      </trkpt>
      <trkpt lat="45.28823" lon="4.57803">
        <ele>694.767169</ele>
        <time>2026-09-01T11:08:53.920Z</time>
      </trkpt>
      <trkpt lat="45.28813" lon="4.57807">
        <ele>694.880709</ele>
        <time>2026-09-01T11:08:58.929Z</time>
      </trkpt>
      <trkpt lat="45.28802" lon="4.57808">
        <ele>694.998327</ele>
        <time>2026-09-01T11:09:03.904Z</time>
      </trkpt>
      <trkpt lat="45.28793" lon="4.5781">
        <ele>695.096995</ele>
        <time>2026-09-01T11:09:07.921Z</time>
      </trkpt>
      <trkpt lat="45.28784" lon="4.5781">
        <ele>695.929028</ele>
        <time>2026-09-01T11:09:11.926Z</time>
      </trkpt>
      <trkpt lat="45.28773" lon="4.5781">
        <ele>697.236001</ele>
        <time>2026-09-01T11:09:16.927Z</time>
      </trkpt>
      <trkpt lat="45.28762" lon="4.5781">
        <ele>698.619363</ele>
        <time>2026-09-01T11:09:21.921Z</time>
      </trkpt>
      <trkpt lat="45.28754" lon="4.57804">
        <ele>699.819979</ele>
        <time>2026-09-01T11:09:26.920Z</time>
      </trkpt>
      <trkpt lat="45.28744" lon="4.57802">
        <ele>701.021165</ele>
        <time>2026-09-01T11:09:31.918Z</time>
      </trkpt>
      <trkpt lat="45.28735" lon="4.578">
        <ele>702.17031</ele>
        <time>2026-09-01T11:09:35.921Z</time>
      </trkpt>
      <trkpt lat="45.28726" lon="4.57797">
        <ele>703.322714</ele>
        <time>2026-09-01T11:09:39.907Z</time>
      </trkpt>
      <trkpt lat="45.28716" lon="4.57793">
        <ele>704.710434</ele>
        <time>2026-09-01T11:09:44.921Z</time>
      </trkpt>
      <trkpt lat="45.28707" lon="4.57787">
        <ele>705.887779</ele>
        <time>2026-09-01T11:09:48.926Z</time>
      </trkpt>
      <trkpt lat="45.28699" lon="4.5778">
        <ele>707.1404</ele>
        <time>2026-09-01T11:09:53.904Z</time>
      </trkpt>
      <trkpt lat="45.28688" lon="4.57775">
        <ele>708.528811</ele>
        <time>2026-09-01T11:09:58.916Z</time>
      </trkpt>
      <trkpt lat="45.2868" lon="4.5777">
        <ele>709.689892</ele>
        <time>2026-09-01T11:10:02.919Z</time>
      </trkpt>
      <trkpt lat="45.2867" lon="4.57762">
        <ele>711.053303</ele>
        <time>2026-09-01T11:10:07.915Z</time>
      </trkpt>
      <trkpt lat="45.28663" lon="4.57752">
        <ele>712.340912</ele>
        <time>2026-09-01T11:10:12.933Z</time>
      </trkpt>
      <trkpt lat="45.28655" lon="4.57743">
        <ele>713.62682</ele>
        <time>2026-09-01T11:10:17.923Z</time>
      </trkpt>
      <trkpt lat="45.28647" lon="4.57733">
        <ele>714.994174</ele>
        <time>2026-09-01T11:10:23.921Z</time>
      </trkpt>
      <trkpt lat="45.2864" lon="4.57721">
        <ele>716.369524</ele>
        <time>2026-09-01T11:10:28.925Z</time>
      </trkpt>
      <trkpt lat="45.28633" lon="4.5771">
        <ele>717.678597</ele>
        <time>2026-09-01T11:10:33.927Z</time>
      </trkpt>
      <trkpt lat="45.28625" lon="4.57699">
        <ele>718.728133</ele>
        <time>2026-09-01T11:10:38.925Z</time>
      </trkpt>
      <trkpt lat="45.28618" lon="4.57692">
        <ele>719.613011</ele>
        <time>2026-09-01T11:10:42.905Z</time>
      </trkpt>
      <trkpt lat="45.28611" lon="4.57681">
        <ele>720.636766</ele>
        <time>2026-09-01T11:10:47.922Z</time>
      </trkpt>
      <trkpt lat="45.28606" lon="4.5767">
        <ele>721.591042</ele>
        <time>2026-09-01T11:10:52.928Z</time>
      </trkpt>
      <trkpt lat="45.28599" lon="4.57661">
        <ele>722.517219</ele>
        <time>2026-09-01T11:10:57.913Z</time>
      </trkpt>
      <trkpt lat="45.28592" lon="4.57652">
        <ele>723.407289</ele>
        <time>2026-09-01T11:11:02.896Z</time>
      </trkpt>
      <trkpt lat="45.28585" lon="4.57641">
        <ele>724.46231</ele>
        <time>2026-09-01T11:11:07.921Z</time>
      </trkpt>
      <trkpt lat="45.28576" lon="4.57635">
        <ele>725.399763</ele>
        <time>2026-09-01T11:11:12.926Z</time>
      </trkpt>
      <trkpt lat="45.2857" lon="4.57624">
        <ele>726.372786</ele>
        <time>2026-09-01T11:11:17.917Z</time>
      </trkpt>
      <trkpt lat="45.28562" lon="4.57613">
        <ele>727.403187</ele>
        <time>2026-09-01T11:11:22.923Z</time>
      </trkpt>
      <trkpt lat="45.28554" lon="4.57605">
        <ele>728.371259</ele>
        <time>2026-09-01T11:11:26.924Z</time>
      </trkpt>
      <trkpt lat="45.28547" lon="4.57595">
        <ele>729.357007</ele>
        <time>2026-09-01T11:11:31.921Z</time>
      </trkpt>
      <trkpt lat="45.2854" lon="4.57584">
        <ele>730.37089</ele>
        <time>2026-09-01T11:11:37.927Z</time>
      </trkpt>
      <trkpt lat="45.28532" lon="4.57574">
        <ele>731.422794</ele>
        <time>2026-09-01T11:11:42.924Z</time>
      </trkpt>
      <trkpt lat="45.28524" lon="4.57565">
        <ele>732.434726</ele>
        <time>2026-09-01T11:11:47.923Z</time>
      </trkpt>
      <trkpt lat="45.28514" lon="4.57563">
        <ele>733.450341</ele>
        <time>2026-09-01T11:11:50.907Z</time>
      </trkpt>
      <trkpt lat="45.28505" lon="4.57558">
        <ele>734.39116</ele>
        <time>2026-09-01T11:11:53.921Z</time>
      </trkpt>
      <trkpt lat="45.28496" lon="4.57556">
        <ele>735.281138</ele>
        <time>2026-09-01T11:11:56.921Z</time>
      </trkpt>
      <trkpt lat="45.28487" lon="4.57554">
        <ele>735.779353</ele>
        <time>2026-09-01T11:12:00.929Z</time>
      </trkpt>
      <trkpt lat="45.28477" lon="4.5755">
        <ele>736.288344</ele>
        <time>2026-09-01T11:12:04.909Z</time>
      </trkpt>
      <trkpt lat="45.28466" lon="4.57548">
        <ele>736.827867</ele>
        <time>2026-09-01T11:12:09.924Z</time>
      </trkpt>
      <trkpt lat="45.28456" lon="4.57542">
        <ele>737.359315</ele>
        <time>2026-09-01T11:12:13.920Z</time>
      </trkpt>
      <trkpt lat="45.28453" lon="4.5753">
        <ele>737.812788</ele>
        <time>2026-09-01T11:12:20.900Z</time>
      </trkpt>
      <trkpt lat="45.28463" lon="4.57533">
        <ele>738.331297</ele>
        <time>2026-09-01T11:12:27.923Z</time>
      </trkpt>
      <trkpt lat="45.28472" lon="4.57539">
        <ele>738.835811</ele>
        <time>2026-09-01T11:12:32.909Z</time>
      </trkpt>
      <trkpt lat="45.28481" lon="4.57543">
        <ele>739.274757</ele>
        <time>2026-09-01T11:12:37.925Z</time>
      </trkpt>
      <trkpt lat="45.28492" lon="4.5754">
        <ele>739.839516</ele>
        <time>2026-09-01T11:12:42.901Z</time>
      </trkpt>
      <trkpt lat="45.28502" lon="4.57542">
        <ele>740.296725</ele>
        <time>2026-09-01T11:12:46.922Z</time>
      </trkpt>
      <trkpt lat="45.28511" lon="4.57543">
        <ele>740.739307</ele>
        <time>2026-09-01T11:12:50.907Z</time>
      </trkpt>
      <trkpt lat="45.28521" lon="4.57542">
        <ele>741.243898</ele>
        <time>2026-09-01T11:12:55.916Z</time>
      </trkpt>
      <trkpt lat="45.2853" lon="4.57545">
        <ele>741.693556</ele>
        <time>2026-09-01T11:12:59.923Z</time>
      </trkpt>
      <trkpt lat="45.28539" lon="4.5755">
        <ele>742.16469</ele>
        <time>2026-09-01T11:13:03.915Z</time>
      </trkpt>
      <trkpt lat="45.28548" lon="4.57553">
        <ele>742.607766</ele>
        <time>2026-09-01T11:13:07.924Z</time>
      </trkpt>
      <trkpt lat="45.28555" lon="4.57564">
        <ele>743.116266</ele>
        <time>2026-09-01T11:13:12.920Z</time>
      </trkpt>
      <trkpt lat="45.28562" lon="4.57572">
        <ele>743.586463</ele>
        <time>2026-09-01T11:13:17.925Z</time>
      </trkpt>
      <trkpt lat="45.28571" lon="4.57578">
        <ele>744.0363</ele>
        <time>2026-09-01T11:13:21.931Z</time>
      </trkpt>
      <trkpt lat="45.2858" lon="4.57578">
        <ele>744.632682</ele>
        <time>2026-09-01T11:13:25.926Z</time>
      </trkpt>
      <trkpt lat="45.28591" lon="4.57581">
        <ele>745.339875</ele>
        <time>2026-09-01T11:13:30.909Z</time>
      </trkpt>
      <trkpt lat="45.28599" lon="4.57587">
        <ele>745.99842</ele>
        <time>2026-09-01T11:13:35.921Z</time>
      </trkpt>
      <trkpt lat="45.28608" lon="4.57591">
        <ele>746.615907</ele>
        <time>2026-09-01T11:13:40.915Z</time>
      </trkpt>
      <trkpt lat="45.28617" lon="4.57593">
        <ele>747.221445</ele>
        <time>2026-09-01T11:13:44.924Z</time>
      </trkpt>
      <trkpt lat="45.28627" lon="4.57595">
        <ele>747.900689</ele>
        <time>2026-09-01T11:13:48.927Z</time>
      </trkpt>
      <trkpt lat="45.28638" lon="4.57597">
        <ele>748.646597</ele>
        <time>2026-09-01T11:13:53.937Z</time>
      </trkpt>
      <trkpt lat="45.28647" lon="4.57603">
        <ele>749.305535</ele>
        <time>2026-09-01T11:13:57.920Z</time>
      </trkpt>
      <trkpt lat="45.28656" lon="4.57608">
        <ele>749.964717</ele>
        <time>2026-09-01T11:14:01.920Z</time>
      </trkpt>
      <trkpt lat="45.28666" lon="4.57613">
        <ele>750.676938</ele>
        <time>2026-09-01T11:14:05.923Z</time>
      </trkpt>
      <trkpt lat="45.28675" lon="4.5762">
        <ele>751.36382</ele>
        <time>2026-09-01T11:14:09.921Z</time>
      </trkpt>
      <trkpt lat="45.28684" lon="4.57619">
        <ele>751.977729</ele>
        <time>2026-09-01T11:14:12.898Z</time>
      </trkpt>
      <trkpt lat="45.28696" lon="4.5762">
        <ele>752.746977</ele>
        <time>2026-09-01T11:14:16.921Z</time>
      </trkpt>
      <trkpt lat="45.28706" lon="4.57622">
        <ele>753.412246</ele>
        <time>2026-09-01T11:14:20.915Z</time>
      </trkpt>
      <trkpt lat="45.28716" lon="4.5762">
        <ele>754.088599</ele>
        <time>2026-09-01T11:14:24.932Z</time>
      </trkpt>
      <trkpt lat="45.28726" lon="4.57619">
        <ele>754.777016</ele>
        <time>2026-09-01T11:14:28.922Z</time>
      </trkpt>
      <trkpt lat="45.28736" lon="4.57619">
        <ele>755.436249</ele>
        <time>2026-09-01T11:14:32.925Z</time>
      </trkpt>
      <trkpt lat="45.28746" lon="4.57618">
        <ele>756.158993</ele>
        <time>2026-09-01T11:14:36.920Z</time>
      </trkpt>
      <trkpt lat="45.28757" lon="4.57612">
        <ele>756.955766</ele>
        <time>2026-09-01T11:14:41.930Z</time>
      </trkpt>
      <trkpt lat="45.28766" lon="4.57607">
        <ele>757.610897</ele>
        <time>2026-09-01T11:14:44.929Z</time>
      </trkpt>
      <trkpt lat="45.28771" lon="4.57595">
        <ele>758.300776</ele>
        <time>2026-09-01T11:14:47.924Z</time>
      </trkpt>
      <trkpt lat="45.28774" lon="4.57579">
        <ele>759.118924</ele>
        <time>2026-09-01T11:14:50.927Z</time>
      </trkpt>
      <trkpt lat="45.28772" lon="4.57566">
        <ele>759.766736</ele>
        <time>2026-09-01T11:14:53.922Z</time>
      </trkpt>
      <trkpt lat="45.28764" lon="4.57556">
        <ele>760.509349</ele>
        <time>2026-09-01T11:14:57.929Z</time>
      </trkpt>
      <trkpt lat="45.28753" lon="4.57554">
        <ele>761.261623</ele>
        <time>2026-09-01T11:15:01.924Z</time>
      </trkpt>
      <trkpt lat="45.28742" lon="4.57553">
        <ele>762.042713</ele>
        <time>2026-09-01T11:15:05.920Z</time>
      </trkpt>
      <trkpt lat="45.28732" lon="4.57552">
        <ele>762.713683</ele>
        <time>2026-09-01T11:15:09.922Z</time>
      </trkpt>
      <trkpt lat="45.28723" lon="4.57548">
        <ele>763.399075</ele>
        <time>2026-09-01T11:15:14.920Z</time>
      </trkpt>
      <trkpt lat="45.28715" lon="4.57543">
        <ele>764.035363</ele>
        <time>2026-09-01T11:15:18.923Z</time>
      </trkpt>
      <trkpt lat="45.28707" lon="4.57536">
        <ele>764.678375</ele>
        <time>2026-09-01T11:15:22.924Z</time>
      </trkpt>
      <trkpt lat="45.28698" lon="4.57531">
        <ele>765.345056</ele>
        <time>2026-09-01T11:15:26.897Z</time>
      </trkpt>
      <trkpt lat="45.2869" lon="4.57524">
        <ele>766.018531</ele>
        <time>2026-09-01T11:15:30.919Z</time>
      </trkpt>
      <trkpt lat="45.28681" lon="4.57516">
        <ele>766.732362</ele>
        <time>2026-09-01T11:15:34.937Z</time>
      </trkpt>
      <trkpt lat="45.28672" lon="4.57507">
        <ele>767.471193</ele>
        <time>2026-09-01T11:15:39.915Z</time>
      </trkpt>
      <trkpt lat="45.28665" lon="4.57499">
        <ele>768.159306</ele>
        <time>2026-09-01T11:15:44.924Z</time>
      </trkpt>
      <trkpt lat="45.28655" lon="4.57491">
        <ele>768.921078</ele>
        <time>2026-09-01T11:15:49.920Z</time>
      </trkpt>
      <trkpt lat="45.28646" lon="4.57485">
        <ele>769.750283</ele>
        <time>2026-09-01T11:15:54.926Z</time>
      </trkpt>
      <trkpt lat="45.28639" lon="4.57476">
        <ele>770.554068</ele>
        <time>2026-09-01T11:15:59.923Z</time>
      </trkpt>
      <trkpt lat="45.28631" lon="4.57467">
        <ele>771.416726</ele>
        <time>2026-09-01T11:16:04.919Z</time>
      </trkpt>
      <trkpt lat="45.28623" lon="4.57461">
        <ele>772.183624</ele>
        <time>2026-09-01T11:16:08.904Z</time>
      </trkpt>
      <trkpt lat="45.28614" lon="4.57452">
        <ele>773.100883</ele>
        <time>2026-09-01T11:16:13.921Z</time>
      </trkpt>
      <trkpt lat="45.28605" lon="4.57445">
        <ele>773.933936</ele>
        <time>2026-09-01T11:16:17.926Z</time>
      </trkpt>
      <trkpt lat="45.28599" lon="4.57433">
        <ele>774.818153</ele>
        <time>2026-09-01T11:16:22.909Z</time>
      </trkpt>
      <trkpt lat="45.28592" lon="4.57424">
        <ele>775.591506</ele>
        <time>2026-09-01T11:16:26.921Z</time>
      </trkpt>
      <trkpt lat="45.28586" lon="4.57413">
        <ele>776.385829</ele>
        <time>2026-09-01T11:16:30.920Z</time>
      </trkpt>
      <trkpt lat="45.28579" lon="4.57402">
        <ele>777.316255</ele>
        <time>2026-09-01T11:16:35.921Z</time>
      </trkpt>
      <trkpt lat="45.28569" lon="4.57393">
        <ele>778.256321</ele>
        <time>2026-09-01T11:16:39.921Z</time>
      </trkpt>
      <trkpt lat="45.28561" lon="4.57382">
        <ele>779.195766</ele>
        <time>2026-09-01T11:16:44.938Z</time>
      </trkpt>
      <trkpt lat="45.28555" lon="4.57372">
        <ele>780.010188</ele>
        <time>2026-09-01T11:16:49.930Z</time>
      </trkpt>
      <trkpt lat="45.28546" lon="4.57366">
        <ele>780.824405</ele>
        <time>2026-09-01T11:16:53.931Z</time>
      </trkpt>
      <trkpt lat="45.28536" lon="4.57358">
        <ele>781.748223</ele>
        <time>2026-09-01T11:16:57.925Z</time>
      </trkpt>
      <trkpt lat="45.28526" lon="4.57355">
        <ele>782.605775</ele>
        <time>2026-09-01T11:17:01.913Z</time>
      </trkpt>
      <trkpt lat="45.28516" lon="4.57355">
        <ele>783.450935</ele>
        <time>2026-09-01T11:17:05.921Z</time>
      </trkpt>
      <trkpt lat="45.28506" lon="4.5735">
        <ele>784.301763</ele>
        <time>2026-09-01T11:17:09.921Z</time>
      </trkpt>
      <trkpt lat="45.28497" lon="4.57347">
        <ele>785.08474</ele>
        <time>2026-09-01T11:17:13.922Z</time>
      </trkpt>
      <trkpt lat="45.28486" lon="4.57344">
        <ele>785.977742</ele>
        <time>2026-09-01T11:17:18.929Z</time>
      </trkpt>
      <trkpt lat="45.28476" lon="4.57341">
        <ele>786.790598</ele>
        <time>2026-09-01T11:17:22.909Z</time>
      </trkpt>
      <trkpt lat="45.28466" lon="4.57338">
        <ele>787.574651</ele>
        <time>2026-09-01T11:17:26.913Z</time>
      </trkpt>
      <trkpt lat="45.28456" lon="4.57337">
        <ele>788.348149</ele>
        <time>2026-09-01T11:17:30.926Z</time>
      </trkpt>
      <trkpt lat="45.28447" lon="4.57336">
        <ele>789.065346</ele>
        <time>2026-09-01T11:17:34.923Z</time>
      </trkpt>
      <trkpt lat="45.28438" lon="4.57337">
        <ele>789.791258</ele>
        <time>2026-09-01T11:17:38.925Z</time>
      </trkpt>
      <trkpt lat="45.28427" lon="4.57335">
        <ele>790.67256</ele>
        <time>2026-09-01T11:17:43.925Z</time>
      </trkpt>
      <trkpt lat="45.28416" lon="4.57337">
        <ele>791.568397</ele>
        <time>2026-09-01T11:17:48.915Z</time>
      </trkpt>
      <trkpt lat="45.28405" lon="4.57338">
        <ele>792.420578</ele>
        <time>2026-09-01T11:17:53.923Z</time>
      </trkpt>
      <trkpt lat="45.28396" lon="4.57339">
        <ele>793.138146</ele>
        <time>2026-09-01T11:17:57.923Z</time>
      </trkpt>
      <trkpt lat="45.28386" lon="4.57343">
        <ele>794.002722</ele>
        <time>2026-09-01T11:18:01.921Z</time>
      </trkpt>
      <trkpt lat="45.28377" lon="4.57343">
        <ele>794.726496</ele>
        <time>2026-09-01T11:18:05.919Z</time>
      </trkpt>
      <trkpt lat="45.28368" lon="4.57344">
        <ele>795.446569</ele>
        <time>2026-09-01T11:18:09.912Z</time>
      </trkpt>
      <trkpt lat="45.28357" lon="4.57347">
        <ele>796.308996</ele>
        <time>2026-09-01T11:18:14.916Z</time>
      </trkpt>
      <trkpt lat="45.28346" lon="4.57348">
        <ele>797.163105</ele>
        <time>2026-09-01T11:18:18.916Z</time>
      </trkpt>
      <trkpt lat="45.28336" lon="4.5735">
        <ele>798.007229</ele>
        <time>2026-09-01T11:18:23.923Z</time>
      </trkpt>
      <trkpt lat="45.28326" lon="4.57352">
        <ele>798.468122</ele>
        <time>2026-09-01T11:18:28.920Z</time>
      </trkpt>
      <trkpt lat="45.28317" lon="4.57356">
        <ele>798.840228</ele>
        <time>2026-09-01T11:18:32.925Z</time>
      </trkpt>
      <trkpt lat="45.28307" lon="4.57358">
        <ele>799.256375</ele>
        <time>2026-09-01T11:18:37.897Z</time>
      </trkpt>
      <trkpt lat="45.28297" lon="4.57361">
        <ele>799.640794</ele>
        <time>2026-09-01T11:18:42.923Z</time>
      </trkpt>
      <trkpt lat="45.28288" lon="4.57361">
        <ele>800.010302</ele>
        <time>2026-09-01T11:18:46.908Z</time>
      </trkpt>
      <trkpt lat="45.28278" lon="4.57362">
        <ele>800.404091</ele>
        <time>2026-09-01T11:18:51.919Z</time>
      </trkpt>
      <trkpt lat="45.28268" lon="4.57359">
        <ele>800.792729</ele>
        <time>2026-09-01T11:18:56.920Z</time>
      </trkpt>
      <trkpt lat="45.28257" lon="4.57358">
        <ele>801.244775</ele>
        <time>2026-09-01T11:19:01.921Z</time>
      </trkpt>
      <trkpt lat="45.28245" lon="4.57358">
        <ele>801.716157</ele>
        <time>2026-09-01T11:19:06.927Z</time>
      </trkpt>
      <trkpt lat="45.28235" lon="4.57357">
        <ele>802.088383</ele>
        <time>2026-09-01T11:19:10.924Z</time>
      </trkpt>
      <trkpt lat="45.28225" lon="4.57357">
        <ele>802.48513</ele>
        <time>2026-09-01T11:19:15.919Z</time>
      </trkpt>
      <trkpt lat="45.28215" lon="4.57355">
        <ele>802.897384</ele>
        <time>2026-09-01T11:19:19.920Z</time>
      </trkpt>
      <trkpt lat="45.28205" lon="4.57351">
        <ele>803.305754</ele>
        <time>2026-09-01T11:19:24.919Z</time>
      </trkpt>
      <trkpt lat="45.28195" lon="4.5735">
        <ele>803.675665</ele>
        <time>2026-09-01T11:19:29.917Z</time>
      </trkpt>
      <trkpt lat="45.28186" lon="4.5735">
        <ele>804.053266</ele>
        <time>2026-09-01T11:19:33.906Z</time>
      </trkpt>
      <trkpt lat="45.28175" lon="4.5735">
        <ele>804.465809</ele>
        <time>2026-09-01T11:19:40.921Z</time>
      </trkpt>
      <trkpt lat="45.28166" lon="4.57357">
        <ele>804.868088</ele>
        <time>2026-09-01T11:19:45.922Z</time>
      </trkpt>
      <trkpt lat="45.28157" lon="4.57361">
        <ele>805.251526</ele>
        <time>2026-09-01T11:19:48.915Z</time>
      </trkpt>
      <trkpt lat="45.28148" lon="4.57369">
        <ele>806.72249</ele>
        <time>2026-09-01T11:19:52.920Z</time>
      </trkpt>
      <trkpt lat="45.28137" lon="4.57377">
        <ele>808.357564</ele>
        <time>2026-09-01T11:19:56.935Z</time>
      </trkpt>
      <trkpt lat="45.28128" lon="4.57384">
        <ele>809.711469</ele>
        <time>2026-09-01T11:20:00.903Z</time>
      </trkpt>
      <trkpt lat="45.28119" lon="4.5739">
        <ele>811.025964</ele>
        <time>2026-09-01T11:20:06.921Z</time>
      </trkpt>
      <trkpt lat="45.28109" lon="4.57392">
        <ele>812.416027</ele>
        <time>2026-09-01T11:20:12.925Z</time>
      </trkpt>
      <trkpt lat="45.28098" lon="4.57388">
        <ele>813.885987</ele>
        <time>2026-09-01T11:20:17.919Z</time>
      </trkpt>
      <trkpt lat="45.2809" lon="4.57385">
        <ele>815.11282</ele>
        <time>2026-09-01T11:20:22.934Z</time>
      </trkpt>
      <trkpt lat="45.28082" lon="4.57376">
        <ele>816.433464</ele>
        <time>2026-09-01T11:20:28.904Z</time>
      </trkpt>
      <trkpt lat="45.28076" lon="4.57366">
        <ele>817.687429</ele>
        <time>2026-09-01T11:20:34.932Z</time>
      </trkpt>
      <trkpt lat="45.28068" lon="4.57356">
        <ele>819.086025</ele>
        <time>2026-09-01T11:20:39.904Z</time>
      </trkpt>
      <trkpt lat="45.28062" lon="4.57345">
        <ele>820.455084</ele>
        <time>2026-09-01T11:20:44.926Z</time>
      </trkpt>
      <trkpt lat="45.28055" lon="4.57332">
        <ele>821.899802</ele>
        <time>2026-09-01T11:20:49.911Z</time>
      </trkpt>
      <trkpt lat="45.28049" lon="4.5732">
        <ele>823.305899</ele>
        <time>2026-09-01T11:20:54.929Z</time>
      </trkpt>
      <trkpt lat="45.28043" lon="4.57307">
        <ele>824.789431</ele>
        <time>2026-09-01T11:20:59.925Z</time>
      </trkpt>
      <trkpt lat="45.28037" lon="4.57294">
        <ele>826.222393</ele>
        <time>2026-09-01T11:21:04.913Z</time>
      </trkpt>
      <trkpt lat="45.28033" lon="4.57281">
        <ele>827.6421</ele>
        <time>2026-09-01T11:21:09.899Z</time>
      </trkpt>
      <trkpt lat="45.2803" lon="4.57267">
        <ele>829.001568</ele>
        <time>2026-09-01T11:21:14.921Z</time>
      </trkpt>
      <trkpt lat="45.28024" lon="4.57256">
        <ele>829.897309</ele>
        <time>2026-09-01T11:21:18.929Z</time>
      </trkpt>
      <trkpt lat="45.2802" lon="4.57244">
        <ele>830.599016</ele>
        <time>2026-09-01T11:21:23.919Z</time>
      </trkpt>
      <trkpt lat="45.28015" lon="4.57231">
        <ele>831.387506</ele>
        <time>2026-09-01T11:21:28.916Z</time>
      </trkpt>
      <trkpt lat="45.28011" lon="4.57218">
        <ele>832.121671</ele>
        <time>2026-09-01T11:21:32.921Z</time>
      </trkpt>
      <trkpt lat="45.2801" lon="4.57204">
        <ele>832.872591</ele>
        <time>2026-09-01T11:21:36.915Z</time>
      </trkpt>
      <trkpt lat="45.28005" lon="4.57192">
        <ele>833.590059</ele>
        <time>2026-09-01T11:21:40.908Z</time>
      </trkpt>
      <trkpt lat="45.28003" lon="4.57177">
        <ele>834.374871</ele>
        <time>2026-09-01T11:21:45.930Z</time>
      </trkpt>
      <trkpt lat="45.28002" lon="4.57163">
        <ele>835.145218</ele>
        <time>2026-09-01T11:21:50.914Z</time>
      </trkpt>
      <trkpt lat="45.28001" lon="4.57149">
        <ele>835.861463</ele>
        <time>2026-09-01T11:21:55.932Z</time>
      </trkpt>
      <trkpt lat="45.28" lon="4.57135">
        <ele>836.601329</ele>
        <time>2026-09-01T11:22:00.940Z</time>
      </trkpt>
      <trkpt lat="45.27998" lon="4.5712">
        <ele>837.406868</ele>
        <time>2026-09-01T11:22:05.923Z</time>
      </trkpt>
      <trkpt lat="45.27996" lon="4.57107">
        <ele>838.10595</ele>
        <time>2026-09-01T11:22:10.933Z</time>
      </trkpt>
      <trkpt lat="45.27994" lon="4.57093">
        <ele>838.878295</ele>
        <time>2026-09-01T11:22:15.922Z</time>
      </trkpt>
      <trkpt lat="45.27989" lon="4.57079">
        <ele>839.690411</ele>
        <time>2026-09-01T11:22:20.931Z</time>
      </trkpt>
      <trkpt lat="45.27989" lon="4.57065">
        <ele>840.429104</ele>
        <time>2026-09-01T11:22:25.911Z</time>
      </trkpt>
      <trkpt lat="45.2799" lon="4.5705">
        <ele>841.222831</ele>
        <time>2026-09-01T11:22:30.925Z</time>
      </trkpt>
      <trkpt lat="45.27988" lon="4.57037">
        <ele>841.917921</ele>
        <time>2026-09-01T11:22:34.922Z</time>
      </trkpt>
      <trkpt lat="45.27987" lon="4.57023">
        <ele>842.649912</ele>
        <time>2026-09-01T11:22:39.920Z</time>
      </trkpt>
      <trkpt lat="45.27986" lon="4.57008">
        <ele>843.549135</ele>
        <time>2026-09-01T11:22:45.921Z</time>
      </trkpt>
      <trkpt lat="45.27984" lon="4.56995">
        <ele>844.34683</ele>
        <time>2026-09-01T11:22:50.927Z</time>
      </trkpt>
      <trkpt lat="45.27981" lon="4.56981">
        <ele>845.239739</ele>
        <time>2026-09-01T11:22:56.936Z</time>
      </trkpt>
      <trkpt lat="45.27977" lon="4.56969">
        <ele>846.038059</ele>
        <time>2026-09-01T11:23:01.924Z</time>
      </trkpt>
      <trkpt lat="45.27975" lon="4.56956">
        <ele>846.853572</ele>
        <time>2026-09-01T11:23:06.924Z</time>
      </trkpt>
      <trkpt lat="45.27974" lon="4.56941">
        <ele>847.75389</ele>
        <time>2026-09-01T11:23:12.921Z</time>
      </trkpt>
      <trkpt lat="45.27971" lon="4.56929">
        <ele>848.557385</ele>
        <time>2026-09-01T11:23:17.930Z</time>
      </trkpt>
      <trkpt lat="45.27965" lon="4.56918">
        <ele>849.368467</ele>
        <time>2026-09-01T11:23:22.924Z</time>
      </trkpt>
      <trkpt lat="45.27959" lon="4.56906">
        <ele>850.279009</ele>
        <time>2026-09-01T11:23:27.924Z</time>
      </trkpt>
      <trkpt lat="45.27954" lon="4.56894">
        <ele>851.14234</ele>
        <time>2026-09-01T11:23:33.925Z</time>
      </trkpt>
      <trkpt lat="45.27952" lon="4.56881">
        <ele>851.949483</ele>
        <time>2026-09-01T11:23:38.932Z</time>
      </trkpt>
      <trkpt lat="45.27946" lon="4.56869">
        <ele>852.801163</ele>
        <time>2026-09-01T11:23:43.917Z</time>
      </trkpt>
      <trkpt lat="45.27938" lon="4.56859">
        <ele>853.724003</ele>
        <time>2026-09-01T11:23:47.930Z</time>
      </trkpt>
      <trkpt lat="45.27931" lon="4.56849">
        <ele>854.592648</ele>
        <time>2026-09-01T11:23:52.919Z</time>
      </trkpt>
      <trkpt lat="45.27924" lon="4.56839">
        <ele>855.44348</ele>
        <time>2026-09-01T11:23:58.926Z</time>
      </trkpt>
      <trkpt lat="45.27918" lon="4.5683">
        <ele>856.246896</ele>
        <time>2026-09-01T11:24:03.922Z</time>
      </trkpt>
      <trkpt lat="45.27912" lon="4.5682">
        <ele>857.034586</ele>
        <time>2026-09-01T11:24:09.941Z</time>
      </trkpt>
      <trkpt lat="45.27904" lon="4.5681">
        <ele>857.923763</ele>
        <time>2026-09-01T11:24:14.925Z</time>
      </trkpt>
      <trkpt lat="45.27897" lon="4.568">
        <ele>858.807499</ele>
        <time>2026-09-01T11:24:20.909Z</time>
      </trkpt>
      <trkpt lat="45.27888" lon="4.56793">
        <ele>859.70495</ele>
        <time>2026-09-01T11:24:25.926Z</time>
      </trkpt>
      <trkpt lat="45.27879" lon="4.56784">
        <ele>860.688499</ele>
        <time>2026-09-01T11:24:31.924Z</time>
      </trkpt>
      <trkpt lat="45.27869" lon="4.56778">
        <ele>861.669255</ele>
        <time>2026-09-01T11:24:37.927Z</time>
      </trkpt>
      <trkpt lat="45.2786" lon="4.56774">
        <ele>862.52615</ele>
        <time>2026-09-01T11:24:41.909Z</time>
      </trkpt>
      <trkpt lat="45.27851" lon="4.56772">
        <ele>863.362258</ele>
        <time>2026-09-01T11:24:46.922Z</time>
      </trkpt>
      <trkpt lat="45.27842" lon="4.56774">
        <ele>864.207286</ele>
        <time>2026-09-01T11:24:51.921Z</time>
      </trkpt>
      <trkpt lat="45.27833" lon="4.56775">
        <ele>865.022415</ele>
        <time>2026-09-01T11:24:56.915Z</time>
      </trkpt>
      <trkpt lat="45.27822" lon="4.56777">
        <ele>865.962364</ele>
        <time>2026-09-01T11:25:02.930Z</time>
      </trkpt>
      <trkpt lat="45.27812" lon="4.56779">
        <ele>866.918864</ele>
        <time>2026-09-01T11:25:08.905Z</time>
      </trkpt>
      <trkpt lat="45.27802" lon="4.5678">
        <ele>867.830393</ele>
        <time>2026-09-01T11:25:13.924Z</time>
      </trkpt>
      <trkpt lat="45.27791" lon="4.56779">
        <ele>868.812479</ele>
        <time>2026-09-01T11:25:20.901Z</time>
      </trkpt>
      <trkpt lat="45.27782" lon="4.56781">
        <ele>869.629083</ele>
        <time>2026-09-01T11:25:26.917Z</time>
      </trkpt>
      <trkpt lat="45.27771" lon="4.56779">
        <ele>870.60965</ele>
        <time>2026-09-01T11:25:33.926Z</time>
      </trkpt>
      <trkpt lat="45.27761" lon="4.56781">
        <ele>871.535833</ele>
        <time>2026-09-01T11:25:39.931Z</time>
      </trkpt>
      <trkpt lat="45.27752" lon="4.56782">
        <ele>872.359254</ele>
        <time>2026-09-01T11:25:44.924Z</time>
      </trkpt>
      <trkpt lat="45.27744" lon="4.56788">
        <ele>873.195506</ele>
        <time>2026-09-01T11:25:50.919Z</time>
      </trkpt>
      <trkpt lat="45.27735" lon="4.56791">
        <ele>874.011767</ele>
        <time>2026-09-01T11:25:57.924Z</time>
      </trkpt>
      <trkpt lat="45.27725" lon="4.56796">
        <ele>875.103198</ele>
        <time>2026-09-01T11:26:02.910Z</time>
      </trkpt>
      <trkpt lat="45.27716" lon="4.56803">
        <ele>876.414109</ele>
        <time>2026-09-01T11:26:07.921Z</time>
      </trkpt>
      <trkpt lat="45.27707" lon="4.56806">
        <ele>877.627968</ele>
        <time>2026-09-01T11:26:12.917Z</time>
      </trkpt>
      <trkpt lat="45.27697" lon="4.56809">
        <ele>878.933481</ele>
        <time>2026-09-01T11:26:17.916Z</time>
      </trkpt>
      <trkpt lat="45.27688" lon="4.56812">
        <ele>880.158073</ele>
        <time>2026-09-01T11:26:22.928Z</time>
      </trkpt>
      <trkpt lat="45.27679" lon="4.5681">
        <ele>881.447894</ele>
        <time>2026-09-01T11:26:28.915Z</time>
      </trkpt>
      <trkpt lat="45.2767" lon="4.56805">
        <ele>882.673361</ele>
        <time>2026-09-01T11:26:34.930Z</time>
      </trkpt>
      <trkpt lat="45.27661" lon="4.56798">
        <ele>883.971414</ele>
        <time>2026-09-01T11:26:41.905Z</time>
      </trkpt>
      <trkpt lat="45.27654" lon="4.56791">
        <ele>885.191789</ele>
        <time>2026-09-01T11:26:47.928Z</time>
      </trkpt>
      <trkpt lat="45.27645" lon="4.56785">
        <ele>886.406296</ele>
        <time>2026-09-01T11:26:53.923Z</time>
      </trkpt>
      <trkpt lat="45.27639" lon="4.56775">
        <ele>887.61713</ele>
        <time>2026-09-01T11:26:58.924Z</time>
      </trkpt>
      <trkpt lat="45.27638" lon="4.56761">
        <ele>888.92565</ele>
        <time>2026-09-01T11:27:05.909Z</time>
      </trkpt>
      <trkpt lat="45.27634" lon="4.56748">
        <ele>890.219762</ele>
        <time>2026-09-01T11:27:12.927Z</time>
      </trkpt>
      <trkpt lat="45.27628" lon="4.56736">
        <ele>891.584099</ele>
        <time>2026-09-01T11:27:17.910Z</time>
      </trkpt>
      <trkpt lat="45.27624" lon="4.56724">
        <ele>892.811022</ele>
        <time>2026-09-01T11:27:23.931Z</time>
      </trkpt>
      <trkpt lat="45.2762" lon="4.5671">
        <ele>894.19131</ele>
        <time>2026-09-01T11:27:29.911Z</time>
      </trkpt>
      <trkpt lat="45.27613" lon="4.567">
        <ele>895.469698</ele>
        <time>2026-09-01T11:27:34.924Z</time>
      </trkpt>
      <trkpt lat="45.27606" lon="4.56689">
        <ele>896.833247</ele>
        <time>2026-09-01T11:27:39.907Z</time>
      </trkpt>
      <trkpt lat="45.276" lon="4.56677">
        <ele>898.216155</ele>
        <time>2026-09-01T11:27:45.925Z</time>
      </trkpt>
      <trkpt lat="45.27596" lon="4.56665">
        <ele>898.66791</ele>
        <time>2026-09-01T11:27:50.926Z</time>
      </trkpt>
      <trkpt lat="45.27591" lon="4.56651">
        <ele>899.161594</ele>
        <time>2026-09-01T11:27:55.938Z</time>
      </trkpt>
      <trkpt lat="45.27586" lon="4.56637">
        <ele>899.64805</ele>
        <time>2026-09-01T11:28:00.918Z</time>
      </trkpt>
      <trkpt lat="45.27579" lon="4.56625">
        <ele>900.145621</ele>
        <time>2026-09-01T11:28:05.922Z</time>
      </trkpt>
      <trkpt lat="45.27573" lon="4.56615">
        <ele>900.566823</ele>
        <time>2026-09-01T11:28:09.923Z</time>
      </trkpt>
      <trkpt lat="45.27567" lon="4.56605">
        <ele>900.982156</ele>
        <time>2026-09-01T11:28:13.920Z</time>
      </trkpt>
      <trkpt lat="45.27563" lon="4.56592">
        <ele>901.419215</ele>
        <time>2026-09-01T11:28:17.928Z</time>
      </trkpt>
      <trkpt lat="45.27559" lon="4.56581">
        <ele>901.829518</ele>
        <time>2026-09-01T11:28:21.923Z</time>
      </trkpt>
      <trkpt lat="45.27556" lon="4.56568">
        <ele>902.248835</ele>
        <time>2026-09-01T11:28:25.919Z</time>
      </trkpt>
      <trkpt lat="45.27551" lon="4.56554">
        <ele>902.755489</ele>
        <time>2026-09-01T11:28:30.922Z</time>
      </trkpt>
      <trkpt lat="45.27545" lon="4.56541">
        <ele>903.233663</ele>
        <time>2026-09-01T11:28:35.919Z</time>
      </trkpt>
      <trkpt lat="45.27539" lon="4.56526">
        <ele>903.78004</ele>
        <time>2026-09-01T11:28:40.928Z</time>
      </trkpt>
      <trkpt lat="45.27533" lon="4.56514">
        <ele>904.248564</ele>
        <time>2026-09-01T11:28:44.898Z</time>
      </trkpt>
      <trkpt lat="45.27527" lon="4.56502">
        <ele>904.745938</ele>
        <time>2026-09-01T11:28:49.881Z</time>
      </trkpt>
      <trkpt lat="45.27518" lon="4.56492">
        <ele>905.253226</ele>
        <time>2026-09-01T11:28:54.869Z</time>
      </trkpt>
      <trkpt lat="45.27509" lon="4.56486">
        <ele>905.721969</ele>
        <time>2026-09-01T11:28:59.913Z</time>
      </trkpt>
      <trkpt lat="45.27499" lon="4.56479">
        <ele>906.218047</ele>
        <time>2026-09-01T11:29:04.880Z</time>
      </trkpt>
      <trkpt lat="45.2749" lon="4.56477">
        <ele>906.731569</ele>
        <time>2026-09-01T11:29:08.877Z</time>
      </trkpt>
      <trkpt lat="45.2748" lon="4.5648">
        <ele>907.3103</ele>
        <time>2026-09-01T11:29:13.000Z</time>
      </trkpt>
      <trkpt lat="45.27471" lon="4.56482">
        <ele>907.907685</ele>
        <time>2026-09-01T11:29:16.981Z</time>
      </trkpt>
      <trkpt lat="45.27463" lon="4.56489">
        <ele>908.467182</ele>
        <time>2026-09-01T11:29:20.916Z</time>
      </trkpt>
      <trkpt lat="45.27455" lon="4.56496">
        <ele>909.041897</ele>
        <time>2026-09-01T11:29:24.949Z</time>
      </trkpt>
      <trkpt lat="45.27446" lon="4.56499">
        <ele>909.615693</ele>
        <time>2026-09-01T11:29:28.875Z</time>
      </trkpt>
      <trkpt lat="45.27437" lon="4.565">
        <ele>910.179617</ele>
        <time>2026-09-01T11:29:32.905Z</time>
      </trkpt>
      <trkpt lat="45.27425" lon="4.565">
        <ele>910.865164</ele>
        <time>2026-09-01T11:29:37.905Z</time>
      </trkpt>
      <trkpt lat="45.27416" lon="4.56497">
        <ele>911.430991</ele>
        <time>2026-09-01T11:29:41.939Z</time>
      </trkpt>
      <trkpt lat="45.27406" lon="4.56493">
        <ele>912.091124</ele>
        <time>2026-09-01T11:29:46.894Z</time>
      </trkpt>
      <trkpt lat="45.27396" lon="4.5649">
        <ele>912.717603</ele>
        <time>2026-09-01T11:29:50.917Z</time>
      </trkpt>
      <trkpt lat="45.27384" lon="4.56486">
        <ele>913.460127</ele>
        <time>2026-09-01T11:29:55.877Z</time>
      </trkpt>
      <trkpt lat="45.27376" lon="4.56479">
        <ele>914.06172</ele>
        <time>2026-09-01T11:29:59.924Z</time>
      </trkpt>
      <trkpt lat="45.27367" lon="4.56472">
        <ele>914.662923</ele>
        <time>2026-09-01T11:30:03.946Z</time>
      </trkpt>
      <trkpt lat="45.27357" lon="4.56466">
        <ele>915.357246</ele>
        <time>2026-09-01T11:30:07.915Z</time>
      </trkpt>
      <trkpt lat="45.27349" lon="4.56458">
        <ele>915.968656</ele>
        <time>2026-09-01T11:30:11.896Z</time>
      </trkpt>
      <trkpt lat="45.2734" lon="4.56451">
        <ele>916.559478</ele>
        <time>2026-09-01T11:30:15.887Z</time>
      </trkpt>
      <trkpt lat="45.27331" lon="4.56445">
        <ele>917.191955</ele>
        <time>2026-09-01T11:30:19.916Z</time>
      </trkpt>
      <trkpt lat="45.27321" lon="4.56439">
        <ele>917.729587</ele>
        <time>2026-09-01T11:30:23.909Z</time>
      </trkpt>
      <trkpt lat="45.27313" lon="4.56436">
        <ele>918.182188</ele>
        <time>2026-09-01T11:30:26.925Z</time>
      </trkpt>
      <trkpt lat="45.27301" lon="4.56433">
        <ele>918.741214</ele>
        <time>2026-09-01T11:30:30.916Z</time>
      </trkpt>
      <trkpt lat="45.27292" lon="4.56431">
        <ele>919.202209</ele>
        <time>2026-09-01T11:30:33.923Z</time>
      </trkpt>
      <trkpt lat="45.27282" lon="4.5643">
        <ele>919.685473</ele>
        <time>2026-09-01T11:30:36.922Z</time>
      </trkpt>
      <trkpt lat="45.27273" lon="4.56429">
        <ele>920.164927</ele>
        <time>2026-09-01T11:30:39.889Z</time>
      </trkpt>
      <trkpt lat="45.27261" lon="4.56429">
        <ele>920.721097</ele>
        <time>2026-09-01T11:30:43.922Z</time>
      </trkpt>
      <trkpt lat="45.2725" lon="4.56427">
        <ele>921.298891</ele>
        <time>2026-09-01T11:30:47.920Z</time>
      </trkpt>
      <trkpt lat="45.2724" lon="4.56426">
        <ele>921.759886</ele>
        <time>2026-09-01T11:30:50.917Z</time>
      </trkpt>
      <trkpt lat="45.27231" lon="4.56426">
        <ele>922.21267</ele>
        <time>2026-09-01T11:30:53.926Z</time>
      </trkpt>
      <trkpt lat="45.2722" lon="4.5643">
        <ele>922.780963</ele>
        <time>2026-09-01T11:30:57.931Z</time>
      </trkpt>
      <trkpt lat="45.27211" lon="4.56436">
        <ele>923.265866</ele>
        <time>2026-09-01T11:31:01.905Z</time>
      </trkpt>
      <trkpt lat="45.27201" lon="4.56441">
        <ele>923.792301</ele>
        <time>2026-09-01T11:31:06.903Z</time>
      </trkpt>
      <trkpt lat="45.27193" lon="4.56448">
        <ele>924.246281</ele>
        <time>2026-09-01T11:31:10.920Z</time>
      </trkpt>
      <trkpt lat="45.27187" lon="4.56458">
        <ele>924.707188</ele>
        <time>2026-09-01T11:31:14.919Z</time>
      </trkpt>
      <trkpt lat="45.2718" lon="4.56469">
        <ele>925.241653</ele>
        <time>2026-09-01T11:31:19.875Z</time>
      </trkpt>
      <trkpt lat="45.27173" lon="4.56479">
        <ele>925.719815</ele>
        <time>2026-09-01T11:31:24.924Z</time>
      </trkpt>
      <trkpt lat="45.27168" lon="4.56492">
        <ele>926.239917</ele>
        <time>2026-09-01T11:31:29.918Z</time>
      </trkpt>
      <trkpt lat="45.27162" lon="4.56503">
        <ele>927.101815</ele>
        <time>2026-09-01T11:31:33.917Z</time>
      </trkpt>
      <trkpt lat="45.27157" lon="4.56514">
        <ele>927.942975</ele>
        <time>2026-09-01T11:31:37.918Z</time>
      </trkpt>
      <trkpt lat="45.27151" lon="4.56526">
        <ele>928.893263</ele>
        <time>2026-09-01T11:31:42.898Z</time>
      </trkpt>
      <trkpt lat="45.27145" lon="4.56539">
        <ele>929.819802</ele>
        <time>2026-09-01T11:31:47.917Z</time>
      </trkpt>
      <trkpt lat="45.27143" lon="4.56552">
        <ele>930.675223</ele>
        <time>2026-09-01T11:31:51.918Z</time>
      </trkpt>
      <trkpt lat="45.27141" lon="4.56565">
        <ele>931.518616</ele>
        <time>2026-09-01T11:31:57.914Z</time>
      </trkpt>
      <trkpt lat="45.2714" lon="4.56581">
        <ele>932.537022</ele>
        <time>2026-09-01T11:32:04.921Z</time>
      </trkpt>
      <trkpt lat="45.27142" lon="4.56597">
        <ele>933.545549</ele>
        <time>2026-09-01T11:32:09.915Z</time>
      </trkpt>
      <trkpt lat="45.27145" lon="4.56611">
        <ele>934.523407</ele>
        <time>2026-09-01T11:32:14.918Z</time>
      </trkpt>
      <trkpt lat="45.27149" lon="4.56624">
        <ele>935.395228</ele>
        <time>2026-09-01T11:32:18.917Z</time>
      </trkpt>
      <trkpt lat="45.27153" lon="4.56637">
        <ele>936.271407</ele>
        <time>2026-09-01T11:32:23.930Z</time>
      </trkpt>
      <trkpt lat="45.27156" lon="4.5665">
        <ele>937.202733</ele>
        <time>2026-09-01T11:32:28.917Z</time>
      </trkpt>
      <trkpt lat="45.27154" lon="4.56664">
        <ele>938.072424</ele>
        <time>2026-09-01T11:32:33.919Z</time>
      </trkpt>
      <trkpt lat="45.27146" lon="4.56671">
        <ele>938.943185</ele>
        <time>2026-09-01T11:32:38.919Z</time>
      </trkpt>
      <trkpt lat="45.27138" lon="4.56663">
        <ele>939.804373</ele>
        <time>2026-09-01T11:32:43.923Z</time>
      </trkpt>
      <trkpt lat="45.2713" lon="4.56656">
        <ele>940.650187</ele>
        <time>2026-09-01T11:32:48.922Z</time>
      </trkpt>
      <trkpt lat="45.27122" lon="4.56647">
        <ele>941.549678</ele>
        <time>2026-09-01T11:32:52.919Z</time>
      </trkpt>
      <trkpt lat="45.27114" lon="4.56639">
        <ele>942.476841</ele>
        <time>2026-09-01T11:32:56.927Z</time>
      </trkpt>
      <trkpt lat="45.27104" lon="4.56633">
        <ele>942.874345</ele>
        <time>2026-09-01T11:33:00.921Z</time>
      </trkpt>
      <trkpt lat="45.27094" lon="4.56628">
        <ele>943.288625</ele>
        <time>2026-09-01T11:33:04.927Z</time>
      </trkpt>
      <trkpt lat="45.27083" lon="4.56632">
        <ele>943.703804</ele>
        <time>2026-09-01T11:33:08.914Z</time>
      </trkpt>
      <trkpt lat="45.27074" lon="4.56641">
        <ele>944.107185</ele>
        <time>2026-09-01T11:33:13.918Z</time>
      </trkpt>
      <trkpt lat="45.27067" lon="4.56654">
        <ele>944.545849</ele>
        <time>2026-09-01T11:33:17.921Z</time>
      </trkpt>
      <trkpt lat="45.27059" lon="4.56662">
        <ele>944.919734</ele>
        <time>2026-09-01T11:33:20.921Z</time>
      </trkpt>
      <trkpt lat="45.27053" lon="4.56673">
        <ele>945.297232</ele>
        <time>2026-09-01T11:33:23.921Z</time>
      </trkpt>
      <trkpt lat="45.27049" lon="4.56687">
        <ele>945.702829</ele>
        <time>2026-09-01T11:33:27.930Z</time>
      </trkpt>
      <trkpt lat="45.27047" lon="4.56701">
        <ele>946.081022</ele>
        <time>2026-09-01T11:33:30.926Z</time>
      </trkpt>
      <trkpt lat="45.27041" lon="4.56716">
        <ele>946.536211</ele>
        <time>2026-09-01T11:33:34.920Z</time>
      </trkpt>
      <trkpt lat="45.27034" lon="4.56728">
        <ele>946.9627</ele>
        <time>2026-09-01T11:33:38.908Z</time>
      </trkpt>
      <trkpt lat="45.27027" lon="4.56736">
        <ele>947.310579</ele>
        <time>2026-09-01T11:33:40.917Z</time>
      </trkpt>
      <trkpt lat="45.27019" lon="4.56745">
        <ele>947.685952</ele>
        <time>2026-09-01T11:33:42.904Z</time>
      </trkpt>
      <trkpt lat="45.27012" lon="4.56756">
        <ele>948.091209</ele>
        <time>2026-09-01T11:33:44.923Z</time>
      </trkpt>
      <trkpt lat="45.27" lon="4.56769">
        <ele>948.669921</ele>
        <time>2026-09-01T11:33:46.923Z</time>
      </trkpt>
      <trkpt lat="45.2699" lon="4.56777">
        <ele>949.110036</ele>
        <time>2026-09-01T11:33:48.915Z</time>
      </trkpt>
      <trkpt lat="45.26981" lon="4.56782">
        <ele>949.18628</ele>
        <time>2026-09-01T11:33:50.930Z</time>
      </trkpt>
      <trkpt lat="45.26972" lon="4.56787">
        <ele>948.919543</ele>
        <time>2026-09-01T11:33:52.925Z</time>
      </trkpt>
      <trkpt lat="45.26958" lon="4.56788">
        <ele>948.554012</ele>
        <time>2026-09-01T11:33:54.922Z</time>
      </trkpt>
      <trkpt lat="45.26945" lon="4.5679">
        <ele>948.207445</ele>
        <time>2026-09-01T11:33:56.919Z</time>
      </trkpt>
      <trkpt lat="45.26934" lon="4.56798">
        <ele>947.866919</ele>
        <time>2026-09-01T11:33:58.919Z</time>
      </trkpt>
      <trkpt lat="45.26923" lon="4.56803">
        <ele>947.566099</ele>
        <time>2026-09-01T11:34:00.916Z</time>
      </trkpt>
      <trkpt lat="45.26912" lon="4.56806">
        <ele>947.262217</ele>
        <time>2026-09-01T11:34:02.934Z</time>
      </trkpt>
      <trkpt lat="45.26902" lon="4.56811">
        <ele>946.968792</ele>
        <time>2026-09-01T11:34:04.926Z</time>
      </trkpt>
      <trkpt lat="45.26891" lon="4.56818">
        <ele>946.643361</ele>
        <time>2026-09-01T11:34:06.920Z</time>
      </trkpt>
      <trkpt lat="45.2688" lon="4.56824">
        <ele>946.337557</ele>
        <time>2026-09-01T11:34:08.929Z</time>
      </trkpt>
      <trkpt lat="45.2687" lon="4.5683">
        <ele>946.024948</ele>
        <time>2026-09-01T11:34:10.924Z</time>
      </trkpt>
      <trkpt lat="45.26859" lon="4.56835">
        <ele>945.723267</ele>
        <time>2026-09-01T11:34:12.923Z</time>
      </trkpt>
      <trkpt lat="45.26847" lon="4.5684">
        <ele>945.394443</ele>
        <time>2026-09-01T11:34:14.922Z</time>
      </trkpt>
      <trkpt lat="45.26835" lon="4.56842">
        <ele>945.067012</ele>
        <time>2026-09-01T11:34:16.922Z</time>
      </trkpt>
      <trkpt lat="45.26822" lon="4.56844">
        <ele>944.709532</ele>
        <time>2026-09-01T11:34:18.923Z</time>
      </trkpt>
      <trkpt lat="45.26808" lon="4.56847">
        <ele>944.544192</ele>
        <time>2026-09-01T11:34:20.924Z</time>
      </trkpt>
      <trkpt lat="45.26794" lon="4.56852">
        <ele>944.784942</ele>
        <time>2026-09-01T11:34:22.924Z</time>
      </trkpt>
      <trkpt lat="45.2678" lon="4.5686">
        <ele>945.034428</ele>
        <time>2026-09-01T11:34:24.915Z</time>
      </trkpt>
      <trkpt lat="45.26768" lon="4.56871">
        <ele>945.282087</ele>
        <time>2026-09-01T11:34:26.920Z</time>
      </trkpt>
      <trkpt lat="45.26756" lon="4.5688">
        <ele>945.507144</ele>
        <time>2026-09-01T11:34:28.923Z</time>
      </trkpt>
      <trkpt lat="45.26745" lon="4.5689">
        <ele>945.724749</ele>
        <time>2026-09-01T11:34:30.925Z</time>
      </trkpt>
      <trkpt lat="45.26736" lon="4.56899">
        <ele>945.910745</ele>
        <time>2026-09-01T11:34:32.936Z</time>
      </trkpt>
      <trkpt lat="45.26727" lon="4.56906">
        <ele>946.079337</ele>
        <time>2026-09-01T11:34:34.923Z</time>
      </trkpt>
      <trkpt lat="45.26718" lon="4.56916">
        <ele>946.2784</ele>
        <time>2026-09-01T11:34:36.928Z</time>
      </trkpt>
      <trkpt lat="45.26709" lon="4.56926">
        <ele>946.472157</ele>
        <time>2026-09-01T11:34:38.927Z</time>
      </trkpt>
      <trkpt lat="45.267" lon="4.56936">
        <ele>946.658882</ele>
        <time>2026-09-01T11:34:40.928Z</time>
      </trkpt>
      <trkpt lat="45.26692" lon="4.56944">
        <ele>946.831076</ele>
        <time>2026-09-01T11:34:42.924Z</time>
      </trkpt>
      <trkpt lat="45.26684" lon="4.56954">
        <ele>947.006647</ele>
        <time>2026-09-01T11:34:44.920Z</time>
      </trkpt>
      <trkpt lat="45.26677" lon="4.56965">
        <ele>947.180069</ele>
        <time>2026-09-01T11:34:46.923Z</time>
      </trkpt>
      <trkpt lat="45.26671" lon="4.56976">
        <ele>947.34108</ele>
        <time>2026-09-01T11:34:48.918Z</time>
      </trkpt>
      <trkpt lat="45.26666" lon="4.56989">
        <ele>947.439062</ele>
        <time>2026-09-01T11:34:50.924Z</time>
      </trkpt>
      <trkpt lat="45.2666" lon="4.57003">
        <ele>947.155069</ele>
        <time>2026-09-01T11:34:52.920Z</time>
      </trkpt>
      <trkpt lat="45.26655" lon="4.57017">
        <ele>946.872769</ele>
        <time>2026-09-01T11:34:54.920Z</time>
      </trkpt>
      <trkpt lat="45.2665" lon="4.57031">
        <ele>946.588465</ele>
        <time>2026-09-01T11:34:56.893Z</time>
      </trkpt>
      <trkpt lat="45.26645" lon="4.57044">
        <ele>946.329799</ele>
        <time>2026-09-01T11:34:58.923Z</time>
      </trkpt>
      <trkpt lat="45.2664" lon="4.57057">
        <ele>946.067334</ele>
        <time>2026-09-01T11:35:00.916Z</time>
      </trkpt>
      <trkpt lat="45.26636" lon="4.57071">
        <ele>945.799635</ele>
        <time>2026-09-01T11:35:02.923Z</time>
      </trkpt>
      <trkpt lat="45.26633" lon="4.57087">
        <ele>945.512891</ele>
        <time>2026-09-01T11:35:04.925Z</time>
      </trkpt>
      <trkpt lat="45.26631" lon="4.57104">
        <ele>945.203082</ele>
        <time>2026-09-01T11:35:06.922Z</time>
      </trkpt>
      <trkpt lat="45.26627" lon="4.57119">
        <ele>944.910876</ele>
        <time>2026-09-01T11:35:08.923Z</time>
      </trkpt>
      <trkpt lat="45.26621" lon="4.57137">
        <ele>944.577697</ele>
        <time>2026-09-01T11:35:10.930Z</time>
      </trkpt>
      <trkpt lat="45.26615" lon="4.57154">
        <ele>944.234394</ele>
        <time>2026-09-01T11:35:12.904Z</time>
      </trkpt>
      <trkpt lat="45.26608" lon="4.57173">
        <ele>943.85375</ele>
        <time>2026-09-01T11:35:14.935Z</time>
      </trkpt>
      <trkpt lat="45.26603" lon="4.57194">
        <ele>943.46937</ele>
        <time>2026-09-01T11:35:16.919Z</time>
      </trkpt>
      <trkpt lat="45.26603" lon="4.57215">
        <ele>943.088225</ele>
        <time>2026-09-01T11:35:18.920Z</time>
      </trkpt>
      <trkpt lat="45.26606" lon="4.57237">
        <ele>942.284011</ele>
        <time>2026-09-01T11:35:20.926Z</time>
      </trkpt>
      <trkpt lat="45.26607" lon="4.57261">
        <ele>941.230304</ele>
        <time>2026-09-01T11:35:22.930Z</time>
      </trkpt>
      <trkpt lat="45.26608" lon="4.57287">
        <ele>940.103312</ele>
        <time>2026-09-01T11:35:24.929Z</time>
      </trkpt>
      <trkpt lat="45.26609" lon="4.573">
        <ele>939.535584</ele>
        <time>2026-09-01T11:35:25.925Z</time>
      </trkpt>
      <trkpt lat="45.26613" lon="4.57323">
        <ele>938.488717</ele>
        <time>2026-09-01T11:35:27.920Z</time>
      </trkpt>
      <trkpt lat="45.26619" lon="4.57344">
        <ele>937.481989</ele>
        <time>2026-09-01T11:35:29.922Z</time>
      </trkpt>
      <trkpt lat="45.26625" lon="4.57366">
        <ele>936.478196</ele>
        <time>2026-09-01T11:35:31.925Z</time>
      </trkpt>
      <trkpt lat="45.26631" lon="4.57388">
        <ele>935.414586</ele>
        <time>2026-09-01T11:35:33.928Z</time>
      </trkpt>
      <trkpt lat="45.26637" lon="4.57412">
        <ele>934.299611</ele>
        <time>2026-09-01T11:35:35.932Z</time>
      </trkpt>
      <trkpt lat="45.2664" lon="4.57426">
        <ele>933.685675</ele>
        <time>2026-09-01T11:35:36.922Z</time>
      </trkpt>
      <trkpt lat="45.26643" lon="4.57438">
        <ele>933.096334</ele>
        <time>2026-09-01T11:35:37.934Z</time>
      </trkpt>
      <trkpt lat="45.26644" lon="4.57452">
        <ele>932.496333</ele>
        <time>2026-09-01T11:35:38.917Z</time>
      </trkpt>
      <trkpt lat="45.26646" lon="4.57466">
        <ele>931.859225</ele>
        <time>2026-09-01T11:35:39.931Z</time>
      </trkpt>
      <trkpt lat="45.26647" lon="4.57481">
        <ele>930.977646</ele>
        <time>2026-09-01T11:35:40.940Z</time>
      </trkpt>
      <trkpt lat="45.26648" lon="4.57497">
        <ele>930.021888</ele>
        <time>2026-09-01T11:35:41.917Z</time>
      </trkpt>
      <trkpt lat="45.26646" lon="4.57511">
        <ele>929.135952</ele>
        <time>2026-09-01T11:35:42.934Z</time>
      </trkpt>
      <trkpt lat="45.26644" lon="4.57524">
        <ele>928.314364</ele>
        <time>2026-09-01T11:35:43.923Z</time>
      </trkpt>
      <trkpt lat="45.26641" lon="4.57537">
        <ele>927.461556</ele>
        <time>2026-09-01T11:35:44.927Z</time>
      </trkpt>
      <trkpt lat="45.26638" lon="4.57552">
        <ele>926.518449</ele>
        <time>2026-09-01T11:35:45.923Z</time>
      </trkpt>
      <trkpt lat="45.26635" lon="4.57567">
        <ele>925.533151</ele>
        <time>2026-09-01T11:35:46.927Z</time>
      </trkpt>
      <trkpt lat="45.26631" lon="4.57581">
        <ele>924.624886</ele>
        <time>2026-09-01T11:35:47.923Z</time>
      </trkpt>
      <trkpt lat="45.26627" lon="4.57594">
        <ele>923.736991</ele>
        <time>2026-09-01T11:35:48.924Z</time>
      </trkpt>
      <trkpt lat="45.26622" lon="4.57607">
        <ele>922.843507</ele>
        <time>2026-09-01T11:35:49.922Z</time>
      </trkpt>
      <trkpt lat="45.26619" lon="4.57622">
        <ele>921.914669</ele>
        <time>2026-09-01T11:35:50.931Z</time>
      </trkpt>
      <trkpt lat="45.26616" lon="4.57637">
        <ele>920.94878</ele>
        <time>2026-09-01T11:35:51.923Z</time>
      </trkpt>
      <trkpt lat="45.26613" lon="4.57652">
        <ele>919.985753</ele>
        <time>2026-09-01T11:35:52.934Z</time>
      </trkpt>
      <trkpt lat="45.26611" lon="4.57667">
        <ele>919.07122</ele>
        <time>2026-09-01T11:35:53.924Z</time>
      </trkpt>
      <trkpt lat="45.26609" lon="4.57682">
        <ele>918.128374</ele>
        <time>2026-09-01T11:35:54.928Z</time>
      </trkpt>
      <trkpt lat="45.26606" lon="4.57696">
        <ele>917.200877</ele>
        <time>2026-09-01T11:35:55.927Z</time>
      </trkpt>
      <trkpt lat="45.26603" lon="4.57712">
        <ele>916.191465</ele>
        <time>2026-09-01T11:35:56.921Z</time>
      </trkpt>
      <trkpt lat="45.26599" lon="4.5773">
        <ele>915.527671</ele>
        <time>2026-09-01T11:35:57.923Z</time>
      </trkpt>
      <trkpt lat="45.26596" lon="4.57743">
        <ele>915.026925</ele>
        <time>2026-09-01T11:35:58.930Z</time>
      </trkpt>
      <trkpt lat="45.26591" lon="4.57758">
        <ele>914.486141</ele>
        <time>2026-09-01T11:35:59.927Z</time>
      </trkpt>
      <trkpt lat="45.26586" lon="4.57771">
        <ele>913.973255</ele>
        <time>2026-09-01T11:36:00.931Z</time>
      </trkpt>
      <trkpt lat="45.26582" lon="4.57785">
        <ele>913.445975</ele>
        <time>2026-09-01T11:36:01.923Z</time>
      </trkpt>
      <trkpt lat="45.26577" lon="4.57798">
        <ele>912.936996</ele>
        <time>2026-09-01T11:36:02.921Z</time>
      </trkpt>
      <trkpt lat="45.26573" lon="4.57813">
        <ele>912.384548</ele>
        <time>2026-09-01T11:36:03.925Z</time>
      </trkpt>
      <trkpt lat="45.26567" lon="4.57825">
        <ele>911.865452</ele>
        <time>2026-09-01T11:36:04.924Z</time>
      </trkpt>
      <trkpt lat="45.2656" lon="4.57837">
        <ele>911.357149</ele>
        <time>2026-09-01T11:36:05.885Z</time>
      </trkpt>
      <trkpt lat="45.26555" lon="4.5785">
        <ele>910.828936</ele>
        <time>2026-09-01T11:36:06.925Z</time>
      </trkpt>
      <trkpt lat="45.26547" lon="4.57861">
        <ele>910.307012</ele>
        <time>2026-09-01T11:36:07.928Z</time>
      </trkpt>
      <trkpt lat="45.26542" lon="4.57874">
        <ele>909.774277</ele>
        <time>2026-09-01T11:36:08.925Z</time>
      </trkpt>
      <trkpt lat="45.26537" lon="4.57888">
        <ele>909.233717</ele>
        <time>2026-09-01T11:36:09.921Z</time>
      </trkpt>
      <trkpt lat="45.26531" lon="4.57901">
        <ele>908.683468</ele>
        <time>2026-09-01T11:36:10.939Z</time>
      </trkpt>
      <trkpt lat="45.26525" lon="4.57914">
        <ele>908.178345</ele>
        <time>2026-09-01T11:36:11.921Z</time>
      </trkpt>
      <trkpt lat="45.2652" lon="4.57925">
        <ele>907.727384</ele>
        <time>2026-09-01T11:36:12.928Z</time>
      </trkpt>
      <trkpt lat="45.26514" lon="4.57934">
        <ele>907.263972</ele>
        <time>2026-09-01T11:36:13.925Z</time>
      </trkpt>
      <trkpt lat="45.26506" lon="4.57943">
        <ele>906.488133</ele>
        <time>2026-09-01T11:36:14.928Z</time>
      </trkpt>
      <trkpt lat="45.26498" lon="4.5795">
        <ele>905.76572</ele>
        <time>2026-09-01T11:36:15.921Z</time>
      </trkpt>
      <trkpt lat="45.2649" lon="4.57957">
        <ele>905.010778</ele>
        <time>2026-09-01T11:36:16.917Z</time>
      </trkpt>
      <trkpt lat="45.26481" lon="4.57963">
        <ele>904.243249</ele>
        <time>2026-09-01T11:36:17.928Z</time>
      </trkpt>
      <trkpt lat="45.26471" lon="4.57967">
        <ele>903.455689</ele>
        <time>2026-09-01T11:36:18.922Z</time>
      </trkpt>
      <trkpt lat="45.26461" lon="4.57972">
        <ele>902.646984</ele>
        <time>2026-09-01T11:36:19.924Z</time>
      </trkpt>
      <trkpt lat="45.26451" lon="4.57977">
        <ele>901.796185</ele>
        <time>2026-09-01T11:36:20.906Z</time>
      </trkpt>
      <trkpt lat="45.26441" lon="4.57985">
        <ele>900.912809</ele>
        <time>2026-09-01T11:36:21.921Z</time>
      </trkpt>
      <trkpt lat="45.26431" lon="4.57993">
        <ele>900.033615</ele>
        <time>2026-09-01T11:36:22.925Z</time>
      </trkpt>
      <trkpt lat="45.26422" lon="4.58001">
        <ele>899.213682</ele>
        <time>2026-09-01T11:36:23.925Z</time>
      </trkpt>
      <trkpt lat="45.26414" lon="4.58011">
        <ele>898.358148</ele>
        <time>2026-09-01T11:36:24.916Z</time>
      </trkpt>
      <trkpt lat="45.26405" lon="4.5802">
        <ele>897.505954</ele>
        <time>2026-09-01T11:36:25.916Z</time>
      </trkpt>
      <trkpt lat="45.26396" lon="4.58028">
        <ele>896.708964</ele>
        <time>2026-09-01T11:36:26.929Z</time>
      </trkpt>
      <trkpt lat="45.26389" lon="4.58038">
        <ele>895.932694</ele>
        <time>2026-09-01T11:36:27.920Z</time>
      </trkpt>
      <trkpt lat="45.26382" lon="4.58047">
        <ele>895.17496</ele>
        <time>2026-09-01T11:36:28.928Z</time>
      </trkpt>
      <trkpt lat="45.26377" lon="4.58059">
        <ele>894.448793</ele>
        <time>2026-09-01T11:36:29.924Z</time>
      </trkpt>
      <trkpt lat="45.26374" lon="4.58072">
        <ele>893.702621</ele>
        <time>2026-09-01T11:36:30.921Z</time>
      </trkpt>
      <trkpt lat="45.26373" lon="4.58098">
        <ele>892.623562</ele>
        <time>2026-09-01T11:36:32.927Z</time>
      </trkpt>
      <trkpt lat="45.26371" lon="4.58123">
        <ele>891.68896</ele>
        <time>2026-09-01T11:36:34.915Z</time>
      </trkpt>
      <trkpt lat="45.26368" lon="4.58136">
        <ele>891.200629</ele>
        <time>2026-09-01T11:36:35.924Z</time>
      </trkpt>
      <trkpt lat="45.26364" lon="4.58148">
        <ele>890.689842</ele>
        <time>2026-09-01T11:36:36.927Z</time>
      </trkpt>
      <trkpt lat="45.2636" lon="4.58162">
        <ele>890.141448</ele>
        <time>2026-09-01T11:36:37.924Z</time>
      </trkpt>
      <trkpt lat="45.26356" lon="4.58175">
        <ele>889.616714</ele>
        <time>2026-09-01T11:36:38.917Z</time>
      </trkpt>
      <trkpt lat="45.26353" lon="4.58188">
        <ele>889.114089</ele>
        <time>2026-09-01T11:36:39.923Z</time>
      </trkpt>
      <trkpt lat="45.2635" lon="4.58202">
        <ele>888.580328</ele>
        <time>2026-09-01T11:36:40.921Z</time>
      </trkpt>
      <trkpt lat="45.26348" lon="4.58217">
        <ele>888.032252</ele>
        <time>2026-09-01T11:36:41.923Z</time>
      </trkpt>
      <trkpt lat="45.26346" lon="4.58231">
        <ele>887.49258</ele>
        <time>2026-09-01T11:36:42.925Z</time>
      </trkpt>
      <trkpt lat="45.26345" lon="4.58246">
        <ele>886.936356</ele>
        <time>2026-09-01T11:36:43.923Z</time>
      </trkpt>
      <trkpt lat="45.26344" lon="4.5826">
        <ele>886.42704</ele>
        <time>2026-09-01T11:36:44.919Z</time>
      </trkpt>
      <trkpt lat="45.26344" lon="4.58285">
        <ele>885.508846</ele>
        <time>2026-09-01T11:36:46.917Z</time>
      </trkpt>
      <trkpt lat="45.2635" lon="4.58306">
        <ele>884.696544</ele>
        <time>2026-09-01T11:36:48.925Z</time>
      </trkpt>
      <trkpt lat="45.26362" lon="4.58322">
        <ele>883.859183</ele>
        <time>2026-09-01T11:36:50.905Z</time>
      </trkpt>
      <trkpt lat="45.2637" lon="4.58329">
        <ele>883.50111</ele>
        <time>2026-09-01T11:36:51.926Z</time>
      </trkpt>
      <trkpt lat="45.26379" lon="4.58333">
        <ele>883.14913</ele>
        <time>2026-09-01T11:36:52.927Z</time>
      </trkpt>
      <trkpt lat="45.26387" lon="4.58338">
        <ele>882.796211</ele>
        <time>2026-09-01T11:36:53.928Z</time>
      </trkpt>
      <trkpt lat="45.26397" lon="4.58343">
        <ele>882.405693</ele>
        <time>2026-09-01T11:36:54.924Z</time>
      </trkpt>
      <trkpt lat="45.2641" lon="4.58359">
        <ele>881.770241</ele>
        <time>2026-09-01T11:36:56.918Z</time>
      </trkpt>
      <trkpt lat="45.26417" lon="4.58381">
        <ele>881.105838</ele>
        <time>2026-09-01T11:36:58.927Z</time>
      </trkpt>
      <trkpt lat="45.26423" lon="4.58404">
        <ele>880.444899</ele>
        <time>2026-09-01T11:37:00.917Z</time>
      </trkpt>
      <trkpt lat="45.26432" lon="4.58426">
        <ele>879.771451</ele>
        <time>2026-09-01T11:37:02.919Z</time>
      </trkpt>
      <trkpt lat="45.26441" lon="4.58448">
        <ele>879.105399</ele>
        <time>2026-09-01T11:37:04.925Z</time>
      </trkpt>
      <trkpt lat="45.26451" lon="4.58468">
        <ele>878.441911</ele>
        <time>2026-09-01T11:37:06.920Z</time>
      </trkpt>
      <trkpt lat="45.26456" lon="4.58479">
        <ele>878.09261</ele>
        <time>2026-09-01T11:37:07.925Z</time>
      </trkpt>
      <trkpt lat="45.26463" lon="4.585">
        <ele>877.480379</ele>
        <time>2026-09-01T11:37:09.927Z</time>
      </trkpt>
      <trkpt lat="45.26461" lon="4.58521">
        <ele>877.081218</ele>
        <time>2026-09-01T11:37:11.928Z</time>
      </trkpt>
      <trkpt lat="45.26455" lon="4.58544">
        <ele>876.927874</ele>
        <time>2026-09-01T11:37:13.920Z</time>
      </trkpt>
      <trkpt lat="45.26449" lon="4.58567">
        <ele>876.775579</ele>
        <time>2026-09-01T11:37:15.929Z</time>
      </trkpt>
      <trkpt lat="45.26446" lon="4.58579">
        <ele>876.695361</ele>
        <time>2026-09-01T11:37:16.920Z</time>
      </trkpt>
      <trkpt lat="45.26438" lon="4.58601">
        <ele>876.538559</ele>
        <time>2026-09-01T11:37:18.922Z</time>
      </trkpt>
      <trkpt lat="45.26425" lon="4.58613">
        <ele>876.396574</ele>
        <time>2026-09-01T11:37:20.927Z</time>
      </trkpt>
      <trkpt lat="45.26416" lon="4.58618">
        <ele>876.315696</ele>
        <time>2026-09-01T11:37:21.905Z</time>
      </trkpt>
      <trkpt lat="45.26408" lon="4.58624">
        <ele>876.232148</ele>
        <time>2026-09-01T11:37:22.921Z</time>
      </trkpt>
      <trkpt lat="45.264" lon="4.58631">
        <ele>876.152067</ele>
        <time>2026-09-01T11:37:23.926Z</time>
      </trkpt>
      <trkpt lat="45.26392" lon="4.58637">
        <ele>876.067726</ele>
        <time>2026-09-01T11:37:24.931Z</time>
      </trkpt>
      <trkpt lat="45.26383" lon="4.58642">
        <ele>875.982987</ele>
        <time>2026-09-01T11:37:25.942Z</time>
      </trkpt>
      <trkpt lat="45.26374" lon="4.58648">
        <ele>875.893046</ele>
        <time>2026-09-01T11:37:26.920Z</time>
      </trkpt>
      <trkpt lat="45.26363" lon="4.58651">
        <ele>875.794278</ele>
        <time>2026-09-01T11:37:27.923Z</time>
      </trkpt>
      <trkpt lat="45.26353" lon="4.58656">
        <ele>875.702055</ele>
        <time>2026-09-01T11:37:28.921Z</time>
      </trkpt>
      <trkpt lat="45.26344" lon="4.58662">
        <ele>875.612313</ele>
        <time>2026-09-01T11:37:29.919Z</time>
      </trkpt>
      <trkpt lat="45.26327" lon="4.58673">
        <ele>875.145028</ele>
        <time>2026-09-01T11:37:31.909Z</time>
      </trkpt>
      <trkpt lat="45.26319" lon="4.58678">
        <ele>874.765729</ele>
        <time>2026-09-01T11:37:32.932Z</time>
      </trkpt>
      <trkpt lat="45.2631" lon="4.58684">
        <ele>874.373937</ele>
        <time>2026-09-01T11:37:33.930Z</time>
      </trkpt>
      <trkpt lat="45.26302" lon="4.5869">
        <ele>873.978451</ele>
        <time>2026-09-01T11:37:34.920Z</time>
      </trkpt>
      <trkpt lat="45.26294" lon="4.58697">
        <ele>873.577201</ele>
        <time>2026-09-01T11:37:35.919Z</time>
      </trkpt>
      <trkpt lat="45.26286" lon="4.58706">
        <ele>873.165591</ele>
        <time>2026-09-01T11:37:36.918Z</time>
      </trkpt>
      <trkpt lat="45.26278" lon="4.58716">
        <ele>872.739751</ele>
        <time>2026-09-01T11:37:37.923Z</time>
      </trkpt>
      <trkpt lat="45.2627" lon="4.58725">
        <ele>872.318098</ele>
        <time>2026-09-01T11:37:38.925Z</time>
      </trkpt>
      <trkpt lat="45.26261" lon="4.58733">
        <ele>871.896738</ele>
        <time>2026-09-01T11:37:39.926Z</time>
      </trkpt>
      <trkpt lat="45.26253" lon="4.5874">
        <ele>871.491046</ele>
        <time>2026-09-01T11:37:40.920Z</time>
      </trkpt>
      <trkpt lat="45.26244" lon="4.58747">
        <ele>871.072495</ele>
        <time>2026-09-01T11:37:41.920Z</time>
      </trkpt>
      <trkpt lat="45.26235" lon="4.58755">
        <ele>870.657726</ele>
        <time>2026-09-01T11:37:42.923Z</time>
      </trkpt>
      <trkpt lat="45.26227" lon="4.58761">
        <ele>870.245568</ele>
        <time>2026-09-01T11:37:43.925Z</time>
      </trkpt>
      <trkpt lat="45.26218" lon="4.58768">
        <ele>869.857016</ele>
        <time>2026-09-01T11:37:44.929Z</time>
      </trkpt>
      <trkpt lat="45.2621" lon="4.58775">
        <ele>869.459237</ele>
        <time>2026-09-01T11:37:45.926Z</time>
      </trkpt>
      <trkpt lat="45.26202" lon="4.58781">
        <ele>869.069296</ele>
        <time>2026-09-01T11:37:46.927Z</time>
      </trkpt>
      <trkpt lat="45.26193" lon="4.58787">
        <ele>868.660256</ele>
        <time>2026-09-01T11:37:47.924Z</time>
      </trkpt>
      <trkpt lat="45.26183" lon="4.58793">
        <ele>868.235958</ele>
        <time>2026-09-01T11:37:48.924Z</time>
      </trkpt>
      <trkpt lat="45.26174" lon="4.58798">
        <ele>867.537036</ele>
        <time>2026-09-01T11:37:49.916Z</time>
      </trkpt>
      <trkpt lat="45.26165" lon="4.58803">
        <ele>866.730485</ele>
        <time>2026-09-01T11:37:50.928Z</time>
      </trkpt>
      <trkpt lat="45.26156" lon="4.58807">
        <ele>865.935586</ele>
        <time>2026-09-01T11:37:51.931Z</time>
      </trkpt>
      <trkpt lat="45.26147" lon="4.58811">
        <ele>865.189641</ele>
        <time>2026-09-01T11:37:52.920Z</time>
      </trkpt>
      <trkpt lat="45.26135" lon="4.58819">
        <ele>864.07373</ele>
        <time>2026-09-01T11:37:54.931Z</time>
      </trkpt>
      <trkpt lat="45.26131" lon="4.58832">
        <ele>863.276395</ele>
        <time>2026-09-01T11:37:56.915Z</time>
      </trkpt>
      <trkpt lat="45.26135" lon="4.58848">
        <ele>862.24656</ele>
        <time>2026-09-01T11:37:58.923Z</time>
      </trkpt>
      <trkpt lat="45.26143" lon="4.58866">
        <ele>860.987913</ele>
        <time>2026-09-01T11:38:00.922Z</time>
      </trkpt>
      <trkpt lat="45.26153" lon="4.58885">
        <ele>859.615228</ele>
        <time>2026-09-01T11:38:02.942Z</time>
      </trkpt>
      <trkpt lat="45.26158" lon="4.58896">
        <ele>858.869451</ele>
        <time>2026-09-01T11:38:03.924Z</time>
      </trkpt>
      <trkpt lat="45.26167" lon="4.58918">
        <ele>857.389991</ele>
        <time>2026-09-01T11:38:05.925Z</time>
      </trkpt>
      <trkpt lat="45.26172" lon="4.5893">
        <ele>856.600147</ele>
        <time>2026-09-01T11:38:06.929Z</time>
      </trkpt>
      <trkpt lat="45.26178" lon="4.58941">
        <ele>855.795379</ele>
        <time>2026-09-01T11:38:07.930Z</time>
      </trkpt>
      <trkpt lat="45.26185" lon="4.5895">
        <ele>855.046608</ele>
        <time>2026-09-01T11:38:08.922Z</time>
      </trkpt>
      <trkpt lat="45.26192" lon="4.58958">
        <ele>854.259322</ele>
        <time>2026-09-01T11:38:09.921Z</time>
      </trkpt>
      <trkpt lat="45.26206" lon="4.58972">
        <ele>853.02907</ele>
        <time>2026-09-01T11:38:11.923Z</time>
      </trkpt>
      <trkpt lat="45.26214" lon="4.5899">
        <ele>852.255793</ele>
        <time>2026-09-01T11:38:13.923Z</time>
      </trkpt>
      <trkpt lat="45.26216" lon="4.59014">
        <ele>851.393722</ele>
        <time>2026-09-01T11:38:15.921Z</time>
      </trkpt>
      <trkpt lat="45.26221" lon="4.59039">
        <ele>850.42352</ele>
        <time>2026-09-01T11:38:17.916Z</time>
      </trkpt>
      <trkpt lat="45.26226" lon="4.59053">
        <ele>849.874634</ele>
        <time>2026-09-01T11:38:18.921Z</time>
      </trkpt>
      <trkpt lat="45.26231" lon="4.59067">
        <ele>849.309114</ele>
        <time>2026-09-01T11:38:19.916Z</time>
      </trkpt>
      <trkpt lat="45.26235" lon="4.59081">
        <ele>848.739642</ele>
        <time>2026-09-01T11:38:20.924Z</time>
      </trkpt>
      <trkpt lat="45.26239" lon="4.59097">
        <ele>848.132952</ele>
        <time>2026-09-01T11:38:21.920Z</time>
      </trkpt>
      <trkpt lat="45.26243" lon="4.59114">
        <ele>847.500729</ele>
        <time>2026-09-01T11:38:22.907Z</time>
      </trkpt>
      <trkpt lat="45.26247" lon="4.59129">
        <ele>846.89564</ele>
        <time>2026-09-01T11:38:23.925Z</time>
      </trkpt>
      <trkpt lat="45.2625" lon="4.59146">
        <ele>846.274792</ele>
        <time>2026-09-01T11:38:24.918Z</time>
      </trkpt>
      <trkpt lat="45.26254" lon="4.59162">
        <ele>845.649883</ele>
        <time>2026-09-01T11:38:25.931Z</time>
      </trkpt>
      <trkpt lat="45.26258" lon="4.59177">
        <ele>845.065046</ele>
        <time>2026-09-01T11:38:26.923Z</time>
      </trkpt>
      <trkpt lat="45.26262" lon="4.59192">
        <ele>844.497716</ele>
        <time>2026-09-01T11:38:27.917Z</time>
      </trkpt>
      <trkpt lat="45.26264" lon="4.59206">
        <ele>843.982363</ele>
        <time>2026-09-01T11:38:28.930Z</time>
      </trkpt>
      <trkpt lat="45.26266" lon="4.59219">
        <ele>843.311415</ele>
        <time>2026-09-01T11:38:29.920Z</time>
      </trkpt>
      <trkpt lat="45.26268" lon="4.59232">
        <ele>842.679636</ele>
        <time>2026-09-01T11:38:30.920Z</time>
      </trkpt>
      <trkpt lat="45.26272" lon="4.59244">
        <ele>842.052803</ele>
        <time>2026-09-01T11:38:31.920Z</time>
      </trkpt>
      <trkpt lat="45.26278" lon="4.59265">
        <ele>840.914216</ele>
        <time>2026-09-01T11:38:33.921Z</time>
      </trkpt>
      <trkpt lat="45.2628" lon="4.59286">
        <ele>839.925362</ele>
        <time>2026-09-01T11:38:35.919Z</time>
      </trkpt>
      <trkpt lat="45.26269" lon="4.59301">
        <ele>838.895671</ele>
        <time>2026-09-01T11:38:37.920Z</time>
      </trkpt>
      <trkpt lat="45.26261" lon="4.59309">
        <ele>838.201648</ele>
        <time>2026-09-01T11:38:38.923Z</time>
      </trkpt>
      <trkpt lat="45.26254" lon="4.59322">
        <ele>837.41865</ele>
        <time>2026-09-01T11:38:39.929Z</time>
      </trkpt>
      <trkpt lat="45.26247" lon="4.59335">
        <ele>836.636509</ele>
        <time>2026-09-01T11:38:40.926Z</time>
      </trkpt>
      <trkpt lat="45.26241" lon="4.59348">
        <ele>835.881687</ele>
        <time>2026-09-01T11:38:41.919Z</time>
      </trkpt>
      <trkpt lat="45.26235" lon="4.59362">
        <ele>835.098757</ele>
        <time>2026-09-01T11:38:42.926Z</time>
      </trkpt>
      <trkpt lat="45.2623" lon="4.59377">
        <ele>834.299946</ele>
        <time>2026-09-01T11:38:43.921Z</time>
      </trkpt>
      <trkpt lat="45.26224" lon="4.5939">
        <ele>833.549013</ele>
        <time>2026-09-01T11:38:44.935Z</time>
      </trkpt>
      <trkpt lat="45.2622" lon="4.59403">
        <ele>832.831316</ele>
        <time>2026-09-01T11:38:45.925Z</time>
      </trkpt>
      <trkpt lat="45.26216" lon="4.59417">
        <ele>832.132664</ele>
        <time>2026-09-01T11:38:46.923Z</time>
      </trkpt>
      <trkpt lat="45.26212" lon="4.59431">
        <ele>831.243335</ele>
        <time>2026-09-01T11:38:47.922Z</time>
      </trkpt>
      <trkpt lat="45.2621" lon="4.59446">
        <ele>830.0571</ele>
        <time>2026-09-01T11:38:48.929Z</time>
      </trkpt>
      <trkpt lat="45.26209" lon="4.59461">
        <ele>828.889957</ele>
        <time>2026-09-01T11:38:49.927Z</time>
      </trkpt>
      <trkpt lat="45.26208" lon="4.59477">
        <ele>827.661507</ele>
        <time>2026-09-01T11:38:50.931Z</time>
      </trkpt>
      <trkpt lat="45.26207" lon="4.59491">
        <ele>826.536644</ele>
        <time>2026-09-01T11:38:51.924Z</time>
      </trkpt>
      <trkpt lat="45.26207" lon="4.59507">
        <ele>825.305325</ele>
        <time>2026-09-01T11:38:52.901Z</time>
      </trkpt>
      <trkpt lat="45.26207" lon="4.59522">
        <ele>824.151009</ele>
        <time>2026-09-01T11:38:53.928Z</time>
      </trkpt>
      <trkpt lat="45.26207" lon="4.59536">
        <ele>823.11982</ele>
        <time>2026-09-01T11:38:54.918Z</time>
      </trkpt>
      <trkpt lat="45.26209" lon="4.59549">
        <ele>822.103216</ele>
        <time>2026-09-01T11:38:55.929Z</time>
      </trkpt>
      <trkpt lat="45.26215" lon="4.59574">
        <ele>820.081494</ele>
        <time>2026-09-01T11:38:57.922Z</time>
      </trkpt>
      <trkpt lat="45.26221" lon="4.59585">
        <ele>818.984983</ele>
        <time>2026-09-01T11:38:58.926Z</time>
      </trkpt>
      <trkpt lat="45.26229" lon="4.59595">
        <ele>817.831148</ele>
        <time>2026-09-01T11:38:59.923Z</time>
      </trkpt>
      <trkpt lat="45.26236" lon="4.59604">
        <ele>816.737697</ele>
        <time>2026-09-01T11:39:00.926Z</time>
      </trkpt>
      <trkpt lat="45.26244" lon="4.59614">
        <ele>815.591073</ele>
        <time>2026-09-01T11:39:01.920Z</time>
      </trkpt>
      <trkpt lat="45.26251" lon="4.59625">
        <ele>814.453841</ele>
        <time>2026-09-01T11:39:02.928Z</time>
      </trkpt>
      <trkpt lat="45.26258" lon="4.59637">
        <ele>813.32684</ele>
        <time>2026-09-01T11:39:03.927Z</time>
      </trkpt>
      <trkpt lat="45.26262" lon="4.59649">
        <ele>812.260081</ele>
        <time>2026-09-01T11:39:04.928Z</time>
      </trkpt>
      <trkpt lat="45.26265" lon="4.59663">
        <ele>811.682642</ele>
        <time>2026-09-01T11:39:05.931Z</time>
      </trkpt>
      <trkpt lat="45.26267" lon="4.59677">
        <ele>811.23985</ele>
        <time>2026-09-01T11:39:06.920Z</time>
      </trkpt>
      <trkpt lat="45.26269" lon="4.59692">
        <ele>810.796065</ele>
        <time>2026-09-01T11:39:07.919Z</time>
      </trkpt>
      <trkpt lat="45.26272" lon="4.59707">
        <ele>810.333832</ele>
        <time>2026-09-01T11:39:08.932Z</time>
      </trkpt>
      <trkpt lat="45.26275" lon="4.59722">
        <ele>809.870565</ele>
        <time>2026-09-01T11:39:09.919Z</time>
      </trkpt>
      <trkpt lat="45.26279" lon="4.59736">
        <ele>809.40457</ele>
        <time>2026-09-01T11:39:10.928Z</time>
      </trkpt>
      <trkpt lat="45.26283" lon="4.59751">
        <ele>808.911539</ele>
        <time>2026-09-01T11:39:11.928Z</time>
      </trkpt>
      <trkpt lat="45.26288" lon="4.59766">
        <ele>808.439075</ele>
        <time>2026-09-01T11:39:12.933Z</time>
      </trkpt>
      <trkpt lat="45.26292" lon="4.5978">
        <ele>807.96318</ele>
        <time>2026-09-01T11:39:13.928Z</time>
      </trkpt>
      <trkpt lat="45.26298" lon="4.59794">
        <ele>807.494816</ele>
        <time>2026-09-01T11:39:14.928Z</time>
      </trkpt>
      <trkpt lat="45.26303" lon="4.59807">
        <ele>807.049165</ele>
        <time>2026-09-01T11:39:15.923Z</time>
      </trkpt>
      <trkpt lat="45.26312" lon="4.59826">
        <ele>806.355222</ele>
        <time>2026-09-01T11:39:17.929Z</time>
      </trkpt>
      <trkpt lat="45.26317" lon="4.59845">
        <ele>805.752033</ele>
        <time>2026-09-01T11:39:19.929Z</time>
      </trkpt>
      <trkpt lat="45.26313" lon="4.59864">
        <ele>805.157874</ele>
        <time>2026-09-01T11:39:21.932Z</time>
      </trkpt>
      <trkpt lat="45.26306" lon="4.59874">
        <ele>804.758532</ele>
        <time>2026-09-01T11:39:22.923Z</time>
      </trkpt>
      <trkpt lat="45.263" lon="4.59884">
        <ele>804.312414</ele>
        <time>2026-09-01T11:39:23.929Z</time>
      </trkpt>
      <trkpt lat="45.26296" lon="4.59896">
        <ele>803.488044</ele>
        <time>2026-09-01T11:39:24.913Z</time>
      </trkpt>
      <trkpt lat="45.26291" lon="4.5991">
        <ele>802.573102</ele>
        <time>2026-09-01T11:39:25.946Z</time>
      </trkpt>
      <trkpt lat="45.26288" lon="4.59922">
        <ele>801.7434</ele>
        <time>2026-09-01T11:39:26.918Z</time>
      </trkpt>
      <trkpt lat="45.26285" lon="4.59936">
        <ele>800.839064</ele>
        <time>2026-09-01T11:39:27.933Z</time>
      </trkpt>
      <trkpt lat="45.26281" lon="4.5995">
        <ele>799.941881</ele>
        <time>2026-09-01T11:39:28.927Z</time>
      </trkpt>
      <trkpt lat="45.26269" lon="4.59968">
        <ele>798.452878</ele>
        <time>2026-09-01T11:39:30.903Z</time>
      </trkpt>
      <trkpt lat="45.2626" lon="4.59974">
        <ele>797.603451</ele>
        <time>2026-09-01T11:39:31.921Z</time>
      </trkpt>
      <trkpt lat="45.2625" lon="4.59978">
        <ele>796.704329</ele>
        <time>2026-09-01T11:39:32.928Z</time>
      </trkpt>
      <trkpt lat="45.2624" lon="4.5998">
        <ele>795.820603</ele>
        <time>2026-09-01T11:39:33.920Z</time>
      </trkpt>
      <trkpt lat="45.2623" lon="4.59981">
        <ele>794.886555</ele>
        <time>2026-09-01T11:39:34.923Z</time>
      </trkpt>
      <trkpt lat="45.26217" lon="4.59983">
        <ele>793.793188</ele>
        <time>2026-09-01T11:39:35.925Z</time>
      </trkpt>
      <trkpt lat="45.26206" lon="4.59987">
        <ele>792.830341</ele>
        <time>2026-09-01T11:39:36.928Z</time>
      </trkpt>
      <trkpt lat="45.26197" lon="4.59992">
        <ele>791.962388</ele>
        <time>2026-09-01T11:39:37.924Z</time>
      </trkpt>
      <trkpt lat="45.26187" lon="4.59999">
        <ele>791.000056</ele>
        <time>2026-09-01T11:39:38.929Z</time>
      </trkpt>
      <trkpt lat="45.26178" lon="4.60007">
        <ele>790.068793</ele>
        <time>2026-09-01T11:39:39.927Z</time>
      </trkpt>
      <trkpt lat="45.26169" lon="4.60016">
        <ele>789.078508</ele>
        <time>2026-09-01T11:39:40.923Z</time>
      </trkpt>
      <trkpt lat="45.26159" lon="4.60025">
        <ele>787.998888</ele>
        <time>2026-09-01T11:39:41.926Z</time>
      </trkpt>
      <trkpt lat="45.26149" lon="4.60034">
        <ele>786.811855</ele>
        <time>2026-09-01T11:39:42.917Z</time>
      </trkpt>
      <trkpt lat="45.26139" lon="4.60044">
        <ele>785.649652</ele>
        <time>2026-09-01T11:39:43.934Z</time>
      </trkpt>
      <trkpt lat="45.26131" lon="4.60055">
        <ele>784.48881</ele>
        <time>2026-09-01T11:39:44.920Z</time>
      </trkpt>
      <trkpt lat="45.26122" lon="4.60068">
        <ele>783.261895</ele>
        <time>2026-09-01T11:39:45.923Z</time>
      </trkpt>
      <trkpt lat="45.26114" lon="4.6008">
        <ele>782.103305</ele>
        <time>2026-09-01T11:39:46.924Z</time>
      </trkpt>
      <trkpt lat="45.26106" lon="4.60091">
        <ele>780.974145</ele>
        <time>2026-09-01T11:39:47.923Z</time>
      </trkpt>
      <trkpt lat="45.26096" lon="4.60104">
        <ele>779.682598</ele>
        <time>2026-09-01T11:39:48.924Z</time>
      </trkpt>
      <trkpt lat="45.26086" lon="4.60115">
        <ele>778.428748</ele>
        <time>2026-09-01T11:39:49.925Z</time>
      </trkpt>
      <trkpt lat="45.26076" lon="4.60124">
        <ele>777.244305</ele>
        <time>2026-09-01T11:39:50.920Z</time>
      </trkpt>
      <trkpt lat="45.26066" lon="4.60132">
        <ele>776.148213</ele>
        <time>2026-09-01T11:39:51.922Z</time>
      </trkpt>
      <trkpt lat="45.26057" lon="4.6014">
        <ele>775.058827</ele>
        <time>2026-09-01T11:39:52.929Z</time>
      </trkpt>
      <trkpt lat="45.26047" lon="4.60145">
        <ele>773.998509</ele>
        <time>2026-09-01T11:39:53.926Z</time>
      </trkpt>
      <trkpt lat="45.26038" lon="4.60147">
        <ele>773.091198</ele>
        <time>2026-09-01T11:39:54.921Z</time>
      </trkpt>
      <trkpt lat="45.26028" lon="4.60147">
        <ele>772.153659</ele>
        <time>2026-09-01T11:39:55.925Z</time>
      </trkpt>
      <trkpt lat="45.26019" lon="4.60145">
        <ele>771.203022</ele>
        <time>2026-09-01T11:39:56.922Z</time>
      </trkpt>
      <trkpt lat="45.26009" lon="4.6014">
        <ele>770.494067</ele>
        <time>2026-09-01T11:39:57.923Z</time>
      </trkpt>
      <trkpt lat="45.26" lon="4.60134">
        <ele>769.879217</ele>
        <time>2026-09-01T11:39:58.928Z</time>
      </trkpt>
      <trkpt lat="45.25991" lon="4.6013">
        <ele>769.257392</ele>
        <time>2026-09-01T11:39:59.930Z</time>
      </trkpt>
      <trkpt lat="45.25982" lon="4.60126">
        <ele>768.650093</ele>
        <time>2026-09-01T11:40:00.921Z</time>
      </trkpt>
      <trkpt lat="45.25971" lon="4.60125">
        <ele>768.006551</ele>
        <time>2026-09-01T11:40:01.923Z</time>
      </trkpt>
      <trkpt lat="45.25962" lon="4.60125">
        <ele>767.391469</ele>
        <time>2026-09-01T11:40:02.922Z</time>
      </trkpt>
      <trkpt lat="45.25951" lon="4.60125">
        <ele>766.750602</ele>
        <time>2026-09-01T11:40:03.923Z</time>
      </trkpt>
      <trkpt lat="45.25942" lon="4.60127">
        <ele>766.144003</ele>
        <time>2026-09-01T11:40:04.922Z</time>
      </trkpt>
      <trkpt lat="45.25932" lon="4.60128">
        <ele>765.500902</ele>
        <time>2026-09-01T11:40:05.920Z</time>
      </trkpt>
      <trkpt lat="45.25922" lon="4.60132">
        <ele>764.861004</ele>
        <time>2026-09-01T11:40:06.925Z</time>
      </trkpt>
      <trkpt lat="45.25908" lon="4.60144">
        <ele>763.85095</ele>
        <time>2026-09-01T11:40:08.901Z</time>
      </trkpt>
      <trkpt lat="45.259" lon="4.60163">
        <ele>762.875029</ele>
        <time>2026-09-01T11:40:10.925Z</time>
      </trkpt>
      <trkpt lat="45.25898" lon="4.60176">
        <ele>762.290616</ele>
        <time>2026-09-01T11:40:11.924Z</time>
      </trkpt>
      <trkpt lat="45.25898" lon="4.6019">
        <ele>761.672168</ele>
        <time>2026-09-01T11:40:12.927Z</time>
      </trkpt>
      <trkpt lat="45.259" lon="4.60204">
        <ele>761.050964</ele>
        <time>2026-09-01T11:40:13.927Z</time>
      </trkpt>
      <trkpt lat="45.25903" lon="4.60218">
        <ele>760.386764</ele>
        <time>2026-09-01T11:40:14.924Z</time>
      </trkpt>
      <trkpt lat="45.25905" lon="4.60232">
        <ele>759.752331</ele>
        <time>2026-09-01T11:40:15.923Z</time>
      </trkpt>
      <trkpt lat="45.2591" lon="4.60246">
        <ele>759.083248</ele>
        <time>2026-09-01T11:40:16.926Z</time>
      </trkpt>
      <trkpt lat="45.25914" lon="4.6026">
        <ele>758.410546</ele>
        <time>2026-09-01T11:40:17.946Z</time>
      </trkpt>
      <trkpt lat="45.25918" lon="4.60275">
        <ele>757.721455</ele>
        <time>2026-09-01T11:40:18.923Z</time>
      </trkpt>
      <trkpt lat="45.25922" lon="4.6029">
        <ele>757.038334</ele>
        <time>2026-09-01T11:40:19.924Z</time>
      </trkpt>
      <trkpt lat="45.25926" lon="4.60303">
        <ele>756.38936</ele>
        <time>2026-09-01T11:40:20.942Z</time>
      </trkpt>
      <trkpt lat="45.2593" lon="4.60317">
        <ele>755.764433</ele>
        <time>2026-09-01T11:40:21.922Z</time>
      </trkpt>
      <trkpt lat="45.25934" lon="4.6033">
        <ele>755.137038</ele>
        <time>2026-09-01T11:40:22.927Z</time>
      </trkpt>
      <trkpt lat="45.25938" lon="4.60343">
        <ele>754.50248</ele>
        <time>2026-09-01T11:40:23.926Z</time>
      </trkpt>
      <trkpt lat="45.25944" lon="4.60355">
        <ele>753.893801</ele>
        <time>2026-09-01T11:40:24.931Z</time>
      </trkpt>
      <trkpt lat="45.25957" lon="4.60371">
        <ele>752.793412</ele>
        <time>2026-09-01T11:40:26.921Z</time>
      </trkpt>
      <trkpt lat="45.25974" lon="4.60379">
        <ele>751.717908</ele>
        <time>2026-09-01T11:40:28.923Z</time>
      </trkpt>
      <trkpt lat="45.2599" lon="4.60384">
        <ele>750.67998</ele>
        <time>2026-09-01T11:40:30.926Z</time>
      </trkpt>
      <trkpt lat="45.25999" lon="4.60386">
        <ele>750.107398</ele>
        <time>2026-09-01T11:40:31.919Z</time>
      </trkpt>
      <trkpt lat="45.26017" lon="4.6039">
        <ele>749.000878</ele>
        <time>2026-09-01T11:40:33.925Z</time>
      </trkpt>
      <trkpt lat="45.26026" lon="4.60392">
        <ele>748.367999</ele>
        <time>2026-09-01T11:40:34.923Z</time>
      </trkpt>
      <trkpt lat="45.26036" lon="4.60394">
        <ele>747.557959</ele>
        <time>2026-09-01T11:40:35.929Z</time>
      </trkpt>
      <trkpt lat="45.26048" lon="4.60401">
        <ele>746.402682</ele>
        <time>2026-09-01T11:40:37.925Z</time>
      </trkpt>
      <trkpt lat="45.26054" lon="4.60414">
        <ele>745.457823</ele>
        <time>2026-09-01T11:40:39.927Z</time>
      </trkpt>
      <trkpt lat="45.26053" lon="4.60437">
        <ele>744.120054</ele>
        <time>2026-09-01T11:40:41.911Z</time>
      </trkpt>
      <trkpt lat="45.26059" lon="4.60461">
        <ele>742.57158</ele>
        <time>2026-09-01T11:40:43.926Z</time>
      </trkpt>
      <trkpt lat="45.26064" lon="4.60473">
        <ele>741.732301</ele>
        <time>2026-09-01T11:40:44.920Z</time>
      </trkpt>
      <trkpt lat="45.26074" lon="4.60493">
        <ele>740.283605</ele>
        <time>2026-09-01T11:40:46.910Z</time>
      </trkpt>
      <trkpt lat="45.26084" lon="4.60511">
        <ele>738.865222</ele>
        <time>2026-09-01T11:40:48.925Z</time>
      </trkpt>
      <trkpt lat="45.26092" lon="4.60519">
        <ele>738.069404</ele>
        <time>2026-09-01T11:40:49.921Z</time>
      </trkpt>
      <trkpt lat="45.261" lon="4.60527">
        <ele>737.231751</ele>
        <time>2026-09-01T11:40:50.925Z</time>
      </trkpt>
      <trkpt lat="45.26107" lon="4.60537">
        <ele>736.39909</ele>
        <time>2026-09-01T11:40:51.924Z</time>
      </trkpt>
      <trkpt lat="45.26113" lon="4.60546">
        <ele>735.615928</ele>
        <time>2026-09-01T11:40:52.929Z</time>
      </trkpt>
      <trkpt lat="45.26121" lon="4.60553">
        <ele>734.796011</ele>
        <time>2026-09-01T11:40:53.926Z</time>
      </trkpt>
      <trkpt lat="45.2613" lon="4.60561">
        <ele>733.960575</ele>
        <time>2026-09-01T11:40:54.922Z</time>
      </trkpt>
      <trkpt lat="45.26139" lon="4.60567">
        <ele>733.07784</ele>
        <time>2026-09-01T11:40:55.901Z</time>
      </trkpt>
      <trkpt lat="45.26149" lon="4.60572">
        <ele>732.369004</ele>
        <time>2026-09-01T11:40:56.924Z</time>
      </trkpt>
      <trkpt lat="45.26159" lon="4.60576">
        <ele>731.629894</ele>
        <time>2026-09-01T11:40:57.928Z</time>
      </trkpt>
      <trkpt lat="45.2617" lon="4.6058">
        <ele>730.874348</ele>
        <time>2026-09-01T11:40:58.922Z</time>
      </trkpt>
      <trkpt lat="45.26179" lon="4.60585">
        <ele>730.191028</ele>
        <time>2026-09-01T11:40:59.927Z</time>
      </trkpt>
      <trkpt lat="45.26194" lon="4.60596">
        <ele>729.004348</ele>
        <time>2026-09-01T11:41:01.920Z</time>
      </trkpt>
      <trkpt lat="45.26206" lon="4.6061">
        <ele>727.977893</ele>
        <time>2026-09-01T11:41:03.921Z</time>
      </trkpt>
      <trkpt lat="45.26207" lon="4.60632">
        <ele>726.89446</ele>
        <time>2026-09-01T11:41:05.899Z</time>
      </trkpt>
      <trkpt lat="45.262" lon="4.60648">
        <ele>725.964542</ele>
        <time>2026-09-01T11:41:07.937Z</time>
      </trkpt>
      <trkpt lat="45.26191" lon="4.60652">
        <ele>725.333107</ele>
        <time>2026-09-01T11:41:08.920Z</time>
      </trkpt>
      <trkpt lat="45.26175" lon="4.60659">
        <ele>724.163102</ele>
        <time>2026-09-01T11:41:10.926Z</time>
      </trkpt>
      <trkpt lat="45.26166" lon="4.60662">
        <ele>723.538319</ele>
        <time>2026-09-01T11:41:11.922Z</time>
      </trkpt>
      <trkpt lat="45.2615" lon="4.60672">
        <ele>722.287104</ele>
        <time>2026-09-01T11:41:13.924Z</time>
      </trkpt>
      <trkpt lat="45.26141" lon="4.60678">
        <ele>721.602216</ele>
        <time>2026-09-01T11:41:14.918Z</time>
      </trkpt>
      <trkpt lat="45.26132" lon="4.60684">
        <ele>720.914632</ele>
        <time>2026-09-01T11:41:15.922Z</time>
      </trkpt>
      <trkpt lat="45.26123" lon="4.60692">
        <ele>720.341512</ele>
        <time>2026-09-01T11:41:16.925Z</time>
      </trkpt>
      <trkpt lat="45.26114" lon="4.60699">
        <ele>719.820316</ele>
        <time>2026-09-01T11:41:17.921Z</time>
      </trkpt>
      <trkpt lat="45.26105" lon="4.60706">
        <ele>719.330011</ele>
        <time>2026-09-01T11:41:18.921Z</time>
      </trkpt>
      <trkpt lat="45.26094" lon="4.60724">
        <ele>718.44077</ele>
        <time>2026-09-01T11:41:20.923Z</time>
      </trkpt>
      <trkpt lat="45.26086" lon="4.60744">
        <ele>717.616984</ele>
        <time>2026-09-01T11:41:22.892Z</time>
      </trkpt>
      <trkpt lat="45.26077" lon="4.60757">
        <ele>716.982572</ele>
        <time>2026-09-01T11:41:24.927Z</time>
      </trkpt>
      <trkpt lat="45.26065" lon="4.60755">
        <ele>716.341353</ele>
        <time>2026-09-01T11:41:26.914Z</time>
      </trkpt>
      <trkpt lat="45.26047" lon="4.60754">
        <ele>715.431916</ele>
        <time>2026-09-01T11:41:28.925Z</time>
      </trkpt>
      <trkpt lat="45.26038" lon="4.60757">
        <ele>714.946678</ele>
        <time>2026-09-01T11:41:29.929Z</time>
      </trkpt>
      <trkpt lat="45.26029" lon="4.60762">
        <ele>714.488729</ele>
        <time>2026-09-01T11:41:30.920Z</time>
      </trkpt>
      <trkpt lat="45.2602" lon="4.60768">
        <ele>713.989842</ele>
        <time>2026-09-01T11:41:31.920Z</time>
      </trkpt>
      <trkpt lat="45.26012" lon="4.60775">
        <ele>713.489888</ele>
        <time>2026-09-01T11:41:32.931Z</time>
      </trkpt>
      <trkpt lat="45.26003" lon="4.60782">
        <ele>712.978248</ele>
        <time>2026-09-01T11:41:33.924Z</time>
      </trkpt>
      <trkpt lat="45.25989" lon="4.60794">
        <ele>712.142093</ele>
        <time>2026-09-01T11:41:35.921Z</time>
      </trkpt>
      <trkpt lat="45.25979" lon="4.60812">
        <ele>711.165773</ele>
        <time>2026-09-01T11:41:37.918Z</time>
      </trkpt>
      <trkpt lat="45.25972" lon="4.60834">
        <ele>709.861152</ele>
        <time>2026-09-01T11:41:39.918Z</time>
      </trkpt>
      <trkpt lat="45.25964" lon="4.60852">
        <ele>708.649889</ele>
        <time>2026-09-01T11:41:41.923Z</time>
      </trkpt>
      <trkpt lat="45.25954" lon="4.60869">
        <ele>707.411459</ele>
        <time>2026-09-01T11:41:43.916Z</time>
      </trkpt>
      <trkpt lat="45.25943" lon="4.60876">
        <ele>706.498661</ele>
        <time>2026-09-01T11:41:45.934Z</time>
      </trkpt>
      <trkpt lat="45.25932" lon="4.60868">
        <ele>705.536789</ele>
        <time>2026-09-01T11:41:48.926Z</time>
      </trkpt>
      <trkpt lat="45.25927" lon="4.60852">
        <ele>704.538641</ele>
        <time>2026-09-01T11:41:50.917Z</time>
      </trkpt>
      <trkpt lat="45.25917" lon="4.60834">
        <ele>703.285525</ele>
        <time>2026-09-01T11:41:52.930Z</time>
      </trkpt>
      <trkpt lat="45.25903" lon="4.60818">
        <ele>701.917913</ele>
        <time>2026-09-01T11:41:54.927Z</time>
      </trkpt>
      <trkpt lat="45.25894" lon="4.60813">
        <ele>701.120508</ele>
        <time>2026-09-01T11:41:55.922Z</time>
      </trkpt>
      <trkpt lat="45.25884" lon="4.60809">
        <ele>700.303728</ele>
        <time>2026-09-01T11:41:56.923Z</time>
      </trkpt>
      <trkpt lat="45.25873" lon="4.60808">
        <ele>699.459208</ele>
        <time>2026-09-01T11:41:57.924Z</time>
      </trkpt>
      <trkpt lat="45.25862" lon="4.60807">
        <ele>698.596317</ele>
        <time>2026-09-01T11:41:58.917Z</time>
      </trkpt>
      <trkpt lat="45.25851" lon="4.60807">
        <ele>697.749168</ele>
        <time>2026-09-01T11:41:59.920Z</time>
      </trkpt>
      <trkpt lat="45.2584" lon="4.60809">
        <ele>696.578938</ele>
        <time>2026-09-01T11:42:00.917Z</time>
      </trkpt>
      <trkpt lat="45.25828" lon="4.60809">
        <ele>695.32235</ele>
        <time>2026-09-01T11:42:01.930Z</time>
      </trkpt>
      <trkpt lat="45.25817" lon="4.60808">
        <ele>694.074901</ele>
        <time>2026-09-01T11:42:02.932Z</time>
      </trkpt>
      <trkpt lat="45.25806" lon="4.60807">
        <ele>692.912891</ele>
        <time>2026-09-01T11:42:03.932Z</time>
      </trkpt>
      <trkpt lat="45.25796" lon="4.60804">
        <ele>691.728565</ele>
        <time>2026-09-01T11:42:04.926Z</time>
      </trkpt>
      <trkpt lat="45.25785" lon="4.60801">
        <ele>690.523635</ele>
        <time>2026-09-01T11:42:05.926Z</time>
      </trkpt>
      <trkpt lat="45.25774" lon="4.60798">
        <ele>689.306432</ele>
        <time>2026-09-01T11:42:06.920Z</time>
      </trkpt>
      <trkpt lat="45.25763" lon="4.60797">
        <ele>688.091683</ele>
        <time>2026-09-01T11:42:07.926Z</time>
      </trkpt>
      <trkpt lat="45.25751" lon="4.60797">
        <ele>686.813632</ele>
        <time>2026-09-01T11:42:08.924Z</time>
      </trkpt>
      <trkpt lat="45.2574" lon="4.60798">
        <ele>685.588852</ele>
        <time>2026-09-01T11:42:09.917Z</time>
      </trkpt>
      <trkpt lat="45.25729" lon="4.608">
        <ele>684.361398</ele>
        <time>2026-09-01T11:42:10.919Z</time>
      </trkpt>
      <trkpt lat="45.25718" lon="4.60802">
        <ele>683.220449</ele>
        <time>2026-09-01T11:42:11.932Z</time>
      </trkpt>
      <trkpt lat="45.25708" lon="4.60805">
        <ele>682.093499</ele>
        <time>2026-09-01T11:42:12.882Z</time>
      </trkpt>
      <trkpt lat="45.25698" lon="4.60807">
        <ele>680.993925</ele>
        <time>2026-09-01T11:42:13.927Z</time>
      </trkpt>
      <trkpt lat="45.25682" lon="4.60812">
        <ele>679.1208</ele>
        <time>2026-09-01T11:42:15.929Z</time>
      </trkpt>
      <trkpt lat="45.25674" lon="4.60819">
        <ele>678.121791</ele>
        <time>2026-09-01T11:42:16.923Z</time>
      </trkpt>
      <trkpt lat="45.25658" lon="4.60833">
        <ele>676.731767</ele>
        <time>2026-09-01T11:42:18.922Z</time>
      </trkpt>
      <trkpt lat="45.2565" lon="4.60842">
        <ele>676.04988</ele>
        <time>2026-09-01T11:42:19.929Z</time>
      </trkpt>
      <trkpt lat="45.25643" lon="4.60851">
        <ele>675.362746</ele>
        <time>2026-09-01T11:42:20.950Z</time>
      </trkpt>
      <trkpt lat="45.25635" lon="4.6086">
        <ele>674.67119</ele>
        <time>2026-09-01T11:42:21.919Z</time>
      </trkpt>
      <trkpt lat="45.25622" lon="4.60872">
        <ele>673.591131</ele>
        <time>2026-09-01T11:42:23.920Z</time>
      </trkpt>
      <trkpt lat="45.2561" lon="4.60875">
        <ele>672.719092</ele>
        <time>2026-09-01T11:42:25.922Z</time>
      </trkpt>
      <trkpt lat="45.25598" lon="4.6087">
        <ele>671.838469</ele>
        <time>2026-09-01T11:42:27.928Z</time>
      </trkpt>
      <trkpt lat="45.25587" lon="4.60857">
        <ele>670.883805</ele>
        <time>2026-09-01T11:42:29.917Z</time>
      </trkpt>
      <trkpt lat="45.25579" lon="4.60839">
        <ele>669.816211</ele>
        <time>2026-09-01T11:42:31.924Z</time>
      </trkpt>
      <trkpt lat="45.2557" lon="4.60819">
        <ele>668.652973</ele>
        <time>2026-09-01T11:42:33.924Z</time>
      </trkpt>
      <trkpt lat="45.25556" lon="4.60806">
        <ele>667.502475</ele>
        <time>2026-09-01T11:42:35.920Z</time>
      </trkpt>
      <trkpt lat="45.25547" lon="4.60803">
        <ele>666.853689</ele>
        <time>2026-09-01T11:42:36.924Z</time>
      </trkpt>
      <trkpt lat="45.25538" lon="4.60801">
        <ele>666.18232</ele>
        <time>2026-09-01T11:42:37.923Z</time>
      </trkpt>
      <trkpt lat="45.25528" lon="4.60798">
        <ele>665.485923</ele>
        <time>2026-09-01T11:42:38.920Z</time>
      </trkpt>
      <trkpt lat="45.25517" lon="4.60796">
        <ele>664.920863</ele>
        <time>2026-09-01T11:42:39.923Z</time>
      </trkpt>
      <trkpt lat="45.25507" lon="4.60795">
        <ele>664.418989</ele>
        <time>2026-09-01T11:42:40.922Z</time>
      </trkpt>
      <trkpt lat="45.25497" lon="4.60794">
        <ele>663.891308</ele>
        <time>2026-09-01T11:42:41.919Z</time>
      </trkpt>
      <trkpt lat="45.25486" lon="4.60791">
        <ele>663.343985</ele>
        <time>2026-09-01T11:42:42.921Z</time>
      </trkpt>
      <trkpt lat="45.25476" lon="4.60788">
        <ele>662.831498</ele>
        <time>2026-09-01T11:42:43.932Z</time>
      </trkpt>
      <trkpt lat="45.25466" lon="4.60783">
        <ele>662.306967</ele>
        <time>2026-09-01T11:42:44.914Z</time>
      </trkpt>
      <trkpt lat="45.25456" lon="4.60778">
        <ele>661.762305</ele>
        <time>2026-09-01T11:42:45.916Z</time>
      </trkpt>
      <trkpt lat="45.25446" lon="4.60773">
        <ele>661.21536</ele>
        <time>2026-09-01T11:42:46.914Z</time>
      </trkpt>
      <trkpt lat="45.25435" lon="4.6077">
        <ele>660.676881</ele>
        <time>2026-09-01T11:42:47.921Z</time>
      </trkpt>
      <trkpt lat="45.25425" lon="4.60767">
        <ele>660.141186</ele>
        <time>2026-09-01T11:42:48.923Z</time>
      </trkpt>
      <trkpt lat="45.25414" lon="4.60763">
        <ele>659.60607</ele>
        <time>2026-09-01T11:42:49.922Z</time>
      </trkpt>
      <trkpt lat="45.25404" lon="4.60761">
        <ele>659.055583</ele>
        <time>2026-09-01T11:42:50.920Z</time>
      </trkpt>
      <trkpt lat="45.25393" lon="4.60757">
        <ele>658.501656</ele>
        <time>2026-09-01T11:42:51.919Z</time>
      </trkpt>
      <trkpt lat="45.25383" lon="4.60755">
        <ele>657.995763</ele>
        <time>2026-09-01T11:42:52.930Z</time>
      </trkpt>
      <trkpt lat="45.25373" lon="4.60754">
        <ele>657.520159</ele>
        <time>2026-09-01T11:42:53.921Z</time>
      </trkpt>
      <trkpt lat="45.25364" lon="4.60753">
        <ele>657.052977</ele>
        <time>2026-09-01T11:42:54.921Z</time>
      </trkpt>
      <trkpt lat="45.25355" lon="4.60755">
        <ele>656.586294</ele>
        <time>2026-09-01T11:42:55.922Z</time>
      </trkpt>
      <trkpt lat="45.25338" lon="4.60761">
        <ele>655.645818</ele>
        <time>2026-09-01T11:42:57.923Z</time>
      </trkpt>
      <trkpt lat="45.25322" lon="4.60765">
        <ele>654.763485</ele>
        <time>2026-09-01T11:42:59.924Z</time>
      </trkpt>
      <trkpt lat="45.25309" lon="4.6076">
        <ele>654.038749</ele>
        <time>2026-09-01T11:43:01.916Z</time>
      </trkpt>
      <trkpt lat="45.25303" lon="4.6074">
        <ele>653.183106</ele>
        <time>2026-09-01T11:43:03.931Z</time>
      </trkpt>
      <trkpt lat="45.25302" lon="4.60727">
        <ele>652.644986</ele>
        <time>2026-09-01T11:43:04.920Z</time>
      </trkpt>
      <trkpt lat="45.253" lon="4.60714">
        <ele>652.135664</ele>
        <time>2026-09-01T11:43:05.920Z</time>
      </trkpt>
      <trkpt lat="45.253" lon="4.607">
        <ele>651.622195</ele>
        <time>2026-09-01T11:43:06.922Z</time>
      </trkpt>
      <trkpt lat="45.25297" lon="4.60687">
        <ele>651.080725</ele>
        <time>2026-09-01T11:43:07.932Z</time>
      </trkpt>
      <trkpt lat="45.25293" lon="4.60663">
        <ele>650.117328</ele>
        <time>2026-09-01T11:43:09.924Z</time>
      </trkpt>
      <trkpt lat="45.25289" lon="4.6065">
        <ele>649.591345</ele>
        <time>2026-09-01T11:43:10.927Z</time>
      </trkpt>
      <trkpt lat="45.25284" lon="4.60638">
        <ele>649.040786</ele>
        <time>2026-09-01T11:43:11.921Z</time>
      </trkpt>
      <trkpt lat="45.25278" lon="4.60626">
        <ele>648.466527</ele>
        <time>2026-09-01T11:43:12.924Z</time>
      </trkpt>
      <trkpt lat="45.25271" lon="4.60614">
        <ele>647.86899</ele>
        <time>2026-09-01T11:43:13.930Z</time>
      </trkpt>
      <trkpt lat="45.25265" lon="4.60601">
        <ele>647.269446</ele>
        <time>2026-09-01T11:43:14.917Z</time>
      </trkpt>
      <trkpt lat="45.25259" lon="4.60588">
        <ele>646.652658</ele>
        <time>2026-09-01T11:43:15.928Z</time>
      </trkpt>
      <trkpt lat="45.25253" lon="4.60575">
        <ele>645.773495</ele>
        <time>2026-09-01T11:43:16.919Z</time>
      </trkpt>
      <trkpt lat="45.25248" lon="4.60562">
        <ele>644.829962</ele>
        <time>2026-09-01T11:43:17.921Z</time>
      </trkpt>
      <trkpt lat="45.25243" lon="4.60551">
        <ele>643.949161</ele>
        <time>2026-09-01T11:43:18.924Z</time>
      </trkpt>
      <trkpt lat="45.25237" lon="4.60541">
        <ele>643.082425</ele>
        <time>2026-09-01T11:43:19.927Z</time>
      </trkpt>
      <trkpt lat="45.25223" lon="4.60527">
        <ele>641.443708</ele>
        <time>2026-09-01T11:43:21.910Z</time>
      </trkpt>
      <trkpt lat="45.25209" lon="4.60516">
        <ele>639.888703</ele>
        <time>2026-09-01T11:43:23.920Z</time>
      </trkpt>
      <trkpt lat="45.25193" lon="4.60513">
        <ele>638.335433</ele>
        <time>2026-09-01T11:43:25.937Z</time>
      </trkpt>
      <trkpt lat="45.25184" lon="4.60516">
        <ele>637.481338</ele>
        <time>2026-09-01T11:43:26.923Z</time>
      </trkpt>
      <trkpt lat="45.25169" lon="4.60527">
        <ele>635.88032</ele>
        <time>2026-09-01T11:43:28.917Z</time>
      </trkpt>
      <trkpt lat="45.25162" lon="4.60536">
        <ele>634.999469</ele>
        <time>2026-09-01T11:43:29.924Z</time>
      </trkpt>
      <trkpt lat="45.25156" lon="4.60546">
        <ele>634.106739</ele>
        <time>2026-09-01T11:43:30.922Z</time>
      </trkpt>
      <trkpt lat="45.2515" lon="4.60556">
        <ele>633.215343</ele>
        <time>2026-09-01T11:43:31.929Z</time>
      </trkpt>
      <trkpt lat="45.25143" lon="4.60565">
        <ele>632.32433</ele>
        <time>2026-09-01T11:43:32.931Z</time>
      </trkpt>
      <trkpt lat="45.25136" lon="4.60577">
        <ele>631.286957</ele>
        <time>2026-09-01T11:43:33.926Z</time>
      </trkpt>
      <trkpt lat="45.25128" lon="4.60587">
        <ele>630.291043</ele>
        <time>2026-09-01T11:43:34.929Z</time>
      </trkpt>
      <trkpt lat="45.25119" lon="4.60595">
        <ele>629.287317</ele>
        <time>2026-09-01T11:43:35.934Z</time>
      </trkpt>
      <trkpt lat="45.2511" lon="4.60603">
        <ele>628.698385</ele>
        <time>2026-09-01T11:43:36.924Z</time>
      </trkpt>
      <trkpt lat="45.251" lon="4.60609">
        <ele>628.102021</ele>
        <time>2026-09-01T11:43:37.928Z</time>
      </trkpt>
      <trkpt lat="45.25091" lon="4.60614">
        <ele>627.525656</ele>
        <time>2026-09-01T11:43:38.923Z</time>
      </trkpt>
      <trkpt lat="45.25081" lon="4.60619">
        <ele>626.916794</ele>
        <time>2026-09-01T11:43:39.924Z</time>
      </trkpt>
      <trkpt lat="45.25072" lon="4.60626">
        <ele>626.328493</ele>
        <time>2026-09-01T11:43:40.921Z</time>
      </trkpt>
      <trkpt lat="45.25063" lon="4.60634">
        <ele>625.750683</ele>
        <time>2026-09-01T11:43:41.919Z</time>
      </trkpt>
      <trkpt lat="45.25055" lon="4.60642">
        <ele>625.208374</ele>
        <time>2026-09-01T11:43:42.924Z</time>
      </trkpt>
      <trkpt lat="45.25048" lon="4.6065">
        <ele>624.683768</ele>
        <time>2026-09-01T11:43:43.920Z</time>
      </trkpt>
      <trkpt lat="45.25041" lon="4.6066">
        <ele>624.133061</ele>
        <time>2026-09-01T11:43:44.921Z</time>
      </trkpt>
      <trkpt lat="45.25029" lon="4.60681">
        <ele>623.095017</ele>
        <time>2026-09-01T11:43:46.927Z</time>
      </trkpt>
      <trkpt lat="45.25023" lon="4.60691">
        <ele>622.558352</ele>
        <time>2026-09-01T11:43:47.924Z</time>
      </trkpt>
      <trkpt lat="45.25017" lon="4.60702">
        <ele>622.015502</ele>
        <time>2026-09-01T11:43:48.919Z</time>
      </trkpt>
      <trkpt lat="45.25011" lon="4.60713">
        <ele>621.460148</ele>
        <time>2026-09-01T11:43:49.923Z</time>
      </trkpt>
      <trkpt lat="45.25005" lon="4.60724">
        <ele>620.895303</ele>
        <time>2026-09-01T11:43:50.919Z</time>
      </trkpt>
      <trkpt lat="45.24999" lon="4.60736">
        <ele>620.306956</ele>
        <time>2026-09-01T11:43:51.919Z</time>
      </trkpt>
      <trkpt lat="45.24993" lon="4.60748">
        <ele>619.735626</ele>
        <time>2026-09-01T11:43:52.924Z</time>
      </trkpt>
      <trkpt lat="45.24987" lon="4.6076">
        <ele>619.147946</ele>
        <time>2026-09-01T11:43:53.926Z</time>
      </trkpt>
      <trkpt lat="45.2498" lon="4.6077">
        <ele>618.826706</ele>
        <time>2026-09-01T11:43:54.924Z</time>
      </trkpt>
      <trkpt lat="45.24969" lon="4.60787">
        <ele>618.275784</ele>
        <time>2026-09-01T11:43:56.924Z</time>
      </trkpt>
      <trkpt lat="45.24956" lon="4.60796">
        <ele>617.796673</ele>
        <time>2026-09-01T11:43:58.927Z</time>
      </trkpt>
      <trkpt lat="45.24942" lon="4.60802">
        <ele>617.304822</ele>
        <time>2026-09-01T11:44:00.926Z</time>
      </trkpt>
      <trkpt lat="45.24927" lon="4.60802">
        <ele>616.774687</ele>
        <time>2026-09-01T11:44:02.919Z</time>
      </trkpt>
      <trkpt lat="45.24911" lon="4.60803">
        <ele>616.261035</ele>
        <time>2026-09-01T11:44:04.915Z</time>
      </trkpt>
      <trkpt lat="45.24902" lon="4.60803">
        <ele>615.957154</ele>
        <time>2026-09-01T11:44:05.933Z</time>
      </trkpt>
      <trkpt lat="45.24887" lon="4.60804">
        <ele>615.447053</ele>
        <time>2026-09-01T11:44:07.916Z</time>
      </trkpt>
      <trkpt lat="45.24872" lon="4.60801">
        <ele>614.919798</ele>
        <time>2026-09-01T11:44:09.921Z</time>
      </trkpt>
      <trkpt lat="45.24857" lon="4.60801">
        <ele>614.430221</ele>
        <time>2026-09-01T11:44:11.919Z</time>
      </trkpt>
      <trkpt lat="45.24845" lon="4.60801">
        <ele>614.025058</ele>
        <time>2026-09-01T11:44:13.928Z</time>
      </trkpt>
      <trkpt lat="45.24834" lon="4.60798">
        <ele>613.65264</ele>
        <time>2026-09-01T11:44:15.931Z</time>
      </trkpt>
      <trkpt lat="45.2482" lon="4.60791">
        <ele>613.135564</ele>
        <time>2026-09-01T11:44:17.924Z</time>
      </trkpt>
      <trkpt lat="45.24805" lon="4.60778">
        <ele>612.011303</ele>
        <time>2026-09-01T11:44:19.928Z</time>
      </trkpt>
      <trkpt lat="45.24798" lon="4.60767">
        <ele>611.361264</ele>
        <time>2026-09-01T11:44:20.923Z</time>
      </trkpt>
      <trkpt lat="45.24793" lon="4.60755">
        <ele>610.688576</ele>
        <time>2026-09-01T11:44:21.926Z</time>
      </trkpt>
      <trkpt lat="45.24785" lon="4.60743">
        <ele>609.951181</ele>
        <time>2026-09-01T11:44:22.930Z</time>
      </trkpt>
      <trkpt lat="45.24779" lon="4.60732">
        <ele>609.315351</ele>
        <time>2026-09-01T11:44:23.925Z</time>
      </trkpt>
      <trkpt lat="45.24772" lon="4.60721">
        <ele>608.625846</ele>
        <time>2026-09-01T11:44:24.914Z</time>
      </trkpt>
      <trkpt lat="45.24765" lon="4.60711">
        <ele>607.963863</ele>
        <time>2026-09-01T11:44:25.924Z</time>
      </trkpt>
      <trkpt lat="45.24756" lon="4.60701">
        <ele>607.226436</ele>
        <time>2026-09-01T11:44:26.922Z</time>
      </trkpt>
      <trkpt lat="45.24747" lon="4.60693">
        <ele>606.498431</ele>
        <time>2026-09-01T11:44:27.925Z</time>
      </trkpt>
      <trkpt lat="45.24737" lon="4.60685">
        <ele>605.762921</ele>
        <time>2026-09-01T11:44:28.917Z</time>
      </trkpt>
      <trkpt lat="45.24727" lon="4.60677">
        <ele>605.006925</ele>
        <time>2026-09-01T11:44:29.929Z</time>
      </trkpt>
      <trkpt lat="45.24717" lon="4.60668">
        <ele>604.278919</ele>
        <time>2026-09-01T11:44:30.917Z</time>
      </trkpt>
      <trkpt lat="45.24708" lon="4.6066">
        <ele>603.549078</ele>
        <time>2026-09-01T11:44:31.921Z</time>
      </trkpt>
      <trkpt lat="45.24698" lon="4.60654">
        <ele>602.860795</ele>
        <time>2026-09-01T11:44:32.923Z</time>
      </trkpt>
      <trkpt lat="45.24688" lon="4.60648">
        <ele>602.167817</ele>
        <time>2026-09-01T11:44:33.926Z</time>
      </trkpt>
      <trkpt lat="45.24678" lon="4.60644">
        <ele>601.473334</ele>
        <time>2026-09-01T11:44:34.931Z</time>
      </trkpt>
      <trkpt lat="45.24668" lon="4.60639">
        <ele>600.715774</ele>
        <time>2026-09-01T11:44:35.931Z</time>
      </trkpt>
      <trkpt lat="45.24658" lon="4.60637">
        <ele>599.998292</ele>
        <time>2026-09-01T11:44:36.926Z</time>
      </trkpt>
      <trkpt lat="45.24648" lon="4.60634">
        <ele>599.287864</ele>
        <time>2026-09-01T11:44:37.928Z</time>
      </trkpt>
      <trkpt lat="45.24639" lon="4.60631">
        <ele>598.5884</ele>
        <time>2026-09-01T11:44:38.919Z</time>
      </trkpt>
      <trkpt lat="45.24623" lon="4.6062">
        <ele>597.302126</ele>
        <time>2026-09-01T11:44:40.925Z</time>
      </trkpt>
      <trkpt lat="45.2461" lon="4.60604">
        <ele>596.071211</ele>
        <time>2026-09-01T11:44:42.923Z</time>
      </trkpt>
      <trkpt lat="45.24604" lon="4.60581">
        <ele>594.841699</ele>
        <time>2026-09-01T11:44:44.938Z</time>
      </trkpt>
      <trkpt lat="45.24601" lon="4.60568">
        <ele>594.16127</ele>
        <time>2026-09-01T11:44:45.925Z</time>
      </trkpt>
      <trkpt lat="45.24598" lon="4.60555">
        <ele>593.443264</ele>
        <time>2026-09-01T11:44:46.920Z</time>
      </trkpt>
      <trkpt lat="45.24595" lon="4.60541">
        <ele>592.722445</ele>
        <time>2026-09-01T11:44:47.921Z</time>
      </trkpt>
      <trkpt lat="45.24592" lon="4.60527">
        <ele>591.985972</ele>
        <time>2026-09-01T11:44:48.920Z</time>
      </trkpt>
      <trkpt lat="45.24589" lon="4.60514">
        <ele>591.272213</ele>
        <time>2026-09-01T11:44:49.924Z</time>
      </trkpt>
      <trkpt lat="45.24585" lon="4.60501">
        <ele>590.577405</ele>
        <time>2026-09-01T11:44:50.923Z</time>
      </trkpt>
      <trkpt lat="45.2458" lon="4.60489">
        <ele>589.870216</ele>
        <time>2026-09-01T11:44:51.921Z</time>
      </trkpt>
      <trkpt lat="45.24574" lon="4.60477">
        <ele>589.14161</ele>
        <time>2026-09-01T11:44:52.924Z</time>
      </trkpt>
      <trkpt lat="45.24568" lon="4.60466">
        <ele>588.400965</ele>
        <time>2026-09-01T11:44:53.953Z</time>
      </trkpt>
      <trkpt lat="45.24561" lon="4.60454">
        <ele>587.420809</ele>
        <time>2026-09-01T11:44:54.923Z</time>
      </trkpt>
      <trkpt lat="45.24552" lon="4.60444">
        <ele>586.447114</ele>
        <time>2026-09-01T11:44:55.936Z</time>
      </trkpt>
      <trkpt lat="45.24544" lon="4.60435">
        <ele>585.510719</ele>
        <time>2026-09-01T11:44:56.918Z</time>
      </trkpt>
      <trkpt lat="45.24535" lon="4.60427">
        <ele>584.577463</ele>
        <time>2026-09-01T11:44:57.933Z</time>
      </trkpt>
      <trkpt lat="45.24525" lon="4.60419">
        <ele>583.621301</ele>
        <time>2026-09-01T11:44:58.916Z</time>
      </trkpt>
      <trkpt lat="45.24516" lon="4.60413">
        <ele>582.693561</ele>
        <time>2026-09-01T11:44:59.920Z</time>
      </trkpt>
      <trkpt lat="45.24506" lon="4.60408">
        <ele>581.820916</ele>
        <time>2026-09-01T11:45:00.917Z</time>
      </trkpt>
      <trkpt lat="45.24497" lon="4.60406">
        <ele>580.984598</ele>
        <time>2026-09-01T11:45:01.918Z</time>
      </trkpt>
      <trkpt lat="45.24488" lon="4.60405">
        <ele>580.164119</ele>
        <time>2026-09-01T11:45:02.922Z</time>
      </trkpt>
      <trkpt lat="45.24478" lon="4.60406">
        <ele>579.329702</ele>
        <time>2026-09-01T11:45:03.926Z</time>
      </trkpt>
      <trkpt lat="45.24469" lon="4.6041">
        <ele>578.491696</ele>
        <time>2026-09-01T11:45:04.918Z</time>
      </trkpt>
      <trkpt lat="45.2446" lon="4.60417">
        <ele>577.619639</ele>
        <time>2026-09-01T11:45:05.927Z</time>
      </trkpt>
      <trkpt lat="45.24453" lon="4.60424">
        <ele>576.790998</ele>
        <time>2026-09-01T11:45:06.920Z</time>
      </trkpt>
      <trkpt lat="45.24445" lon="4.60433">
        <ele>575.901803</ele>
        <time>2026-09-01T11:45:07.930Z</time>
      </trkpt>
      <trkpt lat="45.24437" lon="4.60442">
        <ele>575.038045</ele>
        <time>2026-09-01T11:45:08.921Z</time>
      </trkpt>
      <trkpt lat="45.2443" lon="4.60452">
        <ele>574.138135</ele>
        <time>2026-09-01T11:45:09.918Z</time>
      </trkpt>
      <trkpt lat="45.24422" lon="4.60461">
        <ele>573.283666</ele>
        <time>2026-09-01T11:45:10.928Z</time>
      </trkpt>
      <trkpt lat="45.24415" lon="4.6047">
        <ele>572.434834</ele>
        <time>2026-09-01T11:45:11.920Z</time>
      </trkpt>
      <trkpt lat="45.24408" lon="4.6048">
        <ele>571.680851</ele>
        <time>2026-09-01T11:45:12.923Z</time>
      </trkpt>
      <trkpt lat="45.24394" lon="4.60493">
        <ele>570.398056</ele>
        <time>2026-09-01T11:45:14.923Z</time>
      </trkpt>
      <trkpt lat="45.24381" lon="4.60497">
        <ele>569.366161</ele>
        <time>2026-09-01T11:45:16.917Z</time>
      </trkpt>
      <trkpt lat="45.24373" lon="4.60484">
        <ele>568.393978</ele>
        <time>2026-09-01T11:45:18.907Z</time>
      </trkpt>
      <trkpt lat="45.24365" lon="4.60463">
        <ele>567.092431</ele>
        <time>2026-09-01T11:45:20.932Z</time>
      </trkpt>
      <trkpt lat="45.24353" lon="4.60444">
        <ele>565.68966</ele>
        <time>2026-09-01T11:45:22.923Z</time>
      </trkpt>
      <trkpt lat="45.24336" lon="4.60429">
        <ele>564.192744</ele>
        <time>2026-09-01T11:45:24.931Z</time>
      </trkpt>
      <trkpt lat="45.24326" lon="4.60424">
        <ele>563.352931</ele>
        <time>2026-09-01T11:45:25.917Z</time>
      </trkpt>
      <trkpt lat="45.24315" lon="4.60422">
        <ele>562.445748</ele>
        <time>2026-09-01T11:45:26.914Z</time>
      </trkpt>
      <trkpt lat="45.24303" lon="4.6042">
        <ele>561.507163</ele>
        <time>2026-09-01T11:45:27.920Z</time>
      </trkpt>
      <trkpt lat="45.24291" lon="4.60418">
        <ele>560.629913</ele>
        <time>2026-09-01T11:45:28.925Z</time>
      </trkpt>
      <trkpt lat="45.2428" lon="4.60416">
        <ele>559.71908</ele>
        <time>2026-09-01T11:45:29.917Z</time>
      </trkpt>
      <trkpt lat="45.24268" lon="4.60414">
        <ele>558.779935</ele>
        <time>2026-09-01T11:45:30.922Z</time>
      </trkpt>
      <trkpt lat="45.24256" lon="4.60412">
        <ele>557.820073</ele>
        <time>2026-09-01T11:45:31.925Z</time>
      </trkpt>
      <trkpt lat="45.24245" lon="4.60412">
        <ele>556.897737</ele>
        <time>2026-09-01T11:45:32.919Z</time>
      </trkpt>
      <trkpt lat="45.24234" lon="4.60414">
        <ele>556.019541</ele>
        <time>2026-09-01T11:45:33.920Z</time>
      </trkpt>
      <trkpt lat="45.24224" lon="4.60416">
        <ele>555.124863</ele>
        <time>2026-09-01T11:45:34.921Z</time>
      </trkpt>
      <trkpt lat="45.24213" lon="4.6042">
        <ele>554.259602</ele>
        <time>2026-09-01T11:45:35.915Z</time>
      </trkpt>
      <trkpt lat="45.24204" lon="4.60424">
        <ele>553.427343</ele>
        <time>2026-09-01T11:45:36.925Z</time>
      </trkpt>
      <trkpt lat="45.24194" lon="4.60429">
        <ele>552.599157</ele>
        <time>2026-09-01T11:45:37.891Z</time>
      </trkpt>
      <trkpt lat="45.24186" lon="4.60435">
        <ele>551.830227</ele>
        <time>2026-09-01T11:45:38.917Z</time>
      </trkpt>
      <trkpt lat="45.24178" lon="4.60443">
        <ele>551.051435</ele>
        <time>2026-09-01T11:45:39.919Z</time>
      </trkpt>
      <trkpt lat="45.24171" lon="4.60452">
        <ele>550.23557</ele>
        <time>2026-09-01T11:45:40.919Z</time>
      </trkpt>
      <trkpt lat="45.24163" lon="4.60462">
        <ele>549.386615</ele>
        <time>2026-09-01T11:45:41.919Z</time>
      </trkpt>
      <trkpt lat="45.24157" lon="4.60473">
        <ele>548.554191</ele>
        <time>2026-09-01T11:45:42.921Z</time>
      </trkpt>
      <trkpt lat="45.24151" lon="4.60484">
        <ele>547.781567</ele>
        <time>2026-09-01T11:45:43.920Z</time>
      </trkpt>
      <trkpt lat="45.24147" lon="4.60496">
        <ele>547.008768</ele>
        <time>2026-09-01T11:45:44.920Z</time>
      </trkpt>
      <trkpt lat="45.24143" lon="4.60508">
        <ele>546.236629</ele>
        <time>2026-09-01T11:45:45.926Z</time>
      </trkpt>
      <trkpt lat="45.24141" lon="4.60521">
        <ele>545.468794</ele>
        <time>2026-09-01T11:45:46.920Z</time>
      </trkpt>
      <trkpt lat="45.24139" lon="4.60534">
        <ele>544.689411</ele>
        <time>2026-09-01T11:45:47.923Z</time>
      </trkpt>
      <trkpt lat="45.24138" lon="4.60548">
        <ele>543.856403</ele>
        <time>2026-09-01T11:45:48.929Z</time>
      </trkpt>
      <trkpt lat="45.24137" lon="4.60563">
        <ele>543.324774</ele>
        <time>2026-09-01T11:45:49.923Z</time>
      </trkpt>
      <trkpt lat="45.24137" lon="4.60578">
        <ele>542.753789</ele>
        <time>2026-09-01T11:45:50.924Z</time>
      </trkpt>
      <trkpt lat="45.24136" lon="4.60594">
        <ele>542.188549</ele>
        <time>2026-09-01T11:45:51.931Z</time>
      </trkpt>
      <trkpt lat="45.24135" lon="4.60609">
        <ele>541.639005</ele>
        <time>2026-09-01T11:45:52.921Z</time>
      </trkpt>
      <trkpt lat="45.24134" lon="4.60623">
        <ele>541.114824</ele>
        <time>2026-09-01T11:45:53.924Z</time>
      </trkpt>
      <trkpt lat="45.24134" lon="4.60637">
        <ele>540.61922</ele>
        <time>2026-09-01T11:45:54.916Z</time>
      </trkpt>
      <trkpt lat="45.2413" lon="4.60658">
        <ele>539.829193</ele>
        <time>2026-09-01T11:45:56.920Z</time>
      </trkpt>
      <trkpt lat="45.24118" lon="4.60671">
        <ele>539.071133</ele>
        <time>2026-09-01T11:45:58.923Z</time>
      </trkpt>
      <trkpt lat="45.24102" lon="4.60677">
        <ele>538.197951</ele>
        <time>2026-09-01T11:46:00.929Z</time>
      </trkpt>
      <trkpt lat="45.24093" lon="4.60679">
        <ele>537.72969</ele>
        <time>2026-09-01T11:46:01.920Z</time>
      </trkpt>
      <trkpt lat="45.24083" lon="4.60678">
        <ele>537.237459</ele>
        <time>2026-09-01T11:46:02.917Z</time>
      </trkpt>
      <trkpt lat="45.24073" lon="4.60673">
        <ele>536.676738</ele>
        <time>2026-09-01T11:46:03.925Z</time>
      </trkpt>
      <trkpt lat="45.24063" lon="4.60669">
        <ele>536.133961</ele>
        <time>2026-09-01T11:46:04.925Z</time>
      </trkpt>
      <trkpt lat="45.24052" lon="4.60665">
        <ele>535.576004</ele>
        <time>2026-09-01T11:46:05.877Z</time>
      </trkpt>
      <trkpt lat="45.24042" lon="4.60661">
        <ele>535.017356</ele>
        <time>2026-09-01T11:46:06.921Z</time>
      </trkpt>
      <trkpt lat="45.24033" lon="4.60656">
        <ele>534.505653</ele>
        <time>2026-09-01T11:46:07.887Z</time>
      </trkpt>
      <trkpt lat="45.24024" lon="4.60651">
        <ele>534.018948</ele>
        <time>2026-09-01T11:46:08.885Z</time>
      </trkpt>
      <trkpt lat="45.24013" lon="4.60635">
        <ele>533.158848</ele>
        <time>2026-09-01T11:46:10.919Z</time>
      </trkpt>
      <trkpt lat="45.24007" lon="4.60624">
        <ele>532.648704</ele>
        <time>2026-09-01T11:46:11.929Z</time>
      </trkpt>
      <trkpt lat="45.24" lon="4.60601">
        <ele>531.694157</ele>
        <time>2026-09-01T11:46:13.913Z</time>
      </trkpt>
      <trkpt lat="45.23997" lon="4.60588">
        <ele>531.17679</ele>
        <time>2026-09-01T11:46:14.921Z</time>
      </trkpt>
      <trkpt lat="45.23995" lon="4.60575">
        <ele>530.660227</ele>
        <time>2026-09-01T11:46:15.913Z</time>
      </trkpt>
      <trkpt lat="45.23993" lon="4.6056">
        <ele>530.094839</ele>
        <time>2026-09-01T11:46:16.920Z</time>
      </trkpt>
      <trkpt lat="45.23992" lon="4.60546">
        <ele>529.565085</ele>
        <time>2026-09-01T11:46:17.926Z</time>
      </trkpt>
      <trkpt lat="45.23991" lon="4.60532">
        <ele>529.037055</ele>
        <time>2026-09-01T11:46:18.923Z</time>
      </trkpt>
      <trkpt lat="45.23989" lon="4.6052">
        <ele>528.546468</ele>
        <time>2026-09-01T11:46:19.926Z</time>
      </trkpt>
      <trkpt lat="45.23983" lon="4.60507">
        <ele>527.974763</ele>
        <time>2026-09-01T11:46:20.921Z</time>
      </trkpt>
      <trkpt lat="45.23972" lon="4.60489">
        <ele>527.059111</ele>
        <time>2026-09-01T11:46:22.928Z</time>
      </trkpt>
      <trkpt lat="45.23957" lon="4.60476">
        <ele>526.12451</ele>
        <time>2026-09-01T11:46:24.908Z</time>
      </trkpt>
      <trkpt lat="45.2394" lon="4.60467">
        <ele>525.170877</ele>
        <time>2026-09-01T11:46:26.920Z</time>
      </trkpt>
      <trkpt lat="45.2393" lon="4.60465">
        <ele>524.199397</ele>
        <time>2026-09-01T11:46:27.928Z</time>
      </trkpt>
      <trkpt lat="45.2392" lon="4.60467">
        <ele>522.743549</ele>
        <time>2026-09-01T11:46:28.922Z</time>
      </trkpt>
      <trkpt lat="45.23911" lon="4.60471">
        <ele>521.484959</ele>
        <time>2026-09-01T11:46:29.928Z</time>
      </trkpt>
      <trkpt lat="45.23902" lon="4.60478">
        <ele>520.129437</ele>
        <time>2026-09-01T11:46:30.931Z</time>
      </trkpt>
      <trkpt lat="45.23895" lon="4.60485">
        <ele>518.85269</ele>
        <time>2026-09-01T11:46:31.920Z</time>
      </trkpt>
      <trkpt lat="45.23884" lon="4.60504">
        <ele>516.54446</ele>
        <time>2026-09-01T11:46:33.910Z</time>
      </trkpt>
      <trkpt lat="45.23874" lon="4.60525">
        <ele>514.002742</ele>
        <time>2026-09-01T11:46:35.904Z</time>
      </trkpt>
      <trkpt lat="45.23868" lon="4.60536">
        <ele>512.712924</ele>
        <time>2026-09-01T11:46:36.924Z</time>
      </trkpt>
      <trkpt lat="45.2386" lon="4.60545">
        <ele>511.306924</ele>
        <time>2026-09-01T11:46:37.924Z</time>
      </trkpt>
      <trkpt lat="45.23854" lon="4.60555">
        <ele>510.057991</ele>
        <time>2026-09-01T11:46:38.919Z</time>
      </trkpt>
      <trkpt lat="45.23845" lon="4.60576">
        <ele>507.616914</ele>
        <time>2026-09-01T11:46:40.929Z</time>
      </trkpt>
      <trkpt lat="45.23842" lon="4.606">
        <ele>505.224968</ele>
        <time>2026-09-01T11:46:42.921Z</time>
      </trkpt>
      <trkpt lat="45.23841" lon="4.60625">
        <ele>502.8133</ele>
        <time>2026-09-01T11:46:44.937Z</time>
      </trkpt>
      <trkpt lat="45.2384" lon="4.60638">
        <ele>501.520372</ele>
        <time>2026-09-01T11:46:45.937Z</time>
      </trkpt>
      <trkpt lat="45.23836" lon="4.60653">
        <ele>500.036021</ele>
        <time>2026-09-01T11:46:46.915Z</time>
      </trkpt>
      <trkpt lat="45.23831" lon="4.60667">
        <ele>499.108355</ele>
        <time>2026-09-01T11:46:47.923Z</time>
      </trkpt>
      <trkpt lat="45.23825" lon="4.60678">
        <ele>498.226902</ele>
        <time>2026-09-01T11:46:48.923Z</time>
      </trkpt>
      <trkpt lat="45.23817" lon="4.60688">
        <ele>497.3658</ele>
        <time>2026-09-01T11:46:49.920Z</time>
      </trkpt>
      <trkpt lat="45.2381" lon="4.60698">
        <ele>496.499957</ele>
        <time>2026-09-01T11:46:50.920Z</time>
      </trkpt>
      <trkpt lat="45.23803" lon="4.60708">
        <ele>495.638413</ele>
        <time>2026-09-01T11:46:51.926Z</time>
      </trkpt>
      <trkpt lat="45.23798" lon="4.60721">
        <ele>494.739528</ele>
        <time>2026-09-01T11:46:52.932Z</time>
      </trkpt>
      <trkpt lat="45.23794" lon="4.60735">
        <ele>493.845692</ele>
        <time>2026-09-01T11:46:53.927Z</time>
      </trkpt>
      <trkpt lat="45.23792" lon="4.6075">
        <ele>492.956578</ele>
        <time>2026-09-01T11:46:54.921Z</time>
      </trkpt>
      <trkpt lat="45.23793" lon="4.60767">
        <ele>491.969976</ele>
        <time>2026-09-01T11:46:55.916Z</time>
      </trkpt>
      <trkpt lat="45.23795" lon="4.60782">
        <ele>491.040669</ele>
        <time>2026-09-01T11:46:56.935Z</time>
      </trkpt>
      <trkpt lat="45.23798" lon="4.60796">
        <ele>490.131571</ele>
        <time>2026-09-01T11:46:57.921Z</time>
      </trkpt>
      <trkpt lat="45.23802" lon="4.60811">
        <ele>489.210943</ele>
        <time>2026-09-01T11:46:58.918Z</time>
      </trkpt>
      <trkpt lat="45.23806" lon="4.60825">
        <ele>488.294712</ele>
        <time>2026-09-01T11:46:59.919Z</time>
      </trkpt>
      <trkpt lat="45.2381" lon="4.60841">
        <ele>487.271041</ele>
        <time>2026-09-01T11:47:00.919Z</time>
      </trkpt>
      <trkpt lat="45.23814" lon="4.60856">
        <ele>486.340182</ele>
        <time>2026-09-01T11:47:01.916Z</time>
      </trkpt>
      <trkpt lat="45.23819" lon="4.60871">
        <ele>485.324688</ele>
        <time>2026-09-01T11:47:02.917Z</time>
      </trkpt>
      <trkpt lat="45.23824" lon="4.60885">
        <ele>484.381589</ele>
        <time>2026-09-01T11:47:03.926Z</time>
      </trkpt>
      <trkpt lat="45.23835" lon="4.60906">
        <ele>482.870983</ele>
        <time>2026-09-01T11:47:05.931Z</time>
      </trkpt>
      <trkpt lat="45.23842" lon="4.60916">
        <ele>482.074612</ele>
        <time>2026-09-01T11:47:06.921Z</time>
      </trkpt>
      <trkpt lat="45.23856" lon="4.60931">
        <ele>480.625162</ele>
        <time>2026-09-01T11:47:08.913Z</time>
      </trkpt>
      <trkpt lat="45.23866" lon="4.60946">
        <ele>479.449692</ele>
        <time>2026-09-01T11:47:10.922Z</time>
      </trkpt>
      <trkpt lat="45.2387" lon="4.60958">
        <ele>478.648332</ele>
        <time>2026-09-01T11:47:12.920Z</time>
      </trkpt>
      <trkpt lat="45.23863" lon="4.6097">
        <ele>477.778611</ele>
        <time>2026-09-01T11:47:14.925Z</time>
      </trkpt>
      <trkpt lat="45.23848" lon="4.60974">
        <ele>476.501548</ele>
        <time>2026-09-01T11:47:16.923Z</time>
      </trkpt>
      <trkpt lat="45.23837" lon="4.60974">
        <ele>475.621482</ele>
        <time>2026-09-01T11:47:17.921Z</time>
      </trkpt>
      <trkpt lat="45.23827" lon="4.60976">
        <ele>474.828837</ele>
        <time>2026-09-01T11:47:18.920Z</time>
      </trkpt>
      <trkpt lat="45.23818" lon="4.60978">
        <ele>474.077709</ele>
        <time>2026-09-01T11:47:19.924Z</time>
      </trkpt>
      <trkpt lat="45.238" lon="4.60985">
        <ele>472.525322</ele>
        <time>2026-09-01T11:47:21.919Z</time>
      </trkpt>
      <trkpt lat="45.2379" lon="4.60991">
        <ele>471.635701</ele>
        <time>2026-09-01T11:47:22.922Z</time>
      </trkpt>
      <trkpt lat="45.23781" lon="4.60998">
        <ele>470.76271</ele>
        <time>2026-09-01T11:47:23.918Z</time>
      </trkpt>
      <trkpt lat="45.23772" lon="4.61007">
        <ele>469.911595</ele>
        <time>2026-09-01T11:47:24.919Z</time>
      </trkpt>
      <trkpt lat="45.23763" lon="4.61016">
        <ele>469.275554</ele>
        <time>2026-09-01T11:47:25.920Z</time>
      </trkpt>
      <trkpt lat="45.23754" lon="4.61027">
        <ele>468.612433</ele>
        <time>2026-09-01T11:47:26.920Z</time>
      </trkpt>
      <trkpt lat="45.23746" lon="4.61038">
        <ele>467.965481</ele>
        <time>2026-09-01T11:47:27.920Z</time>
      </trkpt>
      <trkpt lat="45.23738" lon="4.61051">
        <ele>467.307119</ele>
        <time>2026-09-01T11:47:28.919Z</time>
      </trkpt>
      <trkpt lat="45.23732" lon="4.61064">
        <ele>466.6712</ele>
        <time>2026-09-01T11:47:29.919Z</time>
      </trkpt>
      <trkpt lat="45.23728" lon="4.61076">
        <ele>466.132875</ele>
        <time>2026-09-01T11:47:30.920Z</time>
      </trkpt>
      <trkpt lat="45.23723" lon="4.61087">
        <ele>465.607994</ele>
        <time>2026-09-01T11:47:31.917Z</time>
      </trkpt>
      <trkpt lat="45.23714" lon="4.61099">
        <ele>464.894088</ele>
        <time>2026-09-01T11:47:33.916Z</time>
      </trkpt>
      <trkpt lat="45.23708" lon="4.6111">
        <ele>464.3331</ele>
        <time>2026-09-01T11:47:36.922Z</time>
      </trkpt>
      <trkpt lat="45.23699" lon="4.61126">
        <ele>463.538456</ele>
        <time>2026-09-01T11:50:04.915Z</time>
      </trkpt>
      <trkpt lat="45.23691" lon="4.6114">
        <ele>462.815649</ele>
        <time>2026-09-01T11:50:07.926Z</time>
      </trkpt>
      <trkpt lat="45.23685" lon="4.61152">
        <ele>462.215514</ele>
        <time>2026-09-01T11:50:09.917Z</time>
      </trkpt>
      <trkpt lat="45.23679" lon="4.61165">
        <ele>461.585732</ele>
        <time>2026-09-01T11:50:11.925Z</time>
      </trkpt>
      <trkpt lat="45.23672" lon="4.61179">
        <ele>460.906746</ele>
        <time>2026-09-01T11:50:13.922Z</time>
      </trkpt>
      <trkpt lat="45.23666" lon="4.61194">
        <ele>460.222107</ele>
        <time>2026-09-01T11:50:15.920Z</time>
      </trkpt>
      <trkpt lat="45.23662" lon="4.6121">
        <ele>459.634518</ele>
        <time>2026-09-01T11:50:17.920Z</time>
      </trkpt>
      <trkpt lat="45.23658" lon="4.61226">
        <ele>459.23729</ele>
        <time>2026-09-01T11:50:19.907Z</time>
      </trkpt>
      <trkpt lat="45.23656" lon="4.61241">
        <ele>458.891329</ele>
        <time>2026-09-01T11:50:21.923Z</time>
      </trkpt>
      <trkpt lat="45.23655" lon="4.61254">
        <ele>458.582312</ele>
        <time>2026-09-01T11:50:23.929Z</time>
      </trkpt>
      <trkpt lat="45.23651" lon="4.61265">
        <ele>458.278616</ele>
        <time>2026-09-01T11:50:27.922Z</time>
      </trkpt>
      <trkpt lat="45.23642" lon="4.61274">
        <ele>457.936941</ele>
        <time>2026-09-01T11:50:32.927Z</time>
      </trkpt>
      <trkpt lat="45.2364" lon="4.61286">
        <ele>457.63642</ele>
        <time>2026-09-01T11:50:35.924Z</time>
      </trkpt>
      <trkpt lat="45.23643" lon="4.61303">
        <ele>457.240554</ele>
        <time>2026-09-01T11:50:38.911Z</time>
      </trkpt>
      <trkpt lat="45.23645" lon="4.6132">
        <ele>456.830922</ele>
        <time>2026-09-01T11:50:41.919Z</time>
      </trkpt>
      <trkpt lat="45.23647" lon="4.61338">
        <ele>456.411009</ele>
        <time>2026-09-01T11:50:44.915Z</time>
      </trkpt>
      <trkpt lat="45.23648" lon="4.61351">
        <ele>456.106639</ele>
        <time>2026-09-01T11:50:46.920Z</time>
      </trkpt>
      <trkpt lat="45.2365" lon="4.6137">
        <ele>455.657529</ele>
        <time>2026-09-01T11:50:49.921Z</time>
      </trkpt>
      <trkpt lat="45.23652" lon="4.61383">
        <ele>455.343365</ele>
        <time>2026-09-01T11:50:51.927Z</time>
      </trkpt>
      <trkpt lat="45.23654" lon="4.61396">
        <ele>455.022894</ele>
        <time>2026-09-01T11:50:53.912Z</time>
      </trkpt>
      <trkpt lat="45.23656" lon="4.61411">
        <ele>454.68377</ele>
        <time>2026-09-01T11:50:55.919Z</time>
      </trkpt>
      <trkpt lat="45.23657" lon="4.61425">
        <ele>454.348862</ele>
        <time>2026-09-01T11:50:57.925Z</time>
      </trkpt>
      <trkpt lat="45.23659" lon="4.61438">
        <ele>454.037553</ele>
        <time>2026-09-01T11:50:59.922Z</time>
      </trkpt>
      <trkpt lat="45.23661" lon="4.61456">
        <ele>453.664595</ele>
        <time>2026-09-01T11:51:02.925Z</time>
      </trkpt>
      <trkpt lat="45.23664" lon="4.6147">
        <ele>453.432674</ele>
        <time>2026-09-01T11:51:04.927Z</time>
      </trkpt>
      <trkpt lat="45.23666" lon="4.61484">
        <ele>453.204355</ele>
        <time>2026-09-01T11:51:06.913Z</time>
      </trkpt>
      <trkpt lat="45.23667" lon="4.61498">
        <ele>452.964253</ele>
        <time>2026-09-01T11:51:08.936Z</time>
      </trkpt>
      <trkpt lat="45.23669" lon="4.61514">
        <ele>452.699813</ele>
        <time>2026-09-01T11:51:10.920Z</time>
      </trkpt>
      <trkpt lat="45.23672" lon="4.6153">
        <ele>452.425969</ele>
        <time>2026-09-01T11:51:12.920Z</time>
      </trkpt>
      <trkpt lat="45.23675" lon="4.61547">
        <ele>452.146195</ele>
        <time>2026-09-01T11:51:14.917Z</time>
      </trkpt>
      <trkpt lat="45.23676" lon="4.61562">
        <ele>451.890731</ele>
        <time>2026-09-01T11:51:16.916Z</time>
      </trkpt>
      <trkpt lat="45.23677" lon="4.61578">
        <ele>451.631369</ele>
        <time>2026-09-01T11:51:18.920Z</time>
      </trkpt>
      <trkpt lat="45.23676" lon="4.61594">
        <ele>451.365468</ele>
        <time>2026-09-01T11:51:20.927Z</time>
      </trkpt>
      <trkpt lat="45.23673" lon="4.61612">
        <ele>451.062357</ele>
        <time>2026-09-01T11:51:22.920Z</time>
      </trkpt>
      <trkpt lat="45.23671" lon="4.61629">
        <ele>450.790148</ele>
        <time>2026-09-01T11:51:24.923Z</time>
      </trkpt>
      <trkpt lat="45.23666" lon="4.61645">
        <ele>450.49399</ele>
        <time>2026-09-01T11:51:26.915Z</time>
      </trkpt>
      <trkpt lat="45.23662" lon="4.61662">
        <ele>450.207173</ele>
        <time>2026-09-01T11:51:28.917Z</time>
      </trkpt>
      <trkpt lat="45.23662" lon="4.61677">
        <ele>449.956417</ele>
        <time>2026-09-01T11:51:30.921Z</time>
      </trkpt>
      <trkpt lat="45.23662" lon="4.61697">
        <ele>449.633598</ele>
        <time>2026-09-01T11:51:32.924Z</time>
      </trkpt>
      <trkpt lat="45.23663" lon="4.61715">
        <ele>449.352954</ele>
        <time>2026-09-01T11:51:34.922Z</time>
      </trkpt>
      <trkpt lat="45.23667" lon="4.61734">
        <ele>449.059765</ele>
        <time>2026-09-01T11:51:36.922Z</time>
      </trkpt>
      <trkpt lat="45.23671" lon="4.61751">
        <ele>448.777177</ele>
        <time>2026-09-01T11:51:38.919Z</time>
      </trkpt>
      <trkpt lat="45.23676" lon="4.61771">
        <ele>448.458627</ele>
        <time>2026-09-01T11:51:40.915Z</time>
      </trkpt>
      <trkpt lat="45.23681" lon="4.61793">
        <ele>448.114368</ele>
        <time>2026-09-01T11:51:42.917Z</time>
      </trkpt>
      <trkpt lat="45.23685" lon="4.61811">
        <ele>447.810952</ele>
        <time>2026-09-01T11:51:44.919Z</time>
      </trkpt>
      <trkpt lat="45.23692" lon="4.61831">
        <ele>447.479209</ele>
        <time>2026-09-01T11:51:46.923Z</time>
      </trkpt>
      <trkpt lat="45.23698" lon="4.61851">
        <ele>447.157582</ele>
        <time>2026-09-01T11:51:48.916Z</time>
      </trkpt>
      <trkpt lat="45.23702" lon="4.61869">
        <ele>446.857756</ele>
        <time>2026-09-01T11:51:50.921Z</time>
      </trkpt>
      <trkpt lat="45.23703" lon="4.61889">
        <ele>446.555836</ele>
        <time>2026-09-01T11:51:52.920Z</time>
      </trkpt>
      <trkpt lat="45.23698" lon="4.6191">
        <ele>446.214093</ele>
        <time>2026-09-01T11:51:54.924Z</time>
      </trkpt>
      <trkpt lat="45.23692" lon="4.61931">
        <ele>445.877457</ele>
        <time>2026-09-01T11:51:56.920Z</time>
      </trkpt>
      <trkpt lat="45.23686" lon="4.6195">
        <ele>445.422791</ele>
        <time>2026-09-01T11:51:58.917Z</time>
      </trkpt>
      <trkpt lat="45.23683" lon="4.61973">
        <ele>444.821254</ele>
        <time>2026-09-01T11:52:00.941Z</time>
      </trkpt>
      <trkpt lat="45.23685" lon="4.61996">
        <ele>444.228659</ele>
        <time>2026-09-01T11:52:02.922Z</time>
      </trkpt>
      <trkpt lat="45.23689" lon="4.62019">
        <ele>443.609455</ele>
        <time>2026-09-01T11:52:04.915Z</time>
      </trkpt>
      <trkpt lat="45.23692" lon="4.62031">
        <ele>443.278766</ele>
        <time>2026-09-01T11:52:05.916Z</time>
      </trkpt>
      <trkpt lat="45.23696" lon="4.62044">
        <ele>442.922572</ele>
        <time>2026-09-01T11:52:06.916Z</time>
      </trkpt>
      <trkpt lat="45.23701" lon="4.62068">
        <ele>442.282507</ele>
        <time>2026-09-01T11:52:08.920Z</time>
      </trkpt>
      <trkpt lat="45.23706" lon="4.62091">
        <ele>441.652903</ele>
        <time>2026-09-01T11:52:10.925Z</time>
      </trkpt>
      <trkpt lat="45.2371" lon="4.62103">
        <ele>441.310572</ele>
        <time>2026-09-01T11:52:11.929Z</time>
      </trkpt>
      <trkpt lat="45.23713" lon="4.62115">
        <ele>440.975058</ele>
        <time>2026-09-01T11:52:12.928Z</time>
      </trkpt>
      <trkpt lat="45.23717" lon="4.62127">
        <ele>440.637941</ele>
        <time>2026-09-01T11:52:13.912Z</time>
      </trkpt>
      <trkpt lat="45.23721" lon="4.62139">
        <ele>440.301144</ele>
        <time>2026-09-01T11:52:14.916Z</time>
      </trkpt>
      <trkpt lat="45.23725" lon="4.62151">
        <ele>439.967543</ele>
        <time>2026-09-01T11:52:15.916Z</time>
      </trkpt>
      <trkpt lat="45.23732" lon="4.6217">
        <ele>439.394928</ele>
        <time>2026-09-01T11:52:17.916Z</time>
      </trkpt>
      <trkpt lat="45.23741" lon="4.62192">
        <ele>438.750633</ele>
        <time>2026-09-01T11:52:19.920Z</time>
      </trkpt>
      <trkpt lat="45.23747" lon="4.62202">
        <ele>438.408795</ele>
        <time>2026-09-01T11:52:20.916Z</time>
      </trkpt>
      <trkpt lat="45.23753" lon="4.62212">
        <ele>438.075057</ele>
        <time>2026-09-01T11:52:21.916Z</time>
      </trkpt>
      <trkpt lat="45.23765" lon="4.62228">
        <ele>437.492604</ele>
        <time>2026-09-01T11:52:23.921Z</time>
      </trkpt>
      <trkpt lat="45.23771" lon="4.62238">
        <ele>437.151478</ele>
        <time>2026-09-01T11:52:24.915Z</time>
      </trkpt>
      <trkpt lat="45.23777" lon="4.62249">
        <ele>436.799454</ele>
        <time>2026-09-01T11:52:25.922Z</time>
      </trkpt>
      <trkpt lat="45.23783" lon="4.62261">
        <ele>436.436969</ele>
        <time>2026-09-01T11:52:26.915Z</time>
      </trkpt>
      <trkpt lat="45.23787" lon="4.62272">
        <ele>436.108461</ele>
        <time>2026-09-01T11:52:27.918Z</time>
      </trkpt>
      <trkpt lat="45.2379" lon="4.62284">
        <ele>435.782316</ele>
        <time>2026-09-01T11:52:28.919Z</time>
      </trkpt>
      <trkpt lat="45.23795" lon="4.62296">
        <ele>435.420499</ele>
        <time>2026-09-01T11:52:29.921Z</time>
      </trkpt>
      <trkpt lat="45.238" lon="4.62308">
        <ele>435.062117</ele>
        <time>2026-09-01T11:52:30.918Z</time>
      </trkpt>
      <trkpt lat="45.23805" lon="4.6232">
        <ele>434.721545</ele>
        <time>2026-09-01T11:52:31.916Z</time>
      </trkpt>
      <trkpt lat="45.23811" lon="4.6233">
        <ele>434.381567</ele>
        <time>2026-09-01T11:52:32.918Z</time>
      </trkpt>
      <trkpt lat="45.23817" lon="4.62341">
        <ele>434.029299</ele>
        <time>2026-09-01T11:52:33.918Z</time>
      </trkpt>
      <trkpt lat="45.23822" lon="4.62354">
        <ele>433.66658</ele>
        <time>2026-09-01T11:52:34.923Z</time>
      </trkpt>
      <trkpt lat="45.23826" lon="4.62366">
        <ele>433.308327</ele>
        <time>2026-09-01T11:52:35.922Z</time>
      </trkpt>
      <trkpt lat="45.23831" lon="4.62378">
        <ele>432.943863</ele>
        <time>2026-09-01T11:52:36.917Z</time>
      </trkpt>
      <trkpt lat="45.23836" lon="4.62392">
        <ele>432.60467</ele>
        <time>2026-09-01T11:52:37.920Z</time>
      </trkpt>
      <trkpt lat="45.23841" lon="4.62405">
        <ele>432.410164</ele>
        <time>2026-09-01T11:52:38.923Z</time>
      </trkpt>
      <trkpt lat="45.23846" lon="4.62418">
        <ele>432.22001</ele>
        <time>2026-09-01T11:52:39.919Z</time>
      </trkpt>
      <trkpt lat="45.2385" lon="4.62431">
        <ele>432.03482</ele>
        <time>2026-09-01T11:52:40.918Z</time>
      </trkpt>
      <trkpt lat="45.23855" lon="4.62444">
        <ele>431.842808</ele>
        <time>2026-09-01T11:52:41.914Z</time>
      </trkpt>
      <trkpt lat="45.23861" lon="4.62457">
        <ele>431.648302</ele>
        <time>2026-09-01T11:52:42.931Z</time>
      </trkpt>
      <trkpt lat="45.23864" lon="4.62471">
        <ele>431.460751</ele>
        <time>2026-09-01T11:52:43.916Z</time>
      </trkpt>
      <trkpt lat="45.23867" lon="4.62485">
        <ele>431.272294</ele>
        <time>2026-09-01T11:52:44.924Z</time>
      </trkpt>
      <trkpt lat="45.23868" lon="4.62499">
        <ele>431.092061</ele>
        <time>2026-09-01T11:52:45.925Z</time>
      </trkpt>
      <trkpt lat="45.23868" lon="4.62513">
        <ele>430.90874</ele>
        <time>2026-09-01T11:52:46.927Z</time>
      </trkpt>
      <trkpt lat="45.23866" lon="4.62527">
        <ele>430.728201</ele>
        <time>2026-09-01T11:52:47.922Z</time>
      </trkpt>
      <trkpt lat="45.23864" lon="4.6254">
        <ele>430.547119</ele>
        <time>2026-09-01T11:52:48.919Z</time>
      </trkpt>
      <trkpt lat="45.23861" lon="4.62554">
        <ele>430.364521</ele>
        <time>2026-09-01T11:52:49.916Z</time>
      </trkpt>
      <trkpt lat="45.23858" lon="4.62567">
        <ele>430.193561</ele>
        <time>2026-09-01T11:52:50.919Z</time>
      </trkpt>
      <trkpt lat="45.23856" lon="4.6258">
        <ele>430.018371</ele>
        <time>2026-09-01T11:52:51.915Z</time>
      </trkpt>
      <trkpt lat="45.23852" lon="4.62593">
        <ele>429.840901</ele>
        <time>2026-09-01T11:52:52.929Z</time>
      </trkpt>
      <trkpt lat="45.23849" lon="4.62605">
        <ele>429.667683</ele>
        <time>2026-09-01T11:52:53.891Z</time>
      </trkpt>
      <trkpt lat="45.23846" lon="4.62618">
        <ele>429.49808</ele>
        <time>2026-09-01T11:52:54.916Z</time>
      </trkpt>
      <trkpt lat="45.23844" lon="4.62631">
        <ele>429.375498</ele>
        <time>2026-09-01T11:52:55.918Z</time>
      </trkpt>
      <trkpt lat="45.23841" lon="4.62643">
        <ele>429.498999</ele>
        <time>2026-09-01T11:52:56.920Z</time>
      </trkpt>
      <trkpt lat="45.23836" lon="4.62654">
        <ele>429.618404</ele>
        <time>2026-09-01T11:52:57.910Z</time>
      </trkpt>
      <trkpt lat="45.23832" lon="4.62666">
        <ele>429.742939</ele>
        <time>2026-09-01T11:52:58.913Z</time>
      </trkpt>
      <trkpt lat="45.23826" lon="4.62677">
        <ele>429.867437</ele>
        <time>2026-09-01T11:52:59.919Z</time>
      </trkpt>
      <trkpt lat="45.23815" lon="4.62697">
        <ele>430.108162</ele>
        <time>2026-09-01T11:53:01.916Z</time>
      </trkpt>
      <trkpt lat="45.23804" lon="4.62717">
        <ele>430.343484</ele>
        <time>2026-09-01T11:53:03.916Z</time>
      </trkpt>
      <trkpt lat="45.23792" lon="4.62737">
        <ele>430.578822</ele>
        <time>2026-09-01T11:53:05.920Z</time>
      </trkpt>
      <trkpt lat="45.23782" lon="4.62756">
        <ele>430.805785</ele>
        <time>2026-09-01T11:53:07.919Z</time>
      </trkpt>
      <trkpt lat="45.23775" lon="4.62778">
        <ele>431.027622</ele>
        <time>2026-09-01T11:53:09.904Z</time>
      </trkpt>
      <trkpt lat="45.23765" lon="4.62798">
        <ele>431.254005</ele>
        <time>2026-09-01T11:53:11.913Z</time>
      </trkpt>
      <trkpt lat="45.23757" lon="4.62818">
        <ele>431.467053</ele>
        <time>2026-09-01T11:53:13.906Z</time>
      </trkpt>
      <trkpt lat="45.23746" lon="4.62836">
        <ele>431.686515</ele>
        <time>2026-09-01T11:53:15.911Z</time>
      </trkpt>
      <trkpt lat="45.23732" lon="4.6285">
        <ele>431.533702</ele>
        <time>2026-09-01T11:53:17.923Z</time>
      </trkpt>
      <trkpt lat="45.23724" lon="4.62855">
        <ele>431.410377</ele>
        <time>2026-09-01T11:53:18.913Z</time>
      </trkpt>
      <trkpt lat="45.23709" lon="4.62864">
        <ele>431.178175</ele>
        <time>2026-09-01T11:53:20.917Z</time>
      </trkpt>
      <trkpt lat="45.23692" lon="4.62868">
        <ele>430.9463</ele>
        <time>2026-09-01T11:53:22.921Z</time>
      </trkpt>
      <trkpt lat="45.23676" lon="4.62871">
        <ele>430.719858</ele>
        <time>2026-09-01T11:53:24.920Z</time>
      </trkpt>
      <trkpt lat="45.2366" lon="4.62879">
        <ele>430.493325</ele>
        <time>2026-09-01T11:53:26.921Z</time>
      </trkpt>
      <trkpt lat="45.23646" lon="4.62891">
        <ele>430.265854</ele>
        <time>2026-09-01T11:53:28.923Z</time>
      </trkpt>
      <trkpt lat="45.23634" lon="4.62906">
        <ele>430.048317</ele>
        <time>2026-09-01T11:53:30.930Z</time>
      </trkpt>
      <trkpt lat="45.23625" lon="4.62927">
        <ele>429.813479</ele>
        <time>2026-09-01T11:53:32.915Z</time>
      </trkpt>
      <trkpt lat="45.23619" lon="4.62949">
        <ele>429.581283</ele>
        <time>2026-09-01T11:53:34.915Z</time>
      </trkpt>
      <trkpt lat="45.23614" lon="4.62971">
        <ele>429.360859</ele>
        <time>2026-09-01T11:53:36.917Z</time>
      </trkpt>
      <trkpt lat="45.23611" lon="4.62992">
        <ele>429.189216</ele>
        <time>2026-09-01T11:53:38.923Z</time>
      </trkpt>
      <trkpt lat="45.23612" lon="4.63016">
        <ele>429.040353</ele>
        <time>2026-09-01T11:53:40.908Z</time>
      </trkpt>
      <trkpt lat="45.23612" lon="4.63037">
        <ele>428.909513</ele>
        <time>2026-09-01T11:53:42.923Z</time>
      </trkpt>
      <trkpt lat="45.23611" lon="4.63059">
        <ele>428.777523</ele>
        <time>2026-09-01T11:53:44.912Z</time>
      </trkpt>
      <trkpt lat="45.23607" lon="4.63079">
        <ele>428.647319</ele>
        <time>2026-09-01T11:53:46.915Z</time>
      </trkpt>
      <trkpt lat="45.23603" lon="4.63098">
        <ele>428.522014</ele>
        <time>2026-09-01T11:53:48.919Z</time>
      </trkpt>
      <trkpt lat="45.23597" lon="4.63117">
        <ele>428.394453</ele>
        <time>2026-09-01T11:53:50.921Z</time>
      </trkpt>
      <trkpt lat="45.23586" lon="4.63133">
        <ele>428.260236</ele>
        <time>2026-09-01T11:53:52.920Z</time>
      </trkpt>
      <trkpt lat="45.23575" lon="4.63148">
        <ele>428.122134</ele>
        <time>2026-09-01T11:53:54.912Z</time>
      </trkpt>
      <trkpt lat="45.23564" lon="4.63164">
        <ele>427.983524</ele>
        <time>2026-09-01T11:53:56.926Z</time>
      </trkpt>
      <trkpt lat="45.23553" lon="4.63179">
        <ele>427.845799</ele>
        <time>2026-09-01T11:53:58.919Z</time>
      </trkpt>
      <trkpt lat="45.23542" lon="4.63197">
        <ele>427.700044</ele>
        <time>2026-09-01T11:54:00.917Z</time>
      </trkpt>
      <trkpt lat="45.23534" lon="4.63216">
        <ele>426.929238</ele>
        <time>2026-09-01T11:54:02.924Z</time>
      </trkpt>
      <trkpt lat="45.23528" lon="4.6324">
        <ele>425.885745</ele>
        <time>2026-09-01T11:54:04.927Z</time>
      </trkpt>
      <trkpt lat="45.23525" lon="4.63265">
        <ele>424.797153</ele>
        <time>2026-09-01T11:54:06.919Z</time>
      </trkpt>
      <trkpt lat="45.23526" lon="4.63279">
        <ele>424.225875</ele>
        <time>2026-09-01T11:54:07.925Z</time>
      </trkpt>
      <trkpt lat="45.23528" lon="4.63303">
        <ele>423.192599</ele>
        <time>2026-09-01T11:54:09.921Z</time>
      </trkpt>
      <trkpt lat="45.23534" lon="4.63329">
        <ele>422.046566</ele>
        <time>2026-09-01T11:54:11.917Z</time>
      </trkpt>
      <trkpt lat="45.23538" lon="4.63342">
        <ele>421.463749</ele>
        <time>2026-09-01T11:54:12.920Z</time>
      </trkpt>
      <trkpt lat="45.23542" lon="4.63354">
        <ele>420.902352</ele>
        <time>2026-09-01T11:54:13.921Z</time>
      </trkpt>
      <trkpt lat="45.23546" lon="4.63366">
        <ele>420.343577</ele>
        <time>2026-09-01T11:54:14.919Z</time>
      </trkpt>
      <trkpt lat="45.23552" lon="4.63389">
        <ele>419.311612</ele>
        <time>2026-09-01T11:54:16.912Z</time>
      </trkpt>
      <trkpt lat="45.23553" lon="4.63412">
        <ele>418.352274</ele>
        <time>2026-09-01T11:54:18.921Z</time>
      </trkpt>
      <trkpt lat="45.23553" lon="4.63436">
        <ele>417.355042</ele>
        <time>2026-09-01T11:54:20.927Z</time>
      </trkpt>
      <trkpt lat="45.23554" lon="4.6346">
        <ele>416.926462</ele>
        <time>2026-09-01T11:54:22.921Z</time>
      </trkpt>
      <trkpt lat="45.23554" lon="4.63483">
        <ele>416.855707</ele>
        <time>2026-09-01T11:54:24.912Z</time>
      </trkpt>
      <trkpt lat="45.23553" lon="4.63507">
        <ele>416.78313</ele>
        <time>2026-09-01T11:54:26.923Z</time>
      </trkpt>
      <trkpt lat="45.23548" lon="4.63528">
        <ele>416.715691</ele>
        <time>2026-09-01T11:54:28.921Z</time>
      </trkpt>
      <trkpt lat="45.23541" lon="4.63548">
        <ele>416.646619</ele>
        <time>2026-09-01T11:54:30.923Z</time>
      </trkpt>
      <trkpt lat="45.23536" lon="4.6357">
        <ele>416.577187</ele>
        <time>2026-09-01T11:54:32.920Z</time>
      </trkpt>
      <trkpt lat="45.23535" lon="4.63593">
        <ele>416.505845</ele>
        <time>2026-09-01T11:54:34.923Z</time>
      </trkpt>
      <trkpt lat="45.23538" lon="4.63616">
        <ele>416.436553</ele>
        <time>2026-09-01T11:54:36.910Z</time>
      </trkpt>
      <trkpt lat="45.23546" lon="4.63638">
        <ele>416.362275</ele>
        <time>2026-09-01T11:54:38.918Z</time>
      </trkpt>
      <trkpt lat="45.23554" lon="4.6366">
        <ele>416.287512</ele>
        <time>2026-09-01T11:54:40.906Z</time>
      </trkpt>
      <trkpt lat="45.2356" lon="4.63681">
        <ele>416.217809</ele>
        <time>2026-09-01T11:54:42.923Z</time>
      </trkpt>
      <trkpt lat="45.23564" lon="4.63702">
        <ele>416.001239</ele>
        <time>2026-09-01T11:54:44.919Z</time>
      </trkpt>
      <trkpt lat="45.23562" lon="4.63724">
        <ele>415.703725</ele>
        <time>2026-09-01T11:54:46.921Z</time>
      </trkpt>
      <trkpt lat="45.23558" lon="4.63746">
        <ele>415.389947</ele>
        <time>2026-09-01T11:54:48.915Z</time>
      </trkpt>
      <trkpt lat="45.23554" lon="4.6377">
        <ele>415.056345</ele>
        <time>2026-09-01T11:54:50.921Z</time>
      </trkpt>
      <trkpt lat="45.23554" lon="4.63794">
        <ele>414.741624</ele>
        <time>2026-09-01T11:54:52.919Z</time>
      </trkpt>
      <trkpt lat="45.23556" lon="4.63817">
        <ele>414.425519</ele>
        <time>2026-09-01T11:54:54.920Z</time>
      </trkpt>
      <trkpt lat="45.2356" lon="4.6384">
        <ele>414.098615</ele>
        <time>2026-09-01T11:54:56.913Z</time>
      </trkpt>
      <trkpt lat="45.23564" lon="4.63863">
        <ele>413.781354</ele>
        <time>2026-09-01T11:54:58.921Z</time>
      </trkpt>
      <trkpt lat="45.23567" lon="4.63886">
        <ele>413.463609</ele>
        <time>2026-09-01T11:55:00.918Z</time>
      </trkpt>
      <trkpt lat="45.23568" lon="4.63909">
        <ele>413.161607</ele>
        <time>2026-09-01T11:55:02.919Z</time>
      </trkpt>
      <trkpt lat="45.23568" lon="4.63931">
        <ele>412.864231</ele>
        <time>2026-09-01T11:55:04.924Z</time>
      </trkpt>
      <trkpt lat="45.23567" lon="4.63943">
        <ele>412.809464</ele>
        <time>2026-09-01T11:55:05.924Z</time>
      </trkpt>
      <trkpt lat="45.23566" lon="4.63965">
        <ele>413.147829</ele>
        <time>2026-09-01T11:55:07.922Z</time>
      </trkpt>
      <trkpt lat="45.23565" lon="4.63986">
        <ele>413.465868</ele>
        <time>2026-09-01T11:55:09.921Z</time>
      </trkpt>
      <trkpt lat="45.23568" lon="4.64005">
        <ele>413.773247</ele>
        <time>2026-09-01T11:55:11.925Z</time>
      </trkpt>
      <trkpt lat="45.23575" lon="4.64022">
        <ele>414.083557</ele>
        <time>2026-09-01T11:55:13.922Z</time>
      </trkpt>
      <trkpt lat="45.23587" lon="4.64036">
        <ele>414.410179</ele>
        <time>2026-09-01T11:55:15.921Z</time>
      </trkpt>
      <trkpt lat="45.23601" lon="4.64045">
        <ele>414.766597</ele>
        <time>2026-09-01T11:55:17.915Z</time>
      </trkpt>
      <trkpt lat="45.23616" lon="4.64053">
        <ele>415.105365</ele>
        <time>2026-09-01T11:55:19.918Z</time>
      </trkpt>
      <trkpt lat="45.23627" lon="4.64063">
        <ele>415.404088</ele>
        <time>2026-09-01T11:55:21.921Z</time>
      </trkpt>
      <trkpt lat="45.23639" lon="4.64073">
        <ele>415.707246</ele>
        <time>2026-09-01T11:55:23.924Z</time>
      </trkpt>
      <trkpt lat="45.23651" lon="4.64086">
        <ele>416.03289</ele>
        <time>2026-09-01T11:55:25.921Z</time>
      </trkpt>
      <trkpt lat="45.2366" lon="4.64102">
        <ele>416.35224</ele>
        <time>2026-09-01T11:55:27.923Z</time>
      </trkpt>
      <trkpt lat="45.23667" lon="4.64119">
        <ele>416.666143</ele>
        <time>2026-09-01T11:55:29.926Z</time>
      </trkpt>
      <trkpt lat="45.23671" lon="4.64138">
        <ele>416.426658</ele>
        <time>2026-09-01T11:55:31.919Z</time>
      </trkpt>
      <trkpt lat="45.2367" lon="4.64159">
        <ele>416.082678</ele>
        <time>2026-09-01T11:55:33.927Z</time>
      </trkpt>
      <trkpt lat="45.23669" lon="4.6418">
        <ele>415.742674</ele>
        <time>2026-09-01T11:55:35.925Z</time>
      </trkpt>
      <trkpt lat="45.23665" lon="4.642">
        <ele>415.394464</ele>
        <time>2026-09-01T11:55:37.924Z</time>
      </trkpt>
      <trkpt lat="45.23659" lon="4.64218">
        <ele>415.06178</ele>
        <time>2026-09-01T11:55:39.919Z</time>
      </trkpt>
      <trkpt lat="45.23651" lon="4.64233">
        <ele>414.756415</ele>
        <time>2026-09-01T11:55:41.910Z</time>
      </trkpt>
      <trkpt lat="45.23641" lon="4.64247">
        <ele>414.423508</ele>
        <time>2026-09-01T11:55:43.920Z</time>
      </trkpt>
      <trkpt lat="45.23634" lon="4.64262">
        <ele>414.123495</ele>
        <time>2026-09-01T11:55:45.920Z</time>
      </trkpt>
      <trkpt lat="45.23629" lon="4.64282">
        <ele>413.776813</ele>
        <time>2026-09-01T11:55:47.915Z</time>
      </trkpt>
      <trkpt lat="45.23626" lon="4.64304">
        <ele>413.398093</ele>
        <time>2026-09-01T11:55:49.920Z</time>
      </trkpt>
      <trkpt lat="45.23625" lon="4.64326">
        <ele>413.043961</ele>
        <time>2026-09-01T11:55:51.919Z</time>
      </trkpt>
      <trkpt lat="45.23623" lon="4.64345">
        <ele>412.718445</ele>
        <time>2026-09-01T11:55:53.916Z</time>
      </trkpt>
      <trkpt lat="45.23622" lon="4.64363">
        <ele>412.441987</ele>
        <time>2026-09-01T11:55:55.919Z</time>
      </trkpt>
      <trkpt lat="45.23625" lon="4.64384">
        <ele>412.150515</ele>
        <time>2026-09-01T11:55:57.919Z</time>
      </trkpt>
      <trkpt lat="45.23634" lon="4.64403">
        <ele>411.842266</ele>
        <time>2026-09-01T11:55:59.937Z</time>
      </trkpt>
      <trkpt lat="45.23646" lon="4.64418">
        <ele>411.535396</ele>
        <time>2026-09-01T11:56:01.915Z</time>
      </trkpt>
      <trkpt lat="45.2366" lon="4.64431">
        <ele>411.207393</ele>
        <time>2026-09-01T11:56:03.934Z</time>
      </trkpt>
      <trkpt lat="45.23675" lon="4.64444">
        <ele>410.871678</ele>
        <time>2026-09-01T11:56:05.879Z</time>
      </trkpt>
      <trkpt lat="45.2369" lon="4.64455">
        <ele>410.554201</ele>
        <time>2026-09-01T11:56:07.925Z</time>
      </trkpt>
      <trkpt lat="45.23704" lon="4.64466">
        <ele>410.243308</ele>
        <time>2026-09-01T11:56:09.920Z</time>
      </trkpt>
      <trkpt lat="45.23719" lon="4.64475">
        <ele>409.931492</ele>
        <time>2026-09-01T11:56:11.928Z</time>
      </trkpt>
      <trkpt lat="45.23734" lon="4.64481">
        <ele>409.642645</ele>
        <time>2026-09-01T11:56:13.929Z</time>
      </trkpt>
      <trkpt lat="45.23749" lon="4.64489">
        <ele>409.339962</ele>
        <time>2026-09-01T11:56:15.947Z</time>
      </trkpt>
      <trkpt lat="45.23765" lon="4.64497">
        <ele>409.06129</ele>
        <time>2026-09-01T11:56:17.932Z</time>
      </trkpt>
      <trkpt lat="45.23777" lon="4.64513">
        <ele>409.157427</ele>
        <time>2026-09-01T11:56:19.921Z</time>
      </trkpt>
      <trkpt lat="45.23788" lon="4.64531">
        <ele>409.257527</ele>
        <time>2026-09-01T11:56:21.924Z</time>
      </trkpt>
      <trkpt lat="45.23795" lon="4.64541">
        <ele>409.31487</ele>
        <time>2026-09-01T11:56:22.924Z</time>
      </trkpt>
      <trkpt lat="45.23801" lon="4.64551">
        <ele>409.368897</ele>
        <time>2026-09-01T11:56:23.921Z</time>
      </trkpt>
      <trkpt lat="45.23807" lon="4.6456">
        <ele>409.422622</ele>
        <time>2026-09-01T11:56:24.928Z</time>
      </trkpt>
      <trkpt lat="45.23814" lon="4.64569">
        <ele>409.476233</ele>
        <time>2026-09-01T11:56:25.928Z</time>
      </trkpt>
      <trkpt lat="45.23826" lon="4.64587">
        <ele>409.581212</ele>
        <time>2026-09-01T11:56:27.921Z</time>
      </trkpt>
      <trkpt lat="45.23839" lon="4.64603">
        <ele>409.682159</ele>
        <time>2026-09-01T11:56:29.914Z</time>
      </trkpt>
      <trkpt lat="45.23852" lon="4.64617">
        <ele>409.779682</ele>
        <time>2026-09-01T11:56:31.925Z</time>
      </trkpt>
      <trkpt lat="45.23865" lon="4.64631">
        <ele>409.875908</ele>
        <time>2026-09-01T11:56:33.912Z</time>
      </trkpt>
      <trkpt lat="45.23879" lon="4.64645">
        <ele>409.974107</ele>
        <time>2026-09-01T11:56:35.922Z</time>
      </trkpt>
      <trkpt lat="45.23891" lon="4.6466">
        <ele>410.070655</ele>
        <time>2026-09-01T11:56:37.921Z</time>
      </trkpt>
      <trkpt lat="45.23902" lon="4.64678">
        <ele>409.745687</ele>
        <time>2026-09-01T11:56:39.923Z</time>
      </trkpt>
      <trkpt lat="45.23908" lon="4.647">
        <ele>409.127045</ele>
        <time>2026-09-01T11:56:41.919Z</time>
      </trkpt>
      <trkpt lat="45.23909" lon="4.64713">
        <ele>408.781391</ele>
        <time>2026-09-01T11:56:42.925Z</time>
      </trkpt>
      <trkpt lat="45.2391" lon="4.64726">
        <ele>408.428667</ele>
        <time>2026-09-01T11:56:43.919Z</time>
      </trkpt>
      <trkpt lat="45.23912" lon="4.64752">
        <ele>407.735017</ele>
        <time>2026-09-01T11:56:45.923Z</time>
      </trkpt>
      <trkpt lat="45.23914" lon="4.64765">
        <ele>407.380206</ele>
        <time>2026-09-01T11:56:46.919Z</time>
      </trkpt>
      <trkpt lat="45.23916" lon="4.64778">
        <ele>407.028628</ele>
        <time>2026-09-01T11:56:47.923Z</time>
      </trkpt>
      <trkpt lat="45.23919" lon="4.64791">
        <ele>406.674377</ele>
        <time>2026-09-01T11:56:48.927Z</time>
      </trkpt>
      <trkpt lat="45.23923" lon="4.64802">
        <ele>406.330605</ele>
        <time>2026-09-01T11:56:49.904Z</time>
      </trkpt>
      <trkpt lat="45.23928" lon="4.64813">
        <ele>405.987781</ele>
        <time>2026-09-01T11:56:50.926Z</time>
      </trkpt>
      <trkpt lat="45.23935" lon="4.64822">
        <ele>405.634713</ele>
        <time>2026-09-01T11:56:51.928Z</time>
      </trkpt>
      <trkpt lat="45.23941" lon="4.64831">
        <ele>405.292263</ele>
        <time>2026-09-01T11:56:52.924Z</time>
      </trkpt>
      <trkpt lat="45.23947" lon="4.64842">
        <ele>404.939575</ele>
        <time>2026-09-01T11:56:53.923Z</time>
      </trkpt>
      <trkpt lat="45.23952" lon="4.64852">
        <ele>404.598804</ele>
        <time>2026-09-01T11:56:54.927Z</time>
      </trkpt>
      <trkpt lat="45.2396" lon="4.64875">
        <ele>403.934961</ele>
        <time>2026-09-01T11:56:56.915Z</time>
      </trkpt>
      <trkpt lat="45.23967" lon="4.64898">
        <ele>403.309334</ele>
        <time>2026-09-01T11:56:58.917Z</time>
      </trkpt>
      <trkpt lat="45.23973" lon="4.64921">
        <ele>403.091311</ele>
        <time>2026-09-01T11:57:00.917Z</time>
      </trkpt>
      <trkpt lat="45.2398" lon="4.64943">
        <ele>402.881603</ele>
        <time>2026-09-01T11:57:02.918Z</time>
      </trkpt>
      <trkpt lat="45.23992" lon="4.6496">
        <ele>402.670024</ele>
        <time>2026-09-01T11:57:04.925Z</time>
      </trkpt>
      <trkpt lat="45.24006" lon="4.64974">
        <ele>402.454476</ele>
        <time>2026-09-01T11:57:06.923Z</time>
      </trkpt>
      <trkpt lat="45.24019" lon="4.64985">
        <ele>402.261003</ele>
        <time>2026-09-01T11:57:08.916Z</time>
      </trkpt>
      <trkpt lat="45.24033" lon="4.64995">
        <ele>402.065717</ele>
        <time>2026-09-01T11:57:10.924Z</time>
      </trkpt>
      <trkpt lat="45.24047" lon="4.65008">
        <ele>401.854774</ele>
        <time>2026-09-01T11:57:12.921Z</time>
      </trkpt>
      <trkpt lat="45.24059" lon="4.65025">
        <ele>401.647676</ele>
        <time>2026-09-01T11:57:14.920Z</time>
      </trkpt>
      <trkpt lat="45.24063" lon="4.65037">
        <ele>401.527644</ele>
        <time>2026-09-01T11:57:15.923Z</time>
      </trkpt>
      <trkpt lat="45.24067" lon="4.65049">
        <ele>401.410206</ele>
        <time>2026-09-01T11:57:16.904Z</time>
      </trkpt>
      <trkpt lat="45.24078" lon="4.65068">
        <ele>401.194629</ele>
        <time>2026-09-01T11:57:18.915Z</time>
      </trkpt>
      <trkpt lat="45.24086" lon="4.65088">
        <ele>400.679796</ele>
        <time>2026-09-01T11:57:20.919Z</time>
      </trkpt>
      <trkpt lat="45.24097" lon="4.65107">
        <ele>399.679872</ele>
        <time>2026-09-01T11:57:22.926Z</time>
      </trkpt>
      <trkpt lat="45.24107" lon="4.65128">
        <ele>398.654114</ele>
        <time>2026-09-01T11:57:24.920Z</time>
      </trkpt>
      <trkpt lat="45.24117" lon="4.65148">
        <ele>397.624877</ele>
        <time>2026-09-01T11:57:26.927Z</time>
      </trkpt>
      <trkpt lat="45.24122" lon="4.65159">
        <ele>397.083101</ele>
        <time>2026-09-01T11:57:27.930Z</time>
      </trkpt>
      <trkpt lat="45.24132" lon="4.6518">
        <ele>396.062322</ele>
        <time>2026-09-01T11:57:29.922Z</time>
      </trkpt>
      <trkpt lat="45.24134" lon="4.65193">
        <ele>395.527057</ele>
        <time>2026-09-01T11:57:30.926Z</time>
      </trkpt>
      <trkpt lat="45.24135" lon="4.65206">
        <ele>394.979626</ele>
        <time>2026-09-01T11:57:31.917Z</time>
      </trkpt>
      <trkpt lat="45.24131" lon="4.65229">
        <ele>393.994574</ele>
        <time>2026-09-01T11:57:33.915Z</time>
      </trkpt>
      <trkpt lat="45.24127" lon="4.65241">
        <ele>393.464618</ele>
        <time>2026-09-01T11:57:34.926Z</time>
      </trkpt>
      <trkpt lat="45.24125" lon="4.65254">
        <ele>392.902686</ele>
        <time>2026-09-01T11:57:35.919Z</time>
      </trkpt>
      <trkpt lat="45.24123" lon="4.65268">
        <ele>392.331496</ele>
        <time>2026-09-01T11:57:36.922Z</time>
      </trkpt>
      <trkpt lat="45.24121" lon="4.65281">
        <ele>391.784182</ele>
        <time>2026-09-01T11:57:37.920Z</time>
      </trkpt>
      <trkpt lat="45.24117" lon="4.65306">
        <ele>390.732255</ele>
        <time>2026-09-01T11:57:39.916Z</time>
      </trkpt>
      <trkpt lat="45.24114" lon="4.65318">
        <ele>390.576095</ele>
        <time>2026-09-01T11:57:40.929Z</time>
      </trkpt>
      <trkpt lat="45.24111" lon="4.65331">
        <ele>390.587418</ele>
        <time>2026-09-01T11:57:41.920Z</time>
      </trkpt>
      <trkpt lat="45.24099" lon="4.65352">
        <ele>390.609613</ele>
        <time>2026-09-01T11:57:43.920Z</time>
      </trkpt>
      <trkpt lat="45.24091" lon="4.65373">
        <ele>390.629991</ele>
        <time>2026-09-01T11:57:45.921Z</time>
      </trkpt>
      <trkpt lat="45.24086" lon="4.65396">
        <ele>390.650667</ele>
        <time>2026-09-01T11:57:47.920Z</time>
      </trkpt>
      <trkpt lat="45.2409" lon="4.65421">
        <ele>390.671806</ele>
        <time>2026-09-01T11:57:49.920Z</time>
      </trkpt>
      <trkpt lat="45.24095" lon="4.65432">
        <ele>390.682896</ele>
        <time>2026-09-01T11:57:50.921Z</time>
      </trkpt>
      <trkpt lat="45.24102" lon="4.65441">
        <ele>390.694798</ele>
        <time>2026-09-01T11:57:51.929Z</time>
      </trkpt>
      <trkpt lat="45.2411" lon="4.65448">
        <ele>390.705994</ele>
        <time>2026-09-01T11:57:52.923Z</time>
      </trkpt>
      <trkpt lat="45.24118" lon="4.65455">
        <ele>390.716813</ele>
        <time>2026-09-01T11:57:53.923Z</time>
      </trkpt>
      <trkpt lat="45.24127" lon="4.6546">
        <ele>390.728911</ele>
        <time>2026-09-01T11:57:54.928Z</time>
      </trkpt>
      <trkpt lat="45.24136" lon="4.65463">
        <ele>390.73997</ele>
        <time>2026-09-01T11:57:55.918Z</time>
      </trkpt>
      <trkpt lat="45.24146" lon="4.65468">
        <ele>390.752063</ele>
        <time>2026-09-01T11:57:56.927Z</time>
      </trkpt>
      <trkpt lat="45.24154" lon="4.65473">
        <ele>390.763168</ele>
        <time>2026-09-01T11:57:57.920Z</time>
      </trkpt>
      <trkpt lat="45.24162" lon="4.6548">
        <ele>390.774337</ele>
        <time>2026-09-01T11:57:58.927Z</time>
      </trkpt>
      <trkpt lat="45.24169" lon="4.65488">
        <ele>390.769486</ele>
        <time>2026-09-01T11:57:59.925Z</time>
      </trkpt>
      <trkpt lat="45.24177" lon="4.65495">
        <ele>390.689465</ele>
        <time>2026-09-01T11:58:00.908Z</time>
      </trkpt>
      <trkpt lat="45.24185" lon="4.65505">
        <ele>390.599697</ele>
        <time>2026-09-01T11:58:01.920Z</time>
      </trkpt>
      <trkpt lat="45.24198" lon="4.65522">
        <ele>390.440773</ele>
        <time>2026-09-01T11:58:03.916Z</time>
      </trkpt>
      <trkpt lat="45.24209" lon="4.65542">
        <ele>390.286055</ele>
        <time>2026-09-01T11:58:05.923Z</time>
      </trkpt>
      <trkpt lat="45.24217" lon="4.65564">
        <ele>390.132477</ele>
        <time>2026-09-01T11:58:07.905Z</time>
      </trkpt>
      <trkpt lat="45.2422" lon="4.65589">
        <ele>389.976517</ele>
        <time>2026-09-01T11:58:09.916Z</time>
      </trkpt>
      <trkpt lat="45.24217" lon="4.65615">
        <ele>389.807608</ele>
        <time>2026-09-01T11:58:11.915Z</time>
      </trkpt>
      <trkpt lat="45.24214" lon="4.65629">
        <ele>389.721096</ele>
        <time>2026-09-01T11:58:12.918Z</time>
      </trkpt>
      <trkpt lat="45.2421" lon="4.65642">
        <ele>389.635756</ele>
        <time>2026-09-01T11:58:13.916Z</time>
      </trkpt>
      <trkpt lat="45.2421" lon="4.65654">
        <ele>389.55643</ele>
        <time>2026-09-01T11:58:14.919Z</time>
      </trkpt>
      <trkpt lat="45.24211" lon="4.65668">
        <ele>389.473275</ele>
        <time>2026-09-01T11:58:15.921Z</time>
      </trkpt>
      <trkpt lat="45.24211" lon="4.65681">
        <ele>389.388998</ele>
        <time>2026-09-01T11:58:16.913Z</time>
      </trkpt>
      <trkpt lat="45.24212" lon="4.65695">
        <ele>389.306628</ele>
        <time>2026-09-01T11:58:17.912Z</time>
      </trkpt>
      <trkpt lat="45.24211" lon="4.65708">
        <ele>389.221616</ele>
        <time>2026-09-01T11:58:18.916Z</time>
      </trkpt>
      <trkpt lat="45.2421" lon="4.65721">
        <ele>389.228549</ele>
        <time>2026-09-01T11:58:19.914Z</time>
      </trkpt>
      <trkpt lat="45.24207" lon="4.65734">
        <ele>389.267311</ele>
        <time>2026-09-01T11:58:20.917Z</time>
      </trkpt>
      <trkpt lat="45.24204" lon="4.65746">
        <ele>389.307176</ele>
        <time>2026-09-01T11:58:21.923Z</time>
      </trkpt>
      <trkpt lat="45.24196" lon="4.65768">
        <ele>389.380346</ele>
        <time>2026-09-01T11:58:23.919Z</time>
      </trkpt>
      <trkpt lat="45.24185" lon="4.65787">
        <ele>389.453271</ele>
        <time>2026-09-01T11:58:25.920Z</time>
      </trkpt>
      <trkpt lat="45.24177" lon="4.65796">
        <ele>389.494565</ele>
        <time>2026-09-01T11:58:26.923Z</time>
      </trkpt>
      <trkpt lat="45.2417" lon="4.65804">
        <ele>389.532647</ele>
        <time>2026-09-01T11:58:27.913Z</time>
      </trkpt>
      <trkpt lat="45.24156" lon="4.65819">
        <ele>389.605097</ele>
        <time>2026-09-01T11:58:29.923Z</time>
      </trkpt>
      <trkpt lat="45.24143" lon="4.65833">
        <ele>389.675619</ele>
        <time>2026-09-01T11:58:31.919Z</time>
      </trkpt>
      <trkpt lat="45.24131" lon="4.6585">
        <ele>389.745325</ele>
        <time>2026-09-01T11:58:33.925Z</time>
      </trkpt>
      <trkpt lat="45.24119" lon="4.65865">
        <ele>389.811476</ele>
        <time>2026-09-01T11:58:35.920Z</time>
      </trkpt>
      <trkpt lat="45.24109" lon="4.65879">
        <ele>389.871749</ele>
        <time>2026-09-01T11:58:37.925Z</time>
      </trkpt>
      <trkpt lat="45.24098" lon="4.65891">
        <ele>389.929426</ele>
        <time>2026-09-01T11:58:39.927Z</time>
      </trkpt>
      <trkpt lat="45.24088" lon="4.659">
        <ele>390.143615</ele>
        <time>2026-09-01T11:58:41.926Z</time>
      </trkpt>
      <trkpt lat="45.24077" lon="4.65906">
        <ele>390.488074</ele>
        <time>2026-09-01T11:58:43.928Z</time>
      </trkpt>
      <trkpt lat="45.24066" lon="4.6591">
        <ele>390.81102</ele>
        <time>2026-09-01T11:58:45.925Z</time>
      </trkpt>
      <trkpt lat="45.24055" lon="4.6591">
        <ele>391.143387</ele>
        <time>2026-09-01T11:58:47.921Z</time>
      </trkpt>
      <trkpt lat="45.24045" lon="4.65907">
        <ele>391.459955</ele>
        <time>2026-09-01T11:58:49.927Z</time>
      </trkpt>
      <trkpt lat="45.24034" lon="4.65907">
        <ele>391.783339</ele>
        <time>2026-09-01T11:58:51.921Z</time>
      </trkpt>
      <trkpt lat="45.24023" lon="4.65909">
        <ele>392.120611</ele>
        <time>2026-09-01T11:58:53.929Z</time>
      </trkpt>
      <trkpt lat="45.24012" lon="4.65913">
        <ele>392.447823</ele>
        <time>2026-09-01T11:58:55.893Z</time>
      </trkpt>
      <trkpt lat="45.24002" lon="4.65917">
        <ele>392.784838</ele>
        <time>2026-09-01T11:58:57.922Z</time>
      </trkpt>
      <trkpt lat="45.23991" lon="4.65926">
        <ele>393.148837</ele>
        <time>2026-09-01T11:58:59.924Z</time>
      </trkpt>
      <trkpt lat="45.23981" lon="4.65934">
        <ele>393.492764</ele>
        <time>2026-09-01T11:59:01.926Z</time>
      </trkpt>
      <trkpt lat="45.2397" lon="4.65947">
        <ele>393.909868</ele>
        <time>2026-09-01T11:59:04.907Z</time>
      </trkpt>
      <trkpt lat="45.23962" lon="4.65961">
        <ele>394.303423</ele>
        <time>2026-09-01T11:59:07.918Z</time>
      </trkpt>
      <trkpt lat="45.23951" lon="4.6597">
        <ele>394.678854</ele>
        <time>2026-09-01T11:59:10.917Z</time>
      </trkpt>
      <trkpt lat="45.23942" lon="4.65981">
        <ele>395.045878</ele>
        <time>2026-09-01T11:59:13.927Z</time>
      </trkpt>
      <trkpt lat="45.23937" lon="4.65992">
        <ele>395.319593</ele>
        <time>2026-09-01T11:59:15.896Z</time>
      </trkpt>
      <trkpt lat="45.23928" lon="4.66003">
        <ele>395.694714</ele>
        <time>2026-09-01T11:59:18.917Z</time>
      </trkpt>
      <trkpt lat="45.23924" lon="4.66019">
        <ele>396.080836</ele>
        <time>2026-09-01T11:59:21.928Z</time>
      </trkpt>
      <trkpt lat="45.23924" lon="4.66037">
        <ele>396.479803</ele>
        <time>2026-09-01T11:59:24.907Z</time>
      </trkpt>
      <trkpt lat="45.23926" lon="4.66051">
        <ele>396.798189</ele>
        <time>2026-09-01T11:59:26.924Z</time>
      </trkpt>
      <trkpt lat="45.23929" lon="4.66064">
        <ele>397.114293</ele>
        <time>2026-09-01T11:59:28.927Z</time>
      </trkpt>
      <trkpt lat="45.23932" lon="4.66078">
        <ele>397.436148</ele>
        <time>2026-09-01T11:59:30.923Z</time>
      </trkpt>
      <trkpt lat="45.23935" lon="4.66091">
        <ele>397.735604</ele>
        <time>2026-09-01T11:59:32.919Z</time>
      </trkpt>
      <trkpt lat="45.23937" lon="4.66105">
        <ele>398.05124</ele>
        <time>2026-09-01T11:59:34.897Z</time>
      </trkpt>
      <trkpt lat="45.2394" lon="4.66118">
        <ele>398.370942</ele>
        <time>2026-09-01T11:59:36.921Z</time>
      </trkpt>
      <trkpt lat="45.23943" lon="4.66131">
        <ele>398.661639</ele>
        <time>2026-09-01T11:59:38.928Z</time>
      </trkpt>
      <trkpt lat="45.23945" lon="4.66149">
        <ele>399.080181</ele>
        <time>2026-09-01T11:59:41.908Z</time>
      </trkpt>
      <trkpt lat="45.23945" lon="4.66162">
        <ele>399.367483</ele>
        <time>2026-09-01T11:59:43.925Z</time>
      </trkpt>
      <trkpt lat="45.23945" lon="4.66177">
        <ele>399.708129</ele>
        <time>2026-09-01T11:59:45.918Z</time>
      </trkpt>
      <trkpt lat="45.23948" lon="4.66191">
        <ele>400.031814</ele>
        <time>2026-09-01T11:59:47.923Z</time>
      </trkpt>
      <trkpt lat="45.23949" lon="4.66204">
        <ele>400.327042</ele>
        <time>2026-09-01T11:59:49.917Z</time>
      </trkpt>
      <trkpt lat="45.23951" lon="4.66217">
        <ele>400.623366</ele>
        <time>2026-09-01T11:59:51.920Z</time>
      </trkpt>
      <trkpt lat="45.23952" lon="4.66234">
        <ele>401.005202</ele>
        <time>2026-09-01T11:59:54.916Z</time>
      </trkpt>
      <trkpt lat="45.23953" lon="4.66247">
        <ele>401.113735</ele>
        <time>2026-09-01T11:59:56.905Z</time>
      </trkpt>
      <trkpt lat="45.23955" lon="4.66264">
        <ele>401.194185</ele>
        <time>2026-09-01T11:59:59.881Z</time>
      </trkpt>
      <trkpt lat="45.23956" lon="4.66277">
        <ele>401.256714</ele>
        <time>2026-09-01T12:00:01.879Z</time>
      </trkpt>
      <trkpt lat="45.23962" lon="4.66293">
        <ele>401.344692</ele>
        <time>2026-09-01T12:00:04.939Z</time>
      </trkpt>
      <trkpt lat="45.23962" lon="4.66312">
        <ele>401.430505</ele>
        <time>2026-09-01T12:00:07.916Z</time>
      </trkpt>
      <trkpt lat="45.23962" lon="4.66325">
        <ele>401.493214</ele>
        <time>2026-09-01T12:00:09.911Z</time>
      </trkpt>
      <trkpt lat="45.23964" lon="4.66339">
        <ele>401.560243</ele>
        <time>2026-09-01T12:00:11.923Z</time>
      </trkpt>
      <trkpt lat="45.23966" lon="4.66357">
        <ele>401.648493</ele>
        <time>2026-09-01T12:00:14.925Z</time>
      </trkpt>
      <trkpt lat="45.23969" lon="4.66371">
        <ele>401.715239</ele>
        <time>2026-09-01T12:00:16.905Z</time>
      </trkpt>
      <trkpt lat="45.23972" lon="4.66385">
        <ele>401.783142</ele>
        <time>2026-09-01T12:00:18.900Z</time>
      </trkpt>
      <trkpt lat="45.23975" lon="4.66399">
        <ele>401.853222</ele>
        <time>2026-09-01T12:00:20.922Z</time>
      </trkpt>
      <trkpt lat="45.23979" lon="4.66412">
        <ele>401.920256</ele>
        <time>2026-09-01T12:00:22.909Z</time>
      </trkpt>
      <trkpt lat="45.23979" lon="4.66427">
        <ele>401.990993</ele>
        <time>2026-09-01T12:00:24.928Z</time>
      </trkpt>
      <trkpt lat="45.23981" lon="4.66443">
        <ele>402.067566</ele>
        <time>2026-09-01T12:00:26.928Z</time>
      </trkpt>
      <trkpt lat="45.23983" lon="4.66458">
        <ele>402.141635</ele>
        <time>2026-09-01T12:00:28.921Z</time>
      </trkpt>
      <trkpt lat="45.23987" lon="4.66473">
        <ele>402.215818</ele>
        <time>2026-09-01T12:00:30.924Z</time>
      </trkpt>
      <trkpt lat="45.23986" lon="4.66489">
        <ele>402.374306</ele>
        <time>2026-09-01T12:00:32.916Z</time>
      </trkpt>
      <trkpt lat="45.23987" lon="4.66504">
        <ele>402.68247</ele>
        <time>2026-09-01T12:00:34.927Z</time>
      </trkpt>
      <trkpt lat="45.23988" lon="4.66519">
        <ele>402.97867</ele>
        <time>2026-09-01T12:00:36.921Z</time>
      </trkpt>
      <trkpt lat="45.23989" lon="4.66532">
        <ele>403.243398</ele>
        <time>2026-09-01T12:00:38.924Z</time>
      </trkpt>
      <trkpt lat="45.23987" lon="4.66548">
        <ele>403.584751</ele>
        <time>2026-09-01T12:00:41.926Z</time>
      </trkpt>
      <trkpt lat="45.23984" lon="4.66563">
        <ele>403.914926</ele>
        <time>2026-09-01T12:00:44.923Z</time>
      </trkpt>
      <trkpt lat="45.23984" lon="4.66576">
        <ele>404.177346</ele>
        <time>2026-09-01T12:00:46.918Z</time>
      </trkpt>
      <trkpt lat="45.23986" lon="4.6659">
        <ele>404.475612</ele>
        <time>2026-09-01T12:00:48.925Z</time>
      </trkpt>
      <trkpt lat="45.23987" lon="4.66609">
        <ele>404.850767</ele>
        <time>2026-09-01T12:00:51.909Z</time>
      </trkpt>
      <trkpt lat="45.23986" lon="4.66624">
        <ele>405.159192</ele>
        <time>2026-09-01T12:00:53.920Z</time>
      </trkpt>
      <trkpt lat="45.23981" lon="4.66644">
        <ele>405.604408</ele>
        <time>2026-09-01T12:00:55.928Z</time>
      </trkpt>
      <trkpt lat="45.23977" lon="4.66664">
        <ele>406.037043</ele>
        <time>2026-09-01T12:00:57.930Z</time>
      </trkpt>
      <trkpt lat="45.23971" lon="4.66686">
        <ele>406.512999</ele>
        <time>2026-09-01T12:00:59.920Z</time>
      </trkpt>
      <trkpt lat="45.23966" lon="4.6671">
        <ele>407.016659</ele>
        <time>2026-09-01T12:01:01.907Z</time>
      </trkpt>
      <trkpt lat="45.23966" lon="4.6673">
        <ele>407.426155</ele>
        <time>2026-09-01T12:01:03.949Z</time>
      </trkpt>
      <trkpt lat="45.23965" lon="4.66745">
        <ele>406.861572</ele>
        <time>2026-09-01T12:01:05.917Z</time>
      </trkpt>
      <trkpt lat="45.23964" lon="4.66759">
        <ele>406.142173</ele>
        <time>2026-09-01T12:01:07.883Z</time>
      </trkpt>
      <trkpt lat="45.23966" lon="4.66772">
        <ele>405.426609</ele>
        <time>2026-09-01T12:01:09.915Z</time>
      </trkpt>
      <trkpt lat="45.23967" lon="4.66786">
        <ele>404.688743</ele>
        <time>2026-09-01T12:01:11.908Z</time>
      </trkpt>
      <trkpt lat="45.23969" lon="4.66802">
        <ele>403.818375</ele>
        <time>2026-09-01T12:01:13.923Z</time>
      </trkpt>
      <trkpt lat="45.23972" lon="4.6682">
        <ele>402.860146</ele>
        <time>2026-09-01T12:01:15.915Z</time>
      </trkpt>
      <trkpt lat="45.23972" lon="4.66836">
        <ele>401.980375</ele>
        <time>2026-09-01T12:01:17.923Z</time>
      </trkpt>
      <trkpt lat="45.2397" lon="4.66854">
        <ele>401.030339</ele>
        <time>2026-09-01T12:01:19.918Z</time>
      </trkpt>
      <trkpt lat="45.23967" lon="4.66873">
        <ele>400.015557</ele>
        <time>2026-09-01T12:01:21.927Z</time>
      </trkpt>
      <trkpt lat="45.23964" lon="4.66889">
        <ele>399.121102</ele>
        <time>2026-09-01T12:01:23.921Z</time>
      </trkpt>
      <trkpt lat="45.23962" lon="4.66902">
        <ele>398.436403</ele>
        <time>2026-09-01T12:01:25.916Z</time>
      </trkpt>
      <trkpt lat="45.23961" lon="4.66915">
        <ele>397.706864</ele>
        <time>2026-09-01T12:01:29.933Z</time>
      </trkpt>
      <trkpt lat="45.23957" lon="4.66928">
        <ele>396.992015</ele>
        <time>2026-09-01T12:01:33.916Z</time>
      </trkpt>
      <trkpt lat="45.23956" lon="4.66942">
        <ele>396.271789</ele>
        <time>2026-09-01T12:01:35.920Z</time>
      </trkpt>
      <trkpt lat="45.23953" lon="4.66956">
        <ele>395.455589</ele>
        <time>2026-09-01T12:01:37.915Z</time>
      </trkpt>
      <trkpt lat="45.23952" lon="4.66974">
        <ele>394.525101</ele>
        <time>2026-09-01T12:01:39.928Z</time>
      </trkpt>
      <trkpt lat="45.23955" lon="4.6699">
        <ele>393.693182</ele>
        <time>2026-09-01T12:01:41.920Z</time>
      </trkpt>
      <trkpt lat="45.23956" lon="4.67006">
        <ele>392.940518</ele>
        <time>2026-09-01T12:01:43.906Z</time>
      </trkpt>
      <trkpt lat="45.23956" lon="4.67023">
        <ele>392.150821</ele>
        <time>2026-09-01T12:01:45.924Z</time>
      </trkpt>
      <trkpt lat="45.23952" lon="4.67039">
        <ele>391.35542</ele>
        <time>2026-09-01T12:01:47.918Z</time>
      </trkpt>
      <trkpt lat="45.23948" lon="4.67054">
        <ele>390.594309</ele>
        <time>2026-09-01T12:01:49.919Z</time>
      </trkpt>
      <trkpt lat="45.23946" lon="4.67072">
        <ele>389.768334</ele>
        <time>2026-09-01T12:01:52.912Z</time>
      </trkpt>
      <trkpt lat="45.23946" lon="4.67088">
        <ele>389.040001</ele>
        <time>2026-09-01T12:01:55.925Z</time>
      </trkpt>
      <trkpt lat="45.23946" lon="4.67101">
        <ele>388.446272</ele>
        <time>2026-09-01T12:02:00.926Z</time>
      </trkpt>
      <trkpt lat="45.23945" lon="4.67113">
        <ele>387.850356</ele>
        <time>2026-09-01T12:02:03.926Z</time>
      </trkpt>
      <trkpt lat="45.23942" lon="4.67129">
        <ele>387.090545</ele>
        <time>2026-09-01T12:02:06.905Z</time>
      </trkpt>
      <trkpt lat="45.23939" lon="4.67147">
        <ele>386.262473</ele>
        <time>2026-09-01T12:02:09.917Z</time>
      </trkpt>
      <trkpt lat="45.23938" lon="4.67161">
        <ele>385.57366</ele>
        <time>2026-09-01T12:02:11.921Z</time>
      </trkpt>
      <trkpt lat="45.23934" lon="4.67178">
        <ele>384.761198</ele>
        <time>2026-09-01T12:02:13.927Z</time>
      </trkpt>
      <trkpt lat="45.23937" lon="4.67197">
        <ele>383.88088</ele>
        <time>2026-09-01T12:02:15.911Z</time>
      </trkpt>
      <trkpt lat="45.23938" lon="4.67216">
        <ele>382.978052</ele>
        <time>2026-09-01T12:02:17.920Z</time>
      </trkpt>
      <trkpt lat="45.23943" lon="4.67231">
        <ele>382.215933</ele>
        <time>2026-09-01T12:02:19.909Z</time>
      </trkpt>
      <trkpt lat="45.23944" lon="4.67246">
        <ele>382.644339</ele>
        <time>2026-09-01T12:02:21.921Z</time>
      </trkpt>
      <trkpt lat="45.23951" lon="4.6726">
        <ele>383.39425</ele>
        <time>2026-09-01T12:02:24.918Z</time>
      </trkpt>
      <trkpt lat="45.23958" lon="4.67272">
        <ele>384.075659</ele>
        <time>2026-09-01T12:02:28.919Z</time>
      </trkpt>
      <trkpt lat="45.23965" lon="4.6728">
        <ele>384.665202</ele>
        <time>2026-09-01T12:02:31.925Z</time>
      </trkpt>
      <trkpt lat="45.23974" lon="4.67283">
        <ele>385.232215</ele>
        <time>2026-09-01T12:02:34.906Z</time>
      </trkpt>
      <trkpt lat="45.23984" lon="4.67281">
        <ele>385.83443</ele>
        <time>2026-09-01T12:02:39.924Z</time>
      </trkpt>
      <trkpt lat="45.23993" lon="4.67286">
        <ele>386.425095</ele>
        <time>2026-09-01T12:02:43.914Z</time>
      </trkpt>
      <trkpt lat="45.24" lon="4.67295">
        <ele>386.99619</ele>
        <time>2026-09-01T12:02:46.921Z</time>
      </trkpt>
      <trkpt lat="45.24" lon="4.67311">
        <ele>387.6761</ele>
        <time>2026-09-01T12:02:49.920Z</time>
      </trkpt>
      <trkpt lat="45.24004" lon="4.67324">
        <ele>388.291408</ele>
        <time>2026-09-01T12:02:52.923Z</time>
      </trkpt>
      <trkpt lat="45.24007" lon="4.67336">
        <ele>388.85252</ele>
        <time>2026-09-01T12:02:54.926Z</time>
      </trkpt>
      <trkpt lat="45.24013" lon="4.67349">
        <ele>389.512962</ele>
        <time>2026-09-01T12:02:56.919Z</time>
      </trkpt>
      <trkpt lat="45.24017" lon="4.67363">
        <ele>390.181326</ele>
        <time>2026-09-01T12:02:58.924Z</time>
      </trkpt>
      <trkpt lat="45.24023" lon="4.67376">
        <ele>390.837443</ele>
        <time>2026-09-01T12:03:00.920Z</time>
      </trkpt>
      <trkpt lat="45.24027" lon="4.67394">
        <ele>391.633417</ele>
        <time>2026-09-01T12:03:03.917Z</time>
      </trkpt>
      <trkpt lat="45.24035" lon="4.67408">
        <ele>392.409575</ele>
        <time>2026-09-01T12:03:06.924Z</time>
      </trkpt>
      <trkpt lat="45.24046" lon="4.67416">
        <ele>393.173725</ele>
        <time>2026-09-01T12:03:09.918Z</time>
      </trkpt>
      <trkpt lat="45.24057" lon="4.67422">
        <ele>394.390894</ele>
        <time>2026-09-01T12:03:12.918Z</time>
      </trkpt>
      <trkpt lat="45.24068" lon="4.6743">
        <ele>395.694283</ele>
        <time>2026-09-01T12:03:15.921Z</time>
      </trkpt>
      <trkpt lat="45.24081" lon="4.67432">
        <ele>397.127163</ele>
        <time>2026-09-01T12:03:18.918Z</time>
      </trkpt>
      <trkpt lat="45.24092" lon="4.67435">
        <ele>398.260204</ele>
        <time>2026-09-01T12:03:20.915Z</time>
      </trkpt>
      <trkpt lat="45.24105" lon="4.67437">
        <ele>399.629966</ele>
        <time>2026-09-01T12:03:23.921Z</time>
      </trkpt>
      <trkpt lat="45.24114" lon="4.67438">
        <ele>400.570609</ele>
        <time>2026-09-01T12:03:25.928Z</time>
      </trkpt>
      <trkpt lat="45.24127" lon="4.67436">
        <ele>401.91259</ele>
        <time>2026-09-01T12:03:28.929Z</time>
      </trkpt>
      <trkpt lat="45.24136" lon="4.67433">
        <ele>402.907764</ele>
        <time>2026-09-01T12:03:30.925Z</time>
      </trkpt>
      <trkpt lat="45.24148" lon="4.67428">
        <ele>404.234914</ele>
        <time>2026-09-01T12:03:33.923Z</time>
      </trkpt>
      <trkpt lat="45.24158" lon="4.67426">
        <ele>405.238389</ele>
        <time>2026-09-01T12:03:35.921Z</time>
      </trkpt>
      <trkpt lat="45.24167" lon="4.67427">
        <ele>406.232352</ele>
        <time>2026-09-01T12:03:38.921Z</time>
      </trkpt>
      <trkpt lat="45.24178" lon="4.67429">
        <ele>407.337431</ele>
        <time>2026-09-01T12:03:41.921Z</time>
      </trkpt>
      <trkpt lat="45.24187" lon="4.67434">
        <ele>408.374786</ele>
        <time>2026-09-01T12:03:44.923Z</time>
      </trkpt>
      <trkpt lat="45.24196" lon="4.67432">
        <ele>409.35362</ele>
        <time>2026-09-01T12:03:46.921Z</time>
      </trkpt>
      <trkpt lat="45.24209" lon="4.67431">
        <ele>410.706015</ele>
        <time>2026-09-01T12:03:49.919Z</time>
      </trkpt>
      <trkpt lat="45.24219" lon="4.67431">
        <ele>411.677857</ele>
        <time>2026-09-01T12:03:51.913Z</time>
      </trkpt>
      <trkpt lat="45.24232" lon="4.67432">
        <ele>412.577089</ele>
        <time>2026-09-01T12:03:54.931Z</time>
      </trkpt>
      <trkpt lat="45.24241" lon="4.67432">
        <ele>413.110997</ele>
        <time>2026-09-01T12:03:56.921Z</time>
      </trkpt>
      <trkpt lat="45.24252" lon="4.67434">
        <ele>413.760015</ele>
        <time>2026-09-01T12:03:59.927Z</time>
      </trkpt>
      <trkpt lat="45.24264" lon="4.67436">
        <ele>414.481356</ele>
        <time>2026-09-01T12:04:02.921Z</time>
      </trkpt>
      <trkpt lat="45.24276" lon="4.67434">
        <ele>415.20753</ele>
        <time>2026-09-01T12:04:05.924Z</time>
      </trkpt>
      <trkpt lat="45.24289" lon="4.67429">
        <ele>415.965982</ele>
        <time>2026-09-01T12:04:07.921Z</time>
      </trkpt>
      <trkpt lat="45.243" lon="4.6742">
        <ele>416.736149</ele>
        <time>2026-09-01T12:04:10.919Z</time>
      </trkpt>
      <trkpt lat="45.24311" lon="4.67417">
        <ele>417.357028</ele>
        <time>2026-09-01T12:04:13.908Z</time>
      </trkpt>
      <trkpt lat="45.24322" lon="4.67415">
        <ele>418.015605</ele>
        <time>2026-09-01T12:04:16.920Z</time>
      </trkpt>
      <trkpt lat="45.24333" lon="4.67413">
        <ele>418.69518</ele>
        <time>2026-09-01T12:04:19.925Z</time>
      </trkpt>
      <trkpt lat="45.24344" lon="4.67406">
        <ele>419.377302</ele>
        <time>2026-09-01T12:04:22.903Z</time>
      </trkpt>
      <trkpt lat="45.24353" lon="4.67398">
        <ele>420.01483</ele>
        <time>2026-09-01T12:04:25.921Z</time>
      </trkpt>
      <trkpt lat="45.24364" lon="4.67394">
        <ele>420.688604</ele>
        <time>2026-09-01T12:04:28.915Z</time>
      </trkpt>
      <trkpt lat="45.24375" lon="4.6739">
        <ele>421.309276</ele>
        <time>2026-09-01T12:04:30.919Z</time>
      </trkpt>
      <trkpt lat="45.24385" lon="4.67387">
        <ele>421.924394</ele>
        <time>2026-09-01T12:04:33.901Z</time>
      </trkpt>
      <trkpt lat="45.24398" lon="4.67381">
        <ele>422.371426</ele>
        <time>2026-09-01T12:04:36.916Z</time>
      </trkpt>
      <trkpt lat="45.24407" lon="4.67378">
        <ele>421.997268</ele>
        <time>2026-09-01T12:04:38.919Z</time>
      </trkpt>
      <trkpt lat="45.24419" lon="4.67374">
        <ele>421.532535</ele>
        <time>2026-09-01T12:04:41.918Z</time>
      </trkpt>
      <trkpt lat="45.2443" lon="4.67378">
        <ele>421.069285</ele>
        <time>2026-09-01T12:04:44.929Z</time>
      </trkpt>
      <trkpt lat="45.24441" lon="4.67379">
        <ele>420.657401</ele>
        <time>2026-09-01T12:04:47.904Z</time>
      </trkpt>
      <trkpt lat="45.24452" lon="4.67385">
        <ele>420.203412</ele>
        <time>2026-09-01T12:04:51.934Z</time>
      </trkpt>
      <trkpt lat="45.24463" lon="4.67385">
        <ele>419.776141</ele>
        <time>2026-09-01T12:04:54.912Z</time>
      </trkpt>
      <trkpt lat="45.24471" lon="4.67393">
        <ele>419.383492</ele>
        <time>2026-09-01T12:04:57.920Z</time>
      </trkpt>
      <trkpt lat="45.24476" lon="4.67403">
        <ele>419.034659</ele>
        <time>2026-09-01T12:05:00.930Z</time>
      </trkpt>
      <trkpt lat="45.24482" lon="4.67416">
        <ele>418.632947</ele>
        <time>2026-09-01T12:05:04.924Z</time>
      </trkpt>
      <trkpt lat="45.24484" lon="4.67429">
        <ele>418.258472</ele>
        <time>2026-09-01T12:05:09.927Z</time>
      </trkpt>
      <trkpt lat="45.24482" lon="4.67442">
        <ele>417.898267</ele>
        <time>2026-09-01T12:05:13.925Z</time>
      </trkpt>
      <trkpt lat="45.2448" lon="4.67457">
        <ele>417.48476</ele>
        <time>2026-09-01T12:05:17.917Z</time>
      </trkpt>
      <trkpt lat="45.24483" lon="4.67472">
        <ele>417.059428</ele>
        <time>2026-09-01T12:05:20.927Z</time>
      </trkpt>
      <trkpt lat="45.24486" lon="4.67486">
        <ele>416.646749</ele>
        <time>2026-09-01T12:05:23.921Z</time>
      </trkpt>
      <trkpt lat="45.24484" lon="4.67501">
        <ele>416.221698</ele>
        <time>2026-09-01T12:05:28.917Z</time>
      </trkpt>
      <trkpt lat="45.24478" lon="4.67513">
        <ele>415.832662</ele>
        <time>2026-09-01T12:05:32.921Z</time>
      </trkpt>
      <trkpt lat="45.24475" lon="4.67527">
        <ele>415.678859</ele>
        <time>2026-09-01T12:05:37.923Z</time>
      </trkpt>
      <trkpt lat="45.24469" lon="4.67539">
        <ele>416.224514</ele>
        <time>2026-09-01T12:05:41.925Z</time>
      </trkpt>
      <trkpt lat="45.24464" lon="4.67552">
        <ele>416.816692</ele>
        <time>2026-09-01T12:05:46.916Z</time>
      </trkpt>
      <trkpt lat="45.24452" lon="4.67558">
        <ele>417.548812</ele>
        <time>2026-09-01T12:05:49.919Z</time>
      </trkpt>
      <trkpt lat="45.24442" lon="4.67565">
        <ele>418.163975</ele>
        <time>2026-09-01T12:05:52.925Z</time>
      </trkpt>
      <trkpt lat="45.24432" lon="4.6757">
        <ele>418.781065</ele>
        <time>2026-09-01T12:05:55.906Z</time>
      </trkpt>
      <trkpt lat="45.24422" lon="4.67572">
        <ele>419.338267</ele>
        <time>2026-09-01T12:05:58.917Z</time>
      </trkpt>
      <trkpt lat="45.24413" lon="4.67573">
        <ele>419.852984</ele>
        <time>2026-09-01T12:06:01.920Z</time>
      </trkpt>
      <trkpt lat="45.24402" lon="4.67574">
        <ele>420.436541</ele>
        <time>2026-09-01T12:06:04.915Z</time>
      </trkpt>
      <trkpt lat="45.24391" lon="4.67575">
        <ele>421.054674</ele>
        <time>2026-09-01T12:06:07.918Z</time>
      </trkpt>
      <trkpt lat="45.24381" lon="4.67574">
        <ele>421.63423</ele>
        <time>2026-09-01T12:06:11.929Z</time>
      </trkpt>
      <trkpt lat="45.24372" lon="4.6757">
        <ele>422.144639</ele>
        <time>2026-09-01T12:06:14.922Z</time>
      </trkpt>
      <trkpt lat="45.24362" lon="4.67569">
        <ele>422.747602</ele>
        <time>2026-09-01T12:06:17.921Z</time>
      </trkpt>
      <trkpt lat="45.24351" lon="4.67566">
        <ele>423.372321</ele>
        <time>2026-09-01T12:06:20.929Z</time>
      </trkpt>
      <trkpt lat="45.24339" lon="4.67564">
        <ele>424.024156</ele>
        <time>2026-09-01T12:06:23.929Z</time>
      </trkpt>
      <trkpt lat="45.24328" lon="4.67564">
        <ele>424.641343</ele>
        <time>2026-09-01T12:06:26.916Z</time>
      </trkpt>
      <trkpt lat="45.24317" lon="4.67562">
        <ele>425.252648</ele>
        <time>2026-09-01T12:06:29.921Z</time>
      </trkpt>
      <trkpt lat="45.24305" lon="4.67562">
        <ele>425.777737</ele>
        <time>2026-09-01T12:06:32.928Z</time>
      </trkpt>
      <trkpt lat="45.24294" lon="4.67565">
        <ele>426.139485</ele>
        <time>2026-09-01T12:06:35.937Z</time>
      </trkpt>
      <trkpt lat="45.24282" lon="4.67572">
        <ele>426.521359</ele>
        <time>2026-09-01T12:06:38.918Z</time>
      </trkpt>
      <trkpt lat="45.24271" lon="4.67578">
        <ele>426.881143</ele>
        <time>2026-09-01T12:06:41.916Z</time>
      </trkpt>
      <trkpt lat="45.2426" lon="4.67585">
        <ele>427.24754</ele>
        <time>2026-09-01T12:06:44.921Z</time>
      </trkpt>
      <trkpt lat="45.24249" lon="4.6759">
        <ele>427.59453</ele>
        <time>2026-09-01T12:06:47.906Z</time>
      </trkpt>
      <trkpt lat="45.24238" lon="4.67593">
        <ele>427.93254</ele>
        <time>2026-09-01T12:06:50.928Z</time>
      </trkpt>
      <trkpt lat="45.24227" lon="4.67597">
        <ele>428.261434</ele>
        <time>2026-09-01T12:06:53.923Z</time>
      </trkpt>
      <trkpt lat="45.24218" lon="4.67602">
        <ele>428.56024</ele>
        <time>2026-09-01T12:06:56.915Z</time>
      </trkpt>
      <trkpt lat="45.24208" lon="4.67608">
        <ele>428.901783</ele>
        <time>2026-09-01T12:06:59.925Z</time>
      </trkpt>
      <trkpt lat="45.24196" lon="4.67613">
        <ele>429.262901</ele>
        <time>2026-09-01T12:07:02.922Z</time>
      </trkpt>
      <trkpt lat="45.24184" lon="4.67619">
        <ele>429.64681</ele>
        <time>2026-09-01T12:07:05.927Z</time>
      </trkpt>
      <trkpt lat="45.24174" lon="4.67625">
        <ele>429.986936</ele>
        <time>2026-09-01T12:07:08.916Z</time>
      </trkpt>
      <trkpt lat="45.24166" lon="4.67632">
        <ele>430.258934</ele>
        <time>2026-09-01T12:07:10.930Z</time>
      </trkpt>
      <trkpt lat="45.24159" lon="4.67643">
        <ele>430.57196</ele>
        <time>2026-09-01T12:07:13.920Z</time>
      </trkpt>
      <trkpt lat="45.24152" lon="4.67655">
        <ele>430.899379</ele>
        <time>2026-09-01T12:07:16.918Z</time>
      </trkpt>
      <trkpt lat="45.24147" lon="4.67668">
        <ele>431.212153</ele>
        <time>2026-09-01T12:07:20.922Z</time>
      </trkpt>
      <trkpt lat="45.24141" lon="4.67683">
        <ele>431.522485</ele>
        <time>2026-09-01T12:07:24.921Z</time>
      </trkpt>
      <trkpt lat="45.24139" lon="4.67696">
        <ele>431.789066</ele>
        <time>2026-09-01T12:07:27.928Z</time>
      </trkpt>
      <trkpt lat="45.24134" lon="4.67709">
        <ele>432.062528</ele>
        <time>2026-09-01T12:07:31.921Z</time>
      </trkpt>
      <trkpt lat="45.24129" lon="4.67723">
        <ele>432.34892</ele>
        <time>2026-09-01T12:07:36.921Z</time>
      </trkpt>
      <trkpt lat="45.24124" lon="4.67736">
        <ele>432.634991</ele>
        <time>2026-09-01T12:07:40.931Z</time>
      </trkpt>
      <trkpt lat="45.24116" lon="4.67747">
        <ele>432.928859</ele>
        <time>2026-09-01T12:07:43.916Z</time>
      </trkpt>
      <trkpt lat="45.24108" lon="4.67755">
        <ele>433.212797</ele>
        <time>2026-09-01T12:07:46.921Z</time>
      </trkpt>
      <trkpt lat="45.24103" lon="4.67766">
        <ele>433.461814</ele>
        <time>2026-09-01T12:07:49.916Z</time>
      </trkpt>
      <trkpt lat="45.24096" lon="4.67779">
        <ele>433.774944</ele>
        <time>2026-09-01T12:07:52.921Z</time>
      </trkpt>
      <trkpt lat="45.24092" lon="4.67795">
        <ele>434.088588</ele>
        <time>2026-09-01T12:07:55.926Z</time>
      </trkpt>
      <trkpt lat="45.24089" lon="4.6781">
        <ele>434.385153</ele>
        <time>2026-09-01T12:07:57.921Z</time>
      </trkpt>
      <trkpt lat="45.24086" lon="4.67823">
        <ele>434.645018</ele>
        <time>2026-09-01T12:07:59.923Z</time>
      </trkpt>
      <trkpt lat="45.24082" lon="4.67838">
        <ele>434.955908</ele>
        <time>2026-09-01T12:08:01.919Z</time>
      </trkpt>
      <trkpt lat="45.24077" lon="4.67855">
        <ele>435.307839</ele>
        <time>2026-09-01T12:08:03.923Z</time>
      </trkpt>
      <trkpt lat="45.24071" lon="4.67869">
        <ele>435.609776</ele>
        <time>2026-09-01T12:08:05.920Z</time>
      </trkpt>
      <trkpt lat="45.24066" lon="4.67885">
        <ele>435.860602</ele>
        <time>2026-09-01T12:08:07.920Z</time>
      </trkpt>
      <trkpt lat="45.24063" lon="4.67903">
        <ele>435.60869</ele>
        <time>2026-09-01T12:08:09.921Z</time>
      </trkpt>
      <trkpt lat="45.24061" lon="4.67925">
        <ele>435.309916</ele>
        <time>2026-09-01T12:08:11.926Z</time>
      </trkpt>
      <trkpt lat="45.24059" lon="4.67947">
        <ele>435.005616</ele>
        <time>2026-09-01T12:08:13.921Z</time>
      </trkpt>
      <trkpt lat="45.24059" lon="4.67969">
        <ele>434.721359</ele>
        <time>2026-09-01T12:08:15.920Z</time>
      </trkpt>
      <trkpt lat="45.24058" lon="4.67989">
        <ele>434.449167</ele>
        <time>2026-09-01T12:08:17.927Z</time>
      </trkpt>
      <trkpt lat="45.24059" lon="4.68008">
        <ele>434.19118</ele>
        <time>2026-09-01T12:08:19.906Z</time>
      </trkpt>
      <trkpt lat="45.24058" lon="4.68027">
        <ele>433.938844</ele>
        <time>2026-09-01T12:08:21.928Z</time>
      </trkpt>
      <trkpt lat="45.24058" lon="4.68046">
        <ele>433.680023</ele>
        <time>2026-09-01T12:08:23.920Z</time>
      </trkpt>
      <trkpt lat="45.24058" lon="4.68064">
        <ele>433.434605</ele>
        <time>2026-09-01T12:08:25.916Z</time>
      </trkpt>
      <trkpt lat="45.24056" lon="4.68082">
        <ele>433.191115</ele>
        <time>2026-09-01T12:08:27.916Z</time>
      </trkpt>
      <trkpt lat="45.24055" lon="4.681">
        <ele>432.960009</ele>
        <time>2026-09-01T12:08:29.926Z</time>
      </trkpt>
      <trkpt lat="45.24055" lon="4.68119">
        <ele>432.705245</ele>
        <time>2026-09-01T12:08:31.895Z</time>
      </trkpt>
      <trkpt lat="45.24053" lon="4.68137">
        <ele>432.501909</ele>
        <time>2026-09-01T12:08:33.921Z</time>
      </trkpt>
      <trkpt lat="45.24049" lon="4.68157">
        <ele>433.208615</ele>
        <time>2026-09-01T12:08:35.922Z</time>
      </trkpt>
      <trkpt lat="45.24048" lon="4.68174">
        <ele>433.800925</ele>
        <time>2026-09-01T12:08:37.930Z</time>
      </trkpt>
      <trkpt lat="45.24045" lon="4.6819">
        <ele>434.352316</ele>
        <time>2026-09-01T12:08:39.922Z</time>
      </trkpt>
      <trkpt lat="45.24044" lon="4.68206">
        <ele>434.894465</ele>
        <time>2026-09-01T12:08:41.920Z</time>
      </trkpt>
      <trkpt lat="45.24043" lon="4.68221">
        <ele>435.403576</ele>
        <time>2026-09-01T12:08:43.928Z</time>
      </trkpt>
      <trkpt lat="45.24039" lon="4.68236">
        <ele>435.959868</ele>
        <time>2026-09-01T12:08:45.916Z</time>
      </trkpt>
      <trkpt lat="45.24036" lon="4.68256">
        <ele>436.652032</ele>
        <time>2026-09-01T12:08:48.920Z</time>
      </trkpt>
      <trkpt lat="45.24031" lon="4.6827">
        <ele>437.174996</ele>
        <time>2026-09-01T12:08:51.920Z</time>
      </trkpt>
      <trkpt lat="45.24027" lon="4.68282">
        <ele>437.644278</ele>
        <time>2026-09-01T12:08:54.956Z</time>
      </trkpt>
      <trkpt lat="45.24026" lon="4.683">
        <ele>438.266444</ele>
        <time>2026-09-01T12:08:57.916Z</time>
      </trkpt>
      <trkpt lat="45.24027" lon="4.68319">
        <ele>438.91694</ele>
        <time>2026-09-01T12:09:00.921Z</time>
      </trkpt>
      <trkpt lat="45.24025" lon="4.68333">
        <ele>439.395727</ele>
        <time>2026-09-01T12:09:02.921Z</time>
      </trkpt>
      <trkpt lat="45.24025" lon="4.68347">
        <ele>439.892128</ele>
        <time>2026-09-01T12:09:04.916Z</time>
      </trkpt>
      <trkpt lat="45.24021" lon="4.6836">
        <ele>440.36778</ele>
        <time>2026-09-01T12:09:06.915Z</time>
      </trkpt>
      <trkpt lat="45.24018" lon="4.68372">
        <ele>440.811678</ele>
        <time>2026-09-01T12:09:08.927Z</time>
      </trkpt>
      <trkpt lat="45.24012" lon="4.6839">
        <ele>441.06837</ele>
        <time>2026-09-01T12:09:11.904Z</time>
      </trkpt>
      <trkpt lat="45.2401" lon="4.68407">
        <ele>440.807059</ele>
        <time>2026-09-01T12:09:13.920Z</time>
      </trkpt>
      <trkpt lat="45.2401" lon="4.68425">
        <ele>440.540574</ele>
        <time>2026-09-01T12:09:15.917Z</time>
      </trkpt>
      <trkpt lat="45.24007" lon="4.68444">
        <ele>440.252928</ele>
        <time>2026-09-01T12:09:17.921Z</time>
      </trkpt>
      <trkpt lat="45.24005" lon="4.68465">
        <ele>439.936596</ele>
        <time>2026-09-01T12:09:19.919Z</time>
      </trkpt>
      <trkpt lat="45.24003" lon="4.68485">
        <ele>439.629762</ele>
        <time>2026-09-01T12:09:21.916Z</time>
      </trkpt>
      <trkpt lat="45.23999" lon="4.68504">
        <ele>439.330038</ele>
        <time>2026-09-01T12:09:23.922Z</time>
      </trkpt>
      <trkpt lat="45.23991" lon="4.68523">
        <ele>439.009685</ele>
        <time>2026-09-01T12:09:25.926Z</time>
      </trkpt>
      <trkpt lat="45.23988" lon="4.68542">
        <ele>438.722933</ele>
        <time>2026-09-01T12:09:27.914Z</time>
      </trkpt>
      <trkpt lat="45.23986" lon="4.6856">
        <ele>438.446141</ele>
        <time>2026-09-01T12:09:29.915Z</time>
      </trkpt>
      <trkpt lat="45.23982" lon="4.68576">
        <ele>438.190574</ele>
        <time>2026-09-01T12:09:31.919Z</time>
      </trkpt>
      <trkpt lat="45.23978" lon="4.68591">
        <ele>437.946998</ele>
        <time>2026-09-01T12:09:33.915Z</time>
      </trkpt>
      <trkpt lat="45.23975" lon="4.68606">
        <ele>437.714303</ele>
        <time>2026-09-01T12:09:35.923Z</time>
      </trkpt>
      <trkpt lat="45.23973" lon="4.68621">
        <ele>437.48356</ele>
        <time>2026-09-01T12:09:37.916Z</time>
      </trkpt>
      <trkpt lat="45.2397" lon="4.68635">
        <ele>437.230286</ele>
        <time>2026-09-01T12:09:39.915Z</time>
      </trkpt>
      <trkpt lat="45.23968" lon="4.6865">
        <ele>436.920958</ele>
        <time>2026-09-01T12:09:41.929Z</time>
      </trkpt>
      <trkpt lat="45.23964" lon="4.68665">
        <ele>436.59515</ele>
        <time>2026-09-01T12:09:43.918Z</time>
      </trkpt>
      <trkpt lat="45.2396" lon="4.68682">
        <ele>436.229523</ele>
        <time>2026-09-01T12:09:45.922Z</time>
      </trkpt>
      <trkpt lat="45.23956" lon="4.68698">
        <ele>435.896783</ele>
        <time>2026-09-01T12:09:47.917Z</time>
      </trkpt>
      <trkpt lat="45.23953" lon="4.68715">
        <ele>435.540788</ele>
        <time>2026-09-01T12:09:49.916Z</time>
      </trkpt>
      <trkpt lat="45.2395" lon="4.68732">
        <ele>435.188599</ele>
        <time>2026-09-01T12:09:51.957Z</time>
      </trkpt>
      <trkpt lat="45.23948" lon="4.68747">
        <ele>434.857649</ele>
        <time>2026-09-01T12:09:53.921Z</time>
      </trkpt>
      <trkpt lat="45.23946" lon="4.68765">
        <ele>434.487495</ele>
        <time>2026-09-01T12:09:55.919Z</time>
      </trkpt>
      <trkpt lat="45.23943" lon="4.68782">
        <ele>434.142739</ele>
        <time>2026-09-01T12:09:57.914Z</time>
      </trkpt>
      <trkpt lat="45.23939" lon="4.68799">
        <ele>433.773532</ele>
        <time>2026-09-01T12:09:59.915Z</time>
      </trkpt>
      <trkpt lat="45.23935" lon="4.68817">
        <ele>433.406269</ele>
        <time>2026-09-01T12:10:01.922Z</time>
      </trkpt>
      <trkpt lat="45.23931" lon="4.68834">
        <ele>433.033551</ele>
        <time>2026-09-01T12:10:03.918Z</time>
      </trkpt>
      <trkpt lat="45.23927" lon="4.68852">
        <ele>432.644437</ele>
        <time>2026-09-01T12:10:05.916Z</time>
      </trkpt>
      <trkpt lat="45.23925" lon="4.68874">
        <ele>432.2027</ele>
        <time>2026-09-01T12:10:07.923Z</time>
      </trkpt>
      <trkpt lat="45.23923" lon="4.68898">
        <ele>432.184539</ele>
        <time>2026-09-01T12:10:09.914Z</time>
      </trkpt>
      <trkpt lat="45.2392" lon="4.68911">
        <ele>432.184539</ele>
        <time>2026-09-01T12:10:10.923Z</time>
      </trkpt>
      <trkpt lat="45.23918" lon="4.68934">
        <ele>432.184539</ele>
        <time>2026-09-01T12:10:12.925Z</time>
      </trkpt>
      <trkpt lat="45.23916" lon="4.68955">
        <ele>432.184539</ele>
        <time>2026-09-01T12:10:14.920Z</time>
      </trkpt>
      <trkpt lat="45.23913" lon="4.68972">
        <ele>432.184539</ele>
        <time>2026-09-01T12:10:16.932Z</time>
      </trkpt>
      <trkpt lat="45.2391" lon="4.68988">
        <ele>432.184539</ele>
        <time>2026-09-01T12:10:18.922Z</time>
      </trkpt>
      <trkpt lat="45.23902" lon="4.69001">
        <ele>432.184539</ele>
        <time>2026-09-01T12:10:20.917Z</time>
      </trkpt>
      <trkpt lat="45.23891" lon="4.69012">
        <ele>432.184539</ele>
        <time>2026-09-01T12:10:22.927Z</time>
      </trkpt>
      <trkpt lat="45.23883" lon="4.6902">
        <ele>432.184539</ele>
        <time>2026-09-01T12:10:24.923Z</time>
      </trkpt>
      <trkpt lat="45.23879" lon="4.69036">
        <ele>432.184539</ele>
        <time>2026-09-01T12:10:26.919Z</time>
      </trkpt>
      <trkpt lat="45.23883" lon="4.69053">
        <ele>432.184539</ele>
        <time>2026-09-01T12:10:28.929Z</time>
      </trkpt>
      <trkpt lat="45.2389" lon="4.69065">
        <ele>432.184539</ele>
        <time>2026-09-01T12:10:31.917Z</time>
      </trkpt>
      <trkpt lat="45.23899" lon="4.69074">
        <ele>432.184539</ele>
        <time>2026-09-01T12:10:34.927Z</time>
      </trkpt>
      <trkpt lat="45.23906" lon="4.69085">
        <ele>432.184539</ele>
        <time>2026-09-01T12:10:37.914Z</time>
      </trkpt>
      <trkpt lat="45.23914" lon="4.69098">
        <ele>432.184539</ele>
        <time>2026-09-01T12:10:40.925Z</time>
      </trkpt>
      <trkpt lat="45.23923" lon="4.69097">
        <ele>432.184539</ele>
        <time>2026-09-01T12:10:43.928Z</time>
      </trkpt>
      <trkpt lat="45.23932" lon="4.69106">
        <ele>432.184539</ele>
        <time>2026-09-01T12:10:46.924Z</time>
      </trkpt>
      <trkpt lat="45.2394" lon="4.69117">
        <ele>432.184539</ele>
        <time>2026-09-01T12:10:49.905Z</time>
      </trkpt>
      <trkpt lat="45.23949" lon="4.69127">
        <ele>432.184539</ele>
        <time>2026-09-01T12:10:52.921Z</time>
      </trkpt>
      <trkpt lat="45.23952" lon="4.6914">
        <ele>432.184539</ele>
        <time>2026-09-01T12:10:56.927Z</time>
      </trkpt>
      <trkpt lat="45.2396" lon="4.69151">
        <ele>432.184539</ele>
        <time>2026-09-01T12:11:41.917Z</time>
      </trkpt>
    </trkseg>
  </trk>
</gpx>